<?xml version='1.0' encoding='UTF-8'?><gpx version="1.1" creator="JPX - https://github.com/jenetics/jpx" xmlns="http://www.topografix.com/GPX/1/1"><trk><trkseg><trkpt lat="47.28699485469741" lon="8.713470962840736"><ele>485.0</ele><time>2026-04-25T17:54:47.2Z</time></trkpt><trkpt lat="47.28709457781526" lon="8.713425628655433"><ele>485.0</ele><time>2026-04-25T17:54:49.102Z</time></trkpt><trkpt lat="47.28720923744787" lon="8.713388181279758"><ele>485.0</ele><time>2026-04-25T17:54:51.004Z</time></trkpt><trkpt lat="47.28727721633745" lon="8.713364314847436"><ele>485.0</ele><time>2026-04-25T17:54:52.99Z</time></trkpt><trkpt lat="47.28723563134138" lon="8.713166030447354"><ele>485.0</ele><time>2026-04-25T17:54:53.991Z</time></trkpt><trkpt lat="47.28720088169994" lon="8.713071836065634"><ele>485.0</ele><time>2026-04-25T17:54:54.992Z</time></trkpt><trkpt lat="47.287142397891486" lon="8.713027432601645"><ele>485.0</ele><time>2026-04-25T17:54:55.992Z</time></trkpt><trkpt lat="47.28703727951991" lon="8.712924116584794"><ele>485.0</ele><time>2026-04-25T17:54:57.993Z</time></trkpt><trkpt lat="47.28698772414502" lon="8.712764459037347"><ele>485.0</ele><time>2026-04-25T17:54:59.994Z</time></trkpt><trkpt lat="47.28696856844818" lon="8.71258785778801"><ele>485.0</ele><time>2026-04-25T17:55:01.995Z</time></trkpt><trkpt lat="47.28695099838614" lon="8.712492078355654"><ele>485.00000000000006</ele><time>2026-04-25T17:55:02.995Z</time></trkpt><trkpt lat="47.28693592649433" lon="8.71239336798696"><ele>485.0</ele><time>2026-04-25T17:55:03.996Z</time></trkpt><trkpt lat="47.28693285313816" lon="8.712293518337033"><ele>485.00000000000006</ele><time>2026-04-25T17:55:04.996Z</time></trkpt><trkpt lat="47.28693435472853" lon="8.712190729661303"><ele>485.00000000000006</ele><time>2026-04-25T17:55:05.996Z</time></trkpt><trkpt lat="47.28694510340579" lon="8.71208519719614"><ele>485.0</ele><time>2026-04-25T17:55:06.996Z</time></trkpt><trkpt lat="47.28696118558209" lon="8.711979883418213"><ele>485.00000000000006</ele><time>2026-04-25T17:55:07.997Z</time></trkpt><trkpt lat="47.28697336608283" lon="8.711884730257177"><ele>485.00000000000006</ele><time>2026-04-25T17:55:08.997Z</time></trkpt><trkpt lat="47.28699378451952" lon="8.711780415385403"><ele>484.8</ele><time>2026-04-25T17:55:10.997Z</time></trkpt><trkpt lat="47.287078891295266" lon="8.711694440259665"><ele>484.6</ele><time>2026-04-25T17:55:12.998Z</time></trkpt><trkpt lat="47.28713235866053" lon="8.71156902704913"><ele>484.4</ele><time>2026-04-25T17:55:14.998Z</time></trkpt><trkpt lat="47.28713239576852" lon="8.71142372380955"><ele>484.2</ele><time>2026-04-25T17:55:16.998Z</time></trkpt><trkpt lat="47.2871169046272" lon="8.711289899743248"><ele>484.0</ele><time>2026-04-25T17:55:18.999Z</time></trkpt><trkpt lat="47.28715553420024" lon="8.711170923228474"><ele>483.83333333333337</ele><time>2026-04-25T17:55:20.999Z</time></trkpt><trkpt lat="47.28717037828194" lon="8.711030963859967"><ele>483.6666666666667</ele><time>2026-04-25T17:55:22.999Z</time></trkpt><trkpt lat="47.28717756597836" lon="8.710912170310904"><ele>483.5</ele><time>2026-04-25T17:55:24.999Z</time></trkpt><trkpt lat="47.28719927102842" lon="8.710814873917794"><ele>483.33333333333337</ele><time>2026-04-25T17:55:26.999Z</time></trkpt><trkpt lat="47.28723467954426" lon="8.710684694467833"><ele>483.1666666666667</ele><time>2026-04-25T17:55:29Z</time></trkpt><trkpt lat="47.28727966045182" lon="8.710543730490004"><ele>483.0</ele><time>2026-04-25T17:55:31Z</time></trkpt><trkpt lat="47.28732004761675" lon="8.71043923062175"><ele>483.0</ele><time>2026-04-25T17:55:33Z</time></trkpt><trkpt lat="47.287361386415824" lon="8.71034725220578"><ele>483.0</ele><time>2026-04-25T17:55:35Z</time></trkpt><trkpt lat="47.28740989415261" lon="8.710242206512252"><ele>483.0</ele><time>2026-04-25T17:55:38Z</time></trkpt><trkpt lat="47.287451961980395" lon="8.710146123986918"><ele>483.0</ele><time>2026-04-25T17:55:40Z</time></trkpt><trkpt lat="47.28751337226014" lon="8.7100395021425"><ele>483.0</ele><time>2026-04-25T17:55:42Z</time></trkpt><trkpt lat="47.287588142508824" lon="8.70993032761025"><ele>483.0</ele><time>2026-04-25T17:55:44Z</time></trkpt><trkpt lat="47.28767121009541" lon="8.709816659065112"><ele>483.75</ele><time>2026-04-25T17:55:46Z</time></trkpt><trkpt lat="47.287760734752794" lon="8.7097026903429"><ele>484.5</ele><time>2026-04-25T17:55:48Z</time></trkpt><trkpt lat="47.28784745498112" lon="8.709582190603962"><ele>485.25</ele><time>2026-04-25T17:55:50Z</time></trkpt><trkpt lat="47.28794712259783" lon="8.709465932404974"><ele>486.0</ele><time>2026-04-25T17:55:52Z</time></trkpt><trkpt lat="47.28804150639613" lon="8.709345529414668"><ele>486.1666666666667</ele><time>2026-04-25T17:55:54Z</time></trkpt><trkpt lat="47.288140284365944" lon="8.70922858488355"><ele>486.33333333333337</ele><time>2026-04-25T17:55:56Z</time></trkpt><trkpt lat="47.28819007443941" lon="8.7091681265362"><ele>486.5</ele><time>2026-04-25T17:55:57Z</time></trkpt><trkpt lat="47.28823983944894" lon="8.70911017153373"><ele>486.6666666666667</ele><time>2026-04-25T17:55:58Z</time></trkpt><trkpt lat="47.28829215028842" lon="8.709055668453395"><ele>486.83333333333337</ele><time>2026-04-25T17:55:59Z</time></trkpt><trkpt lat="47.28838676010595" lon="8.708951431210448"><ele>487.0</ele><time>2026-04-25T17:56:01.001Z</time></trkpt><trkpt lat="47.288475240875385" lon="8.708853480207964"><ele>487.0</ele><time>2026-04-25T17:56:03.001Z</time></trkpt><trkpt lat="47.28856196580082" lon="8.708753810952071"><ele>487.00000000000006</ele><time>2026-04-25T17:56:05.001Z</time></trkpt><trkpt lat="47.28864801765488" lon="8.708653742036622"><ele>487.00000000000006</ele><time>2026-04-25T17:56:07.001Z</time></trkpt><trkpt lat="47.28873228647742" lon="8.708562948857004"><ele>487.0</ele><time>2026-04-25T17:56:09.001Z</time></trkpt><trkpt lat="47.288823015206724" lon="8.708452672527152"><ele>487.0</ele><time>2026-04-25T17:56:11.001Z</time></trkpt><trkpt lat="47.288918753478306" lon="8.708347809829496"><ele>487.7142857142857</ele><time>2026-04-25T17:56:13.001Z</time></trkpt><trkpt lat="47.28901978615752" lon="8.708239654572502"><ele>488.42857142857144</ele><time>2026-04-25T17:56:15.001Z</time></trkpt><trkpt lat="47.289073229693095" lon="8.708186052133023"><ele>489.14285714285717</ele><time>2026-04-25T17:56:16.001Z</time></trkpt><trkpt lat="47.28912668934617" lon="8.708134199547544"><ele>489.8571428571429</ele><time>2026-04-25T17:56:17.001Z</time></trkpt><trkpt lat="47.28918246122878" lon="8.708082171585824"><ele>490.57142857142856</ele><time>2026-04-25T17:56:18.001Z</time></trkpt><trkpt lat="47.28923704241445" lon="8.70803160196332"><ele>491.28571428571433</ele><time>2026-04-25T17:56:19.001Z</time></trkpt><trkpt lat="47.289289090637915" lon="8.707977805084333"><ele>492.00000000000006</ele><time>2026-04-25T17:56:20.001Z</time></trkpt><trkpt lat="47.28939203836091" lon="8.707882138785127"><ele>492.0</ele><time>2026-04-25T17:56:22.001Z</time></trkpt><trkpt lat="47.28949124542411" lon="8.707784788344217"><ele>492.0</ele><time>2026-04-25T17:56:24.001Z</time></trkpt><trkpt lat="47.28958930086805" lon="8.70769042898443"><ele>492.0</ele><time>2026-04-25T17:56:26.001Z</time></trkpt><trkpt lat="47.28968216627906" lon="8.707596358258208"><ele>492.0</ele><time>2026-04-25T17:56:28.001Z</time></trkpt><trkpt lat="47.289770976593985" lon="8.707504185353981"><ele>492.8333333333333</ele><time>2026-04-25T17:56:30.001Z</time></trkpt><trkpt lat="47.28985115281128" lon="8.707426444413723"><ele>493.66666666666663</ele><time>2026-04-25T17:56:32.001Z</time></trkpt><trkpt lat="47.28992494428103" lon="8.707352918159906"><ele>494.5</ele><time>2026-04-25T17:56:35.001Z</time></trkpt><trkpt lat="47.28999313488776" lon="8.70727804571"><ele>495.3333333333333</ele><time>2026-04-25T17:56:38.001Z</time></trkpt><trkpt lat="47.29007206397783" lon="8.707201939260594"><ele>496.16666666666663</ele><time>2026-04-25T17:56:41.001Z</time></trkpt><trkpt lat="47.2901171761303" lon="8.707125145353729"><ele>497.0</ele><time>2026-04-25T17:56:43.001Z</time></trkpt><trkpt lat="47.29016328347579" lon="8.707033432784652"><ele>496.99999999999994</ele><time>2026-04-25T17:56:46.001Z</time></trkpt><trkpt lat="47.29021972480495" lon="8.706974068694542"><ele>497.0</ele><time>2026-04-25T17:56:50.001Z</time></trkpt><trkpt lat="47.290278074326345" lon="8.706925264306554"><ele>497.0</ele><time>2026-04-25T17:57:09Z</time></trkpt><trkpt lat="47.29033416368008" lon="8.706879662864297"><ele>497.0</ele><time>2026-04-25T17:57:24Z</time></trkpt><trkpt lat="47.29039463788225" lon="8.706830496474387"><ele>496.99999999999994</ele><time>2026-04-25T17:57:26Z</time></trkpt><trkpt lat="47.29047395235612" lon="8.706756161790285"><ele>497.0</ele><time>2026-04-25T17:57:28Z</time></trkpt><trkpt lat="47.29056358298328" lon="8.70666678463048"><ele>497.3333333333333</ele><time>2026-04-25T17:57:30Z</time></trkpt><trkpt lat="47.290660787034525" lon="8.706569371893035"><ele>497.66666666666663</ele><time>2026-04-25T17:57:32Z</time></trkpt><trkpt lat="47.29076326219749" lon="8.70646667673025"><ele>498.0</ele><time>2026-04-25T17:57:34Z</time></trkpt><trkpt lat="47.29081622614149" lon="8.706413599079035"><ele>498.33333333333337</ele><time>2026-04-25T17:57:35Z</time></trkpt><trkpt lat="47.29086959193882" lon="8.706360118710634"><ele>498.6666666666667</ele><time>2026-04-25T17:57:36Z</time></trkpt><trkpt lat="47.290924060772596" lon="8.706305532941885"><ele>499.0</ele><time>2026-04-25T17:57:37Z</time></trkpt><trkpt lat="47.29097965777824" lon="8.706249834020799"><ele>499.00000000000006</ele><time>2026-04-25T17:57:38Z</time></trkpt><trkpt lat="47.291034536196634" lon="8.706195467448842"><ele>499.0</ele><time>2026-04-25T17:57:39Z</time></trkpt><trkpt lat="47.29109110696214" lon="8.706139424312427"><ele>499.00000000000006</ele><time>2026-04-25T17:57:40Z</time></trkpt><trkpt lat="47.29114719101461" lon="8.706083863352331"><ele>499.00000000000006</ele><time>2026-04-25T17:57:41Z</time></trkpt><trkpt lat="47.291204489525505" lon="8.706027099260591"><ele>499.0</ele><time>2026-04-25T17:57:42Z</time></trkpt><trkpt lat="47.291261495465164" lon="8.705970625009817"><ele>499.00000000000006</ele><time>2026-04-25T17:57:43Z</time></trkpt><trkpt lat="47.29131789111783" lon="8.705914755355169"><ele>499.00000000000006</ele><time>2026-04-25T17:57:44Z</time></trkpt><trkpt lat="47.29137603161435" lon="8.705857114346498"><ele>500.1428571428572</ele><time>2026-04-25T17:57:45Z</time></trkpt><trkpt lat="47.291432623229454" lon="8.705798865851792"><ele>501.28571428571433</ele><time>2026-04-25T17:57:46Z</time></trkpt><trkpt lat="47.29148898597914" lon="8.70574085292281"><ele>502.42857142857144</ele><time>2026-04-25T17:57:47Z</time></trkpt><trkpt lat="47.29154606140625" lon="8.705680729979077"><ele>503.5714285714286</ele><time>2026-04-25T17:57:48Z</time></trkpt><trkpt lat="47.291601236675604" lon="8.705619490672268"><ele>504.7142857142858</ele><time>2026-04-25T17:57:49Z</time></trkpt><trkpt lat="47.29165624335511" lon="8.705554039633824"><ele>505.85714285714283</ele><time>2026-04-25T17:57:50Z</time></trkpt><trkpt lat="47.29171022336805" lon="8.705485897656237"><ele>507.0</ele><time>2026-04-25T17:57:51Z</time></trkpt><trkpt lat="47.291763118029735" lon="8.705414158976646"><ele>507.0</ele><time>2026-04-25T17:57:52Z</time></trkpt><trkpt lat="47.29181317450905" lon="8.705341383093787"><ele>507.0</ele><time>2026-04-25T17:57:53Z</time></trkpt><trkpt lat="47.29186006059647" lon="8.705263013072356"><ele>507.0</ele><time>2026-04-25T17:57:54Z</time></trkpt><trkpt lat="47.29190519753263" lon="8.705182545487382"><ele>507.0</ele><time>2026-04-25T17:57:55Z</time></trkpt><trkpt lat="47.29194848747035" lon="8.705099184212692"><ele>507.0</ele><time>2026-04-25T17:57:56Z</time></trkpt><trkpt lat="47.29198774548863" lon="8.705011450589486"><ele>507.0</ele><time>2026-04-25T17:57:57Z</time></trkpt><trkpt lat="47.29202346100882" lon="8.704919168236694"><ele>507.0</ele><time>2026-04-25T17:57:58Z</time></trkpt><trkpt lat="47.29205541955411" lon="8.704827949823015"><ele>507.85714285714283</ele><time>2026-04-25T17:57:59Z</time></trkpt><trkpt lat="47.292085027990765" lon="8.704732167552883"><ele>508.7142857142858</ele><time>2026-04-25T17:58:00Z</time></trkpt><trkpt lat="47.29211201155806" lon="8.704634159821056"><ele>509.5714285714286</ele><time>2026-04-25T17:58:01Z</time></trkpt><trkpt lat="47.29213543913668" lon="8.704534339906743"><ele>510.42857142857144</ele><time>2026-04-25T17:58:02Z</time></trkpt><trkpt lat="47.29215396545138" lon="8.704433998574736"><ele>511.28571428571433</ele><time>2026-04-25T17:58:03Z</time></trkpt><trkpt lat="47.2921689067798" lon="8.704334355256641"><ele>512.1428571428572</ele><time>2026-04-25T17:58:04Z</time></trkpt><trkpt lat="47.29218309877655" lon="8.704232060527548"><ele>513.0</ele><time>2026-04-25T17:58:05Z</time></trkpt><trkpt lat="47.29219552238588" lon="8.704128925067165"><ele>513.4285714285714</ele><time>2026-04-25T17:58:06Z</time></trkpt><trkpt lat="47.29220566694913" lon="8.704027297495905"><ele>513.8571428571429</ele><time>2026-04-25T17:58:07Z</time></trkpt><trkpt lat="47.29221477491042" lon="8.70392141035656"><ele>514.2857142857142</ele><time>2026-04-25T17:58:08Z</time></trkpt><trkpt lat="47.292223149081295" lon="8.703819277507861"><ele>514.7142857142858</ele><time>2026-04-25T17:58:09Z</time></trkpt><trkpt lat="47.292231440162276" lon="8.703710936587301"><ele>515.1428571428571</ele><time>2026-04-25T17:58:10Z</time></trkpt><trkpt lat="47.29223776958356" lon="8.703604969821248"><ele>515.5714285714286</ele><time>2026-04-25T17:58:11Z</time></trkpt><trkpt lat="47.292244133745974" lon="8.703498421414924"><ele>516.0</ele><time>2026-04-25T17:58:12Z</time></trkpt><trkpt lat="47.29225063645365" lon="8.703389553502097"><ele>515.6666666666666</ele><time>2026-04-25T17:58:13Z</time></trkpt><trkpt lat="47.29225705893636" lon="8.703282028704434"><ele>515.3333333333334</ele><time>2026-04-25T17:58:14Z</time></trkpt><trkpt lat="47.29226388975767" lon="8.703171985673343"><ele>515.0</ele><time>2026-04-25T17:58:15Z</time></trkpt><trkpt lat="47.29227086964927" lon="8.703065107050481"><ele>514.6666666666667</ele><time>2026-04-25T17:58:16Z</time></trkpt><trkpt lat="47.29227780753433" lon="8.702958871651212"><ele>514.3333333333334</ele><time>2026-04-25T17:58:17Z</time></trkpt><trkpt lat="47.292288799689864" lon="8.702790555806313"><ele>514.0</ele><time>2026-04-25T17:58:19Z</time></trkpt><trkpt lat="47.2922987677822" lon="8.702637920800438"><ele>514.0</ele><time>2026-04-25T17:58:21Z</time></trkpt><trkpt lat="47.29230835807388" lon="8.702478258968927"><ele>514.0</ele><time>2026-04-25T17:58:23Z</time></trkpt><trkpt lat="47.29231405902387" lon="8.702366443707398"><ele>514.0</ele><time>2026-04-25T17:58:25Z</time></trkpt><trkpt lat="47.29232100341107" lon="8.702214430562101"><ele>514.0</ele><time>2026-04-25T17:58:28Z</time></trkpt><trkpt lat="47.29234806803182" lon="8.702055234059962"><ele>514.0</ele><time>2026-04-25T17:58:30Z</time></trkpt><trkpt lat="47.292355831427734" lon="8.701962688335437"><ele>514.0</ele><time>2026-04-25T17:58:31Z</time></trkpt><trkpt lat="47.292360792299405" lon="8.701867338249857"><ele>514.0</ele><time>2026-04-25T17:58:32Z</time></trkpt><trkpt lat="47.292367945314304" lon="8.701765172645445"><ele>514.0</ele><time>2026-04-25T17:58:33Z</time></trkpt><trkpt lat="47.292377475254874" lon="8.701662307167046"><ele>514.0</ele><time>2026-04-25T17:58:34Z</time></trkpt><trkpt lat="47.29238585512339" lon="8.701556277816058"><ele>514.0</ele><time>2026-04-25T17:58:35Z</time></trkpt><trkpt lat="47.29239720615879" lon="8.701450191809135"><ele>514.0</ele><time>2026-04-25T17:58:36Z</time></trkpt><trkpt lat="47.29240939100471" lon="8.701340889343067"><ele>514.0</ele><time>2026-04-25T17:58:37Z</time></trkpt><trkpt lat="47.29241940002842" lon="8.70123074627628"><ele>514.0</ele><time>2026-04-25T17:58:38Z</time></trkpt><trkpt lat="47.29243406232525" lon="8.70112333762738"><ele>514.0</ele><time>2026-04-25T17:58:39Z</time></trkpt><trkpt lat="47.292450462457296" lon="8.70101384205696"><ele>514.0</ele><time>2026-04-25T17:58:40Z</time></trkpt><trkpt lat="47.292464675469134" lon="8.700905469953158"><ele>514.0</ele><time>2026-04-25T17:58:41Z</time></trkpt><trkpt lat="47.29248264879028" lon="8.700794620428201"><ele>514.0</ele><time>2026-04-25T17:58:42Z</time></trkpt><trkpt lat="47.292502829585644" lon="8.700687623546676"><ele>514.0</ele><time>2026-04-25T17:58:43Z</time></trkpt><trkpt lat="47.2925240596013" lon="8.700579701916721"><ele>514.3333333333334</ele><time>2026-04-25T17:58:44Z</time></trkpt><trkpt lat="47.292545959311795" lon="8.700470982630051"><ele>514.6666666666667</ele><time>2026-04-25T17:58:45Z</time></trkpt><trkpt lat="47.29256865311585" lon="8.700363871540421"><ele>515.0</ele><time>2026-04-25T17:58:46Z</time></trkpt><trkpt lat="47.29259283825141" lon="8.700255972782564"><ele>515.3333333333334</ele><time>2026-04-25T17:58:47Z</time></trkpt><trkpt lat="47.292619205431784" lon="8.700150698644684"><ele>515.6666666666666</ele><time>2026-04-25T17:58:48Z</time></trkpt><trkpt lat="47.29264868783321" lon="8.700046339291502"><ele>516.0</ele><time>2026-04-25T17:58:49Z</time></trkpt><trkpt lat="47.29267630337977" lon="8.699941703727847"><ele>516.0</ele><time>2026-04-25T17:58:50Z</time></trkpt><trkpt lat="47.29270552712563" lon="8.699836222895138"><ele>516.0</ele><time>2026-04-25T17:58:51Z</time></trkpt><trkpt lat="47.29273572941982" lon="8.699732435309956"><ele>516.0</ele><time>2026-04-25T17:58:52Z</time></trkpt><trkpt lat="47.29276827361808" lon="8.699631705346999"><ele>516.0</ele><time>2026-04-25T17:58:53Z</time></trkpt><trkpt lat="47.292800879935726" lon="8.699527943485474"><ele>516.0</ele><time>2026-04-25T17:58:54Z</time></trkpt><trkpt lat="47.29283398128296" lon="8.699428340143752"><ele>516.0</ele><time>2026-04-25T17:58:55Z</time></trkpt><trkpt lat="47.29286980349474" lon="8.699328953432092"><ele>516.0</ele><time>2026-04-25T17:58:56Z</time></trkpt><trkpt lat="47.29290769248276" lon="8.699233401904218"><ele>516.0</ele><time>2026-04-25T17:58:57Z</time></trkpt><trkpt lat="47.29294647677556" lon="8.69913494102638"><ele>516.0</ele><time>2026-04-25T17:58:58Z</time></trkpt><trkpt lat="47.292985468334244" lon="8.699038111520807"><ele>516.0</ele><time>2026-04-25T17:58:59Z</time></trkpt><trkpt lat="47.293024126420256" lon="8.698942242316289"><ele>516.0</ele><time>2026-04-25T17:59:00Z</time></trkpt><trkpt lat="47.2930632989507" lon="8.69884466836477"><ele>516.0</ele><time>2026-04-25T17:59:01Z</time></trkpt><trkpt lat="47.293103605599455" lon="8.698750504699637"><ele>516.0</ele><time>2026-04-25T17:59:02Z</time></trkpt><trkpt lat="47.29314709071703" lon="8.69865938118759"><ele>516.0</ele><time>2026-04-25T17:59:03Z</time></trkpt><trkpt lat="47.29319222521197" lon="8.698568949607951"><ele>516.0</ele><time>2026-04-25T17:59:04Z</time></trkpt><trkpt lat="47.29324008785308" lon="8.698479000239818"><ele>516.0</ele><time>2026-04-25T17:59:05Z</time></trkpt><trkpt lat="47.29328393844794" lon="8.698392784609613"><ele>516.0</ele><time>2026-04-25T17:59:06Z</time></trkpt><trkpt lat="47.293329238267034" lon="8.698298111396914"><ele>516.0</ele><time>2026-04-25T17:59:07Z</time></trkpt><trkpt lat="47.29337360303899" lon="8.69820720661736"><ele>516.6666666666666</ele><time>2026-04-25T17:59:08Z</time></trkpt><trkpt lat="47.29342079716286" lon="8.698120440054181"><ele>517.3333333333334</ele><time>2026-04-25T17:59:09Z</time></trkpt><trkpt lat="47.29346767515062" lon="8.69803205003786"><ele>518.0</ele><time>2026-04-25T17:59:10Z</time></trkpt><trkpt lat="47.293514373600175" lon="8.697941674992421"><ele>518.6666666666667</ele><time>2026-04-25T17:59:11Z</time></trkpt><trkpt lat="47.29356018570012" lon="8.697852626838927"><ele>519.3333333333334</ele><time>2026-04-25T17:59:12Z</time></trkpt><trkpt lat="47.29360751777725" lon="8.69776303070342"><ele>520.0</ele><time>2026-04-25T17:59:13Z</time></trkpt><trkpt lat="47.29365351795768" lon="8.697670577967482"><ele>520.6666666666667</ele><time>2026-04-25T17:59:14Z</time></trkpt><trkpt lat="47.29370088469582" lon="8.69758023184882"><ele>521.3333333333334</ele><time>2026-04-25T17:59:15Z</time></trkpt><trkpt lat="47.29374815565346" lon="8.697488434294364"><ele>522.0</ele><time>2026-04-25T17:59:16Z</time></trkpt><trkpt lat="47.29379391918491" lon="8.697397018067745"><ele>522.6666666666666</ele><time>2026-04-25T17:59:17Z</time></trkpt><trkpt lat="47.293841215904735" lon="8.697307138726407"><ele>523.3333333333333</ele><time>2026-04-25T17:59:18Z</time></trkpt><trkpt lat="47.29389031022558" lon="8.697214299723852"><ele>524.0</ele><time>2026-04-25T17:59:19Z</time></trkpt><trkpt lat="47.29393725844455" lon="8.697120247469316"><ele>524.0</ele><time>2026-04-25T17:59:20Z</time></trkpt><trkpt lat="47.29398350150703" lon="8.69702722318022"><ele>524.0</ele><time>2026-04-25T17:59:21Z</time></trkpt><trkpt lat="47.2940311591281" lon="8.696934575586067"><ele>524.0</ele><time>2026-04-25T17:59:22Z</time></trkpt><trkpt lat="47.29408019414409" lon="8.696843848889737"><ele>524.0</ele><time>2026-04-25T17:59:23Z</time></trkpt><trkpt lat="47.29413134822242" lon="8.696754308649552"><ele>524.0</ele><time>2026-04-25T17:59:24Z</time></trkpt><trkpt lat="47.29418150807455" lon="8.696664182080726"><ele>524.0</ele><time>2026-04-25T17:59:25Z</time></trkpt><trkpt lat="47.294232354122194" lon="8.696573238628226"><ele>523.8333333333333</ele><time>2026-04-25T17:59:26Z</time></trkpt><trkpt lat="47.29428305815358" lon="8.69648432593523"><ele>523.6666666666666</ele><time>2026-04-25T17:59:27Z</time></trkpt><trkpt lat="47.29433572122252" lon="8.696395900384537"><ele>523.5</ele><time>2026-04-25T17:59:28Z</time></trkpt><trkpt lat="47.294389292513124" lon="8.6963098624434"><ele>523.3333333333334</ele><time>2026-04-25T17:59:29Z</time></trkpt><trkpt lat="47.29444366518064" lon="8.696223881545285"><ele>523.1666666666667</ele><time>2026-04-25T17:59:30Z</time></trkpt><trkpt lat="47.29450368854563" lon="8.69614926768676"><ele>523.0</ele><time>2026-04-25T17:59:31Z</time></trkpt><trkpt lat="47.29456223291711" lon="8.696069251723852"><ele>523.1666666666667</ele><time>2026-04-25T17:59:32Z</time></trkpt><trkpt lat="47.29462168503345" lon="8.69598893413935"><ele>523.3333333333334</ele><time>2026-04-25T17:59:33Z</time></trkpt><trkpt lat="47.294679984348015" lon="8.695909984357034"><ele>523.5</ele><time>2026-04-25T17:59:34Z</time></trkpt><trkpt lat="47.29473940923707" lon="8.695835240813244"><ele>523.6666666666666</ele><time>2026-04-25T17:59:35Z</time></trkpt><trkpt lat="47.29479608793292" lon="8.695755226029931"><ele>523.8333333333333</ele><time>2026-04-25T17:59:36Z</time></trkpt><trkpt lat="47.294850725155825" lon="8.695671441191474"><ele>524.0</ele><time>2026-04-25T17:59:37Z</time></trkpt><trkpt lat="47.29491101751895" lon="8.695594405174969"><ele>524.0</ele><time>2026-04-25T17:59:38Z</time></trkpt><trkpt lat="47.294974843098956" lon="8.695524240352027"><ele>524.0</ele><time>2026-04-25T17:59:39Z</time></trkpt><trkpt lat="47.29504196582123" lon="8.695458826093777"><ele>524.0</ele><time>2026-04-25T17:59:40Z</time></trkpt><trkpt lat="47.29511069016673" lon="8.695398814642715"><ele>524.0</ele><time>2026-04-25T17:59:41Z</time></trkpt><trkpt lat="47.29517965173475" lon="8.695341662831815"><ele>524.0</ele><time>2026-04-25T17:59:42Z</time></trkpt><trkpt lat="47.295247424617976" lon="8.695282653167943"><ele>524.0</ele><time>2026-04-25T17:59:43Z</time></trkpt><trkpt lat="47.295312933274225" lon="8.695218321049548"><ele>524.1666666666666</ele><time>2026-04-25T17:59:44Z</time></trkpt><trkpt lat="47.295375800232726" lon="8.69514965652852"><ele>524.3333333333333</ele><time>2026-04-25T17:59:45Z</time></trkpt><trkpt lat="47.29543776259146" lon="8.695080368870618"><ele>524.5</ele><time>2026-04-25T17:59:46Z</time></trkpt><trkpt lat="47.29549914655904" lon="8.695008546621281"><ele>524.6666666666666</ele><time>2026-04-25T17:59:47Z</time></trkpt><trkpt lat="47.29556330679609" lon="8.694941503580525"><ele>524.8333333333334</ele><time>2026-04-25T17:59:48Z</time></trkpt><trkpt lat="47.295626374487966" lon="8.694874090195576"><ele>525.0</ele><time>2026-04-25T17:59:49Z</time></trkpt><trkpt lat="47.295688241026625" lon="8.694801832065533"><ele>525.0</ele><time>2026-04-25T17:59:50Z</time></trkpt><trkpt lat="47.29574965324081" lon="8.694729815538262"><ele>525.0</ele><time>2026-04-25T17:59:51Z</time></trkpt><trkpt lat="47.295811299465065" lon="8.694655729755016"><ele>525.0</ele><time>2026-04-25T17:59:52Z</time></trkpt><trkpt lat="47.29587013304852" lon="8.694580197437029"><ele>525.0</ele><time>2026-04-25T17:59:53Z</time></trkpt><trkpt lat="47.2959282513293" lon="8.694505192348908"><ele>525.0</ele><time>2026-04-25T17:59:54Z</time></trkpt><trkpt lat="47.2959847802128" lon="8.694426473497"><ele>525.0</ele><time>2026-04-25T17:59:55Z</time></trkpt><trkpt lat="47.296040953790516" lon="8.694347374943598"><ele>525.8333333333334</ele><time>2026-04-25T17:59:56Z</time></trkpt><trkpt lat="47.29609829798144" lon="8.69427015684164"><ele>526.6666666666666</ele><time>2026-04-25T17:59:57Z</time></trkpt><trkpt lat="47.29615319414117" lon="8.694192747580878"><ele>527.5</ele><time>2026-04-25T17:59:58Z</time></trkpt><trkpt lat="47.29619984080969" lon="8.694104114894404"><ele>528.3333333333333</ele><time>2026-04-25T17:59:59Z</time></trkpt><trkpt lat="47.296251450765965" lon="8.694024972404653"><ele>529.1666666666666</ele><time>2026-04-25T18:00:00Z</time></trkpt><trkpt lat="47.296307196326175" lon="8.693946369145076"><ele>530.0</ele><time>2026-04-25T18:00:01Z</time></trkpt><trkpt lat="47.296363158924365" lon="8.693871907970447"><ele>529.6666666666666</ele><time>2026-04-25T18:00:02Z</time></trkpt><trkpt lat="47.29642234507621" lon="8.693801924949392"><ele>529.3333333333333</ele><time>2026-04-25T18:00:03Z</time></trkpt><trkpt lat="47.29648008982947" lon="8.693731334388918"><ele>529.0</ele><time>2026-04-25T18:00:04Z</time></trkpt><trkpt lat="47.29653655450504" lon="8.693654954256976"><ele>528.6666666666666</ele><time>2026-04-25T18:00:05Z</time></trkpt><trkpt lat="47.29659094231219" lon="8.693579619066455"><ele>528.3333333333334</ele><time>2026-04-25T18:00:06Z</time></trkpt><trkpt lat="47.29664502831728" lon="8.693502839283736"><ele>528.0</ele><time>2026-04-25T18:00:07Z</time></trkpt><trkpt lat="47.29670108210027" lon="8.693424254962348"><ele>528.0</ele><time>2026-04-25T18:00:08Z</time></trkpt><trkpt lat="47.29675568418295" lon="8.693348708862892"><ele>528.0</ele><time>2026-04-25T18:00:09Z</time></trkpt><trkpt lat="47.2968095735876" lon="8.693270982307451"><ele>528.0</ele><time>2026-04-25T18:00:10Z</time></trkpt><trkpt lat="47.29686334309543" lon="8.693190323434372"><ele>528.0</ele><time>2026-04-25T18:00:11Z</time></trkpt><trkpt lat="47.29691350417597" lon="8.69310857683971"><ele>528.0</ele><time>2026-04-25T18:00:12Z</time></trkpt><trkpt lat="47.296963179026" lon="8.693023336956289"><ele>528.0</ele><time>2026-04-25T18:00:13Z</time></trkpt><trkpt lat="47.29701720622057" lon="8.692946626597845"><ele>528.0</ele><time>2026-04-25T18:00:14Z</time></trkpt><trkpt lat="47.29707661405692" lon="8.692879339096221"><ele>528.0</ele><time>2026-04-25T18:00:15Z</time></trkpt><trkpt lat="47.297136438053684" lon="8.692812086171395"><ele>528.0</ele><time>2026-04-25T18:00:16Z</time></trkpt><trkpt lat="47.29719129364482" lon="8.692738128799796"><ele>528.0</ele><time>2026-04-25T18:00:17Z</time></trkpt><trkpt lat="47.2972456173463" lon="8.692659375730171"><ele>528.0</ele><time>2026-04-25T18:00:18Z</time></trkpt><trkpt lat="47.297300017037756" lon="8.692584919815658"><ele>528.0</ele><time>2026-04-25T18:00:19Z</time></trkpt><trkpt lat="47.29735466825033" lon="8.692508669010007"><ele>528.4285714285714</ele><time>2026-04-25T18:00:20Z</time></trkpt><trkpt lat="47.29740743416508" lon="8.692433932609692"><ele>528.8571428571429</ele><time>2026-04-25T18:00:21Z</time></trkpt><trkpt lat="47.29746334016223" lon="8.692358209728274"><ele>529.2857142857143</ele><time>2026-04-25T18:00:22Z</time></trkpt><trkpt lat="47.29751650814216" lon="8.692279441224676"><ele>529.7142857142858</ele><time>2026-04-25T18:00:23Z</time></trkpt><trkpt lat="47.29756953888223" lon="8.69220475105467"><ele>530.1428571428572</ele><time>2026-04-25T18:00:24Z</time></trkpt><trkpt lat="47.29762390039041" lon="8.692128101300757"><ele>530.5714285714286</ele><time>2026-04-25T18:00:25Z</time></trkpt><trkpt lat="47.29767456687912" lon="8.692046058809437"><ele>531.0</ele><time>2026-04-25T18:00:26Z</time></trkpt><trkpt lat="47.297722335188105" lon="8.691964060372905"><ele>531.5714285714286</ele><time>2026-04-25T18:00:27Z</time></trkpt><trkpt lat="47.297773441161574" lon="8.691884225931897"><ele>532.1428571428572</ele><time>2026-04-25T18:00:28Z</time></trkpt><trkpt lat="47.29782753100546" lon="8.691811485432352"><ele>532.7142857142858</ele><time>2026-04-25T18:00:29Z</time></trkpt><trkpt lat="47.297880712985815" lon="8.691734732934504"><ele>533.2857142857143</ele><time>2026-04-25T18:00:30Z</time></trkpt><trkpt lat="47.2979374649356" lon="8.691664275302715"><ele>533.8571428571429</ele><time>2026-04-25T18:00:31Z</time></trkpt><trkpt lat="47.29799585190327" lon="8.691597231793688"><ele>534.4285714285714</ele><time>2026-04-25T18:00:32Z</time></trkpt><trkpt lat="47.29804880230494" lon="8.691518206510985"><ele>535.0</ele><time>2026-04-25T18:00:33Z</time></trkpt><trkpt lat="47.29812339661251" lon="8.691485038469386"><ele>535.0</ele><time>2026-04-25T18:00:34Z</time></trkpt><trkpt lat="47.298184899334586" lon="8.691422866321657"><ele>535.0</ele><time>2026-04-25T18:00:35Z</time></trkpt><trkpt lat="47.298248521768386" lon="8.691364165674822"><ele>535.0</ele><time>2026-04-25T18:00:36Z</time></trkpt><trkpt lat="47.29831068862886" lon="8.691304779996482"><ele>535.0</ele><time>2026-04-25T18:00:37Z</time></trkpt><trkpt lat="47.298375627877746" lon="8.691248889177135"><ele>535.0</ele><time>2026-04-25T18:00:38Z</time></trkpt><trkpt lat="47.29844028337111" lon="8.691200030941406"><ele>535.0</ele><time>2026-04-25T18:00:39Z</time></trkpt><trkpt lat="47.29850642107452" lon="8.691149626593493"><ele>535.0</ele><time>2026-04-25T18:00:40Z</time></trkpt><trkpt lat="47.298572252582034" lon="8.69110543480406"><ele>535.5714285714286</ele><time>2026-04-25T18:00:41Z</time></trkpt><trkpt lat="47.29863896798288" lon="8.69105985088116"><ele>536.1428571428571</ele><time>2026-04-25T18:00:42Z</time></trkpt><trkpt lat="47.298707286001616" lon="8.691019505186947"><ele>536.7142857142858</ele><time>2026-04-25T18:00:43Z</time></trkpt><trkpt lat="47.298774434671856" lon="8.690982243504362"><ele>537.2857142857142</ele><time>2026-04-25T18:00:44Z</time></trkpt><trkpt lat="47.29884357540457" lon="8.690945670391253"><ele>537.8571428571429</ele><time>2026-04-25T18:00:45Z</time></trkpt><trkpt lat="47.29891052766139" lon="8.690910960297083"><ele>538.4285714285714</ele><time>2026-04-25T18:00:46Z</time></trkpt><trkpt lat="47.298979897074986" lon="8.690869072249278"><ele>539.0</ele><time>2026-04-25T18:00:47Z</time></trkpt><trkpt lat="47.29904620588885" lon="8.690835638108993"><ele>539.2857142857143</ele><time>2026-04-25T18:00:48Z</time></trkpt><trkpt lat="47.29911547598017" lon="8.690806473827953"><ele>539.5714285714286</ele><time>2026-04-25T18:00:49Z</time></trkpt><trkpt lat="47.29918268226053" lon="8.690766721779518"><ele>539.8571428571429</ele><time>2026-04-25T18:00:50Z</time></trkpt><trkpt lat="47.2992520091447" lon="8.690735680073667"><ele>540.1428571428571</ele><time>2026-04-25T18:00:51Z</time></trkpt><trkpt lat="47.299318404120136" lon="8.690701549432209"><ele>540.4285714285714</ele><time>2026-04-25T18:00:52Z</time></trkpt><trkpt lat="47.29938227963264" lon="8.690662000775582"><ele>540.7142857142858</ele><time>2026-04-25T18:00:53Z</time></trkpt><trkpt lat="47.29944413793303" lon="8.690606306753835"><ele>541.0</ele><time>2026-04-25T18:00:54Z</time></trkpt><trkpt lat="47.299507475560404" lon="8.690547315835163"><ele>541.0</ele><time>2026-04-25T18:00:55Z</time></trkpt><trkpt lat="47.299545487866915" lon="8.690463541382126"><ele>541.0</ele><time>2026-04-25T18:00:56Z</time></trkpt><trkpt lat="47.29970729305254" lon="8.690464778133071"><ele>541.0</ele><time>2026-04-25T18:00:58Z</time></trkpt><trkpt lat="47.29978187034114" lon="8.690465656645591"><ele>541.0</ele><time>2026-04-25T18:00:59Z</time></trkpt><trkpt lat="47.299860323740695" lon="8.6904372283437"><ele>541.0</ele><time>2026-04-25T18:01:00Z</time></trkpt><trkpt lat="47.29992435088238" lon="8.690402000330122"><ele>541.5</ele><time>2026-04-25T18:01:01Z</time></trkpt><trkpt lat="47.29999885336893" lon="8.69036757363586"><ele>542.0</ele><time>2026-04-25T18:01:02Z</time></trkpt><trkpt lat="47.30007117723572" lon="8.690333734459417"><ele>542.5</ele><time>2026-04-25T18:01:03Z</time></trkpt><trkpt lat="47.30014333780321" lon="8.690307229368061"><ele>543.0</ele><time>2026-04-25T18:01:04Z</time></trkpt><trkpt lat="47.300214728992096" lon="8.690276803211034"><ele>543.5</ele><time>2026-04-25T18:01:05Z</time></trkpt><trkpt lat="47.30028725020237" lon="8.690245121607646"><ele>544.0</ele><time>2026-04-25T18:01:06Z</time></trkpt><trkpt lat="47.300359302208605" lon="8.690215007717597"><ele>544.1666666666667</ele><time>2026-04-25T18:01:07Z</time></trkpt><trkpt lat="47.3004312780651" lon="8.690185110554452"><ele>544.3333333333334</ele><time>2026-04-25T18:01:08Z</time></trkpt><trkpt lat="47.30050347858508" lon="8.690153188960554"><ele>544.5</ele><time>2026-04-25T18:01:09Z</time></trkpt><trkpt lat="47.30057485015605" lon="8.690120227937047"><ele>544.6666666666666</ele><time>2026-04-25T18:01:10Z</time></trkpt><trkpt lat="47.300646954615985" lon="8.690088622124355"><ele>544.8333333333333</ele><time>2026-04-25T18:01:11Z</time></trkpt><trkpt lat="47.30072091006079" lon="8.69005985605705"><ele>545.0</ele><time>2026-04-25T18:01:12Z</time></trkpt><trkpt lat="47.300794669392715" lon="8.690028533282305"><ele>545.0</ele><time>2026-04-25T18:01:13Z</time></trkpt><trkpt lat="47.30086822727287" lon="8.68999216168531"><ele>545.0</ele><time>2026-04-25T18:01:14Z</time></trkpt><trkpt lat="47.300941119223815" lon="8.689952794288503"><ele>545.0</ele><time>2026-04-25T18:01:15Z</time></trkpt><trkpt lat="47.30101408754566" lon="8.689905740007713"><ele>545.0</ele><time>2026-04-25T18:01:16Z</time></trkpt><trkpt lat="47.301086651598936" lon="8.68985415989239"><ele>545.0</ele><time>2026-04-25T18:01:17Z</time></trkpt><trkpt lat="47.3011586113473" lon="8.689803658360312"><ele>545.0</ele><time>2026-04-25T18:01:18Z</time></trkpt><trkpt lat="47.30123060272593" lon="8.68975126821109"><ele>545.0</ele><time>2026-04-25T18:01:19Z</time></trkpt><trkpt lat="47.30130455069962" lon="8.68969902274569"><ele>545.0</ele><time>2026-04-25T18:01:20Z</time></trkpt><trkpt lat="47.301376739403096" lon="8.689646624169791"><ele>545.0</ele><time>2026-04-25T18:01:21Z</time></trkpt><trkpt lat="47.301450142055735" lon="8.68959462612936"><ele>545.0</ele><time>2026-04-25T18:01:22Z</time></trkpt><trkpt lat="47.30152344583134" lon="8.689541564574665"><ele>545.0</ele><time>2026-04-25T18:01:23Z</time></trkpt><trkpt lat="47.3015977828713" lon="8.68949372239334"><ele>545.0</ele><time>2026-04-25T18:01:24Z</time></trkpt><trkpt lat="47.301672239291676" lon="8.689442393172788"><ele>545.1666666666666</ele><time>2026-04-25T18:01:25Z</time></trkpt><trkpt lat="47.30174498479738" lon="8.68938833001745"><ele>545.3333333333333</ele><time>2026-04-25T18:01:26Z</time></trkpt><trkpt lat="47.30181906761007" lon="8.689332892792988"><ele>545.5</ele><time>2026-04-25T18:01:27Z</time></trkpt><trkpt lat="47.301891079130726" lon="8.689283112049802"><ele>545.6666666666666</ele><time>2026-04-25T18:01:28Z</time></trkpt><trkpt lat="47.30196597651399" lon="8.689229062255816"><ele>545.8333333333334</ele><time>2026-04-25T18:01:29Z</time></trkpt><trkpt lat="47.302040247573835" lon="8.689175232629358"><ele>546.0</ele><time>2026-04-25T18:01:30Z</time></trkpt><trkpt lat="47.30211473983689" lon="8.689123086446903"><ele>546.0</ele><time>2026-04-25T18:01:31Z</time></trkpt><trkpt lat="47.30218782955799" lon="8.689070523626349"><ele>546.0</ele><time>2026-04-25T18:01:32Z</time></trkpt><trkpt lat="47.30226101644942" lon="8.689013995033212"><ele>546.0</ele><time>2026-04-25T18:01:33Z</time></trkpt><trkpt lat="47.30233245438069" lon="8.688959302874746"><ele>546.0</ele><time>2026-04-25T18:01:34Z</time></trkpt><trkpt lat="47.3024009389438" lon="8.688892936232067"><ele>546.0</ele><time>2026-04-25T18:01:35Z</time></trkpt><trkpt lat="47.30246811019249" lon="8.688825610862438"><ele>546.0</ele><time>2026-04-25T18:01:36Z</time></trkpt><trkpt lat="47.30253618312171" lon="8.688763513006426"><ele>546.1428571428571</ele><time>2026-04-25T18:01:37Z</time></trkpt><trkpt lat="47.30260539454034" lon="8.688704500722444"><ele>546.2857142857142</ele><time>2026-04-25T18:01:38Z</time></trkpt><trkpt lat="47.302667291242706" lon="8.688642153528848"><ele>546.4285714285714</ele><time>2026-04-25T18:01:39Z</time></trkpt><trkpt lat="47.30272574770268" lon="8.68858670593658"><ele>546.5714285714286</ele><time>2026-04-25T18:01:40Z</time></trkpt><trkpt lat="47.30278151339279" lon="8.688532152503969"><ele>546.7142857142857</ele><time>2026-04-25T18:01:41Z</time></trkpt><trkpt lat="47.30284222592832" lon="8.68848101516559"><ele>546.8571428571429</ele><time>2026-04-25T18:01:42Z</time></trkpt><trkpt lat="47.30290428651956" lon="8.68843032459127"><ele>547.0</ele><time>2026-04-25T18:01:43Z</time></trkpt><trkpt lat="47.30296871521932" lon="8.688378930405129"><ele>547.0</ele><time>2026-04-25T18:01:44Z</time></trkpt><trkpt lat="47.30303042571418" lon="8.688321365118352"><ele>547.0</ele><time>2026-04-25T18:01:45Z</time></trkpt><trkpt lat="47.30308905888072" lon="8.688256240386346"><ele>547.0</ele><time>2026-04-25T18:01:46Z</time></trkpt><trkpt lat="47.30313960105276" lon="8.688172344070013"><ele>547.0</ele><time>2026-04-25T18:01:47Z</time></trkpt><trkpt lat="47.303196924600655" lon="8.68810199247722"><ele>547.0</ele><time>2026-04-25T18:01:48Z</time></trkpt><trkpt lat="47.30325259365518" lon="8.688031112443635"><ele>547.0</ele><time>2026-04-25T18:01:49Z</time></trkpt><trkpt lat="47.303309471542036" lon="8.68795865340887"><ele>547.0</ele><time>2026-04-25T18:01:50Z</time></trkpt><trkpt lat="47.303365333870396" lon="8.687886848202114"><ele>547.0</ele><time>2026-04-25T18:01:51Z</time></trkpt><trkpt lat="47.3034212292417" lon="8.68781474349965"><ele>547.0</ele><time>2026-04-25T18:01:52Z</time></trkpt><trkpt lat="47.30348365033803" lon="8.687757019200848"><ele>547.0</ele><time>2026-04-25T18:01:53Z</time></trkpt><trkpt lat="47.30354054095657" lon="8.687687645721661"><ele>547.0</ele><time>2026-04-25T18:01:54Z</time></trkpt><trkpt lat="47.303596052408196" lon="8.6876154606436"><ele>547.0</ele><time>2026-04-25T18:01:55Z</time></trkpt><trkpt lat="47.303649442190434" lon="8.687538415672542"><ele>547.0</ele><time>2026-04-25T18:01:56Z</time></trkpt><trkpt lat="47.303703737642586" lon="8.687464181546785"><ele>547.0</ele><time>2026-04-25T18:01:57Z</time></trkpt><trkpt lat="47.30375904459865" lon="8.687390525859534"><ele>547.5714285714286</ele><time>2026-04-25T18:01:58Z</time></trkpt><trkpt lat="47.303813169593305" lon="8.687317096932286"><ele>548.1428571428571</ele><time>2026-04-25T18:01:59Z</time></trkpt><trkpt lat="47.30386871303719" lon="8.687241977044348"><ele>548.7142857142857</ele><time>2026-04-25T18:02:00Z</time></trkpt><trkpt lat="47.303924499687355" lon="8.687169653332912"><ele>549.2857142857142</ele><time>2026-04-25T18:02:01Z</time></trkpt><trkpt lat="47.30397624581851" lon="8.687094418243355"><ele>549.8571428571429</ele><time>2026-04-25T18:02:02Z</time></trkpt><trkpt lat="47.30403265408482" lon="8.687021680000596"><ele>550.4285714285713</ele><time>2026-04-25T18:02:03Z</time></trkpt><trkpt lat="47.30408484577355" lon="8.686947035509009"><ele>551.0</ele><time>2026-04-25T18:02:04Z</time></trkpt><trkpt lat="47.304138938447196" lon="8.686872067453974"><ele>551.4285714285713</ele><time>2026-04-25T18:02:05Z</time></trkpt><trkpt lat="47.304193637382554" lon="8.686798350469997"><ele>551.8571428571429</ele><time>2026-04-25T18:02:06Z</time></trkpt><trkpt lat="47.304247427833" lon="8.686722733603691"><ele>552.2857142857142</ele><time>2026-04-25T18:02:07Z</time></trkpt><trkpt lat="47.304302002946145" lon="8.686646987713067"><ele>552.7142857142857</ele><time>2026-04-25T18:02:08Z</time></trkpt><trkpt lat="47.30435699453481" lon="8.686572555714074"><ele>553.1428571428571</ele><time>2026-04-25T18:02:09Z</time></trkpt><trkpt lat="47.304411042580355" lon="8.686500175757617"><ele>553.5714285714286</ele><time>2026-04-25T18:02:10Z</time></trkpt><trkpt lat="47.3044668718802" lon="8.68642320005088"><ele>554.0</ele><time>2026-04-25T18:02:11Z</time></trkpt><trkpt lat="47.304520835468566" lon="8.686348752204196"><ele>554.0</ele><time>2026-04-25T18:02:12Z</time></trkpt><trkpt lat="47.30457545896422" lon="8.686275903363585"><ele>554.0</ele><time>2026-04-25T18:02:13Z</time></trkpt><trkpt lat="47.30463062433178" lon="8.686201228039259"><ele>554.0</ele><time>2026-04-25T18:02:14Z</time></trkpt><trkpt lat="47.30468491577047" lon="8.686125523495267"><ele>554.0</ele><time>2026-04-25T18:02:15Z</time></trkpt><trkpt lat="47.30473897256841" lon="8.686049677072669"><ele>554.0</ele><time>2026-04-25T18:02:16Z</time></trkpt><trkpt lat="47.304793029863" lon="8.685973654936591"><ele>554.0</ele><time>2026-04-25T18:02:17Z</time></trkpt><trkpt lat="47.30484804209952" lon="8.685898113657483"><ele>554.0</ele><time>2026-04-25T18:02:18Z</time></trkpt><trkpt lat="47.30490330280961" lon="8.68582234299906"><ele>554.0</ele><time>2026-04-25T18:02:19Z</time></trkpt><trkpt lat="47.30495645922368" lon="8.685747233661305"><ele>554.0</ele><time>2026-04-25T18:02:20Z</time></trkpt><trkpt lat="47.3050115882512" lon="8.685667603305514"><ele>554.0</ele><time>2026-04-25T18:02:21Z</time></trkpt><trkpt lat="47.305066460577464" lon="8.685583237784499"><ele>554.0</ele><time>2026-04-25T18:02:22Z</time></trkpt><trkpt lat="47.30512053002756" lon="8.685497740297231"><ele>554.0</ele><time>2026-04-25T18:02:23Z</time></trkpt><trkpt lat="47.305159302832486" lon="8.685417092855593"><ele>554.0</ele><time>2026-04-25T18:02:24Z</time></trkpt><trkpt lat="47.30520722925462" lon="8.685328970546413"><ele>554.8333333333333</ele><time>2026-04-25T18:02:25Z</time></trkpt><trkpt lat="47.305252769017635" lon="8.68524063414376"><ele>555.6666666666666</ele><time>2026-04-25T18:02:26Z</time></trkpt><trkpt lat="47.30529553455297" lon="8.685148795466178"><ele>556.5</ele><time>2026-04-25T18:02:27Z</time></trkpt><trkpt lat="47.30533681734845" lon="8.685056182716043"><ele>557.3333333333334</ele><time>2026-04-25T18:02:28Z</time></trkpt><trkpt lat="47.30537868436446" lon="8.68496189089488"><ele>558.1666666666667</ele><time>2026-04-25T18:02:29Z</time></trkpt><trkpt lat="47.305418821690594" lon="8.6848664826218"><ele>559.0</ele><time>2026-04-25T18:02:30Z</time></trkpt><trkpt lat="47.305457315018735" lon="8.684773133703814"><ele>559.0</ele><time>2026-04-25T18:02:31Z</time></trkpt><trkpt lat="47.30549882722783" lon="8.684681052412921"><ele>559.0</ele><time>2026-04-25T18:02:32Z</time></trkpt><trkpt lat="47.305542362954895" lon="8.6845886765926"><ele>559.0</ele><time>2026-04-25T18:02:33Z</time></trkpt><trkpt lat="47.305586569309966" lon="8.684497572188858"><ele>559.0</ele><time>2026-04-25T18:02:34Z</time></trkpt><trkpt lat="47.305633652531746" lon="8.68440631012384"><ele>559.0</ele><time>2026-04-25T18:02:35Z</time></trkpt><trkpt lat="47.30567846807658" lon="8.684315710548134"><ele>559.0</ele><time>2026-04-25T18:02:36Z</time></trkpt><trkpt lat="47.30572378019095" lon="8.684222789994994"><ele>558.8333333333334</ele><time>2026-04-25T18:02:37Z</time></trkpt><trkpt lat="47.30577039278917" lon="8.68413033918429"><ele>558.6666666666667</ele><time>2026-04-25T18:02:38Z</time></trkpt><trkpt lat="47.305822805679426" lon="8.684039194914503"><ele>558.5</ele><time>2026-04-25T18:02:39Z</time></trkpt><trkpt lat="47.3058749936977" lon="8.683952460292597"><ele>558.3333333333334</ele><time>2026-04-25T18:02:40Z</time></trkpt><trkpt lat="47.30592678159018" lon="8.683864557685146"><ele>558.1666666666666</ele><time>2026-04-25T18:02:41Z</time></trkpt><trkpt lat="47.30598094263284" lon="8.683784939608268"><ele>558.0</ele><time>2026-04-25T18:02:42Z</time></trkpt><trkpt lat="47.306045491557164" lon="8.683712518074397"><ele>558.0</ele><time>2026-04-25T18:02:43Z</time></trkpt><trkpt lat="47.30610711289574" lon="8.683635945401258"><ele>558.0</ele><time>2026-04-25T18:02:44Z</time></trkpt><trkpt lat="47.3061687291763" lon="8.683562591419529"><ele>558.0</ele><time>2026-04-25T18:02:45Z</time></trkpt><trkpt lat="47.30623099979058" lon="8.683488733758155"><ele>558.0</ele><time>2026-04-25T18:02:46Z</time></trkpt><trkpt lat="47.30629470167871" lon="8.683416865452184"><ele>558.0</ele><time>2026-04-25T18:02:47Z</time></trkpt><trkpt lat="47.30636084870214" lon="8.68335417927615"><ele>558.0</ele><time>2026-04-25T18:02:48Z</time></trkpt><trkpt lat="47.30642947121524" lon="8.683299715797311"><ele>558.5</ele><time>2026-04-25T18:02:49Z</time></trkpt><trkpt lat="47.306499410424244" lon="8.683248776357956"><ele>559.0</ele><time>2026-04-25T18:02:50Z</time></trkpt><trkpt lat="47.306569634575524" lon="8.683198756659348"><ele>559.5</ele><time>2026-04-25T18:02:51Z</time></trkpt><trkpt lat="47.30663926923163" lon="8.68314755699036"><ele>560.0</ele><time>2026-04-25T18:02:52Z</time></trkpt><trkpt lat="47.30670835647123" lon="8.683099366685111"><ele>560.5</ele><time>2026-04-25T18:02:53Z</time></trkpt><trkpt lat="47.30677619905579" lon="8.683052390269395"><ele>561.0</ele><time>2026-04-25T18:02:54Z</time></trkpt><trkpt lat="47.306844344533886" lon="8.683002634257914"><ele>561.0</ele><time>2026-04-25T18:02:55Z</time></trkpt><trkpt lat="47.3069088573566" lon="8.68294993893051"><ele>561.0</ele><time>2026-04-25T18:02:56Z</time></trkpt><trkpt lat="47.30697454281374" lon="8.682898044235865"><ele>561.0</ele><time>2026-04-25T18:02:57Z</time></trkpt><trkpt lat="47.307040026206415" lon="8.682850687011411"><ele>561.0</ele><time>2026-04-25T18:02:58Z</time></trkpt><trkpt lat="47.307106222312285" lon="8.682807937379557"><ele>561.0</ele><time>2026-04-25T18:02:59Z</time></trkpt><trkpt lat="47.307173190181935" lon="8.682774278862617"><ele>561.0</ele><time>2026-04-25T18:03:00Z</time></trkpt><trkpt lat="47.30722901726249" lon="8.682711691142703"><ele>561.0</ele><time>2026-04-25T18:03:01Z</time></trkpt><trkpt lat="47.307292634225945" lon="8.682664187614396"><ele>561.5714285714286</ele><time>2026-04-25T18:03:02Z</time></trkpt><trkpt lat="47.30735510874755" lon="8.682617128917292"><ele>562.1428571428571</ele><time>2026-04-25T18:03:03Z</time></trkpt><trkpt lat="47.30741941615827" lon="8.68256860375684"><ele>562.7142857142857</ele><time>2026-04-25T18:03:04Z</time></trkpt><trkpt lat="47.30748276066961" lon="8.682520395022326"><ele>563.2857142857142</ele><time>2026-04-25T18:03:05Z</time></trkpt><trkpt lat="47.30755165283531" lon="8.68248881518481"><ele>563.8571428571429</ele><time>2026-04-25T18:03:06Z</time></trkpt><trkpt lat="47.30761085481164" lon="8.682428065280744"><ele>564.4285714285713</ele><time>2026-04-25T18:03:07Z</time></trkpt><trkpt lat="47.30767273926092" lon="8.682375791181105"><ele>565.0</ele><time>2026-04-25T18:03:08Z</time></trkpt><trkpt lat="47.30773588839809" lon="8.682325246719168"><ele>564.9999999999999</ele><time>2026-04-25T18:03:09Z</time></trkpt><trkpt lat="47.307798430432534" lon="8.682276328290952"><ele>565.0</ele><time>2026-04-25T18:03:10Z</time></trkpt><trkpt lat="47.3078611497385" lon="8.682228419553983"><ele>565.0</ele><time>2026-04-25T18:03:11Z</time></trkpt><trkpt lat="47.307922816893125" lon="8.682178288211718"><ele>565.0</ele><time>2026-04-25T18:03:12Z</time></trkpt><trkpt lat="47.30798419363818" lon="8.682127911931023"><ele>565.0</ele><time>2026-04-25T18:03:13Z</time></trkpt><trkpt lat="47.3080467554578" lon="8.682072953305596"><ele>564.9999999999999</ele><time>2026-04-25T18:03:14Z</time></trkpt><trkpt lat="47.3081079287183" lon="8.682019065019308"><ele>565.0</ele><time>2026-04-25T18:03:15Z</time></trkpt><trkpt lat="47.30816977235144" lon="8.681966297784077"><ele>565.7142857142857</ele><time>2026-04-25T18:03:16Z</time></trkpt><trkpt lat="47.30823091595615" lon="8.681914160184954"><ele>566.4285714285714</ele><time>2026-04-25T18:03:17Z</time></trkpt><trkpt lat="47.30829346415021" lon="8.681855734499937"><ele>567.1428571428571</ele><time>2026-04-25T18:03:18Z</time></trkpt><trkpt lat="47.30835505106068" lon="8.681800475056306"><ele>567.8571428571429</ele><time>2026-04-25T18:03:19Z</time></trkpt><trkpt lat="47.30841663943301" lon="8.681746058483345"><ele>568.5714285714286</ele><time>2026-04-25T18:03:20Z</time></trkpt><trkpt lat="47.30847718254366" lon="8.681685700866158"><ele>569.2857142857142</ele><time>2026-04-25T18:03:21Z</time></trkpt><trkpt lat="47.30853723971074" lon="8.681624165961908"><ele>570.0</ele><time>2026-04-25T18:03:22Z</time></trkpt><trkpt lat="47.30859598002191" lon="8.68156310384742"><ele>570.0</ele><time>2026-04-25T18:03:23Z</time></trkpt><trkpt lat="47.30865631375412" lon="8.681503860279333"><ele>570.0</ele><time>2026-04-25T18:03:24Z</time></trkpt><trkpt lat="47.30871536260082" lon="8.681443906775991"><ele>570.0</ele><time>2026-04-25T18:03:25Z</time></trkpt><trkpt lat="47.30877404847882" lon="8.68138300290094"><ele>570.0</ele><time>2026-04-25T18:03:26Z</time></trkpt><trkpt lat="47.3088328082037" lon="8.681319803658303"><ele>570.0</ele><time>2026-04-25T18:03:27Z</time></trkpt><trkpt lat="47.30888998898131" lon="8.681257864345902"><ele>570.0</ele><time>2026-04-25T18:03:28Z</time></trkpt><trkpt lat="47.308945619249734" lon="8.681192932871342"><ele>570.0</ele><time>2026-04-25T18:03:29Z</time></trkpt><trkpt lat="47.30900186881197" lon="8.681124118057612"><ele>570.7142857142857</ele><time>2026-04-25T18:03:30Z</time></trkpt><trkpt lat="47.309055997094305" lon="8.68105772515513"><ele>571.4285714285714</ele><time>2026-04-25T18:03:31Z</time></trkpt><trkpt lat="47.30911040664028" lon="8.68098684677892"><ele>572.1428571428571</ele><time>2026-04-25T18:03:32Z</time></trkpt><trkpt lat="47.30916417358567" lon="8.680916833783165"><ele>572.8571428571429</ele><time>2026-04-25T18:03:33Z</time></trkpt><trkpt lat="47.309217250422236" lon="8.680845350047699"><ele>573.5714285714286</ele><time>2026-04-25T18:03:34Z</time></trkpt><trkpt lat="47.30926961432074" lon="8.680772113964503"><ele>574.2857142857142</ele><time>2026-04-25T18:03:35Z</time></trkpt><trkpt lat="47.30932137148499" lon="8.680698464482482"><ele>575.0</ele><time>2026-04-25T18:03:36Z</time></trkpt><trkpt lat="47.30937058095083" lon="8.680622200971406"><ele>575.0</ele><time>2026-04-25T18:03:37Z</time></trkpt><trkpt lat="47.30942177560762" lon="8.68054268172173"><ele>575.0</ele><time>2026-04-25T18:03:38Z</time></trkpt><trkpt lat="47.30947187009017" lon="8.680469097833342"><ele>575.0</ele><time>2026-04-25T18:03:39Z</time></trkpt><trkpt lat="47.30952015772871" lon="8.680389762138175"><ele>575.0</ele><time>2026-04-25T18:03:40Z</time></trkpt><trkpt lat="47.309568712117375" lon="8.680305660973863"><ele>575.0</ele><time>2026-04-25T18:03:41Z</time></trkpt><trkpt lat="47.30961631225446" lon="8.680222552770465"><ele>575.0</ele><time>2026-04-25T18:03:42Z</time></trkpt><trkpt lat="47.30966428360387" lon="8.680141291837481"><ele>575.0</ele><time>2026-04-25T18:03:43Z</time></trkpt><trkpt lat="47.30971204198172" lon="8.680058253542335"><ele>575.0</ele><time>2026-04-25T18:03:44Z</time></trkpt><trkpt lat="47.30975805112474" lon="8.67997346842102"><ele>575.0</ele><time>2026-04-25T18:03:45Z</time></trkpt><trkpt lat="47.309803965509516" lon="8.679886930310051"><ele>575.0</ele><time>2026-04-25T18:03:46Z</time></trkpt><trkpt lat="47.30984882056784" lon="8.679800861608726"><ele>575.0</ele><time>2026-04-25T18:03:47Z</time></trkpt><trkpt lat="47.309893588757014" lon="8.679713807881589"><ele>575.0</ele><time>2026-04-25T18:03:48Z</time></trkpt><trkpt lat="47.30993951631541" lon="8.67962926393468"><ele>575.0</ele><time>2026-04-25T18:03:49Z</time></trkpt><trkpt lat="47.30998436043408" lon="8.67954463688475"><ele>575.0</ele><time>2026-04-25T18:03:50Z</time></trkpt><trkpt lat="47.31003019400663" lon="8.679458941334275"><ele>575.7142857142857</ele><time>2026-04-25T18:03:51Z</time></trkpt><trkpt lat="47.310075263726965" lon="8.679375273355937"><ele>576.4285714285713</ele><time>2026-04-25T18:03:52Z</time></trkpt><trkpt lat="47.31011985021776" lon="8.679288383793274"><ele>577.1428571428571</ele><time>2026-04-25T18:03:53Z</time></trkpt><trkpt lat="47.31016445466401" lon="8.679202420565138"><ele>577.8571428571429</ele><time>2026-04-25T18:03:54Z</time></trkpt><trkpt lat="47.31020975160656" lon="8.679114350750456"><ele>578.5714285714287</ele><time>2026-04-25T18:03:55Z</time></trkpt><trkpt lat="47.310255415041674" lon="8.679030307065814"><ele>579.2857142857143</ele><time>2026-04-25T18:03:56Z</time></trkpt><trkpt lat="47.31030019629376" lon="8.678944255552901"><ele>580.0</ele><time>2026-04-25T18:03:57Z</time></trkpt><trkpt lat="47.31034459648002" lon="8.678857270933237"><ele>580.0</ele><time>2026-04-25T18:03:58Z</time></trkpt><trkpt lat="47.31038964708725" lon="8.678769002600417"><ele>580.0</ele><time>2026-04-25T18:03:59Z</time></trkpt><trkpt lat="47.31043583496556" lon="8.67868445744745"><ele>580.0</ele><time>2026-04-25T18:04:00Z</time></trkpt><trkpt lat="47.310481064203806" lon="8.678600728516008"><ele>580.0</ele><time>2026-04-25T18:04:01Z</time></trkpt><trkpt lat="47.310526200934504" lon="8.678514377612464"><ele>580.0</ele><time>2026-04-25T18:04:02Z</time></trkpt><trkpt lat="47.310572372936164" lon="8.678428112775363"><ele>580.0</ele><time>2026-04-25T18:04:03Z</time></trkpt><trkpt lat="47.31061714003265" lon="8.678343110682656"><ele>580.0</ele><time>2026-04-25T18:04:04Z</time></trkpt><trkpt lat="47.3106624972637" lon="8.678257340648432"><ele>580.0</ele><time>2026-04-25T18:04:05Z</time></trkpt><trkpt lat="47.310707593988916" lon="8.678173034047795"><ele>580.0</ele><time>2026-04-25T18:04:06Z</time></trkpt><trkpt lat="47.310753518585884" lon="8.678085700958961"><ele>580.0</ele><time>2026-04-25T18:04:07Z</time></trkpt><trkpt lat="47.310798881326804" lon="8.67800226200009"><ele>580.0</ele><time>2026-04-25T18:04:08Z</time></trkpt><trkpt lat="47.31084504156987" lon="8.677919332727248"><ele>580.0</ele><time>2026-04-25T18:04:09Z</time></trkpt><trkpt lat="47.310889715503336" lon="8.677835395868716"><ele>580.0</ele><time>2026-04-25T18:04:10Z</time></trkpt><trkpt lat="47.31093482328791" lon="8.677749671735524"><ele>580.0</ele><time>2026-04-25T18:04:11Z</time></trkpt><trkpt lat="47.31097957769577" lon="8.677665910111509"><ele>580.7142857142858</ele><time>2026-04-25T18:04:12Z</time></trkpt><trkpt lat="47.3110244619325" lon="8.677581196454463"><ele>581.4285714285714</ele><time>2026-04-25T18:04:13Z</time></trkpt><trkpt lat="47.311068633047654" lon="8.677496678559118"><ele>582.1428571428571</ele><time>2026-04-25T18:04:14Z</time></trkpt><trkpt lat="47.31111280296323" lon="8.677410303244361"><ele>582.8571428571429</ele><time>2026-04-25T18:04:15Z</time></trkpt><trkpt lat="47.31115674141163" lon="8.677325706898635"><ele>583.5714285714286</ele><time>2026-04-25T18:04:16Z</time></trkpt><trkpt lat="47.311200817921964" lon="8.677238504347017"><ele>584.2857142857143</ele><time>2026-04-25T18:04:17Z</time></trkpt><trkpt lat="47.31124390986925" lon="8.677153080978067"><ele>585.0</ele><time>2026-04-25T18:04:18Z</time></trkpt><trkpt lat="47.31128819184772" lon="8.677069060048304"><ele>585.0</ele><time>2026-04-25T18:04:19Z</time></trkpt><trkpt lat="47.3113342023328" lon="8.676987016705345"><ele>585.0</ele><time>2026-04-25T18:04:20Z</time></trkpt><trkpt lat="47.31137942006472" lon="8.676902593957639"><ele>585.0</ele><time>2026-04-25T18:04:21Z</time></trkpt><trkpt lat="47.311424569316785" lon="8.676816470840187"><ele>585.0</ele><time>2026-04-25T18:04:22Z</time></trkpt><trkpt lat="47.31146865778613" lon="8.676729761065406"><ele>585.0</ele><time>2026-04-25T18:04:23Z</time></trkpt><trkpt lat="47.311511891475945" lon="8.676642066091437"><ele>585.0</ele><time>2026-04-25T18:04:24Z</time></trkpt><trkpt lat="47.31155430205226" lon="8.67655242145286"><ele>585.0</ele><time>2026-04-25T18:04:25Z</time></trkpt><trkpt lat="47.31159604401" lon="8.676463723710642"><ele>585.1428571428571</ele><time>2026-04-25T18:04:26Z</time></trkpt><trkpt lat="47.31163874985027" lon="8.676374672045643"><ele>585.2857142857142</ele><time>2026-04-25T18:04:27Z</time></trkpt><trkpt lat="47.31168057870763" lon="8.676286982302154"><ele>585.4285714285713</ele><time>2026-04-25T18:04:28Z</time></trkpt><trkpt lat="47.311723801540616" lon="8.676197113619217"><ele>585.5714285714286</ele><time>2026-04-25T18:04:29Z</time></trkpt><trkpt lat="47.31177023224139" lon="8.676111683361588"><ele>585.7142857142857</ele><time>2026-04-25T18:04:30Z</time></trkpt><trkpt lat="47.31182044071283" lon="8.676032900288192"><ele>585.8571428571428</ele><time>2026-04-25T18:04:31Z</time></trkpt><trkpt lat="47.31187306729895" lon="8.675955545222266"><ele>586.0</ele><time>2026-04-25T18:04:32Z</time></trkpt><trkpt lat="47.31192230463273" lon="8.675877216008642"><ele>586.7142857142857</ele><time>2026-04-25T18:04:33Z</time></trkpt><trkpt lat="47.31196844918739" lon="8.67579357019959"><ele>587.4285714285714</ele><time>2026-04-25T18:04:34Z</time></trkpt><trkpt lat="47.312012402540724" lon="8.675708382543734"><ele>588.1428571428571</ele><time>2026-04-25T18:04:35Z</time></trkpt><trkpt lat="47.31205618725655" lon="8.675622559160809"><ele>588.8571428571429</ele><time>2026-04-25T18:04:36Z</time></trkpt><trkpt lat="47.31209951612409" lon="8.675536560818568"><ele>589.5714285714286</ele><time>2026-04-25T18:04:37Z</time></trkpt><trkpt lat="47.31214180562124" lon="8.675452327861157"><ele>590.2857142857142</ele><time>2026-04-25T18:04:38Z</time></trkpt><trkpt lat="47.3121842922532" lon="8.675366567544552"><ele>591.0</ele><time>2026-04-25T18:04:39Z</time></trkpt><trkpt lat="47.31222782713673" lon="8.675282634802285"><ele>591.4285714285714</ele><time>2026-04-25T18:04:40Z</time></trkpt><trkpt lat="47.31226981714724" lon="8.675198080387057"><ele>591.8571428571429</ele><time>2026-04-25T18:04:41Z</time></trkpt><trkpt lat="47.312309518096264" lon="8.675109297396611"><ele>592.2857142857143</ele><time>2026-04-25T18:04:42Z</time></trkpt><trkpt lat="47.31234705117164" lon="8.675019028427773"><ele>592.7142857142858</ele><time>2026-04-25T18:04:43Z</time></trkpt><trkpt lat="47.31238809473913" lon="8.67493214362521"><ele>593.1428571428572</ele><time>2026-04-25T18:04:44Z</time></trkpt><trkpt lat="47.31242686572348" lon="8.674846301717642"><ele>593.5714285714286</ele><time>2026-04-25T18:04:45Z</time></trkpt><trkpt lat="47.31246204556268" lon="8.67475431961888"><ele>594.0</ele><time>2026-04-25T18:04:46Z</time></trkpt><trkpt lat="47.31249844662262" lon="8.674661177256606"><ele>594.0</ele><time>2026-04-25T18:04:47Z</time></trkpt><trkpt lat="47.31253050873293" lon="8.674568362985442"><ele>594.0</ele><time>2026-04-25T18:04:48Z</time></trkpt><trkpt lat="47.312563557041024" lon="8.674473596524177"><ele>594.0</ele><time>2026-04-25T18:04:49Z</time></trkpt><trkpt lat="47.31259572487455" lon="8.674379599501503"><ele>594.0</ele><time>2026-04-25T18:04:50Z</time></trkpt><trkpt lat="47.31262807687148" lon="8.674286097110436"><ele>594.0</ele><time>2026-04-25T18:04:51Z</time></trkpt><trkpt lat="47.312659302428" lon="8.674192059127417"><ele>594.0</ele><time>2026-04-25T18:04:52Z</time></trkpt><trkpt lat="47.312689266427256" lon="8.674097159880358"><ele>594.0</ele><time>2026-04-25T18:04:53Z</time></trkpt><trkpt lat="47.3127173326683" lon="8.674000693894648"><ele>594.5714285714286</ele><time>2026-04-25T18:04:54Z</time></trkpt><trkpt lat="47.31274638190922" lon="8.673904482514866"><ele>595.1428571428572</ele><time>2026-04-25T18:04:55Z</time></trkpt><trkpt lat="47.31277479465106" lon="8.673807029551584"><ele>595.7142857142858</ele><time>2026-04-25T18:04:56Z</time></trkpt><trkpt lat="47.31280136533975" lon="8.673709671129176"><ele>596.2857142857143</ele><time>2026-04-25T18:04:57Z</time></trkpt><trkpt lat="47.31282772916857" lon="8.673610387452046"><ele>596.8571428571429</ele><time>2026-04-25T18:04:58Z</time></trkpt><trkpt lat="47.31285696928532" lon="8.673515411183631"><ele>597.4285714285714</ele><time>2026-04-25T18:04:59Z</time></trkpt><trkpt lat="47.31288690840176" lon="8.673418594180333"><ele>598.0</ele><time>2026-04-25T18:05:00Z</time></trkpt><trkpt lat="47.3129157451854" lon="8.67332177529055"><ele>598.8571428571429</ele><time>2026-04-25T18:05:01Z</time></trkpt><trkpt lat="47.31294373815169" lon="8.673225611933544"><ele>599.7142857142858</ele><time>2026-04-25T18:05:02Z</time></trkpt><trkpt lat="47.312970711959565" lon="8.673127107739568"><ele>600.5714285714287</ele><time>2026-04-25T18:05:03Z</time></trkpt><trkpt lat="47.312996527046906" lon="8.673029093058467"><ele>601.4285714285714</ele><time>2026-04-25T18:05:04Z</time></trkpt><trkpt lat="47.31302326808971" lon="8.672931438610714"><ele>602.2857142857143</ele><time>2026-04-25T18:05:05Z</time></trkpt><trkpt lat="47.313051142857155" lon="8.672839098467325"><ele>603.1428571428572</ele><time>2026-04-25T18:05:06Z</time></trkpt><trkpt lat="47.3130787836307" lon="8.672740471729544"><ele>604.0</ele><time>2026-04-25T18:05:07Z</time></trkpt><trkpt lat="47.31310809751095" lon="8.672644077586943"><ele>604.1428571428572</ele><time>2026-04-25T18:05:08Z</time></trkpt><trkpt lat="47.313134339874395" lon="8.67254477164821"><ele>604.2857142857143</ele><time>2026-04-25T18:05:09Z</time></trkpt><trkpt lat="47.31316104138597" lon="8.672449215865061"><ele>604.4285714285714</ele><time>2026-04-25T18:05:10Z</time></trkpt><trkpt lat="47.31319285193913" lon="8.672353286283291"><ele>604.5714285714287</ele><time>2026-04-25T18:05:11Z</time></trkpt><trkpt lat="47.313223107217574" lon="8.672257785568954"><ele>604.7142857142858</ele><time>2026-04-25T18:05:12Z</time></trkpt><trkpt lat="47.31325242150999" lon="8.672159952383815"><ele>604.8571428571429</ele><time>2026-04-25T18:05:13Z</time></trkpt><trkpt lat="47.31328346922425" lon="8.672065809004199"><ele>605.0</ele><time>2026-04-25T18:05:14Z</time></trkpt><trkpt lat="47.313314202333395" lon="8.671970862035256"><ele>605.4285714285714</ele><time>2026-04-25T18:05:15Z</time></trkpt><trkpt lat="47.313340842769115" lon="8.671877288363804"><ele>605.8571428571429</ele><time>2026-04-25T18:05:16Z</time></trkpt><trkpt lat="47.31337087791164" lon="8.671781338940507"><ele>606.2857142857142</ele><time>2026-04-25T18:05:17Z</time></trkpt><trkpt lat="47.31340647291815" lon="8.671688907147873"><ele>606.7142857142858</ele><time>2026-04-25T18:05:18Z</time></trkpt><trkpt lat="47.31343696023154" lon="8.671596825290669"><ele>607.1428571428572</ele><time>2026-04-25T18:05:19Z</time></trkpt><trkpt lat="47.31346576087992" lon="8.671501132697363"><ele>607.5714285714286</ele><time>2026-04-25T18:05:20Z</time></trkpt><trkpt lat="47.31349858461599" lon="8.671410441126563"><ele>608.0</ele><time>2026-04-25T18:05:21Z</time></trkpt><trkpt lat="47.3135419647345" lon="8.671330311766603"><ele>608.0</ele><time>2026-04-25T18:05:22Z</time></trkpt><trkpt lat="47.313586239578804" lon="8.67124739999751"><ele>608.0</ele><time>2026-04-25T18:05:23Z</time></trkpt><trkpt lat="47.31362899456234" lon="8.671166095615536"><ele>608.0</ele><time>2026-04-25T18:05:24Z</time></trkpt><trkpt lat="47.31367266056523" lon="8.671084794388733"><ele>608.0</ele><time>2026-04-25T18:05:25Z</time></trkpt><trkpt lat="47.31371587969833" lon="8.671005083113357"><ele>608.0</ele><time>2026-04-25T18:05:26Z</time></trkpt><trkpt lat="47.31376213714151" lon="8.670928248619337"><ele>608.0</ele><time>2026-04-25T18:05:27Z</time></trkpt><trkpt lat="47.313807738378344" lon="8.67085220813133"><ele>608.0</ele><time>2026-04-25T18:05:28Z</time></trkpt><trkpt lat="47.31385382061213" lon="8.670778303162031"><ele>607.7142857142857</ele><time>2026-04-25T18:05:29Z</time></trkpt><trkpt lat="47.3138997934757" lon="8.67070499938754"><ele>607.4285714285714</ele><time>2026-04-25T18:05:30Z</time></trkpt><trkpt lat="47.313947042205825" lon="8.670634195301046"><ele>607.1428571428571</ele><time>2026-04-25T18:05:31Z</time></trkpt><trkpt lat="47.313995303727665" lon="8.67056598343177"><ele>606.8571428571429</ele><time>2026-04-25T18:05:32Z</time></trkpt><trkpt lat="47.314042733097544" lon="8.670498101512788"><ele>606.5714285714286</ele><time>2026-04-25T18:05:33Z</time></trkpt><trkpt lat="47.31409098521262" lon="8.670433532817844"><ele>606.2857142857143</ele><time>2026-04-25T18:05:34Z</time></trkpt><trkpt lat="47.314140063659494" lon="8.67036820608691"><ele>606.0</ele><time>2026-04-25T18:05:35Z</time></trkpt><trkpt lat="47.31418602815327" lon="8.670302119031186"><ele>607.4285714285714</ele><time>2026-04-25T18:05:36Z</time></trkpt><trkpt lat="47.31423538563652" lon="8.670240343949866"><ele>608.8571428571429</ele><time>2026-04-25T18:05:37Z</time></trkpt><trkpt lat="47.31428217989354" lon="8.670177221767483"><ele>610.2857142857142</ele><time>2026-04-25T18:05:38Z</time></trkpt><trkpt lat="47.31432953772996" lon="8.670113567817781"><ele>611.7142857142858</ele><time>2026-04-25T18:05:39Z</time></trkpt><trkpt lat="47.31437689885875" lon="8.67005041190496"><ele>613.1428571428571</ele><time>2026-04-25T18:05:40Z</time></trkpt><trkpt lat="47.31446970206122" lon="8.66992374142762"><ele>614.5714285714286</ele><time>2026-04-25T18:05:42Z</time></trkpt><trkpt lat="47.31451676040361" lon="8.669861836157818"><ele>616.0</ele><time>2026-04-25T18:05:43Z</time></trkpt><trkpt lat="47.31461122999819" lon="8.669739177155659"><ele>616.0</ele><time>2026-04-25T18:05:45Z</time></trkpt><trkpt lat="47.31470104844273" lon="8.66961199245799"><ele>616.0</ele><time>2026-04-25T18:05:47Z</time></trkpt><trkpt lat="47.31474659790588" lon="8.669546937275543"><ele>616.0</ele><time>2026-04-25T18:05:48Z</time></trkpt><trkpt lat="47.314834053012014" lon="8.669418260257851"><ele>616.0</ele><time>2026-04-25T18:05:50Z</time></trkpt><trkpt lat="47.314918638025546" lon="8.669285231348086"><ele>616.0</ele><time>2026-04-25T18:05:52Z</time></trkpt><trkpt lat="47.314998602489695" lon="8.669146892199064"><ele>616.75</ele><time>2026-04-25T18:05:54Z</time></trkpt><trkpt lat="47.31507655295954" lon="8.669005990461962"><ele>617.5</ele><time>2026-04-25T18:05:56Z</time></trkpt><trkpt lat="47.31515360652137" lon="8.66886501216154"><ele>618.25</ele><time>2026-04-25T18:05:58Z</time></trkpt><trkpt lat="47.31522774377771" lon="8.668719605007096"><ele>619.0</ele><time>2026-04-25T18:06:00Z</time></trkpt><trkpt lat="47.31529804245604" lon="8.668567564265652"><ele>619.75</ele><time>2026-04-25T18:06:02Z</time></trkpt><trkpt lat="47.315369998032196" lon="8.66841809252303"><ele>620.5</ele><time>2026-04-25T18:06:04Z</time></trkpt><trkpt lat="47.31544008774164" lon="8.668268775720161"><ele>621.25</ele><time>2026-04-25T18:06:06Z</time></trkpt><trkpt lat="47.31550472986074" lon="8.668113861656442"><ele>622.0</ele><time>2026-04-25T18:06:08Z</time></trkpt><trkpt lat="47.31557135355734" lon="8.667959503108216"><ele>622.0</ele><time>2026-04-25T18:06:10Z</time></trkpt><trkpt lat="47.3156369442848" lon="8.6678050329305"><ele>622.0</ele><time>2026-04-25T18:06:12Z</time></trkpt><trkpt lat="47.31570471916649" lon="8.667650791621657"><ele>622.0</ele><time>2026-04-25T18:06:14Z</time></trkpt><trkpt lat="47.315777286314436" lon="8.667498356290142"><ele>622.0</ele><time>2026-04-25T18:06:16Z</time></trkpt><trkpt lat="47.31585377715987" lon="8.66734878330922"><ele>623.1428571428571</ele><time>2026-04-25T18:06:18Z</time></trkpt><trkpt lat="47.315891863066824" lon="8.667272519410679"><ele>624.2857142857143</ele><time>2026-04-25T18:06:19Z</time></trkpt><trkpt lat="47.31593056079448" lon="8.667194869536386"><ele>625.4285714285714</ele><time>2026-04-25T18:06:20Z</time></trkpt><trkpt lat="47.3159697496338" lon="8.667115140911713"><ele>626.5714285714286</ele><time>2026-04-25T18:06:21Z</time></trkpt><trkpt lat="47.31600904362567" lon="8.667034147624777"><ele>627.7142857142858</ele><time>2026-04-25T18:06:22Z</time></trkpt><trkpt lat="47.31604922104902" lon="8.66695263655665"><ele>628.8571428571429</ele><time>2026-04-25T18:06:23Z</time></trkpt><trkpt lat="47.316091587598514" lon="8.666871653464728"><ele>630.0</ele><time>2026-04-25T18:06:24Z</time></trkpt><trkpt lat="47.31613602962206" lon="8.666791292515295"><ele>630.1428571428571</ele><time>2026-04-25T18:06:25Z</time></trkpt><trkpt lat="47.31618322350117" lon="8.66671273104157"><ele>630.2857142857142</ele><time>2026-04-25T18:06:26Z</time></trkpt><trkpt lat="47.31623123152831" lon="8.666633585787272"><ele>630.4285714285714</ele><time>2026-04-25T18:06:27Z</time></trkpt><trkpt lat="47.316281675891354" lon="8.666555313871612"><ele>630.5714285714286</ele><time>2026-04-25T18:06:28Z</time></trkpt><trkpt lat="47.31633517264173" lon="8.666480801209966"><ele>630.7142857142857</ele><time>2026-04-25T18:06:29Z</time></trkpt><trkpt lat="47.31639061408247" lon="8.666410030669004"><ele>630.8571428571429</ele><time>2026-04-25T18:06:30Z</time></trkpt><trkpt lat="47.316449971348355" lon="8.666340226733315"><ele>631.0</ele><time>2026-04-25T18:06:31Z</time></trkpt><trkpt lat="47.316512190660085" lon="8.66627532501941"><ele>631.0</ele><time>2026-04-25T18:06:32Z</time></trkpt><trkpt lat="47.31657852795157" lon="8.666215783639066"><ele>631.0</ele><time>2026-04-25T18:06:33Z</time></trkpt><trkpt lat="47.31664413869312" lon="8.666154001829758"><ele>631.0</ele><time>2026-04-25T18:06:34Z</time></trkpt><trkpt lat="47.316712140633534" lon="8.666097860362827"><ele>631.0</ele><time>2026-04-25T18:06:35Z</time></trkpt><trkpt lat="47.31678420487862" lon="8.666044978212742"><ele>631.0</ele><time>2026-04-25T18:06:36Z</time></trkpt><trkpt lat="47.31685763370138" lon="8.665998095651634"><ele>631.0</ele><time>2026-04-25T18:06:37Z</time></trkpt><trkpt lat="47.31693282478544" lon="8.665958535488889"><ele>632.0</ele><time>2026-04-25T18:06:38Z</time></trkpt><trkpt lat="47.3170092312692" lon="8.665924559596263"><ele>633.0</ele><time>2026-04-25T18:06:39Z</time></trkpt><trkpt lat="47.31708667365583" lon="8.665894429456054"><ele>634.0</ele><time>2026-04-25T18:06:40Z</time></trkpt><trkpt lat="47.31716345099185" lon="8.665866602195653"><ele>635.0</ele><time>2026-04-25T18:06:41Z</time></trkpt><trkpt lat="47.317240745287386" lon="8.6658436062464"><ele>636.0</ele><time>2026-04-25T18:06:42Z</time></trkpt><trkpt lat="47.31731871344492" lon="8.665824895744281"><ele>637.0</ele><time>2026-04-25T18:06:43Z</time></trkpt><trkpt lat="47.317395969587764" lon="8.665808015086956"><ele>637.0</ele><time>2026-04-25T18:06:44Z</time></trkpt><trkpt lat="47.317472951103504" lon="8.665791469202045"><ele>637.0</ele><time>2026-04-25T18:06:45Z</time></trkpt><trkpt lat="47.31755043289641" lon="8.665773160947834"><ele>637.0</ele><time>2026-04-25T18:06:46Z</time></trkpt><trkpt lat="47.31762641893863" lon="8.66576104602381"><ele>637.0</ele><time>2026-04-25T18:06:47Z</time></trkpt><trkpt lat="47.31770253346217" lon="8.665752735888473"><ele>637.0</ele><time>2026-04-25T18:06:48Z</time></trkpt><trkpt lat="47.31777877202802" lon="8.665740694009886"><ele>637.0</ele><time>2026-04-25T18:06:49Z</time></trkpt><trkpt lat="47.317855239630525" lon="8.665728582344066"><ele>637.0</ele><time>2026-04-25T18:06:50Z</time></trkpt><trkpt lat="47.31793019596636" lon="8.6657165010687"><ele>637.0</ele><time>2026-04-25T18:06:51Z</time></trkpt><trkpt lat="47.3180059720559" lon="8.665705237368053"><ele>637.0</ele><time>2026-04-25T18:06:52Z</time></trkpt><trkpt lat="47.31808162709444" lon="8.665692720341307"><ele>637.0</ele><time>2026-04-25T18:06:53Z</time></trkpt><trkpt lat="47.31815715821713" lon="8.66567823502038"><ele>637.0</ele><time>2026-04-25T18:06:54Z</time></trkpt><trkpt lat="47.31823230531746" lon="8.66566523548087"><ele>637.0</ele><time>2026-04-25T18:06:55Z</time></trkpt><trkpt lat="47.318308249280484" lon="8.665652028016362"><ele>636.6666666666667</ele><time>2026-04-25T18:06:56Z</time></trkpt><trkpt lat="47.31838355916783" lon="8.665638720818336"><ele>636.3333333333334</ele><time>2026-04-25T18:06:57Z</time></trkpt><trkpt lat="47.318458687504126" lon="8.665625127949994"><ele>636.0</ele><time>2026-04-25T18:06:58Z</time></trkpt><trkpt lat="47.318533014759126" lon="8.665609150885425"><ele>635.6666666666666</ele><time>2026-04-25T18:06:59Z</time></trkpt><trkpt lat="47.31860785823464" lon="8.665590384353848"><ele>635.3333333333333</ele><time>2026-04-25T18:07:00Z</time></trkpt><trkpt lat="47.31868189054316" lon="8.665570267983535"><ele>635.0</ele><time>2026-04-25T18:07:01Z</time></trkpt><trkpt lat="47.31875557445677" lon="8.665546949824511"><ele>635.0</ele><time>2026-04-25T18:07:02Z</time></trkpt><trkpt lat="47.31882868552231" lon="8.665521722908233"><ele>635.0</ele><time>2026-04-25T18:07:03Z</time></trkpt><trkpt lat="47.31890105315527" lon="8.665492633033423"><ele>635.0</ele><time>2026-04-25T18:07:04Z</time></trkpt><trkpt lat="47.3189731017696" lon="8.665461677277017"><ele>635.0</ele><time>2026-04-25T18:07:05Z</time></trkpt><trkpt lat="47.319043362405" lon="8.66542775355908"><ele>635.0</ele><time>2026-04-25T18:07:06Z</time></trkpt><trkpt lat="47.31911383931586" lon="8.665387807764006"><ele>635.0</ele><time>2026-04-25T18:07:07Z</time></trkpt><trkpt lat="47.319183872355055" lon="8.665346231998525"><ele>634.8571428571428</ele><time>2026-04-25T18:07:08Z</time></trkpt><trkpt lat="47.31925163147902" lon="8.665301743836208"><ele>634.7142857142857</ele><time>2026-04-25T18:07:09Z</time></trkpt><trkpt lat="47.319319165263884" lon="8.66525346579091"><ele>634.5714285714286</ele><time>2026-04-25T18:07:10Z</time></trkpt><trkpt lat="47.31938562089587" lon="8.665203267229701"><ele>634.4285714285713</ele><time>2026-04-25T18:07:11Z</time></trkpt><trkpt lat="47.31944980193471" lon="8.665148715850616"><ele>634.2857142857142</ele><time>2026-04-25T18:07:12Z</time></trkpt><trkpt lat="47.31951314899112" lon="8.66509080249629"><ele>634.1428571428571</ele><time>2026-04-25T18:07:13Z</time></trkpt><trkpt lat="47.31957362013794" lon="8.66502895603322"><ele>634.0</ele><time>2026-04-25T18:07:14Z</time></trkpt><trkpt lat="47.319633864685315" lon="8.664966139387698"><ele>634.8571428571429</ele><time>2026-04-25T18:07:15Z</time></trkpt><trkpt lat="47.31969222939389" lon="8.664899056307133"><ele>635.7142857142857</ele><time>2026-04-25T18:07:16Z</time></trkpt><trkpt lat="47.31974983278625" lon="8.664831577775761"><ele>636.5714285714286</ele><time>2026-04-25T18:07:17Z</time></trkpt><trkpt lat="47.319805795603564" lon="8.664761004734201"><ele>637.4285714285714</ele><time>2026-04-25T18:07:18Z</time></trkpt><trkpt lat="47.31985898470497" lon="8.664687472162395"><ele>638.2857142857143</ele><time>2026-04-25T18:07:19Z</time></trkpt><trkpt lat="47.319911366038454" lon="8.664611726839867"><ele>639.1428571428571</ele><time>2026-04-25T18:07:20Z</time></trkpt><trkpt lat="47.31996436631635" lon="8.664535782179408"><ele>640.0</ele><time>2026-04-25T18:07:21Z</time></trkpt><trkpt lat="47.320017853981675" lon="8.664458766626455"><ele>641.1428571428571</ele><time>2026-04-25T18:07:22Z</time></trkpt><trkpt lat="47.320069841157675" lon="8.66438025801243"><ele>642.2857142857143</ele><time>2026-04-25T18:07:23Z</time></trkpt><trkpt lat="47.320121616915344" lon="8.664302313827939"><ele>643.4285714285714</ele><time>2026-04-25T18:07:24Z</time></trkpt><trkpt lat="47.320172377457006" lon="8.664223319068332"><ele>644.5714285714286</ele><time>2026-04-25T18:07:25Z</time></trkpt><trkpt lat="47.32022239372008" lon="8.664144324921136"><ele>645.7142857142857</ele><time>2026-04-25T18:07:26Z</time></trkpt><trkpt lat="47.32027330401385" lon="8.664064723840207"><ele>646.8571428571429</ele><time>2026-04-25T18:07:27Z</time></trkpt><trkpt lat="47.32032296009211" lon="8.663985151156757"><ele>648.0</ele><time>2026-04-25T18:07:28Z</time></trkpt><trkpt lat="47.3203732108301" lon="8.66390474804552"><ele>648.0</ele><time>2026-04-25T18:07:29Z</time></trkpt><trkpt lat="47.320423461766566" lon="8.663825632003965"><ele>648.0</ele><time>2026-04-25T18:07:30Z</time></trkpt><trkpt lat="47.320473956632334" lon="8.663746065296223"><ele>648.0</ele><time>2026-04-25T18:07:31Z</time></trkpt><trkpt lat="47.32052354567963" lon="8.663666172525609"><ele>648.0</ele><time>2026-04-25T18:07:32Z</time></trkpt><trkpt lat="47.320573390798955" lon="8.663585727488242"><ele>648.0</ele><time>2026-04-25T18:07:33Z</time></trkpt><trkpt lat="47.32062270305462" lon="8.663504928440636"><ele>648.0</ele><time>2026-04-25T18:07:34Z</time></trkpt><trkpt lat="47.32067279876292" lon="8.663426095329465"><ele>648.0</ele><time>2026-04-25T18:07:35Z</time></trkpt><trkpt lat="47.320723292303455" lon="8.663348992306943"><ele>648.0</ele><time>2026-04-25T18:07:36Z</time></trkpt><trkpt lat="47.32077371544748" lon="8.663270417331438"><ele>648.0</ele><time>2026-04-25T18:07:37Z</time></trkpt><trkpt lat="47.32082313401442" lon="8.663190666472298"><ele>648.0</ele><time>2026-04-25T18:07:38Z</time></trkpt><trkpt lat="47.32086959933541" lon="8.663107043213987"><ele>648.0</ele><time>2026-04-25T18:07:39Z</time></trkpt><trkpt lat="47.32091608338826" lon="8.663020749906828"><ele>648.0</ele><time>2026-04-25T18:07:40Z</time></trkpt><trkpt lat="47.32096158064602" lon="8.662934063371173"><ele>648.0</ele><time>2026-04-25T18:07:41Z</time></trkpt><trkpt lat="47.32100558580447" lon="8.662846096504843"><ele>648.0</ele><time>2026-04-25T18:07:42Z</time></trkpt><trkpt lat="47.32105135195681" lon="8.662758599264752"><ele>649.1666666666666</ele><time>2026-04-25T18:07:43Z</time></trkpt><trkpt lat="47.32109698737557" lon="8.662670372029915"><ele>650.3333333333334</ele><time>2026-04-25T18:07:44Z</time></trkpt><trkpt lat="47.32114151949855" lon="8.662579366106229"><ele>651.5</ele><time>2026-04-25T18:07:45Z</time></trkpt><trkpt lat="47.32118492367852" lon="8.662486451209457"><ele>652.6666666666667</ele><time>2026-04-25T18:07:46Z</time></trkpt><trkpt lat="47.32122806089107" lon="8.662392514251644"><ele>653.8333333333334</ele><time>2026-04-25T18:07:47Z</time></trkpt><trkpt lat="47.32126909499336" lon="8.662296950076664"><ele>655.0</ele><time>2026-04-25T18:07:48Z</time></trkpt><trkpt lat="47.32131017416911" lon="8.662198646046972"><ele>655.0</ele><time>2026-04-25T18:07:49Z</time></trkpt><trkpt lat="47.32135372152933" lon="8.66210389629246"><ele>655.0</ele><time>2026-04-25T18:07:50Z</time></trkpt><trkpt lat="47.32139981285399" lon="8.662010100949095"><ele>655.0</ele><time>2026-04-25T18:07:51Z</time></trkpt><trkpt lat="47.321445206197545" lon="8.661917285409276"><ele>655.0</ele><time>2026-04-25T18:07:52Z</time></trkpt><trkpt lat="47.321489747682755" lon="8.66182205396756"><ele>655.0</ele><time>2026-04-25T18:07:53Z</time></trkpt><trkpt lat="47.32153161075828" lon="8.661725443876202"><ele>655.0</ele><time>2026-04-25T18:07:54Z</time></trkpt><trkpt lat="47.32157416198418" lon="8.66162721130744"><ele>655.1666666666667</ele><time>2026-04-25T18:07:55Z</time></trkpt><trkpt lat="47.32161691864132" lon="8.661530802608597"><ele>655.3333333333334</ele><time>2026-04-25T18:07:56Z</time></trkpt><trkpt lat="47.32165975541227" lon="8.661435130319488"><ele>655.5</ele><time>2026-04-25T18:07:57Z</time></trkpt><trkpt lat="47.32170319125905" lon="8.66133906045118"><ele>655.6666666666666</ele><time>2026-04-25T18:07:58Z</time></trkpt><trkpt lat="47.32174764476265" lon="8.661243504476559"><ele>655.8333333333333</ele><time>2026-04-25T18:07:59Z</time></trkpt><trkpt lat="47.32179005655926" lon="8.66114839706654"><ele>656.0</ele><time>2026-04-25T18:08:00Z</time></trkpt><trkpt lat="47.32183263214097" lon="8.661051300554035"><ele>656.0</ele><time>2026-04-25T18:08:01Z</time></trkpt><trkpt lat="47.321875328499246" lon="8.660955585663123"><ele>656.0</ele><time>2026-04-25T18:08:02Z</time></trkpt><trkpt lat="47.32190976643778" lon="8.660853773271112"><ele>656.0</ele><time>2026-04-25T18:08:03Z</time></trkpt><trkpt lat="47.3219440221828" lon="8.66075429164177"><ele>656.0</ele><time>2026-04-25T18:08:04Z</time></trkpt><trkpt lat="47.321981355766404" lon="8.660670455712431"><ele>656.0</ele><time>2026-04-25T18:08:05Z</time></trkpt><trkpt lat="47.3220578547126" lon="8.660589842701887"><ele>656.0</ele><time>2026-04-25T18:08:07Z</time></trkpt><trkpt lat="47.32214617337678" lon="8.660642493517082"><ele>655.1999999999999</ele><time>2026-04-25T18:08:09Z</time></trkpt><trkpt lat="47.32225885709994" lon="8.660717695426976"><ele>654.4</ele><time>2026-04-25T18:08:11Z</time></trkpt><trkpt lat="47.32238416722863" lon="8.660758136323393"><ele>653.6</ele><time>2026-04-25T18:08:13Z</time></trkpt><trkpt lat="47.32245311996022" lon="8.660758738939446"><ele>652.8</ele><time>2026-04-25T18:08:14Z</time></trkpt><trkpt lat="47.32252171159829" lon="8.66075955641037"><ele>652.0</ele><time>2026-04-25T18:08:15Z</time></trkpt><trkpt lat="47.322594253905294" lon="8.660758832643028"><ele>652.0</ele><time>2026-04-25T18:08:16Z</time></trkpt><trkpt lat="47.3226695420232" lon="8.660760235118222"><ele>652.0</ele><time>2026-04-25T18:08:17Z</time></trkpt><trkpt lat="47.32274816817813" lon="8.660761032839236"><ele>652.0</ele><time>2026-04-25T18:08:18Z</time></trkpt><trkpt lat="47.32282793173791" lon="8.660763634672646"><ele>652.0</ele><time>2026-04-25T18:08:19Z</time></trkpt><trkpt lat="47.322911968406075" lon="8.660763252767646"><ele>652.0</ele><time>2026-04-25T18:08:20Z</time></trkpt><trkpt lat="47.322994496194845" lon="8.660758097212312"><ele>652.0</ele><time>2026-04-25T18:08:21Z</time></trkpt><trkpt lat="47.32307237329757" lon="8.660759292276332"><ele>652.1666666666667</ele><time>2026-04-25T18:08:22Z</time></trkpt><trkpt lat="47.32315027234332" lon="8.660756898525372"><ele>652.3333333333334</ele><time>2026-04-25T18:08:23Z</time></trkpt><trkpt lat="47.32323315888281" lon="8.660752493967697"><ele>652.5</ele><time>2026-04-25T18:08:24Z</time></trkpt><trkpt lat="47.32331354551547" lon="8.660745840071089"><ele>652.6666666666666</ele><time>2026-04-25T18:08:25Z</time></trkpt><trkpt lat="47.32338868403106" lon="8.660733312228935"><ele>652.8333333333333</ele><time>2026-04-25T18:08:26Z</time></trkpt><trkpt lat="47.32346540818639" lon="8.660708806139093"><ele>653.0</ele><time>2026-04-25T18:08:27Z</time></trkpt><trkpt lat="47.32354123905821" lon="8.660679679371963"><ele>653.0</ele><time>2026-04-25T18:08:28Z</time></trkpt><trkpt lat="47.32361708702003" lon="8.660648906289044"><ele>653.0</ele><time>2026-04-25T18:08:29Z</time></trkpt><trkpt lat="47.32369185631859" lon="8.660617716821701"><ele>653.0</ele><time>2026-04-25T18:08:30Z</time></trkpt><trkpt lat="47.32376820058885" lon="8.660583914592808"><ele>653.0</ele><time>2026-04-25T18:08:31Z</time></trkpt><trkpt lat="47.323844241927404" lon="8.660547929494763"><ele>653.0</ele><time>2026-04-25T18:08:32Z</time></trkpt><trkpt lat="47.32391963162609" lon="8.660511606790005"><ele>653.0</ele><time>2026-04-25T18:08:33Z</time></trkpt><trkpt lat="47.32399759504757" lon="8.660478874084136"><ele>652.3333333333333</ele><time>2026-04-25T18:08:34Z</time></trkpt><trkpt lat="47.32407478264193" lon="8.660447307869862"><ele>651.6666666666666</ele><time>2026-04-25T18:08:35Z</time></trkpt><trkpt lat="47.32415411419304" lon="8.660415566903925"><ele>651.0</ele><time>2026-04-25T18:08:36Z</time></trkpt><trkpt lat="47.3242328671147" lon="8.660388009244086"><ele>650.3333333333334</ele><time>2026-04-25T18:08:37Z</time></trkpt><trkpt lat="47.32430885899274" lon="8.66036856045636"><ele>649.6666666666667</ele><time>2026-04-25T18:08:38Z</time></trkpt><trkpt lat="47.324378492168805" lon="8.660339382882338"><ele>649.0</ele><time>2026-04-25T18:08:39Z</time></trkpt><trkpt lat="47.32444294686989" lon="8.660315503733795"><ele>649.6</ele><time>2026-04-25T18:08:40Z</time></trkpt><trkpt lat="47.32454781367343" lon="8.660261277163894"><ele>650.2</ele><time>2026-04-25T18:08:42Z</time></trkpt><trkpt lat="47.32462146099181" lon="8.6601903876313"><ele>650.8000000000001</ele><time>2026-04-25T18:08:44Z</time></trkpt><trkpt lat="47.32458361948923" lon="8.660033313509437"><ele>651.4000000000001</ele><time>2026-04-25T18:08:45Z</time></trkpt><trkpt lat="47.32455950549778" lon="8.659936140869032"><ele>652.0</ele><time>2026-04-25T18:08:46Z</time></trkpt><trkpt lat="47.3245514526911" lon="8.659833988894539"><ele>652.0</ele><time>2026-04-25T18:08:47Z</time></trkpt><trkpt lat="47.32453871814994" lon="8.659728568278341"><ele>652.0</ele><time>2026-04-25T18:08:48Z</time></trkpt><trkpt lat="47.32452487195991" lon="8.659621996895826"><ele>652.0</ele><time>2026-04-25T18:08:49Z</time></trkpt><trkpt lat="47.32451147587486" lon="8.65951345449736"><ele>652.0</ele><time>2026-04-25T18:08:50Z</time></trkpt><trkpt lat="47.324499148269396" lon="8.659404217922734"><ele>652.0</ele><time>2026-04-25T18:08:51Z</time></trkpt><trkpt lat="47.324500549550564" lon="8.659293096320118"><ele>652.0</ele><time>2026-04-25T18:08:52Z</time></trkpt><trkpt lat="47.324511799299785" lon="8.659182239542016"><ele>652.0</ele><time>2026-04-25T18:08:53Z</time></trkpt><trkpt lat="47.32452589031672" lon="8.65907240759312"><ele>652.0</ele><time>2026-04-25T18:08:54Z</time></trkpt><trkpt lat="47.32455178021823" lon="8.658965659199737"><ele>652.0</ele><time>2026-04-25T18:08:55Z</time></trkpt><trkpt lat="47.324569817760924" lon="8.658852183719713"><ele>652.0</ele><time>2026-04-25T18:08:56Z</time></trkpt><trkpt lat="47.32455521211721" lon="8.658737490460135"><ele>652.0</ele><time>2026-04-25T18:08:57Z</time></trkpt><trkpt lat="47.32452383036803" lon="8.658635789918883"><ele>652.0</ele><time>2026-04-25T18:08:58Z</time></trkpt><trkpt lat="47.32447854719906" lon="8.658560857501458"><ele>652.0</ele><time>2026-04-25T18:08:59Z</time></trkpt><trkpt lat="47.32443377081697" lon="8.65848845783245"><ele>652.0</ele><time>2026-04-25T18:09:00Z</time></trkpt><trkpt lat="47.32438445923659" lon="8.658386108962752"><ele>651.6666666666667</ele><time>2026-04-25T18:09:02Z</time></trkpt><trkpt lat="47.32439274631184" lon="8.658264513117388"><ele>651.3333333333334</ele><time>2026-04-25T18:09:04Z</time></trkpt><trkpt lat="47.324504783491854" lon="8.65817229555698"><ele>651.0</ele><time>2026-04-25T18:09:06Z</time></trkpt><trkpt lat="47.32456771392735" lon="8.658126620276617"><ele>650.6666666666666</ele><time>2026-04-25T18:09:07Z</time></trkpt><trkpt lat="47.32463976685905" lon="8.658082970644598"><ele>650.3333333333333</ele><time>2026-04-25T18:09:08Z</time></trkpt><trkpt lat="47.32471481521836" lon="8.658040368312845"><ele>650.0</ele><time>2026-04-25T18:09:09Z</time></trkpt><trkpt lat="47.324791390227546" lon="8.657989904551936"><ele>650.0</ele><time>2026-04-25T18:09:10Z</time></trkpt><trkpt lat="47.32486494180651" lon="8.657936626053091"><ele>650.0</ele><time>2026-04-25T18:09:11Z</time></trkpt><trkpt lat="47.32494048045707" lon="8.657883219248772"><ele>650.0</ele><time>2026-04-25T18:09:12Z</time></trkpt><trkpt lat="47.32501599338756" lon="8.657832388942843"><ele>650.0</ele><time>2026-04-25T18:09:13Z</time></trkpt><trkpt lat="47.32509217721263" lon="8.6577846301977"><ele>650.0</ele><time>2026-04-25T18:09:14Z</time></trkpt><trkpt lat="47.32516808971842" lon="8.657736739920475"><ele>650.0</ele><time>2026-04-25T18:09:15Z</time></trkpt><trkpt lat="47.325242290272335" lon="8.657685644247744"><ele>649.8333333333333</ele><time>2026-04-25T18:09:16Z</time></trkpt><trkpt lat="47.325316173839774" lon="8.657636368615377"><ele>649.6666666666666</ele><time>2026-04-25T18:09:17Z</time></trkpt><trkpt lat="47.325388696172325" lon="8.657584730905224"><ele>649.5</ele><time>2026-04-25T18:09:18Z</time></trkpt><trkpt lat="47.32546087057807" lon="8.65753269263641"><ele>649.3333333333334</ele><time>2026-04-25T18:09:19Z</time></trkpt><trkpt lat="47.325531941641415" lon="8.65748236353908"><ele>649.1666666666667</ele><time>2026-04-25T18:09:20Z</time></trkpt><trkpt lat="47.32560307272565" lon="8.65743249197193"><ele>649.0</ele><time>2026-04-25T18:09:21Z</time></trkpt><trkpt lat="47.32567328201309" lon="8.657381255321908"><ele>649.0</ele><time>2026-04-25T18:09:22Z</time></trkpt><trkpt lat="47.32574328814736" lon="8.65732854258337"><ele>649.0</ele><time>2026-04-25T18:09:23Z</time></trkpt><trkpt lat="47.325813519652066" lon="8.657273395251703"><ele>649.0</ele><time>2026-04-25T18:09:24Z</time></trkpt><trkpt lat="47.325885304029526" lon="8.657216628465504"><ele>649.0</ele><time>2026-04-25T18:09:25Z</time></trkpt><trkpt lat="47.32595826192604" lon="8.657158533757334"><ele>649.0</ele><time>2026-04-25T18:09:26Z</time></trkpt><trkpt lat="47.32603072685187" lon="8.65709705450489"><ele>649.0</ele><time>2026-04-25T18:09:27Z</time></trkpt><trkpt lat="47.32610135959229" lon="8.657037384810366"><ele>649.0</ele><time>2026-04-25T18:09:28Z</time></trkpt><trkpt lat="47.326175167622615" lon="8.65697460703236"><ele>649.0</ele><time>2026-04-25T18:09:29Z</time></trkpt><trkpt lat="47.32625040931782" lon="8.656910514820687"><ele>649.0</ele><time>2026-04-25T18:09:30Z</time></trkpt><trkpt lat="47.32632625891498" lon="8.656846548855357"><ele>649.0</ele><time>2026-04-25T18:09:31Z</time></trkpt><trkpt lat="47.326404876768805" lon="8.65678285282608"><ele>649.0</ele><time>2026-04-25T18:09:32Z</time></trkpt><trkpt lat="47.326482958062975" lon="8.656715010649233"><ele>649.0</ele><time>2026-04-25T18:09:33Z</time></trkpt><trkpt lat="47.32656429735459" lon="8.656649368948996"><ele>648.8000000000001</ele><time>2026-04-25T18:09:34Z</time></trkpt><trkpt lat="47.326646957502966" lon="8.656587688220386"><ele>648.6</ele><time>2026-04-25T18:09:35Z</time></trkpt><trkpt lat="47.326732856218634" lon="8.65652850073429"><ele>648.4</ele><time>2026-04-25T18:09:36Z</time></trkpt><trkpt lat="47.326818368729796" lon="8.656470433663255"><ele>648.2</ele><time>2026-04-25T18:09:37Z</time></trkpt><trkpt lat="47.32690468185522" lon="8.656410474771231"><ele>648.0</ele><time>2026-04-25T18:09:38Z</time></trkpt><trkpt lat="47.326992324145" lon="8.656348362487021"><ele>648.0</ele><time>2026-04-25T18:09:39Z</time></trkpt><trkpt lat="47.32707878480341" lon="8.65628650722453"><ele>648.0</ele><time>2026-04-25T18:09:40Z</time></trkpt><trkpt lat="47.327167319095295" lon="8.656225148764166"><ele>648.0</ele><time>2026-04-25T18:09:41Z</time></trkpt><trkpt lat="47.32725637918022" lon="8.656166163496883"><ele>648.0</ele><time>2026-04-25T18:09:42Z</time></trkpt><trkpt lat="47.32734547755921" lon="8.65610552212549"><ele>648.0</ele><time>2026-04-25T18:09:43Z</time></trkpt><trkpt lat="47.32743460741132" lon="8.656045727887498"><ele>646.5999999999999</ele><time>2026-04-25T18:09:44Z</time></trkpt><trkpt lat="47.32752441690878" lon="8.655984621795126"><ele>645.1999999999999</ele><time>2026-04-25T18:09:45Z</time></trkpt><trkpt lat="47.32761262612358" lon="8.655923894777917"><ele>643.8</ele><time>2026-04-25T18:09:46Z</time></trkpt><trkpt lat="47.327701706353416" lon="8.655863332293594"><ele>642.4</ele><time>2026-04-25T18:09:47Z</time></trkpt><trkpt lat="47.32779149786975" lon="8.655804862690202"><ele>641.0</ele><time>2026-04-25T18:09:48Z</time></trkpt><trkpt lat="47.327880696795376" lon="8.655745307763738"><ele>641.0</ele><time>2026-04-25T18:09:49Z</time></trkpt><trkpt lat="47.327968181571414" lon="8.655687456826566"><ele>641.0</ele><time>2026-04-25T18:09:50Z</time></trkpt><trkpt lat="47.3280555802867" lon="8.65562683623987"><ele>641.0</ele><time>2026-04-25T18:09:51Z</time></trkpt><trkpt lat="47.32814145425315" lon="8.65556579416071"><ele>641.0</ele><time>2026-04-25T18:09:52Z</time></trkpt><trkpt lat="47.328228015313826" lon="8.655506297436787"><ele>641.0</ele><time>2026-04-25T18:09:53Z</time></trkpt><trkpt lat="47.32831521163978" lon="8.655448048088175"><ele>640.4</ele><time>2026-04-25T18:09:54Z</time></trkpt><trkpt lat="47.32839821116858" lon="8.65538685656581"><ele>639.8</ele><time>2026-04-25T18:09:55Z</time></trkpt><trkpt lat="47.32847668067329" lon="8.655313443205303"><ele>639.1999999999999</ele><time>2026-04-25T18:09:56Z</time></trkpt><trkpt lat="47.3285539540759" lon="8.655243264818436"><ele>638.5999999999999</ele><time>2026-04-25T18:09:57Z</time></trkpt><trkpt lat="47.3286322819837" lon="8.65517709978482"><ele>638.0</ele><time>2026-04-25T18:09:58Z</time></trkpt><trkpt lat="47.3287135210612" lon="8.655120820577341"><ele>638.0</ele><time>2026-04-25T18:09:59Z</time></trkpt><trkpt lat="47.328794419599184" lon="8.655065041417034"><ele>638.0</ele><time>2026-04-25T18:10:00Z</time></trkpt><trkpt lat="47.32887740674474" lon="8.655016685401902"><ele>638.0</ele><time>2026-04-25T18:10:01Z</time></trkpt><trkpt lat="47.32895869664726" lon="8.654964817483533"><ele>638.0</ele><time>2026-04-25T18:10:02Z</time></trkpt><trkpt lat="47.32904183999129" lon="8.654914491370615"><ele>638.0</ele><time>2026-04-25T18:10:03Z</time></trkpt><trkpt lat="47.32912877429949" lon="8.65487323992773"><ele>638.0</ele><time>2026-04-25T18:10:04Z</time></trkpt><trkpt lat="47.32922044880659" lon="8.654849093551023"><ele>637.4</ele><time>2026-04-25T18:10:05Z</time></trkpt><trkpt lat="47.329312187656335" lon="8.654845977977116"><ele>636.8</ele><time>2026-04-25T18:10:06Z</time></trkpt><trkpt lat="47.329411186602485" lon="8.65485096519531"><ele>636.2</ele><time>2026-04-25T18:10:07Z</time></trkpt><trkpt lat="47.329506367602335" lon="8.654858627587354"><ele>635.6</ele><time>2026-04-25T18:10:08Z</time></trkpt><trkpt lat="47.32960708381982" lon="8.65484421022577"><ele>635.0</ele><time>2026-04-25T18:10:09Z</time></trkpt><trkpt lat="47.32970165105686" lon="8.654799019719922"><ele>633.8</ele><time>2026-04-25T18:10:10Z</time></trkpt><trkpt lat="47.3297953591099" lon="8.654759095874498"><ele>632.6</ele><time>2026-04-25T18:10:11Z</time></trkpt><trkpt lat="47.329890895238826" lon="8.654743636250101"><ele>631.4</ele><time>2026-04-25T18:10:12Z</time></trkpt><trkpt lat="47.32998820476418" lon="8.65474000878304"><ele>630.2</ele><time>2026-04-25T18:10:13Z</time></trkpt><trkpt lat="47.330085155262005" lon="8.654740679188375"><ele>629.0</ele><time>2026-04-25T18:10:14Z</time></trkpt><trkpt lat="47.33018061302813" lon="8.65472706980617"><ele>629.0</ele><time>2026-04-25T18:10:15Z</time></trkpt><trkpt lat="47.33027656630653" lon="8.654720291233081"><ele>629.0</ele><time>2026-04-25T18:10:16Z</time></trkpt><trkpt lat="47.330373516049626" lon="8.654732225192685"><ele>629.0</ele><time>2026-04-25T18:10:17Z</time></trkpt><trkpt lat="47.330472046932236" lon="8.654747845016145"><ele>629.0</ele><time>2026-04-25T18:10:18Z</time></trkpt><trkpt lat="47.33057203309691" lon="8.65477317104464"><ele>629.0</ele><time>2026-04-25T18:10:19Z</time></trkpt><trkpt lat="47.3306724922952" lon="8.65479367656212"><ele>628.2</ele><time>2026-04-25T18:10:20Z</time></trkpt><trkpt lat="47.33077290778287" lon="8.65481760244451"><ele>627.4</ele><time>2026-04-25T18:10:21Z</time></trkpt><trkpt lat="47.33087157381507" lon="8.65484115263349"><ele>626.6</ele><time>2026-04-25T18:10:22Z</time></trkpt><trkpt lat="47.33096990702693" lon="8.654858979660473"><ele>625.8</ele><time>2026-04-25T18:10:23Z</time></trkpt><trkpt lat="47.331066397134336" lon="8.654874950242112"><ele>625.0</ele><time>2026-04-25T18:10:24Z</time></trkpt><trkpt lat="47.33116238224653" lon="8.654882259612542"><ele>625.0</ele><time>2026-04-25T18:10:25Z</time></trkpt><trkpt lat="47.331255675441604" lon="8.65486069182054"><ele>625.0</ele><time>2026-04-25T18:10:26Z</time></trkpt><trkpt lat="47.33134419420799" lon="8.654831772555218"><ele>625.0</ele><time>2026-04-25T18:10:27Z</time></trkpt><trkpt lat="47.33142914653439" lon="8.654803791334244"><ele>625.0</ele><time>2026-04-25T18:10:28Z</time></trkpt><trkpt lat="47.33151245619201" lon="8.654778922350776"><ele>625.0</ele><time>2026-04-25T18:10:29Z</time></trkpt><trkpt lat="47.331592462064144" lon="8.654760299453383"><ele>625.0</ele><time>2026-04-25T18:10:30Z</time></trkpt><trkpt lat="47.33166733354214" lon="8.654736596606478"><ele>625.7142857142858</ele><time>2026-04-25T18:10:31Z</time></trkpt><trkpt lat="47.33174070404877" lon="8.654716571085498"><ele>626.4285714285714</ele><time>2026-04-25T18:10:32Z</time></trkpt><trkpt lat="47.331812505831586" lon="8.65469725897796"><ele>627.1428571428571</ele><time>2026-04-25T18:10:33Z</time></trkpt><trkpt lat="47.33188279669308" lon="8.654678365337203"><ele>627.8571428571429</ele><time>2026-04-25T18:10:34Z</time></trkpt><trkpt lat="47.33195192834876" lon="8.654659660000867"><ele>628.5714285714286</ele><time>2026-04-25T18:10:35Z</time></trkpt><trkpt lat="47.332020249798234" lon="8.654637794818315"><ele>629.2857142857143</ele><time>2026-04-25T18:10:36Z</time></trkpt><trkpt lat="47.33208664529691" lon="8.654614578070005"><ele>630.0</ele><time>2026-04-25T18:10:37Z</time></trkpt><trkpt lat="47.33215218647931" lon="8.654589400693366"><ele>630.0</ele><time>2026-04-25T18:10:38Z</time></trkpt><trkpt lat="47.33221705967927" lon="8.65456193183694"><ele>630.0</ele><time>2026-04-25T18:10:39Z</time></trkpt><trkpt lat="47.33227967835792" lon="8.654530672413943"><ele>630.0</ele><time>2026-04-25T18:10:40Z</time></trkpt><trkpt lat="47.332343358923886" lon="8.654499246937222"><ele>630.0</ele><time>2026-04-25T18:10:41Z</time></trkpt><trkpt lat="47.33240625110362" lon="8.654467522725703"><ele>630.0</ele><time>2026-04-25T18:10:42Z</time></trkpt><trkpt lat="47.332469402192906" lon="8.654438392551292"><ele>630.0</ele><time>2026-04-25T18:10:43Z</time></trkpt><trkpt lat="47.332532732443575" lon="8.654410489034893"><ele>630.0</ele><time>2026-04-25T18:10:44Z</time></trkpt><trkpt lat="47.33259574024129" lon="8.654380434476682"><ele>630.7142857142857</ele><time>2026-04-25T18:10:45Z</time></trkpt><trkpt lat="47.33265667415014" lon="8.654345572950822"><ele>631.4285714285714</ele><time>2026-04-25T18:10:46Z</time></trkpt><trkpt lat="47.33271713818848" lon="8.654309247259151"><ele>632.1428571428571</ele><time>2026-04-25T18:10:47Z</time></trkpt><trkpt lat="47.33277757062107" lon="8.654272852816149"><ele>632.8571428571429</ele><time>2026-04-25T18:10:48Z</time></trkpt><trkpt lat="47.3328376375615" lon="8.654232936528572"><ele>633.5714285714286</ele><time>2026-04-25T18:10:49Z</time></trkpt><trkpt lat="47.33289914473801" lon="8.654193818296815"><ele>634.2857142857142</ele><time>2026-04-25T18:10:50Z</time></trkpt><trkpt lat="47.33296149354324" lon="8.65415676179823"><ele>635.0</ele><time>2026-04-25T18:10:51Z</time></trkpt><trkpt lat="47.333024305087044" lon="8.654120205361215"><ele>634.2857142857142</ele><time>2026-04-25T18:10:52Z</time></trkpt><trkpt lat="47.333088395700784" lon="8.654081379125271"><ele>633.5714285714286</ele><time>2026-04-25T18:10:53Z</time></trkpt><trkpt lat="47.333153060933974" lon="8.65404122619147"><ele>632.8571428571429</ele><time>2026-04-25T18:10:54Z</time></trkpt><trkpt lat="47.33321947584411" lon="8.654002802822092"><ele>632.1428571428571</ele><time>2026-04-25T18:10:55Z</time></trkpt><trkpt lat="47.33328763023939" lon="8.653967572550327"><ele>631.4285714285714</ele><time>2026-04-25T18:10:56Z</time></trkpt><trkpt lat="47.33335675600379" lon="8.653933785667382"><ele>630.7142857142857</ele><time>2026-04-25T18:10:57Z</time></trkpt><trkpt lat="47.333419551839334" lon="8.653899826462698"><ele>630.0</ele><time>2026-04-25T18:10:58Z</time></trkpt><trkpt lat="47.333524514407934" lon="8.653835667267922"><ele>630.0</ele><time>2026-04-25T18:11:00Z</time></trkpt><trkpt lat="47.3335967594541" lon="8.65379022624581"><ele>630.0</ele><time>2026-04-25T18:11:02Z</time></trkpt><trkpt lat="47.33366297646943" lon="8.653711347668382"><ele>630.0</ele><time>2026-04-25T18:11:04Z</time></trkpt><trkpt lat="47.33371449171987" lon="8.653650299013869"><ele>630.0</ele><time>2026-04-25T18:11:06Z</time></trkpt><trkpt lat="47.33378621045167" lon="8.65360666645412"><ele>630.0</ele><time>2026-04-25T18:11:08Z</time></trkpt><trkpt lat="47.333879739736716" lon="8.653555463269647"><ele>630.0</ele><time>2026-04-25T18:11:10Z</time></trkpt><trkpt lat="47.33394108255925" lon="8.653523799592262"><ele>630.5714285714286</ele><time>2026-04-25T18:11:11Z</time></trkpt><trkpt lat="47.33400507453169" lon="8.653490768513446"><ele>631.1428571428571</ele><time>2026-04-25T18:11:12Z</time></trkpt><trkpt lat="47.334070310373434" lon="8.65345709537634"><ele>631.7142857142858</ele><time>2026-04-25T18:11:13Z</time></trkpt><trkpt lat="47.33414056533487" lon="8.653420887507991"><ele>632.2857142857142</ele><time>2026-04-25T18:11:14Z</time></trkpt><trkpt lat="47.33420970025205" lon="8.653382112717694"><ele>632.8571428571429</ele><time>2026-04-25T18:11:15Z</time></trkpt><trkpt lat="47.33428197879867" lon="8.653340527869041"><ele>633.4285714285714</ele><time>2026-04-25T18:11:16Z</time></trkpt><trkpt lat="47.33435354391567" lon="8.653298371899599"><ele>634.0</ele><time>2026-04-25T18:11:17Z</time></trkpt><trkpt lat="47.33442515268292" lon="8.653256190628603"><ele>634.0</ele><time>2026-04-25T18:11:18Z</time></trkpt><trkpt lat="47.3344951893449" lon="8.653220897490693"><ele>634.0</ele><time>2026-04-25T18:11:19Z</time></trkpt><trkpt lat="47.33456793676336" lon="8.653185831661254"><ele>634.0</ele><time>2026-04-25T18:11:20Z</time></trkpt><trkpt lat="47.334642921816254" lon="8.653152928349984"><ele>634.0</ele><time>2026-04-25T18:11:21Z</time></trkpt><trkpt lat="47.33471941470215" lon="8.653119363430246"><ele>634.0</ele><time>2026-04-25T18:11:22Z</time></trkpt><trkpt lat="47.3347958927583" lon="8.65308580521671"><ele>634.0</ele><time>2026-04-25T18:11:23Z</time></trkpt><trkpt lat="47.33486884067374" lon="8.653062375301873"><ele>633.3333333333334</ele><time>2026-04-25T18:11:24Z</time></trkpt><trkpt lat="47.33494673048293" lon="8.653035819153013"><ele>632.6666666666667</ele><time>2026-04-25T18:11:25Z</time></trkpt><trkpt lat="47.33502566447423" lon="8.653008906972362"><ele>632.0</ele><time>2026-04-25T18:11:26Z</time></trkpt><trkpt lat="47.335104073407564" lon="8.65298217385467"><ele>631.3333333333334</ele><time>2026-04-25T18:11:27Z</time></trkpt><trkpt lat="47.33518477552394" lon="8.652954658838116"><ele>630.6666666666666</ele><time>2026-04-25T18:11:28Z</time></trkpt><trkpt lat="47.335261085027135" lon="8.652928641482479"><ele>630.0</ele><time>2026-04-25T18:11:29Z</time></trkpt><trkpt lat="47.335340312811255" lon="8.652900697187537"><ele>630.0</ele><time>2026-04-25T18:11:30Z</time></trkpt><trkpt lat="47.33541932503313" lon="8.652872442748167"><ele>630.0</ele><time>2026-04-25T18:11:31Z</time></trkpt><trkpt lat="47.33549794958608" lon="8.652844329094108"><ele>630.0</ele><time>2026-04-25T18:11:32Z</time></trkpt><trkpt lat="47.335574542505974" lon="8.652818094383074"><ele>630.0</ele><time>2026-04-25T18:11:33Z</time></trkpt><trkpt lat="47.33565263969334" lon="8.65279183934502"><ele>630.0</ele><time>2026-04-25T18:11:34Z</time></trkpt><trkpt lat="47.33572969164131" lon="8.6527659357038"><ele>630.0</ele><time>2026-04-25T18:11:35Z</time></trkpt><trkpt lat="47.33580445951304" lon="8.652740799952918"><ele>630.5714285714286</ele><time>2026-04-25T18:11:36Z</time></trkpt><trkpt lat="47.335874479220486" lon="8.652716945031303"><ele>631.1428571428571</ele><time>2026-04-25T18:11:37Z</time></trkpt><trkpt lat="47.33594181322487" lon="8.652692869531363"><ele>631.7142857142858</ele><time>2026-04-25T18:11:38Z</time></trkpt><trkpt lat="47.33601359146009" lon="8.652667204982187"><ele>632.2857142857142</ele><time>2026-04-25T18:11:39Z</time></trkpt><trkpt lat="47.336086948318055" lon="8.652640976002969"><ele>632.8571428571429</ele><time>2026-04-25T18:11:40Z</time></trkpt><trkpt lat="47.336159909709856" lon="8.652616516431797"><ele>633.4285714285714</ele><time>2026-04-25T18:11:41Z</time></trkpt><trkpt lat="47.33623449667925" lon="8.652592158211819"><ele>634.0</ele><time>2026-04-25T18:11:42Z</time></trkpt><trkpt lat="47.3363112507658" lon="8.652566314323073"><ele>633.5</ele><time>2026-04-25T18:11:43Z</time></trkpt><trkpt lat="47.33638781645635" lon="8.652539772798184"><ele>633.0</ele><time>2026-04-25T18:11:44Z</time></trkpt><trkpt lat="47.33646434439761" lon="8.65251268586679"><ele>632.5</ele><time>2026-04-25T18:11:45Z</time></trkpt><trkpt lat="47.33654029121332" lon="8.652484950749583"><ele>632.0</ele><time>2026-04-25T18:11:46Z</time></trkpt><trkpt lat="47.33661705312325" lon="8.65245691811414"><ele>631.5</ele><time>2026-04-25T18:11:47Z</time></trkpt><trkpt lat="47.33669399091808" lon="8.652423992796468"><ele>631.0</ele><time>2026-04-25T18:11:48Z</time></trkpt><trkpt lat="47.33677097353183" lon="8.652389554665278"><ele>631.0</ele><time>2026-04-25T18:11:49Z</time></trkpt><trkpt lat="47.33684644592086" lon="8.65235422345993"><ele>631.0</ele><time>2026-04-25T18:11:50Z</time></trkpt><trkpt lat="47.336920977744256" lon="8.652318448172112"><ele>631.0</ele><time>2026-04-25T18:11:51Z</time></trkpt><trkpt lat="47.33699654229855" lon="8.652281902268891"><ele>631.0</ele><time>2026-04-25T18:11:52Z</time></trkpt><trkpt lat="47.33707062136305" lon="8.652243554015733"><ele>631.0</ele><time>2026-04-25T18:11:53Z</time></trkpt><trkpt lat="47.33714356962365" lon="8.652205791172149"><ele>631.0</ele><time>2026-04-25T18:11:54Z</time></trkpt><trkpt lat="47.33721805167545" lon="8.652167234323407"><ele>630.8333333333334</ele><time>2026-04-25T18:11:55Z</time></trkpt><trkpt lat="47.337291838273686" lon="8.652129037485475"><ele>630.6666666666667</ele><time>2026-04-25T18:11:56Z</time></trkpt><trkpt lat="47.337368372911456" lon="8.65208941808981"><ele>630.5</ele><time>2026-04-25T18:11:57Z</time></trkpt><trkpt lat="47.33744391718098" lon="8.652050311372452"><ele>630.3333333333334</ele><time>2026-04-25T18:11:58Z</time></trkpt><trkpt lat="47.33751989119593" lon="8.65201098218091"><ele>630.1666666666666</ele><time>2026-04-25T18:11:59Z</time></trkpt><trkpt lat="47.337594939808305" lon="8.651972132043946"><ele>630.0</ele><time>2026-04-25T18:12:00Z</time></trkpt><trkpt lat="47.33767126508466" lon="8.651932621016035"><ele>630.1666666666666</ele><time>2026-04-25T18:12:01Z</time></trkpt><trkpt lat="47.33774798665075" lon="8.651892904865345"><ele>630.3333333333334</ele><time>2026-04-25T18:12:02Z</time></trkpt><trkpt lat="47.33782515615366" lon="8.651853860096798"><ele>630.5</ele><time>2026-04-25T18:12:03Z</time></trkpt><trkpt lat="47.33790286201104" lon="8.651815365793015"><ele>630.6666666666667</ele><time>2026-04-25T18:12:04Z</time></trkpt><trkpt lat="47.33798115446602" lon="8.651776580923082"><ele>630.8333333333334</ele><time>2026-04-25T18:12:05Z</time></trkpt><trkpt lat="47.33805906966861" lon="8.651737983176334"><ele>631.0</ele><time>2026-04-25T18:12:06Z</time></trkpt><trkpt lat="47.33813573857126" lon="8.65169958138673"><ele>631.0</ele><time>2026-04-25T18:12:07Z</time></trkpt><trkpt lat="47.338213025355884" lon="8.651660938156017"><ele>631.0</ele><time>2026-04-25T18:12:08Z</time></trkpt><trkpt lat="47.33829279330087" lon="8.651616831381741"><ele>631.0</ele><time>2026-04-25T18:12:09Z</time></trkpt><trkpt lat="47.338366798646526" lon="8.651575933987925"><ele>631.0</ele><time>2026-04-25T18:12:10Z</time></trkpt><trkpt lat="47.33844670808494" lon="8.651538539293607"><ele>631.0</ele><time>2026-04-25T18:12:11Z</time></trkpt><trkpt lat="47.338524890359814" lon="8.651508656974027"><ele>631.0</ele><time>2026-04-25T18:12:12Z</time></trkpt><trkpt lat="47.33860536586431" lon="8.651478353044615"><ele>631.0</ele><time>2026-04-25T18:12:13Z</time></trkpt><trkpt lat="47.33868775762833" lon="8.651448652066831"><ele>631.0</ele><time>2026-04-25T18:12:14Z</time></trkpt><trkpt lat="47.33876866154043" lon="8.65142624859277"><ele>631.0</ele><time>2026-04-25T18:12:15Z</time></trkpt><trkpt lat="47.338848690287584" lon="8.651411811142628"><ele>631.0</ele><time>2026-04-25T18:12:16Z</time></trkpt><trkpt lat="47.33893447565109" lon="8.65139576530025"><ele>631.0</ele><time>2026-04-25T18:12:17Z</time></trkpt><trkpt lat="47.339017559673465" lon="8.65138069519609"><ele>631.0</ele><time>2026-04-25T18:12:18Z</time></trkpt><trkpt lat="47.339095004638516" lon="8.651369903042513"><ele>630.4</ele><time>2026-04-25T18:12:19Z</time></trkpt><trkpt lat="47.33917106149603" lon="8.651361959360427"><ele>629.8</ele><time>2026-04-25T18:12:20Z</time></trkpt><trkpt lat="47.33926892665633" lon="8.651361312212503"><ele>629.1999999999999</ele><time>2026-04-25T18:12:22Z</time></trkpt><trkpt lat="47.33937308600438" lon="8.65136663826311"><ele>628.6</ele><time>2026-04-25T18:12:24Z</time></trkpt><trkpt lat="47.33950205081469" lon="8.651373083394"><ele>628.0</ele><time>2026-04-25T18:12:26Z</time></trkpt><trkpt lat="47.339572995155564" lon="8.651377374758653"><ele>628.0</ele><time>2026-04-25T18:12:27Z</time></trkpt><trkpt lat="47.33964346814379" lon="8.651384558222297"><ele>628.0</ele><time>2026-04-25T18:12:28Z</time></trkpt><trkpt lat="47.33971874334371" lon="8.651394027823924"><ele>628.0</ele><time>2026-04-25T18:12:29Z</time></trkpt><trkpt lat="47.33979497996491" lon="8.651403618359563"><ele>628.0</ele><time>2026-04-25T18:12:30Z</time></trkpt><trkpt lat="47.33987342897422" lon="8.651412390885143"><ele>628.0</ele><time>2026-04-25T18:12:31Z</time></trkpt><trkpt lat="47.339950342750626" lon="8.651419975030398"><ele>628.0</ele><time>2026-04-25T18:12:32Z</time></trkpt><trkpt lat="47.34002694255136" lon="8.65142752822046"><ele>627.8333333333334</ele><time>2026-04-25T18:12:33Z</time></trkpt><trkpt lat="47.34010425770119" lon="8.651435151938317"><ele>627.6666666666667</ele><time>2026-04-25T18:12:34Z</time></trkpt><trkpt lat="47.3401814143334" lon="8.651442760024599"><ele>627.5</ele><time>2026-04-25T18:12:35Z</time></trkpt><trkpt lat="47.34025823543116" lon="8.651450783674182"><ele>627.3333333333334</ele><time>2026-04-25T18:12:36Z</time></trkpt><trkpt lat="47.34033491897421" lon="8.651459468326758"><ele>627.1666666666666</ele><time>2026-04-25T18:12:37Z</time></trkpt><trkpt lat="47.34041019775816" lon="8.651467993864337"><ele>627.0</ele><time>2026-04-25T18:12:38Z</time></trkpt><trkpt lat="47.34048539568124" lon="8.6514765103308"><ele>627.1666666666666</ele><time>2026-04-25T18:12:39Z</time></trkpt><trkpt lat="47.34056316706626" lon="8.651483163533358"><ele>627.3333333333334</ele><time>2026-04-25T18:12:40Z</time></trkpt><trkpt lat="47.340641920091755" lon="8.651486024535666"><ele>627.5</ele><time>2026-04-25T18:12:41Z</time></trkpt><trkpt lat="47.340719094026554" lon="8.651485265197941"><ele>627.6666666666667</ele><time>2026-04-25T18:12:42Z</time></trkpt><trkpt lat="47.34079763713576" lon="8.651479551053988"><ele>627.8333333333334</ele><time>2026-04-25T18:12:43Z</time></trkpt><trkpt lat="47.34087475235209" lon="8.651469650086648"><ele>628.0</ele><time>2026-04-25T18:12:44Z</time></trkpt><trkpt lat="47.34095184979013" lon="8.651455837619048"><ele>628.0</ele><time>2026-04-25T18:12:45Z</time></trkpt><trkpt lat="47.34102886750441" lon="8.651438260634077"><ele>628.0</ele><time>2026-04-25T18:12:46Z</time></trkpt><trkpt lat="47.341101881898695" lon="8.651418081067833"><ele>628.0</ele><time>2026-04-25T18:12:47Z</time></trkpt><trkpt lat="47.34117794049508" lon="8.651391613712844"><ele>628.0</ele><time>2026-04-25T18:12:48Z</time></trkpt><trkpt lat="47.3412543277417" lon="8.651357223095868"><ele>628.0</ele><time>2026-04-25T18:12:49Z</time></trkpt><trkpt lat="47.3413291369844" lon="8.651319640411536"><ele>628.0</ele><time>2026-04-25T18:12:50Z</time></trkpt><trkpt lat="47.341403254267554" lon="8.651279388871401"><ele>628.1666666666667</ele><time>2026-04-25T18:12:51Z</time></trkpt><trkpt lat="47.341477693083895" lon="8.651235418617638"><ele>628.3333333333334</ele><time>2026-04-25T18:12:52Z</time></trkpt><trkpt lat="47.34155194225608" lon="8.651187453093089"><ele>628.5</ele><time>2026-04-25T18:12:53Z</time></trkpt><trkpt lat="47.34162642971189" lon="8.651134238405305"><ele>628.6666666666666</ele><time>2026-04-25T18:12:54Z</time></trkpt><trkpt lat="47.34169878595007" lon="8.651074813063701"><ele>628.8333333333333</ele><time>2026-04-25T18:12:55Z</time></trkpt><trkpt lat="47.34176743214111" lon="8.651011557170627"><ele>629.0</ele><time>2026-04-25T18:12:56Z</time></trkpt><trkpt lat="47.34183574753635" lon="8.650942401047823"><ele>629.0</ele><time>2026-04-25T18:12:57Z</time></trkpt><trkpt lat="47.34190192551256" lon="8.650869795835268"><ele>629.0</ele><time>2026-04-25T18:12:58Z</time></trkpt><trkpt lat="47.341966196582256" lon="8.650793779763877"><ele>629.0</ele><time>2026-04-25T18:12:59Z</time></trkpt><trkpt lat="47.342029693862955" lon="8.650712543399518"><ele>629.0</ele><time>2026-04-25T18:13:00Z</time></trkpt><trkpt lat="47.34208979772989" lon="8.65062791353028"><ele>629.0</ele><time>2026-04-25T18:13:01Z</time></trkpt><trkpt lat="47.34214740300415" lon="8.650539370414227"><ele>629.0</ele><time>2026-04-25T18:13:02Z</time></trkpt><trkpt lat="47.34220238553313" lon="8.650447568260715"><ele>628.6666666666666</ele><time>2026-04-25T18:13:03Z</time></trkpt><trkpt lat="47.34225481349078" lon="8.650352775683684"><ele>628.3333333333333</ele><time>2026-04-25T18:13:04Z</time></trkpt><trkpt lat="47.342304946520535" lon="8.650257660711944"><ele>628.0</ele><time>2026-04-25T18:13:05Z</time></trkpt><trkpt lat="47.34235362322304" lon="8.650158962140912"><ele>627.6666666666666</ele><time>2026-04-25T18:13:06Z</time></trkpt><trkpt lat="47.34239968686398" lon="8.650051371581208"><ele>627.3333333333334</ele><time>2026-04-25T18:13:07Z</time></trkpt><trkpt lat="47.34243975783798" lon="8.649940916294915"><ele>627.0</ele><time>2026-04-25T18:13:08Z</time></trkpt><trkpt lat="47.34247683520854" lon="8.649836567081634"><ele>627.0</ele><time>2026-04-25T18:13:09Z</time></trkpt><trkpt lat="47.34251410979838" lon="8.64973166360765"><ele>627.0</ele><time>2026-04-25T18:13:10Z</time></trkpt><trkpt lat="47.34255116375021" lon="8.649625660026636"><ele>627.0</ele><time>2026-04-25T18:13:11Z</time></trkpt><trkpt lat="47.34258721859667" lon="8.649520574153927"><ele>627.0</ele><time>2026-04-25T18:13:12Z</time></trkpt><trkpt lat="47.34262372868476" lon="8.649414161440598"><ele>627.0</ele><time>2026-04-25T18:13:13Z</time></trkpt><trkpt lat="47.342659558699275" lon="8.649309437668805"><ele>627.0</ele><time>2026-04-25T18:13:14Z</time></trkpt><trkpt lat="47.342695755726574" lon="8.649203409774474"><ele>627.6666666666666</ele><time>2026-04-25T18:13:15Z</time></trkpt><trkpt lat="47.342731561200836" lon="8.649098528590569"><ele>628.3333333333334</ele><time>2026-04-25T18:13:16Z</time></trkpt><trkpt lat="47.34276734728374" lon="8.648993704017684"><ele>629.0</ele><time>2026-04-25T18:13:17Z</time></trkpt><trkpt lat="47.342802563265764" lon="8.648890549587069"><ele>629.6666666666667</ele><time>2026-04-25T18:13:18Z</time></trkpt><trkpt lat="47.342838017090706" lon="8.648785416272613"><ele>630.3333333333334</ele><time>2026-04-25T18:13:19Z</time></trkpt><trkpt lat="47.34287258449455" lon="8.648681187802625"><ele>631.0</ele><time>2026-04-25T18:13:20Z</time></trkpt><trkpt lat="47.342907018945105" lon="8.64857736037274"><ele>631.0</ele><time>2026-04-25T18:13:21Z</time></trkpt><trkpt lat="47.34294257396269" lon="8.648478948028723"><ele>631.0</ele><time>2026-04-25T18:13:22Z</time></trkpt><trkpt lat="47.342980881677356" lon="8.648380610019968"><ele>631.0</ele><time>2026-04-25T18:13:23Z</time></trkpt><trkpt lat="47.34301954530534" lon="8.648286550873864"><ele>631.0</ele><time>2026-04-25T18:13:24Z</time></trkpt><trkpt lat="47.34306143760672" lon="8.648200245491378"><ele>631.0</ele><time>2026-04-25T18:13:25Z</time></trkpt><trkpt lat="47.34310947345075" lon="8.648114554461063"><ele>631.0</ele><time>2026-04-25T18:13:26Z</time></trkpt><trkpt lat="47.34316284932173" lon="8.648033873967913"><ele>631.3333333333334</ele><time>2026-04-25T18:13:27Z</time></trkpt><trkpt lat="47.34321527586238" lon="8.647959035103089"><ele>631.6666666666667</ele><time>2026-04-25T18:13:28Z</time></trkpt><trkpt lat="47.343270038187924" lon="8.647881479954354"><ele>632.0</ele><time>2026-04-25T18:13:29Z</time></trkpt><trkpt lat="47.34332465467757" lon="8.647804761686213"><ele>632.3333333333334</ele><time>2026-04-25T18:13:30Z</time></trkpt><trkpt lat="47.34337847715413" lon="8.647730070028436"><ele>632.6666666666666</ele><time>2026-04-25T18:13:31Z</time></trkpt><trkpt lat="47.343434763455804" lon="8.647654767881786"><ele>633.0</ele><time>2026-04-25T18:13:32Z</time></trkpt><trkpt lat="47.343491399952136" lon="8.647578997557602"><ele>633.5</ele><time>2026-04-25T18:13:33Z</time></trkpt><trkpt lat="47.34354841179779" lon="8.647501325928394"><ele>634.0</ele><time>2026-04-25T18:13:34Z</time></trkpt><trkpt lat="47.34360579649748" lon="8.647421098904193"><ele>634.5</ele><time>2026-04-25T18:13:35Z</time></trkpt><trkpt lat="47.34366039937451" lon="8.647341615909639"><ele>635.0</ele><time>2026-04-25T18:13:36Z</time></trkpt><trkpt lat="47.34371558253224" lon="8.647258223624524"><ele>635.5</ele><time>2026-04-25T18:13:37Z</time></trkpt><trkpt lat="47.34377045210219" lon="8.64717518361306"><ele>636.0</ele><time>2026-04-25T18:13:38Z</time></trkpt><trkpt lat="47.343825561981845" lon="8.647091780193513"><ele>636.0</ele><time>2026-04-25T18:13:39Z</time></trkpt><trkpt lat="47.34388112428824" lon="8.647007691860376"><ele>636.0</ele><time>2026-04-25T18:13:40Z</time></trkpt><trkpt lat="47.34393737379741" lon="8.646923052066416"><ele>636.0</ele><time>2026-04-25T18:13:41Z</time></trkpt><trkpt lat="47.343994230401755" lon="8.646838120717522"><ele>636.0</ele><time>2026-04-25T18:13:42Z</time></trkpt><trkpt lat="47.344051910248346" lon="8.646751959818246"><ele>636.0</ele><time>2026-04-25T18:13:43Z</time></trkpt><trkpt lat="47.34410849965393" lon="8.646670656106195"><ele>636.0</ele><time>2026-04-25T18:13:44Z</time></trkpt><trkpt lat="47.344166466913634" lon="8.646594762778227"><ele>635.7142857142857</ele><time>2026-04-25T18:13:45Z</time></trkpt><trkpt lat="47.34422215666617" lon="8.646533309800388"><ele>635.4285714285714</ele><time>2026-04-25T18:13:46Z</time></trkpt><trkpt lat="47.344282476135604" lon="8.646477644688416"><ele>635.1428571428571</ele><time>2026-04-25T18:13:47Z</time></trkpt><trkpt lat="47.34434363229288" lon="8.646438434331118"><ele>634.8571428571429</ele><time>2026-04-25T18:13:48Z</time></trkpt><trkpt lat="47.34440943357721" lon="8.646403358259713"><ele>634.5714285714286</ele><time>2026-04-25T18:13:49Z</time></trkpt><trkpt lat="47.34448420771559" lon="8.646372743109932"><ele>634.2857142857143</ele><time>2026-04-25T18:13:50Z</time></trkpt><trkpt lat="47.34455034967178" lon="8.646359088232556"><ele>634.0</ele><time>2026-04-25T18:13:51Z</time></trkpt><trkpt lat="47.344623591276644" lon="8.646346419067452"><ele>634.0</ele><time>2026-04-25T18:13:52Z</time></trkpt><trkpt lat="47.344696823478564" lon="8.646334211207115"><ele>634.0</ele><time>2026-04-25T18:13:53Z</time></trkpt><trkpt lat="47.34477047184966" lon="8.64632457818221"><ele>634.0</ele><time>2026-04-25T18:13:54Z</time></trkpt><trkpt lat="47.34484652033105" lon="8.646315689031848"><ele>634.0</ele><time>2026-04-25T18:13:55Z</time></trkpt><trkpt lat="47.34492327603021" lon="8.646306717214317"><ele>634.0</ele><time>2026-04-25T18:13:56Z</time></trkpt><trkpt lat="47.34500248524065" lon="8.646297148905653"><ele>634.0</ele><time>2026-04-25T18:13:57Z</time></trkpt><trkpt lat="47.34507880498813" lon="8.646284342403773"><ele>633.5</ele><time>2026-04-25T18:13:58Z</time></trkpt><trkpt lat="47.34515755003397" lon="8.646268733104327"><ele>633.0</ele><time>2026-04-25T18:13:59Z</time></trkpt><trkpt lat="47.3452369406404" lon="8.646250246975198"><ele>632.5</ele><time>2026-04-25T18:14:00Z</time></trkpt><trkpt lat="47.34531536337225" lon="8.646228769517057"><ele>632.0</ele><time>2026-04-25T18:14:01Z</time></trkpt><trkpt lat="47.34539603288077" lon="8.646202568458138"><ele>631.5</ele><time>2026-04-25T18:14:02Z</time></trkpt><trkpt lat="47.345475150224175" lon="8.646171425192302"><ele>631.0</ele><time>2026-04-25T18:14:03Z</time></trkpt><trkpt lat="47.345550364657306" lon="8.646139052928904"><ele>630.5</ele><time>2026-04-25T18:14:04Z</time></trkpt><trkpt lat="47.34562726631058" lon="8.646105954406067"><ele>630.0</ele><time>2026-04-25T18:14:05Z</time></trkpt><trkpt lat="47.345702811905525" lon="8.646073439581926"><ele>629.5</ele><time>2026-04-25T18:14:06Z</time></trkpt><trkpt lat="47.34577824161075" lon="8.64604097459278"><ele>629.0</ele><time>2026-04-25T18:14:07Z</time></trkpt><trkpt lat="47.34585401705729" lon="8.646008360838408"><ele>628.5</ele><time>2026-04-25T18:14:08Z</time></trkpt><trkpt lat="47.345929500114785" lon="8.645975872912201"><ele>628.0</ele><time>2026-04-25T18:14:09Z</time></trkpt><trkpt lat="47.346004106246376" lon="8.645943762370887"><ele>628.0</ele><time>2026-04-25T18:14:10Z</time></trkpt><trkpt lat="47.346079620192555" lon="8.645911310272831"><ele>628.0</ele><time>2026-04-25T18:14:11Z</time></trkpt><trkpt lat="47.34615501040063" lon="8.645879109289396"><ele>628.0</ele><time>2026-04-25T18:14:12Z</time></trkpt><trkpt lat="47.346231211578136" lon="8.64584656198427"><ele>628.0</ele><time>2026-04-25T18:14:13Z</time></trkpt><trkpt lat="47.346308033129624" lon="8.645813459367691"><ele>628.0</ele><time>2026-04-25T18:14:14Z</time></trkpt><trkpt lat="47.3463847022345" lon="8.645780096462945"><ele>628.0</ele><time>2026-04-25T18:14:15Z</time></trkpt><trkpt lat="47.34646089910283" lon="8.645747797482512"><ele>627.5</ele><time>2026-04-25T18:14:16Z</time></trkpt><trkpt lat="47.346539411923494" lon="8.645714570259049"><ele>627.0</ele><time>2026-04-25T18:14:17Z</time></trkpt><trkpt lat="47.34661784385673" lon="8.645681377335363"><ele>626.5</ele><time>2026-04-25T18:14:18Z</time></trkpt><trkpt lat="47.346697606622115" lon="8.64564676996411"><ele>626.0</ele><time>2026-04-25T18:14:19Z</time></trkpt><trkpt lat="47.34677603923715" lon="8.645611994871057"><ele>625.5</ele><time>2026-04-25T18:14:20Z</time></trkpt><trkpt lat="47.346855438268456" lon="8.645576791297124"><ele>625.0</ele><time>2026-04-25T18:14:21Z</time></trkpt><trkpt lat="47.34693476909302" lon="8.645541617965598"><ele>625.0</ele><time>2026-04-25T18:14:22Z</time></trkpt><trkpt lat="47.34701199111551" lon="8.645507379613528"><ele>625.0</ele><time>2026-04-25T18:14:23Z</time></trkpt><trkpt lat="47.34708770059597" lon="8.645474441253812"><ele>625.0</ele><time>2026-04-25T18:14:24Z</time></trkpt><trkpt lat="47.347166682337885" lon="8.645441262584407"><ele>625.0</ele><time>2026-04-25T18:14:25Z</time></trkpt><trkpt lat="47.34724586554979" lon="8.645410620473896"><ele>625.0</ele><time>2026-04-25T18:14:26Z</time></trkpt><trkpt lat="47.34732740226158" lon="8.645379871292587"><ele>625.0</ele><time>2026-04-25T18:14:27Z</time></trkpt><trkpt lat="47.34740881454618" lon="8.645349695564233"><ele>625.5</ele><time>2026-04-25T18:14:28Z</time></trkpt><trkpt lat="47.347490489541926" lon="8.645321278557137"><ele>626.0</ele><time>2026-04-25T18:14:29Z</time></trkpt><trkpt lat="47.347573277561146" lon="8.645292474707869"><ele>626.5</ele><time>2026-04-25T18:14:30Z</time></trkpt><trkpt lat="47.34765520884725" lon="8.645266592896986"><ele>627.0</ele><time>2026-04-25T18:14:31Z</time></trkpt><trkpt lat="47.34773561744347" lon="8.645242364911063"><ele>627.5</ele><time>2026-04-25T18:14:32Z</time></trkpt><trkpt lat="47.34781783507024" lon="8.645217788323432"><ele>628.0</ele><time>2026-04-25T18:14:33Z</time></trkpt><trkpt lat="47.347904543253286" lon="8.645191869454901"><ele>628.0</ele><time>2026-04-25T18:14:34Z</time></trkpt><trkpt lat="47.347986011218545" lon="8.645166627421196"><ele>628.0</ele><time>2026-04-25T18:14:35Z</time></trkpt><trkpt lat="47.348069102289706" lon="8.645140082262145"><ele>628.0</ele><time>2026-04-25T18:14:36Z</time></trkpt><trkpt lat="47.3481512515097" lon="8.645113837960325"><ele>628.0</ele><time>2026-04-25T18:14:37Z</time></trkpt><trkpt lat="47.34823492644183" lon="8.645087106802405"><ele>628.0</ele><time>2026-04-25T18:14:38Z</time></trkpt><trkpt lat="47.34829001492318" lon="8.644714569155154"><ele>627.8333333333334</ele><time>2026-04-25T18:14:39Z</time></trkpt><trkpt lat="47.34836161919449" lon="8.644652688745877"><ele>627.6666666666667</ele><time>2026-04-25T18:14:40Z</time></trkpt><trkpt lat="47.34844206290944" lon="8.644583168746248"><ele>627.5</ele><time>2026-04-25T18:14:41Z</time></trkpt><trkpt lat="47.34852082936011" lon="8.644514718418598"><ele>627.3333333333334</ele><time>2026-04-25T18:14:42Z</time></trkpt><trkpt lat="47.34859781273966" lon="8.644448542336354"><ele>627.1666666666666</ele><time>2026-04-25T18:14:43Z</time></trkpt><trkpt lat="47.34867221480308" lon="8.644385582138042"><ele>627.0</ele><time>2026-04-25T18:14:44Z</time></trkpt><trkpt lat="47.348741208074735" lon="8.644327199062577"><ele>627.0</ele><time>2026-04-25T18:14:45Z</time></trkpt><trkpt lat="47.348807483320634" lon="8.644271115957183"><ele>627.0</ele><time>2026-04-25T18:14:46Z</time></trkpt><trkpt lat="47.348870540348905" lon="8.644215634801608"><ele>627.0</ele><time>2026-04-25T18:14:47Z</time></trkpt><trkpt lat="47.34892639810442" lon="8.64416538085979"><ele>627.0</ele><time>2026-04-25T18:14:48Z</time></trkpt><trkpt lat="47.34901541269915" lon="8.644081466183748"><ele>627.0</ele><time>2026-04-25T18:14:50Z</time></trkpt><trkpt lat="47.34907866732392" lon="8.644018348505163"><ele>627.0</ele><time>2026-04-25T18:14:53Z</time></trkpt><trkpt lat="47.34916240182281" lon="8.643954677729967"><ele>626.5</ele><time>2026-04-25T18:14:55Z</time></trkpt><trkpt lat="47.349247640660145" lon="8.643821209216991"><ele>626.0</ele><time>2026-04-25T18:14:57Z</time></trkpt><trkpt lat="47.34930205966925" lon="8.643747765161871"><ele>625.5</ele><time>2026-04-25T18:14:58Z</time></trkpt><trkpt lat="47.34935830968937" lon="8.643671568540539"><ele>625.0</ele><time>2026-04-25T18:14:59Z</time></trkpt><trkpt lat="47.34941697884455" lon="8.643594896660918"><ele>624.5</ele><time>2026-04-25T18:15:00Z</time></trkpt><trkpt lat="47.349476219932534" lon="8.643513488203638"><ele>624.0</ele><time>2026-04-25T18:15:01Z</time></trkpt><trkpt lat="47.349534424188455" lon="8.643429958227511"><ele>624.0</ele><time>2026-04-25T18:15:02Z</time></trkpt><trkpt lat="47.34959566660594" lon="8.64334752277304"><ele>624.0</ele><time>2026-04-25T18:15:03Z</time></trkpt><trkpt lat="47.34965841219927" lon="8.643263324382499"><ele>624.0</ele><time>2026-04-25T18:15:04Z</time></trkpt><trkpt lat="47.3497219257317" lon="8.643180061690552"><ele>624.0</ele><time>2026-04-25T18:15:05Z</time></trkpt><trkpt lat="47.34978618473389" lon="8.643096529360163"><ele>624.0</ele><time>2026-04-25T18:15:06Z</time></trkpt><trkpt lat="47.34984962884202" lon="8.643012593202265"><ele>624.0</ele><time>2026-04-25T18:15:07Z</time></trkpt><trkpt lat="47.349913718552976" lon="8.642938804626267"><ele>622.8</ele><time>2026-04-25T18:15:08Z</time></trkpt><trkpt lat="47.34997129536198" lon="8.642874792118993"><ele>621.5999999999999</ele><time>2026-04-25T18:15:09Z</time></trkpt><trkpt lat="47.350063031583794" lon="8.64277001759978"><ele>620.4</ele><time>2026-04-25T18:15:11Z</time></trkpt><trkpt lat="47.35013116261152" lon="8.642669982357706"><ele>619.1999999999999</ele><time>2026-04-25T18:15:13Z</time></trkpt><trkpt lat="47.35013862129095" lon="8.642543751953328"><ele>618.0</ele><time>2026-04-25T18:15:15Z</time></trkpt><trkpt lat="47.350078332579635" lon="8.642467185825288"><ele>618.0</ele><time>2026-04-25T18:15:17Z</time></trkpt><trkpt lat="47.35002346333811" lon="8.64241615649256"><ele>618.0</ele><time>2026-04-25T18:15:19Z</time></trkpt><trkpt lat="47.349954237510666" lon="8.64238106369746"><ele>618.0</ele><time>2026-04-25T18:15:21Z</time></trkpt><trkpt lat="47.34988388270767" lon="8.642341568399088"><ele>618.0</ele><time>2026-04-25T18:15:23Z</time></trkpt><trkpt lat="47.34980478560774" lon="8.642336461388425"><ele>618.0</ele><time>2026-04-25T18:15:25Z</time></trkpt><trkpt lat="47.34972375920107" lon="8.642339998485236"><ele>618.0</ele><time>2026-04-25T18:15:27Z</time></trkpt><trkpt lat="47.34964109874525" lon="8.642368525597783"><ele>619.6666666666666</ele><time>2026-04-25T18:15:29Z</time></trkpt><trkpt lat="47.34955466290934" lon="8.642379400450158"><ele>621.3333333333334</ele><time>2026-04-25T18:15:31Z</time></trkpt><trkpt lat="47.349469851909085" lon="8.642402903129991"><ele>623.0</ele><time>2026-04-25T18:15:33Z</time></trkpt><trkpt lat="47.3493827264171" lon="8.642418317518452"><ele>624.6666666666667</ele><time>2026-04-25T18:15:35Z</time></trkpt><trkpt lat="47.34929427733732" lon="8.642449507419286"><ele>626.3333333333334</ele><time>2026-04-25T18:15:37Z</time></trkpt><trkpt lat="47.34920573379458" lon="8.6424732176792"><ele>628.0</ele><time>2026-04-25T18:15:39Z</time></trkpt><trkpt lat="47.34911683052594" lon="8.642506416822393"><ele>628.0</ele><time>2026-04-25T18:15:41Z</time></trkpt><trkpt lat="47.349025704068865" lon="8.642536767843104"><ele>628.0</ele><time>2026-04-25T18:15:43Z</time></trkpt><trkpt lat="47.34894420102184" lon="8.642468105593256"><ele>628.0</ele><time>2026-04-25T18:15:45Z</time></trkpt><trkpt lat="47.348920111597224" lon="8.642324021001297"><ele>628.0</ele><time>2026-04-25T18:15:47Z</time></trkpt><trkpt lat="47.348939085898444" lon="8.642174338629811"><ele>628.0</ele><time>2026-04-25T18:15:49Z</time></trkpt><trkpt lat="47.3489664362214" lon="8.642039760938827"><ele>629.1999999999999</ele><time>2026-04-25T18:15:51Z</time></trkpt><trkpt lat="47.3490059845795" lon="8.641906480527544"><ele>630.4</ele><time>2026-04-25T18:15:53Z</time></trkpt><trkpt lat="47.34905938409374" lon="8.64177936965829"><ele>631.5999999999999</ele><time>2026-04-25T18:15:55Z</time></trkpt><trkpt lat="47.349128892819195" lon="8.641662340553246"><ele>632.8</ele><time>2026-04-25T18:15:57Z</time></trkpt><trkpt lat="47.34921009385669" lon="8.641551790023739"><ele>634.0</ele><time>2026-04-25T18:15:59Z</time></trkpt><trkpt lat="47.34929433846786" lon="8.641437239611795"><ele>634.0</ele><time>2026-04-25T18:16:01Z</time></trkpt><trkpt lat="47.34938323719875" lon="8.641317583253672"><ele>634.0</ele><time>2026-04-25T18:16:03Z</time></trkpt><trkpt lat="47.34943161529611" lon="8.641256143814386"><ele>634.0</ele><time>2026-04-25T18:16:04Z</time></trkpt><trkpt lat="47.34948321881305" lon="8.64119354650802"><ele>634.0</ele><time>2026-04-25T18:16:05Z</time></trkpt><trkpt lat="47.349536028494704" lon="8.641123130047959"><ele>634.0</ele><time>2026-04-25T18:16:06Z</time></trkpt><trkpt lat="47.34959193852634" lon="8.641050117725744"><ele>634.0</ele><time>2026-04-25T18:16:07Z</time></trkpt><trkpt lat="47.34964904899695" lon="8.640976863472787"><ele>634.5714285714286</ele><time>2026-04-25T18:16:08Z</time></trkpt><trkpt lat="47.34970466104467" lon="8.640905589498194"><ele>635.1428571428571</ele><time>2026-04-25T18:16:09Z</time></trkpt><trkpt lat="47.34975386826344" lon="8.640836835604865"><ele>635.7142857142858</ele><time>2026-04-25T18:16:10Z</time></trkpt><trkpt lat="47.349799858288684" lon="8.640763567329733"><ele>636.2857142857142</ele><time>2026-04-25T18:16:11Z</time></trkpt><trkpt lat="47.34983769759437" lon="8.640681928031038"><ele>636.8571428571428</ele><time>2026-04-25T18:16:12Z</time></trkpt><trkpt lat="47.34986373752221" lon="8.64058963978593"><ele>637.4285714285714</ele><time>2026-04-25T18:16:13Z</time></trkpt><trkpt lat="47.34988175056138" lon="8.64049173125289"><ele>638.0</ele><time>2026-04-25T18:16:14Z</time></trkpt><trkpt lat="47.349895687482466" lon="8.6403910314312"><ele>636.6666666666666</ele><time>2026-04-25T18:16:15Z</time></trkpt><trkpt lat="47.34989032116746" lon="8.640294224085633"><ele>635.3333333333333</ele><time>2026-04-25T18:16:16Z</time></trkpt><trkpt lat="47.34987751640296" lon="8.640196620770139"><ele>634.0</ele><time>2026-04-25T18:16:17Z</time></trkpt><trkpt lat="47.34986026367143" lon="8.640102555342855"><ele>632.6666666666666</ele><time>2026-04-25T18:16:18Z</time></trkpt><trkpt lat="47.34979972987504" lon="8.63995506176139"><ele>631.3333333333334</ele><time>2026-04-25T18:16:20Z</time></trkpt><trkpt lat="47.34978514184487" lon="8.639823319737062"><ele>630.0</ele><time>2026-04-25T18:16:22Z</time></trkpt><trkpt lat="47.3498381239238" lon="8.63974714671889"><ele>630.0</ele><time>2026-04-25T18:16:24Z</time></trkpt><trkpt lat="47.34992486675428" lon="8.639678216921482"><ele>630.0</ele><time>2026-04-25T18:16:26Z</time></trkpt><trkpt lat="47.349980153623605" lon="8.63963041825965"><ele>630.0</ele><time>2026-04-25T18:16:27Z</time></trkpt><trkpt lat="47.35003542058901" lon="8.639578421472146"><ele>630.0</ele><time>2026-04-25T18:16:28Z</time></trkpt><trkpt lat="47.35013037669847" lon="8.639486116491621"><ele>630.0</ele><time>2026-04-25T18:16:30Z</time></trkpt><trkpt lat="47.350193685755066" lon="8.639427942513883"><ele>630.0</ele><time>2026-04-25T18:16:32Z</time></trkpt><trkpt lat="47.35026158759701" lon="8.639357177038292"><ele>630.0</ele><time>2026-04-25T18:16:41Z</time></trkpt><trkpt lat="47.35036469874151" lon="8.639394116353927"><ele>630.0</ele><time>2026-04-25T18:16:45Z</time></trkpt><trkpt lat="47.350401543982805" lon="8.639480024787714"><ele>630.0</ele><time>2026-04-25T18:16:46Z</time></trkpt><trkpt lat="47.35044681200316" lon="8.639569342821549"><ele>630.0</ele><time>2026-04-25T18:16:47Z</time></trkpt><trkpt lat="47.3504986051317" lon="8.6396527497977"><ele>630.0</ele><time>2026-04-25T18:16:48Z</time></trkpt><trkpt lat="47.350558003285805" lon="8.63973528591312"><ele>630.0</ele><time>2026-04-25T18:16:49Z</time></trkpt><trkpt lat="47.350616536840846" lon="8.63981857947119"><ele>628.0</ele><time>2026-04-25T18:16:50Z</time></trkpt><trkpt lat="47.35067958200635" lon="8.6398900115106"><ele>626.0</ele><time>2026-04-25T18:16:51Z</time></trkpt><trkpt lat="47.35074840723566" lon="8.639930228940461"><ele>624.0</ele><time>2026-04-25T18:16:52Z</time></trkpt><trkpt lat="47.350820076444926" lon="8.639943906822895"><ele>622.0</ele><time>2026-04-25T18:16:53Z</time></trkpt><trkpt lat="47.350898840323886" lon="8.639949382046662"><ele>620.0</ele><time>2026-04-25T18:16:54Z</time></trkpt><trkpt lat="47.35097062301984" lon="8.639941859632994"><ele>618.0</ele><time>2026-04-25T18:16:55Z</time></trkpt><trkpt lat="47.35105337694026" lon="8.639916579757925"><ele>618.0</ele><time>2026-04-25T18:16:56Z</time></trkpt><trkpt lat="47.351124744168494" lon="8.63990092409164"><ele>618.0</ele><time>2026-04-25T18:16:57Z</time></trkpt><trkpt lat="47.35123568462384" lon="8.639913163566442"><ele>618.0</ele><time>2026-04-25T18:16:59Z</time></trkpt><trkpt lat="47.35131441393855" lon="8.639962188596618"><ele>618.0</ele><time>2026-04-25T18:17:01Z</time></trkpt><trkpt lat="47.35138514137275" lon="8.63997137311243"><ele>618.0</ele><time>2026-04-25T18:17:04Z</time></trkpt><trkpt lat="47.35145519963642" lon="8.639929828300335"><ele>618.0</ele><time>2026-04-25T18:17:06Z</time></trkpt><trkpt lat="47.35155046712526" lon="8.639814065133255"><ele>616.5</ele><time>2026-04-25T18:17:08Z</time></trkpt><trkpt lat="47.35161818345226" lon="8.639761685076964"><ele>615.0</ele><time>2026-04-25T18:17:09Z</time></trkpt><trkpt lat="47.35168827720741" lon="8.639711205435"><ele>613.5</ele><time>2026-04-25T18:17:10Z</time></trkpt><trkpt lat="47.35176595286959" lon="8.639676906180577"><ele>612.0</ele><time>2026-04-25T18:17:11Z</time></trkpt><trkpt lat="47.351851767656335" lon="8.639675632256932"><ele>610.5</ele><time>2026-04-25T18:17:12Z</time></trkpt><trkpt lat="47.351931476418386" lon="8.639688316245831"><ele>609.0</ele><time>2026-04-25T18:17:13Z</time></trkpt><trkpt lat="47.35200154656083" lon="8.639707911462263"><ele>609.0</ele><time>2026-04-25T18:17:14Z</time></trkpt><trkpt lat="47.35207821124418" lon="8.639736506041135"><ele>609.0</ele><time>2026-04-25T18:17:15Z</time></trkpt><trkpt lat="47.35215286970536" lon="8.639746559779658"><ele>609.0</ele><time>2026-04-25T18:17:16Z</time></trkpt><trkpt lat="47.352229341355525" lon="8.6397512749519"><ele>609.0</ele><time>2026-04-25T18:17:17Z</time></trkpt><trkpt lat="47.35230254714607" lon="8.639731339169131"><ele>609.0</ele><time>2026-04-25T18:17:18Z</time></trkpt><trkpt lat="47.35237257835265" lon="8.639692512473687"><ele>609.0</ele><time>2026-04-25T18:17:19Z</time></trkpt><trkpt lat="47.352438184082196" lon="8.63963853111444"><ele>608.5714285714286</ele><time>2026-04-25T18:17:20Z</time></trkpt><trkpt lat="47.35249690929219" lon="8.639567282507972"><ele>608.1428571428571</ele><time>2026-04-25T18:17:21Z</time></trkpt><trkpt lat="47.35255407505657" lon="8.639495470116058"><ele>607.7142857142858</ele><time>2026-04-25T18:17:22Z</time></trkpt><trkpt lat="47.35260986211637" lon="8.639420984954455"><ele>607.2857142857142</ele><time>2026-04-25T18:17:23Z</time></trkpt><trkpt lat="47.352663608098275" lon="8.639347738707947"><ele>606.8571428571429</ele><time>2026-04-25T18:17:24Z</time></trkpt><trkpt lat="47.352718101092854" lon="8.639275700391899"><ele>606.4285714285714</ele><time>2026-04-25T18:17:25Z</time></trkpt><trkpt lat="47.35277113865412" lon="8.63920068634245"><ele>606.0</ele><time>2026-04-25T18:17:26Z</time></trkpt><trkpt lat="47.35282518527246" lon="8.639128385068519"><ele>606.7142857142858</ele><time>2026-04-25T18:17:27Z</time></trkpt><trkpt lat="47.352879017715054" lon="8.639056881876558"><ele>607.4285714285714</ele><time>2026-04-25T18:17:28Z</time></trkpt><trkpt lat="47.3529350093786" lon="8.63898825159792"><ele>608.1428571428571</ele><time>2026-04-25T18:17:29Z</time></trkpt><trkpt lat="47.35299166379769" lon="8.638924301847377"><ele>608.8571428571429</ele><time>2026-04-25T18:17:30Z</time></trkpt><trkpt lat="47.353043818155754" lon="8.638850939644877"><ele>609.5714285714286</ele><time>2026-04-25T18:17:31Z</time></trkpt><trkpt lat="47.35309256159703" lon="8.638776679962966"><ele>610.2857142857143</ele><time>2026-04-25T18:17:32Z</time></trkpt><trkpt lat="47.35314268677979" lon="8.638706128803037"><ele>611.0</ele><time>2026-04-25T18:17:33Z</time></trkpt><trkpt lat="47.35319901234174" lon="8.638661238904627"><ele>612.1666666666666</ele><time>2026-04-25T18:17:34Z</time></trkpt><trkpt lat="47.35325124382282" lon="8.63859779927947"><ele>613.3333333333333</ele><time>2026-04-25T18:17:36Z</time></trkpt><trkpt lat="47.35332061166584" lon="8.638513024368791"><ele>614.5</ele><time>2026-04-25T18:17:46Z</time></trkpt><trkpt lat="47.35338181685915" lon="8.638438137500827"><ele>615.6666666666666</ele><time>2026-04-25T18:17:48Z</time></trkpt><trkpt lat="47.353447289095165" lon="8.6383571573042"><ele>616.8333333333334</ele><time>2026-04-25T18:17:50Z</time></trkpt><trkpt lat="47.35352197685844" lon="8.638264196262849"><ele>618.0</ele><time>2026-04-25T18:17:52Z</time></trkpt><trkpt lat="47.35360708194925" lon="8.638158040630193"><ele>618.0</ele><time>2026-04-25T18:17:54Z</time></trkpt><trkpt lat="47.353697646034" lon="8.638045057806673"><ele>618.0</ele><time>2026-04-25T18:17:56Z</time></trkpt><trkpt lat="47.35379434463149" lon="8.637924337895049"><ele>618.0</ele><time>2026-04-25T18:17:58Z</time></trkpt><trkpt lat="47.35384380028047" lon="8.637862582662212"><ele>618.0</ele><time>2026-04-25T18:17:59Z</time></trkpt><trkpt lat="47.35389387883117" lon="8.637801176271822"><ele>618.0</ele><time>2026-04-25T18:18:00Z</time></trkpt><trkpt lat="47.35394545917907" lon="8.637739816201972"><ele>618.0</ele><time>2026-04-25T18:18:01Z</time></trkpt><trkpt lat="47.353998494712364" lon="8.637676725027994"><ele>617.8571428571429</ele><time>2026-04-25T18:18:02Z</time></trkpt><trkpt lat="47.35405309433128" lon="8.637610343002272"><ele>617.7142857142858</ele><time>2026-04-25T18:18:03Z</time></trkpt><trkpt lat="47.35410404541298" lon="8.637544768054559"><ele>617.5714285714287</ele><time>2026-04-25T18:18:04Z</time></trkpt><trkpt lat="47.35415582552069" lon="8.637478126352066"><ele>617.4285714285714</ele><time>2026-04-25T18:18:05Z</time></trkpt><trkpt lat="47.354210277140496" lon="8.637402261527276"><ele>617.2857142857142</ele><time>2026-04-25T18:18:06Z</time></trkpt><trkpt lat="47.35426051012422" lon="8.637319443457628"><ele>617.1428571428572</ele><time>2026-04-25T18:18:07Z</time></trkpt><trkpt lat="47.35430530721987" lon="8.637228774742267"><ele>617.0</ele><time>2026-04-25T18:18:08Z</time></trkpt><trkpt lat="47.3543448960991" lon="8.637130847514163"><ele>617.0</ele><time>2026-04-25T18:18:09Z</time></trkpt><trkpt lat="47.3543797933274" lon="8.637035028335182"><ele>617.0</ele><time>2026-04-25T18:18:10Z</time></trkpt><trkpt lat="47.35441135040365" lon="8.636933826380314"><ele>617.0</ele><time>2026-04-25T18:18:11Z</time></trkpt><trkpt lat="47.354437999407175" lon="8.636825188849437"><ele>617.0</ele><time>2026-04-25T18:18:12Z</time></trkpt><trkpt lat="47.35446468609693" lon="8.636722032721863"><ele>617.0</ele><time>2026-04-25T18:18:13Z</time></trkpt><trkpt lat="47.35449046400998" lon="8.63661930433416"><ele>617.0</ele><time>2026-04-25T18:18:14Z</time></trkpt><trkpt lat="47.35451624829868" lon="8.636516550058328"><ele>618.0</ele><time>2026-04-25T18:18:15Z</time></trkpt><trkpt lat="47.35454303883933" lon="8.636413385319267"><ele>619.0</ele><time>2026-04-25T18:18:16Z</time></trkpt><trkpt lat="47.354570155019886" lon="8.636311666997257"><ele>620.0</ele><time>2026-04-25T18:18:17Z</time></trkpt><trkpt lat="47.35459741687222" lon="8.636209401244116"><ele>621.0</ele><time>2026-04-25T18:18:18Z</time></trkpt><trkpt lat="47.354623757529275" lon="8.63610435128614"><ele>622.0</ele><time>2026-04-25T18:18:19Z</time></trkpt><trkpt lat="47.35464815181379" lon="8.63600287101656"><ele>623.0</ele><time>2026-04-25T18:18:20Z</time></trkpt><trkpt lat="47.354673593311915" lon="8.635897030801512"><ele>624.0</ele><time>2026-04-25T18:18:21Z</time></trkpt><trkpt lat="47.35469580287196" lon="8.635782976384226"><ele>623.3333333333334</ele><time>2026-04-25T18:18:22Z</time></trkpt><trkpt lat="47.35471626096111" lon="8.635673617145034"><ele>622.6666666666666</ele><time>2026-04-25T18:18:23Z</time></trkpt><trkpt lat="47.35473312677052" lon="8.635555958764993"><ele>622.0</ele><time>2026-04-25T18:18:24Z</time></trkpt><trkpt lat="47.354747580603544" lon="8.635437214246014"><ele>621.3333333333333</ele><time>2026-04-25T18:18:25Z</time></trkpt><trkpt lat="47.35475969304003" lon="8.635328504050808"><ele>620.6666666666666</ele><time>2026-04-25T18:18:26Z</time></trkpt><trkpt lat="47.35477034242046" lon="8.635215574339048"><ele>620.0</ele><time>2026-04-25T18:18:27Z</time></trkpt><trkpt lat="47.35477730508309" lon="8.635113725532415"><ele>620.0</ele><time>2026-04-25T18:18:28Z</time></trkpt><trkpt lat="47.35478474477114" lon="8.635004899047187"><ele>620.0</ele><time>2026-04-25T18:18:29Z</time></trkpt><trkpt lat="47.354792450629304" lon="8.634892179091153"><ele>620.0</ele><time>2026-04-25T18:18:30Z</time></trkpt><trkpt lat="47.354800019559406" lon="8.63478146202488"><ele>620.0</ele><time>2026-04-25T18:18:31Z</time></trkpt><trkpt lat="47.35480751291521" lon="8.634671850501903"><ele>620.0</ele><time>2026-04-25T18:18:32Z</time></trkpt><trkpt lat="47.35481520326103" lon="8.634559357365797"><ele>620.0</ele><time>2026-04-25T18:18:33Z</time></trkpt><trkpt lat="47.35482288164693" lon="8.634447039349249"><ele>620.1666666666666</ele><time>2026-04-25T18:18:34Z</time></trkpt><trkpt lat="47.35483068364702" lon="8.634332912316085"><ele>620.3333333333333</ele><time>2026-04-25T18:18:35Z</time></trkpt><trkpt lat="47.354838504762554" lon="8.634220258428233"><ele>620.5</ele><time>2026-04-25T18:18:36Z</time></trkpt><trkpt lat="47.35484656402813" lon="8.634103911370524"><ele>620.6666666666666</ele><time>2026-04-25T18:18:37Z</time></trkpt><trkpt lat="47.35485442631854" lon="8.633988610548757"><ele>620.8333333333334</ele><time>2026-04-25T18:18:38Z</time></trkpt><trkpt lat="47.354861915966126" lon="8.633871310768171"><ele>621.0</ele><time>2026-04-25T18:18:39Z</time></trkpt><trkpt lat="47.35486923810462" lon="8.633756634521298"><ele>621.0</ele><time>2026-04-25T18:18:40Z</time></trkpt><trkpt lat="47.35487657304412" lon="8.633641757725597"><ele>621.0</ele><time>2026-04-25T18:18:41Z</time></trkpt><trkpt lat="47.35488397237878" lon="8.633525872401593"><ele>621.0</ele><time>2026-04-25T18:18:42Z</time></trkpt><trkpt lat="47.35489114729136" lon="8.633410632545804"><ele>621.0</ele><time>2026-04-25T18:18:43Z</time></trkpt><trkpt lat="47.35489829515261" lon="8.633294873188339"><ele>621.0</ele><time>2026-04-25T18:18:44Z</time></trkpt><trkpt lat="47.35490536108117" lon="8.633180440722784"><ele>621.0</ele><time>2026-04-25T18:18:45Z</time></trkpt><trkpt lat="47.354912432971204" lon="8.633065911681799"><ele>621.0</ele><time>2026-04-25T18:18:46Z</time></trkpt><trkpt lat="47.35491981940253" lon="8.632953382471321"><ele>621.0</ele><time>2026-04-25T18:18:47Z</time></trkpt><trkpt lat="47.35492857383929" lon="8.632839016460007"><ele>621.0</ele><time>2026-04-25T18:18:48Z</time></trkpt><trkpt lat="47.354937288153266" lon="8.632725174682834"><ele>621.0</ele><time>2026-04-25T18:18:49Z</time></trkpt><trkpt lat="47.35494601624058" lon="8.632611152973029"><ele>621.0</ele><time>2026-04-25T18:18:50Z</time></trkpt><trkpt lat="47.35495460123347" lon="8.632496218683574"><ele>621.0</ele><time>2026-04-25T18:18:51Z</time></trkpt><trkpt lat="47.354961867209774" lon="8.63238024255985"><ele>621.2857142857142</ele><time>2026-04-25T18:18:52Z</time></trkpt><trkpt lat="47.354967709838405" lon="8.632266740975309"><ele>621.5714285714286</ele><time>2026-04-25T18:18:53Z</time></trkpt><trkpt lat="47.35497346003692" lon="8.632157139134605"><ele>621.8571428571429</ele><time>2026-04-25T18:18:54Z</time></trkpt><trkpt lat="47.35498084074138" lon="8.632047663327516"><ele>622.1428571428571</ele><time>2026-04-25T18:18:55Z</time></trkpt><trkpt lat="47.3549909913905" lon="8.631942132678184"><ele>622.4285714285714</ele><time>2026-04-25T18:18:56Z</time></trkpt><trkpt lat="47.35500589630037" lon="8.631839382248872"><ele>622.7142857142857</ele><time>2026-04-25T18:18:57Z</time></trkpt><trkpt lat="47.355028351400044" lon="8.631745920776009"><ele>623.0</ele><time>2026-04-25T18:18:58Z</time></trkpt><trkpt lat="47.35510788938179" lon="8.631591987185129"><ele>623.0</ele><time>2026-04-25T18:19:00Z</time></trkpt><trkpt lat="47.35515898910736" lon="8.631517371317429"><ele>623.0</ele><time>2026-04-25T18:19:01Z</time></trkpt><trkpt lat="47.35521704085475" lon="8.631442343303503"><ele>623.0</ele><time>2026-04-25T18:19:02Z</time></trkpt><trkpt lat="47.355275229873676" lon="8.631366740700905"><ele>623.0</ele><time>2026-04-25T18:19:03Z</time></trkpt><trkpt lat="47.3553264062721" lon="8.63130024940315"><ele>623.0</ele><time>2026-04-25T18:19:04Z</time></trkpt><trkpt lat="47.355376266603066" lon="8.631235467905858"><ele>623.0</ele><time>2026-04-25T18:19:05Z</time></trkpt><trkpt lat="47.355434515910396" lon="8.63115892054421"><ele>623.0</ele><time>2026-04-25T18:19:06Z</time></trkpt><trkpt lat="47.35548712942119" lon="8.631089338278127"><ele>622.4285714285714</ele><time>2026-04-25T18:19:07Z</time></trkpt><trkpt lat="47.35553794147954" lon="8.631022138345898"><ele>621.8571428571429</ele><time>2026-04-25T18:19:08Z</time></trkpt><trkpt lat="47.355588957070985" lon="8.63094938871019"><ele>621.2857142857142</ele><time>2026-04-25T18:19:09Z</time></trkpt><trkpt lat="47.35563525700967" lon="8.630876193302536"><ele>620.7142857142858</ele><time>2026-04-25T18:19:10Z</time></trkpt><trkpt lat="47.35568124697915" lon="8.630803289232096"><ele>620.1428571428571</ele><time>2026-04-25T18:19:11Z</time></trkpt><trkpt lat="47.3557237405203" lon="8.630721515790468"><ele>619.5714285714286</ele><time>2026-04-25T18:19:12Z</time></trkpt><trkpt lat="47.35576544698264" lon="8.630642337854903"><ele>619.0</ele><time>2026-04-25T18:19:13Z</time></trkpt><trkpt lat="47.35584159131667" lon="8.630492223300886"><ele>619.0</ele><time>2026-04-25T18:19:15Z</time></trkpt><trkpt lat="47.35591720831368" lon="8.63034373737138"><ele>619.0</ele><time>2026-04-25T18:19:17Z</time></trkpt><trkpt lat="47.35598709683674" lon="8.630220495892166"><ele>619.0</ele><time>2026-04-25T18:19:19Z</time></trkpt><trkpt lat="47.35606360577621" lon="8.630235184265967"><ele>619.0</ele><time>2026-04-25T18:19:26Z</time></trkpt><trkpt lat="47.3561746275193" lon="8.630249987739427"><ele>619.0</ele><time>2026-04-25T18:19:29Z</time></trkpt><trkpt lat="47.356241450748364" lon="8.630256992636593"><ele>618.8333333333334</ele><time>2026-04-25T18:19:30Z</time></trkpt><trkpt lat="47.35631801499838" lon="8.63025661800178"><ele>618.6666666666667</ele><time>2026-04-25T18:19:31Z</time></trkpt><trkpt lat="47.35639806567379" lon="8.630252865422309"><ele>618.5</ele><time>2026-04-25T18:19:32Z</time></trkpt><trkpt lat="47.356480846526644" lon="8.630248637841099"><ele>618.3333333333334</ele><time>2026-04-25T18:19:33Z</time></trkpt><trkpt lat="47.356566261269606" lon="8.630244275738583"><ele>618.1666666666666</ele><time>2026-04-25T18:19:34Z</time></trkpt><trkpt lat="47.356654250312374" lon="8.63023909955874"><ele>618.0</ele><time>2026-04-25T18:19:35Z</time></trkpt><trkpt lat="47.35674220592245" lon="8.630233135392512"><ele>618.0</ele><time>2026-04-25T18:19:36Z</time></trkpt><trkpt lat="47.356830571381415" lon="8.630227143435723"><ele>618.0</ele><time>2026-04-25T18:19:37Z</time></trkpt><trkpt lat="47.356918875716865" lon="8.630221155619063"><ele>618.0</ele><time>2026-04-25T18:19:38Z</time></trkpt><trkpt lat="47.35700708755096" lon="8.630215174077534"><ele>618.0</ele><time>2026-04-25T18:19:39Z</time></trkpt><trkpt lat="47.35709735914932" lon="8.630208565926738"><ele>618.0</ele><time>2026-04-25T18:19:40Z</time></trkpt><trkpt lat="47.35718500701634" lon="8.630202007247869"><ele>618.0</ele><time>2026-04-25T18:19:41Z</time></trkpt><trkpt lat="47.357263775643794" lon="8.630196113007322"><ele>616.3333333333334</ele><time>2026-04-25T18:19:42Z</time></trkpt><trkpt lat="47.3573429095168" lon="8.630190191421502"><ele>614.6666666666666</ele><time>2026-04-25T18:19:43Z</time></trkpt><trkpt lat="47.35742345295626" lon="8.63018554318316"><ele>613.0</ele><time>2026-04-25T18:19:44Z</time></trkpt><trkpt lat="47.35750485853551" lon="8.630181008062442"><ele>611.3333333333333</ele><time>2026-04-25T18:19:45Z</time></trkpt><trkpt lat="47.357585443344895" lon="8.630176518617613"><ele>609.6666666666666</ele><time>2026-04-25T18:19:46Z</time></trkpt><trkpt lat="47.357656681288034" lon="8.630171245560394"><ele>608.0</ele><time>2026-04-25T18:19:47Z</time></trkpt><trkpt lat="47.35772419569602" lon="8.630166505455872"><ele>608.0</ele><time>2026-04-25T18:19:48Z</time></trkpt><trkpt lat="47.35779697425688" lon="8.630160770661012"><ele>608.0</ele><time>2026-04-25T18:19:49Z</time></trkpt><trkpt lat="47.357871337565655" lon="8.630153128368427"><ele>608.0</ele><time>2026-04-25T18:19:50Z</time></trkpt><trkpt lat="47.357946373702845" lon="8.630145416929516"><ele>608.0</ele><time>2026-04-25T18:19:51Z</time></trkpt><trkpt lat="47.35802069751958" lon="8.630137778693056"><ele>608.0</ele><time>2026-04-25T18:19:52Z</time></trkpt><trkpt lat="47.35810135359674" lon="8.630126130370815"><ele>608.0</ele><time>2026-04-25T18:19:53Z</time></trkpt><trkpt lat="47.35817845662751" lon="8.630112877806146"><ele>606.8</ele><time>2026-04-25T18:19:54Z</time></trkpt><trkpt lat="47.35825186269431" lon="8.63010026068902"><ele>605.5999999999999</ele><time>2026-04-25T18:19:55Z</time></trkpt><trkpt lat="47.35831668867337" lon="8.630089118364706"><ele>604.4000000000001</ele><time>2026-04-25T18:19:56Z</time></trkpt><trkpt lat="47.35843471218584" lon="8.630068556651125"><ele>603.2</ele><time>2026-04-25T18:19:58Z</time></trkpt><trkpt lat="47.35852958360438" lon="8.629829336947914"><ele>602.0</ele><time>2026-04-25T18:20:00Z</time></trkpt><trkpt lat="47.35859271607368" lon="8.629751036223936"><ele>602.0</ele><time>2026-04-25T18:20:02Z</time></trkpt><trkpt lat="47.35865067931468" lon="8.629693823861288"><ele>602.0</ele><time>2026-04-25T18:20:07Z</time></trkpt><trkpt lat="47.358742302644195" lon="8.629705527402026"><ele>602.0</ele><time>2026-04-25T18:20:09Z</time></trkpt><trkpt lat="47.35884781208519" lon="8.629800194866348"><ele>602.0</ele><time>2026-04-25T18:20:11Z</time></trkpt><trkpt lat="47.35891798344498" lon="8.629837317169194"><ele>602.0</ele><time>2026-04-25T18:20:12Z</time></trkpt><trkpt lat="47.3589989891949" lon="8.62984347407538"><ele>602.0</ele><time>2026-04-25T18:20:13Z</time></trkpt><trkpt lat="47.35909062854147" lon="8.629969034679576"><ele>600.6666666666666</ele><time>2026-04-25T18:20:14Z</time></trkpt><trkpt lat="47.359175574405775" lon="8.629956994921535"><ele>599.3333333333333</ele><time>2026-04-25T18:20:15Z</time></trkpt><trkpt lat="47.359252177419016" lon="8.629950279010057"><ele>598.0</ele><time>2026-04-25T18:20:16Z</time></trkpt><trkpt lat="47.35933707064794" lon="8.629946532774099"><ele>596.6666666666666</ele><time>2026-04-25T18:20:17Z</time></trkpt><trkpt lat="47.359423928447804" lon="8.629942699838162"><ele>595.3333333333334</ele><time>2026-04-25T18:20:18Z</time></trkpt><trkpt lat="47.35951125058042" lon="8.629938846409596"><ele>594.0</ele><time>2026-04-25T18:20:19Z</time></trkpt><trkpt lat="47.35960066313436" lon="8.629934900748461"><ele>594.0</ele><time>2026-04-25T18:20:20Z</time></trkpt><trkpt lat="47.359689191315326" lon="8.629931285605261"><ele>594.0</ele><time>2026-04-25T18:20:21Z</time></trkpt><trkpt lat="47.3597784403415" lon="8.629927650682912"><ele>594.0</ele><time>2026-04-25T18:20:22Z</time></trkpt><trkpt lat="47.359870128397816" lon="8.629924656930061"><ele>594.0</ele><time>2026-04-25T18:20:23Z</time></trkpt><trkpt lat="47.35996151543236" lon="8.629922815551023"><ele>594.0</ele><time>2026-04-25T18:20:24Z</time></trkpt><trkpt lat="47.360052591783266" lon="8.629920980432855"><ele>593.0</ele><time>2026-04-25T18:20:25Z</time></trkpt><trkpt lat="47.36014330415547" lon="8.629922309855845"><ele>592.0</ele><time>2026-04-25T18:20:26Z</time></trkpt><trkpt lat="47.36023741593358" lon="8.629927538294599"><ele>591.0</ele><time>2026-04-25T18:20:27Z</time></trkpt><trkpt lat="47.36032275242597" lon="8.629934524254002"><ele>590.0</ele><time>2026-04-25T18:20:28Z</time></trkpt><trkpt lat="47.36041864622818" lon="8.62994764141215"><ele>589.0</ele><time>2026-04-25T18:20:29Z</time></trkpt><trkpt lat="47.36051411264705" lon="8.62996070011074"><ele>587.4</ele><time>2026-04-25T18:20:30Z</time></trkpt><trkpt lat="47.360607720567316" lon="8.629974540931414"><ele>585.8</ele><time>2026-04-25T18:20:31Z</time></trkpt><trkpt lat="47.36070393913877" lon="8.629988985288842"><ele>584.2</ele><time>2026-04-25T18:20:32Z</time></trkpt><trkpt lat="47.36080215719205" lon="8.630003924431266"><ele>582.6</ele><time>2026-04-25T18:20:33Z</time></trkpt><trkpt lat="47.3608996786701" lon="8.630019408183372"><ele>581.0</ele><time>2026-04-25T18:20:34Z</time></trkpt><trkpt lat="47.36099062098778" lon="8.630033847366898"><ele>581.0</ele><time>2026-04-25T18:20:35Z</time></trkpt><trkpt lat="47.36107098575368" lon="8.63004660711378"><ele>581.0</ele><time>2026-04-25T18:20:36Z</time></trkpt><trkpt lat="47.36113970769456" lon="8.630057518299783"><ele>581.0</ele><time>2026-04-25T18:20:37Z</time></trkpt><trkpt lat="47.361211942873375" lon="8.630068730324"><ele>581.0</ele><time>2026-04-25T18:20:38Z</time></trkpt><trkpt lat="47.36128975072408" lon="8.630080754730008"><ele>581.0</ele><time>2026-04-25T18:20:39Z</time></trkpt><trkpt lat="47.361365206660466" lon="8.630092415676053"><ele>581.0</ele><time>2026-04-25T18:20:40Z</time></trkpt><trkpt lat="47.36143125823944" lon="8.6301026232717"><ele>581.0</ele><time>2026-04-25T18:20:41Z</time></trkpt><trkpt lat="47.36149715687406" lon="8.630112807337438"><ele>580.6</ele><time>2026-04-25T18:20:42Z</time></trkpt><trkpt lat="47.36156210267593" lon="8.63012284429658"><ele>580.2</ele><time>2026-04-25T18:20:43Z</time></trkpt><trkpt lat="47.36164501687788" lon="8.629903778227545"><ele>579.8</ele><time>2026-04-25T18:20:44Z</time></trkpt><trkpt lat="47.36170549190091" lon="8.62995634761373"><ele>579.4</ele><time>2026-04-25T18:20:45Z</time></trkpt><trkpt lat="47.36177089313956" lon="8.629989955424987"><ele>579.0</ele><time>2026-04-25T18:20:46Z</time></trkpt><trkpt lat="47.361847143460416" lon="8.630003378490642"><ele>579.0</ele><time>2026-04-25T18:20:47Z</time></trkpt><trkpt lat="47.361925024545336" lon="8.630006313885806"><ele>579.0</ele><time>2026-04-25T18:20:48Z</time></trkpt><trkpt lat="47.36200454791816" lon="8.630011406915763"><ele>579.0</ele><time>2026-04-25T18:20:49Z</time></trkpt><trkpt lat="47.36208552162994" lon="8.630021714006723"><ele>579.0</ele><time>2026-04-25T18:20:50Z</time></trkpt><trkpt lat="47.3621604543004" lon="8.630169089126301"><ele>579.0</ele><time>2026-04-25T18:20:51Z</time></trkpt><trkpt lat="47.36224382991808" lon="8.630179617139207"><ele>579.0</ele><time>2026-04-25T18:20:52Z</time></trkpt><trkpt lat="47.36232876168079" lon="8.630190711057374"><ele>578.6666666666666</ele><time>2026-04-25T18:20:53Z</time></trkpt><trkpt lat="47.36241611368643" lon="8.63020362761574"><ele>578.3333333333334</ele><time>2026-04-25T18:20:54Z</time></trkpt><trkpt lat="47.362503690318775" lon="8.630218822782957"><ele>578.0</ele><time>2026-04-25T18:20:55Z</time></trkpt><trkpt lat="47.362589177733454" lon="8.630235546120335"><ele>577.6666666666667</ele><time>2026-04-25T18:20:56Z</time></trkpt><trkpt lat="47.36267177773986" lon="8.630253858506704"><ele>577.3333333333334</ele><time>2026-04-25T18:20:57Z</time></trkpt><trkpt lat="47.362753498527915" lon="8.63027508276593"><ele>577.0</ele><time>2026-04-25T18:20:58Z</time></trkpt><trkpt lat="47.362831744300756" lon="8.630299025404197"><ele>576.3333333333334</ele><time>2026-04-25T18:20:59Z</time></trkpt><trkpt lat="47.36291253110844" lon="8.630328510765219"><ele>575.6666666666667</ele><time>2026-04-25T18:21:00Z</time></trkpt><trkpt lat="47.362990994485195" lon="8.630361772213577"><ele>575.0</ele><time>2026-04-25T18:21:01Z</time></trkpt><trkpt lat="47.36307336967371" lon="8.6304018268944"><ele>574.3333333333334</ele><time>2026-04-25T18:21:02Z</time></trkpt><trkpt lat="47.36315089649869" lon="8.630445346146395"><ele>573.6666666666666</ele><time>2026-04-25T18:21:03Z</time></trkpt><trkpt lat="47.36322983473499" lon="8.630490196362153"><ele>573.0</ele><time>2026-04-25T18:21:04Z</time></trkpt><trkpt lat="47.36331038835334" lon="8.630538790176706"><ele>573.0</ele><time>2026-04-25T18:21:05Z</time></trkpt><trkpt lat="47.3633878219366" lon="8.630589073154992"><ele>573.0</ele><time>2026-04-25T18:21:06Z</time></trkpt><trkpt lat="47.363462409728804" lon="8.630643285553273"><ele>573.0</ele><time>2026-04-25T18:21:07Z</time></trkpt><trkpt lat="47.363532160482734" lon="8.630699592571904"><ele>573.0</ele><time>2026-04-25T18:21:08Z</time></trkpt><trkpt lat="47.36360081533203" lon="8.630754761006678"><ele>573.0</ele><time>2026-04-25T18:21:09Z</time></trkpt><trkpt lat="47.36367236535274" lon="8.630818716922514"><ele>573.0</ele><time>2026-04-25T18:21:10Z</time></trkpt><trkpt lat="47.36373979307522" lon="8.630881837794078"><ele>573.0</ele><time>2026-04-25T18:21:11Z</time></trkpt><trkpt lat="47.363803416135376" lon="8.630946354497699"><ele>573.0</ele><time>2026-04-25T18:21:12Z</time></trkpt><trkpt lat="47.36386452053792" lon="8.631014897632847"><ele>573.0</ele><time>2026-04-25T18:21:13Z</time></trkpt><trkpt lat="47.36392800503341" lon="8.631092214235963"><ele>573.0</ele><time>2026-04-25T18:21:14Z</time></trkpt><trkpt lat="47.36398992986134" lon="8.631171138277837"><ele>573.0</ele><time>2026-04-25T18:21:15Z</time></trkpt><trkpt lat="47.36404994046239" lon="8.631250453663435"><ele>573.0</ele><time>2026-04-25T18:21:16Z</time></trkpt><trkpt lat="47.36410996333684" lon="8.631331168649247"><ele>572.8333333333334</ele><time>2026-04-25T18:21:17Z</time></trkpt><trkpt lat="47.364168199257925" lon="8.631413215467656"><ele>572.6666666666666</ele><time>2026-04-25T18:21:18Z</time></trkpt><trkpt lat="47.36422222701092" lon="8.631496429165399"><ele>572.5</ele><time>2026-04-25T18:21:19Z</time></trkpt><trkpt lat="47.36428106268" lon="8.63158334207954"><ele>572.3333333333333</ele><time>2026-04-25T18:21:20Z</time></trkpt><trkpt lat="47.36433873331201" lon="8.63166321226761"><ele>572.1666666666666</ele><time>2026-04-25T18:21:21Z</time></trkpt><trkpt lat="47.36440561484443" lon="8.631749132602296"><ele>572.0</ele><time>2026-04-25T18:21:22Z</time></trkpt><trkpt lat="47.36447664895612" lon="8.631824375715517"><ele>572.0</ele><time>2026-04-25T18:21:23Z</time></trkpt><trkpt lat="47.36455163073072" lon="8.631889584430088"><ele>572.0</ele><time>2026-04-25T18:21:24Z</time></trkpt><trkpt lat="47.36463085158403" lon="8.631946343073952"><ele>572.0</ele><time>2026-04-25T18:21:25Z</time></trkpt><trkpt lat="47.364717231189296" lon="8.63199368785469"><ele>572.0</ele><time>2026-04-25T18:21:26Z</time></trkpt><trkpt lat="47.36480983665946" lon="8.632023339546112"><ele>572.0</ele><time>2026-04-25T18:21:27Z</time></trkpt><trkpt lat="47.36489647257934" lon="8.632041019987941"><ele>572.0</ele><time>2026-04-25T18:21:28Z</time></trkpt><trkpt lat="47.36497901586408" lon="8.632052195196138"><ele>570.8333333333333</ele><time>2026-04-25T18:21:29Z</time></trkpt><trkpt lat="47.36506000725056" lon="8.632062627545386"><ele>569.6666666666666</ele><time>2026-04-25T18:21:30Z</time></trkpt><trkpt lat="47.3651442769623" lon="8.632072686701006"><ele>568.5</ele><time>2026-04-25T18:21:31Z</time></trkpt><trkpt lat="47.36522890029907" lon="8.632082182542804"><ele>567.3333333333334</ele><time>2026-04-25T18:21:32Z</time></trkpt><trkpt lat="47.36531643022476" lon="8.632092004551247"><ele>566.1666666666667</ele><time>2026-04-25T18:21:33Z</time></trkpt><trkpt lat="47.36540325914761" lon="8.632101747905137"><ele>565.0</ele><time>2026-04-25T18:21:34Z</time></trkpt><trkpt lat="47.365490625988414" lon="8.632111551626972"><ele>564.8333333333334</ele><time>2026-04-25T18:21:35Z</time></trkpt><trkpt lat="47.365577878728516" lon="8.632121342531992"><ele>564.6666666666667</ele><time>2026-04-25T18:21:36Z</time></trkpt><trkpt lat="47.36565970588516" lon="8.632130524754155"><ele>564.5</ele><time>2026-04-25T18:21:37Z</time></trkpt><trkpt lat="47.365731514014556" lon="8.632138918353508"><ele>564.3333333333334</ele><time>2026-04-25T18:21:38Z</time></trkpt><trkpt lat="47.36579753356549" lon="8.632146510053358"><ele>564.1666666666666</ele><time>2026-04-25T18:21:39Z</time></trkpt><trkpt lat="47.36591629998504" lon="8.632160167230676"><ele>564.0</ele><time>2026-04-25T18:21:41Z</time></trkpt><trkpt lat="47.36600418929783" lon="8.632172034579806"><ele>564.0</ele><time>2026-04-25T18:21:43Z</time></trkpt><trkpt lat="47.366113068724594" lon="8.632175149798314"><ele>564.0</ele><time>2026-04-25T18:21:46Z</time></trkpt><trkpt lat="47.36624499981027" lon="8.632220914230722"><ele>564.0</ele><time>2026-04-25T18:21:48Z</time></trkpt><trkpt lat="47.366321525558924" lon="8.632230313932773"><ele>564.0</ele><time>2026-04-25T18:21:49Z</time></trkpt><trkpt lat="47.36639934315699" lon="8.6322337674031"><ele>564.0</ele><time>2026-04-25T18:21:50Z</time></trkpt><trkpt lat="47.36648823808102" lon="8.632246730221345"><ele>562.2</ele><time>2026-04-25T18:21:51Z</time></trkpt><trkpt lat="47.36657632612825" lon="8.632257405886202"><ele>560.4</ele><time>2026-04-25T18:21:52Z</time></trkpt><trkpt lat="47.366667615707634" lon="8.632265589251832"><ele>558.6</ele><time>2026-04-25T18:21:53Z</time></trkpt><trkpt lat="47.36676071988476" lon="8.632268402570714"><ele>556.8</ele><time>2026-04-25T18:21:54Z</time></trkpt><trkpt lat="47.36685740657164" lon="8.632263157151913"><ele>555.0</ele><time>2026-04-25T18:21:55Z</time></trkpt><trkpt lat="47.366955039821" lon="8.632247741023011"><ele>555.0</ele><time>2026-04-25T18:21:56Z</time></trkpt><trkpt lat="47.367054705225506" lon="8.63222284671355"><ele>555.0</ele><time>2026-04-25T18:21:57Z</time></trkpt><trkpt lat="47.367154420651474" lon="8.632193847149063"><ele>555.0</ele><time>2026-04-25T18:21:58Z</time></trkpt><trkpt lat="47.36725581090535" lon="8.632155136715918"><ele>555.0</ele><time>2026-04-25T18:21:59Z</time></trkpt><trkpt lat="47.367356143639036" lon="8.632109427785139"><ele>555.0</ele><time>2026-04-25T18:22:00Z</time></trkpt><trkpt lat="47.367456817036555" lon="8.632057577902058"><ele>554.0</ele><time>2026-04-25T18:22:01Z</time></trkpt><trkpt lat="47.36756199905804" lon="8.632007947609935"><ele>553.0</ele><time>2026-04-25T18:22:02Z</time></trkpt><trkpt lat="47.36766469096334" lon="8.631958300736862"><ele>552.0</ele><time>2026-04-25T18:22:03Z</time></trkpt><trkpt lat="47.367769840823705" lon="8.631899884088973"><ele>551.0</ele><time>2026-04-25T18:22:04Z</time></trkpt><trkpt lat="47.36787357183398" lon="8.631841972278636"><ele>550.0</ele><time>2026-04-25T18:22:05Z</time></trkpt><trkpt lat="47.36797957239976" lon="8.63179246702085"><ele>548.2</ele><time>2026-04-25T18:22:06Z</time></trkpt><trkpt lat="47.36808535728091" lon="8.63174255692499"><ele>546.4</ele><time>2026-04-25T18:22:07Z</time></trkpt><trkpt lat="47.368191313781956" lon="8.631689901451757"><ele>544.6</ele><time>2026-04-25T18:22:08Z</time></trkpt><trkpt lat="47.36829850975263" lon="8.631642370054633"><ele>542.8</ele><time>2026-04-25T18:22:09Z</time></trkpt><trkpt lat="47.36840392323772" lon="8.63158782976846"><ele>541.0</ele><time>2026-04-25T18:22:10Z</time></trkpt><trkpt lat="47.36850188690106" lon="8.631544138622072"><ele>541.0</ele><time>2026-04-25T18:22:11Z</time></trkpt><trkpt lat="47.36858568932503" lon="8.63149702929073"><ele>541.0</ele><time>2026-04-25T18:22:12Z</time></trkpt><trkpt lat="47.36866627629345" lon="8.631455689971144"><ele>541.0</ele><time>2026-04-25T18:22:13Z</time></trkpt><trkpt lat="47.368734814927365" lon="8.631422847892814"><ele>541.0</ele><time>2026-04-25T18:22:14Z</time></trkpt><trkpt lat="47.368800879788964" lon="8.63142385070001"><ele>541.0</ele><time>2026-04-25T18:22:15Z</time></trkpt><trkpt lat="47.368863545887464" lon="8.631481004323895"><ele>541.0</ele><time>2026-04-25T18:22:16Z</time></trkpt><trkpt lat="47.368885872820776" lon="8.631581258627614"><ele>541.0</ele><time>2026-04-25T18:22:17Z</time></trkpt><trkpt lat="47.36887208196544" lon="8.6317006377334"><ele>541.0</ele><time>2026-04-25T18:22:18Z</time></trkpt><trkpt lat="47.368848926970955" lon="8.631810038824433"><ele>541.0</ele><time>2026-04-25T18:22:19Z</time></trkpt><trkpt lat="47.368796111781016" lon="8.631908472919864"><ele>541.0</ele><time>2026-04-25T18:22:20Z</time></trkpt><trkpt lat="47.36874225667217" lon="8.632013460564234"><ele>541.0</ele><time>2026-04-25T18:22:21Z</time></trkpt><trkpt lat="47.36870257527298" lon="8.632131032874353"><ele>541.0</ele><time>2026-04-25T18:22:22Z</time></trkpt><trkpt lat="47.368662016400044" lon="8.632252132881899"><ele>539.3333333333334</ele><time>2026-04-25T18:22:23Z</time></trkpt><trkpt lat="47.3686215520718" lon="8.632375311118166"><ele>537.6666666666667</ele><time>2026-04-25T18:22:24Z</time></trkpt><trkpt lat="47.36858792175734" lon="8.632499482051864"><ele>536.0</ele><time>2026-04-25T18:22:25Z</time></trkpt><trkpt lat="47.368561283710584" lon="8.632623321737942"><ele>534.3333333333334</ele><time>2026-04-25T18:22:26Z</time></trkpt><trkpt lat="47.368551676624165" lon="8.632735821909"><ele>532.6666666666666</ele><time>2026-04-25T18:22:27Z</time></trkpt><trkpt lat="47.36855692166309" lon="8.632853388868847"><ele>531.0</ele><time>2026-04-25T18:22:28Z</time></trkpt><trkpt lat="47.36857519299818" lon="8.632964136268358"><ele>530.1666666666666</ele><time>2026-04-25T18:22:29Z</time></trkpt><trkpt lat="47.368618852162044" lon="8.633059594460144"><ele>529.3333333333334</ele><time>2026-04-25T18:22:30Z</time></trkpt><trkpt lat="47.368686910067964" lon="8.633128617798722"><ele>528.5</ele><time>2026-04-25T18:22:31Z</time></trkpt><trkpt lat="47.368770345866515" lon="8.633160198308424"><ele>527.6666666666667</ele><time>2026-04-25T18:22:32Z</time></trkpt><trkpt lat="47.368858611525766" lon="8.63316272656038"><ele>526.8333333333334</ele><time>2026-04-25T18:22:33Z</time></trkpt><trkpt lat="47.36894651930134" lon="8.633163024377247"><ele>526.0</ele><time>2026-04-25T18:22:34Z</time></trkpt><trkpt lat="47.36903884533599" lon="8.633161319943072"><ele>525.2</ele><time>2026-04-25T18:22:35Z</time></trkpt><trkpt lat="47.36913239384065" lon="8.633161120407314"><ele>524.4000000000001</ele><time>2026-04-25T18:22:36Z</time></trkpt><trkpt lat="47.36922890599551" lon="8.633167783998333"><ele>523.6</ele><time>2026-04-25T18:22:37Z</time></trkpt><trkpt lat="47.369325109128226" lon="8.63319687679861"><ele>522.8000000000001</ele><time>2026-04-25T18:22:38Z</time></trkpt><trkpt lat="47.36941953679312" lon="8.633244494662039"><ele>522.0</ele><time>2026-04-25T18:22:39Z</time></trkpt><trkpt lat="47.369517203274725" lon="8.633288429247749"><ele>522.0</ele><time>2026-04-25T18:22:40Z</time></trkpt><trkpt lat="47.3696147096839" lon="8.633322570441786"><ele>522.0</ele><time>2026-04-25T18:22:41Z</time></trkpt><trkpt lat="47.36971182829491" lon="8.633353675102807"><ele>522.0</ele><time>2026-04-25T18:22:42Z</time></trkpt><trkpt lat="47.36981121911378" lon="8.633372533995042"><ele>522.0</ele><time>2026-04-25T18:22:43Z</time></trkpt><trkpt lat="47.36991493000004" lon="8.633366294067295"><ele>522.0</ele><time>2026-04-25T18:22:44Z</time></trkpt><trkpt lat="47.37002042591436" lon="8.633333280791172"><ele>519.6</ele><time>2026-04-25T18:22:45Z</time></trkpt><trkpt lat="47.37012668965501" lon="8.633296152415507"><ele>517.2</ele><time>2026-04-25T18:22:46Z</time></trkpt><trkpt lat="47.370233253565964" lon="8.633254125012892"><ele>514.8</ele><time>2026-04-25T18:22:47Z</time></trkpt><trkpt lat="47.370341756254895" lon="8.633206811912425"><ele>512.4</ele><time>2026-04-25T18:22:48Z</time></trkpt><trkpt lat="47.37045195328286" lon="8.633164712265957"><ele>510.0</ele><time>2026-04-25T18:22:49Z</time></trkpt><trkpt lat="47.370563884113245" lon="8.633122600271085"><ele>508.0</ele><time>2026-04-25T18:22:50Z</time></trkpt><trkpt lat="47.37067747298199" lon="8.633083939581875"><ele>506.0</ele><time>2026-04-25T18:22:51Z</time></trkpt><trkpt lat="47.37079086145143" lon="8.633040343810478"><ele>504.0</ele><time>2026-04-25T18:22:52Z</time></trkpt><trkpt lat="47.37090333010918" lon="8.632994576132715"><ele>502.0</ele><time>2026-04-25T18:22:53Z</time></trkpt><trkpt lat="47.37101817133211" lon="8.632951304422226"><ele>502.0</ele><time>2026-04-25T18:22:54Z</time></trkpt><trkpt lat="47.371131590530375" lon="8.632911842794826"><ele>502.0</ele><time>2026-04-25T18:22:55Z</time></trkpt><trkpt lat="47.371244977390205" lon="8.632895098589401"><ele>502.0</ele><time>2026-04-25T18:22:56Z</time></trkpt><trkpt lat="47.371358977124565" lon="8.632893291239341"><ele>502.0</ele><time>2026-04-25T18:22:57Z</time></trkpt><trkpt lat="47.371472052902874" lon="8.632897369612888"><ele>501.0</ele><time>2026-04-25T18:22:58Z</time></trkpt><trkpt lat="47.37158621251595" lon="8.632899695588653"><ele>500.00000000000006</ele><time>2026-04-25T18:22:59Z</time></trkpt><trkpt lat="47.37170051447611" lon="8.632895590226989"><ele>499.00000000000006</ele><time>2026-04-25T18:23:00Z</time></trkpt><trkpt lat="47.371810974481775" lon="8.632882728960409"><ele>498.0</ele><time>2026-04-25T18:23:01Z</time></trkpt><trkpt lat="47.37191831140693" lon="8.632848714598413"><ele>497.0</ele><time>2026-04-25T18:23:02Z</time></trkpt><trkpt lat="47.372026956127485" lon="8.632802091024782"><ele>495.99999999999994</ele><time>2026-04-25T18:23:03Z</time></trkpt><trkpt lat="47.37211864208153" lon="8.632756244357704"><ele>495.0</ele><time>2026-04-25T18:23:04Z</time></trkpt><trkpt lat="47.3721948752841" lon="8.632719235293035"><ele>494.0</ele><time>2026-04-25T18:23:05Z</time></trkpt><trkpt lat="47.372259146753535" lon="8.632718778763843"><ele>493.0</ele><time>2026-04-25T18:23:06Z</time></trkpt><trkpt lat="47.372320527048466" lon="8.632774458693525"><ele>491.99999999999994</ele><time>2026-04-25T18:23:07Z</time></trkpt><trkpt lat="47.37235057762304" lon="8.63287988436966"><ele>491.0</ele><time>2026-04-25T18:23:08Z</time></trkpt><trkpt lat="47.37232766389434" lon="8.632989033235448"><ele>490.99999999999994</ele><time>2026-04-25T18:23:09Z</time></trkpt><trkpt lat="47.37227560101306" lon="8.633077469971349"><ele>491.0</ele><time>2026-04-25T18:23:10Z</time></trkpt><trkpt lat="47.372219448564934" lon="8.63315802420719"><ele>491.0</ele><time>2026-04-25T18:23:11Z</time></trkpt><trkpt lat="47.372157445987916" lon="8.63323767644009"><ele>491.0</ele><time>2026-04-25T18:23:12Z</time></trkpt><trkpt lat="47.37209515324334" lon="8.633320945649933"><ele>490.99999999999994</ele><time>2026-04-25T18:23:13Z</time></trkpt><trkpt lat="47.37203247743529" lon="8.633415374609688"><ele>491.0</ele><time>2026-04-25T18:23:14Z</time></trkpt><trkpt lat="47.37196696550202" lon="8.6335142345192"><ele>490.20000000000005</ele><time>2026-04-25T18:23:15Z</time></trkpt><trkpt lat="47.37190491437698" lon="8.63362142250536"><ele>489.40000000000003</ele><time>2026-04-25T18:23:16Z</time></trkpt><trkpt lat="47.37184138268023" lon="8.633731345176159"><ele>488.6</ele><time>2026-04-25T18:23:17Z</time></trkpt><trkpt lat="47.371782774991054" lon="8.633851151812081"><ele>487.8</ele><time>2026-04-25T18:23:18Z</time></trkpt><trkpt lat="47.371738414335226" lon="8.633989111367752"><ele>487.0</ele><time>2026-04-25T18:23:19Z</time></trkpt><trkpt lat="47.37170528584282" lon="8.634135084599148"><ele>487.0</ele><time>2026-04-25T18:23:20Z</time></trkpt><trkpt lat="47.3716732753985" lon="8.634288228374176"><ele>487.00000000000006</ele><time>2026-04-25T18:23:21Z</time></trkpt><trkpt lat="47.37163982718438" lon="8.634445705849087"><ele>487.00000000000006</ele><time>2026-04-25T18:23:22Z</time></trkpt><trkpt lat="47.37159807257029" lon="8.634594932930952"><ele>487.0</ele><time>2026-04-25T18:23:23Z</time></trkpt><trkpt lat="47.37155960244661" lon="8.634748119865497"><ele>487.0</ele><time>2026-04-25T18:23:24Z</time></trkpt><trkpt lat="47.37152468389508" lon="8.63489227660089"><ele>485.8</ele><time>2026-04-25T18:23:25Z</time></trkpt><trkpt lat="47.37148831724595" lon="8.635028723619696"><ele>484.6</ele><time>2026-04-25T18:23:26Z</time></trkpt><trkpt lat="47.371449319562224" lon="8.635170582778288"><ele>483.40000000000003</ele><time>2026-04-25T18:23:27Z</time></trkpt><trkpt lat="47.371405475705956" lon="8.63530910418765"><ele>482.20000000000005</ele><time>2026-04-25T18:23:28Z</time></trkpt><trkpt lat="47.37135949302343" lon="8.635445701281691"><ele>481.0</ele><time>2026-04-25T18:23:29Z</time></trkpt><trkpt lat="47.37130862428031" lon="8.635579063547928"><ele>481.0</ele><time>2026-04-25T18:23:30Z</time></trkpt><trkpt lat="47.371257482920356" lon="8.635714843154846"><ele>481.0</ele><time>2026-04-25T18:23:31Z</time></trkpt><trkpt lat="47.371201592248035" lon="8.63584906828566"><ele>481.0</ele><time>2026-04-25T18:23:32Z</time></trkpt><trkpt lat="47.37114401211005" lon="8.63598080523633"><ele>481.0</ele><time>2026-04-25T18:23:33Z</time></trkpt><trkpt lat="47.371089441100175" lon="8.636109888255145"><ele>481.0</ele><time>2026-04-25T18:23:34Z</time></trkpt><trkpt lat="47.37103503646323" lon="8.636240530209138"><ele>478.8</ele><time>2026-04-25T18:23:35Z</time></trkpt><trkpt lat="47.37097782265269" lon="8.63637153398057"><ele>476.6</ele><time>2026-04-25T18:23:36Z</time></trkpt><trkpt lat="47.370923236074944" lon="8.636500834068404"><ele>474.4</ele><time>2026-04-25T18:23:37Z</time></trkpt><trkpt lat="47.370869850055726" lon="8.636635471679899"><ele>472.2</ele><time>2026-04-25T18:23:38Z</time></trkpt><trkpt lat="47.3708139255242" lon="8.636760998203654"><ele>470.0</ele><time>2026-04-25T18:23:39Z</time></trkpt><trkpt lat="47.370758026315826" lon="8.636887191624625"><ele>469.2</ele><time>2026-04-25T18:23:40Z</time></trkpt><trkpt lat="47.37070345062163" lon="8.637019928785898"><ele>468.4</ele><time>2026-04-25T18:23:41Z</time></trkpt><trkpt lat="47.37065039993778" lon="8.637151339373641"><ele>467.6</ele><time>2026-04-25T18:23:42Z</time></trkpt><trkpt lat="47.37059275492626" lon="8.637285855571562"><ele>466.8</ele><time>2026-04-25T18:23:43Z</time></trkpt><trkpt lat="47.37053299290861" lon="8.637420595098584"><ele>466.0</ele><time>2026-04-25T18:23:44Z</time></trkpt><trkpt lat="47.37047659044072" lon="8.637555735277699"><ele>466.0</ele><time>2026-04-25T18:23:45Z</time></trkpt><trkpt lat="47.37042705368809" lon="8.637681621077677"><ele>466.0</ele><time>2026-04-25T18:23:46Z</time></trkpt><trkpt lat="47.37037769810757" lon="8.637802921083688"><ele>466.0</ele><time>2026-04-25T18:23:47Z</time></trkpt><trkpt lat="47.37033320222983" lon="8.637919627492607"><ele>466.0</ele><time>2026-04-25T18:23:48Z</time></trkpt><trkpt lat="47.370293341341046" lon="8.638035550299929"><ele>466.0</ele><time>2026-04-25T18:23:49Z</time></trkpt><trkpt lat="47.37025608270453" lon="8.638148662195295"><ele>465.7142857142857</ele><time>2026-04-25T18:23:50Z</time></trkpt><trkpt lat="47.37022963058002" lon="8.638255550411444"><ele>465.42857142857144</ele><time>2026-04-25T18:23:51Z</time></trkpt><trkpt lat="47.37022461298658" lon="8.638364801373811"><ele>465.14285714285717</ele><time>2026-04-25T18:23:52Z</time></trkpt><trkpt lat="47.37024110049354" lon="8.638473046635719"><ele>464.8571428571429</ele><time>2026-04-25T18:23:53Z</time></trkpt><trkpt lat="47.37027125703687" lon="8.638570706992555"><ele>464.57142857142856</ele><time>2026-04-25T18:23:54Z</time></trkpt><trkpt lat="47.370314407529364" lon="8.638655242930422"><ele>464.28571428571433</ele><time>2026-04-25T18:23:55Z</time></trkpt><trkpt lat="47.37036580082078" lon="8.63872263762739"><ele>464.00000000000006</ele><time>2026-04-25T18:23:56Z</time></trkpt><trkpt lat="47.37047762439132" lon="8.6387815764345"><ele>461.79999999999995</ele><time>2026-04-25T18:23:58Z</time></trkpt><trkpt lat="47.37055866477139" lon="8.638851254490717"><ele>459.59999999999997</ele><time>2026-04-25T18:24:00Z</time></trkpt><trkpt lat="47.37062832038842" lon="8.638969117123555"><ele>457.4</ele><time>2026-04-25T18:24:02Z</time></trkpt><trkpt lat="47.370738937381475" lon="8.639045725998528"><ele>455.2</ele><time>2026-04-25T18:24:04Z</time></trkpt><trkpt lat="47.3708052930642" lon="8.639087281403924"><ele>453.0</ele><time>2026-04-25T18:24:05Z</time></trkpt><trkpt lat="47.37086464605592" lon="8.639156304064999"><ele>453.0</ele><time>2026-04-25T18:24:06Z</time></trkpt><trkpt lat="47.37093080472436" lon="8.639229974931027"><ele>453.0</ele><time>2026-04-25T18:24:07Z</time></trkpt><trkpt lat="47.37100030773423" lon="8.639307005508346"><ele>453.0</ele><time>2026-04-25T18:24:08Z</time></trkpt><trkpt lat="47.37107267654504" lon="8.639390719870713"><ele>453.0</ele><time>2026-04-25T18:24:09Z</time></trkpt><trkpt lat="47.371139855079406" lon="8.639473364225429"><ele>453.0</ele><time>2026-04-25T18:24:10Z</time></trkpt><trkpt lat="47.371209841754606" lon="8.639551559839031"><ele>453.0</ele><time>2026-04-25T18:24:11Z</time></trkpt><trkpt lat="47.37128008322219" lon="8.639635039884883"><ele>452.6666666666667</ele><time>2026-04-25T18:24:12Z</time></trkpt><trkpt lat="47.37134826542781" lon="8.639717779450097"><ele>452.33333333333337</ele><time>2026-04-25T18:24:13Z</time></trkpt><trkpt lat="47.37141997546955" lon="8.639797269790218"><ele>452.0</ele><time>2026-04-25T18:24:14Z</time></trkpt><trkpt lat="47.37149160630356" lon="8.639876744983571"><ele>451.6666666666667</ele><time>2026-04-25T18:24:15Z</time></trkpt><trkpt lat="47.371562306478836" lon="8.639955228729153"><ele>451.33333333333337</ele><time>2026-04-25T18:24:16Z</time></trkpt><trkpt lat="47.37162791529674" lon="8.640045522491562"><ele>451.0</ele><time>2026-04-25T18:24:17Z</time></trkpt><trkpt lat="47.371696761169574" lon="8.640132350900155"><ele>450.6666666666667</ele><time>2026-04-25T18:24:18Z</time></trkpt><trkpt lat="47.3717712510296" lon="8.640211936100098"><ele>450.33333333333337</ele><time>2026-04-25T18:24:19Z</time></trkpt><trkpt lat="47.37184423828832" lon="8.640288881632639"><ele>450.0</ele><time>2026-04-25T18:24:20Z</time></trkpt><trkpt lat="47.37191740630196" lon="8.640364692607177"><ele>449.66666666666663</ele><time>2026-04-25T18:24:21Z</time></trkpt><trkpt lat="47.37198758916461" lon="8.640437081884423"><ele>449.3333333333333</ele><time>2026-04-25T18:24:22Z</time></trkpt><trkpt lat="47.37206157542524" lon="8.640505577588984"><ele>449.0</ele><time>2026-04-25T18:24:23Z</time></trkpt><trkpt lat="47.37213508168758" lon="8.640574437414113"><ele>448.66666666666663</ele><time>2026-04-25T18:24:24Z</time></trkpt><trkpt lat="47.37220760547832" lon="8.640642802775604"><ele>448.3333333333333</ele><time>2026-04-25T18:24:25Z</time></trkpt><trkpt lat="47.372273718841015" lon="8.640722937816019"><ele>448.0</ele><time>2026-04-25T18:24:26Z</time></trkpt><trkpt lat="47.37234377298836" lon="8.640799095196186"><ele>447.66666666666663</ele><time>2026-04-25T18:24:27Z</time></trkpt><trkpt lat="47.37241391025342" lon="8.64087233645055"><ele>447.3333333333333</ele><time>2026-04-25T18:24:28Z</time></trkpt><trkpt lat="47.37248072227916" lon="8.640947650352736"><ele>447.0</ele><time>2026-04-25T18:24:29Z</time></trkpt><trkpt lat="47.372548570746915" lon="8.641021294684263"><ele>447.0</ele><time>2026-04-25T18:24:30Z</time></trkpt><trkpt lat="47.37261745038841" lon="8.641092123753063"><ele>447.0</ele><time>2026-04-25T18:24:31Z</time></trkpt><trkpt lat="47.37268455333933" lon="8.641156657453115"><ele>447.0</ele><time>2026-04-25T18:24:32Z</time></trkpt><trkpt lat="47.372764742236704" lon="8.641205070522581"><ele>447.0</ele><time>2026-04-25T18:24:33Z</time></trkpt><trkpt lat="47.372840228251015" lon="8.641241429961847"><ele>447.0</ele><time>2026-04-25T18:24:34Z</time></trkpt><trkpt lat="47.37294660350664" lon="8.641301761788116"><ele>447.0</ele><time>2026-04-25T18:24:36Z</time></trkpt><trkpt lat="47.3730004459567" lon="8.641351013268315"><ele>446.5</ele><time>2026-04-25T18:24:38Z</time></trkpt><trkpt lat="47.37306756661236" lon="8.641461255563867"><ele>446.0</ele><time>2026-04-25T18:24:40Z</time></trkpt><trkpt lat="47.37312598573559" lon="8.641510246833208"><ele>445.5</ele><time>2026-04-25T18:24:41Z</time></trkpt><trkpt lat="47.37318353223568" lon="8.641558794426986"><ele>445.0</ele><time>2026-04-25T18:24:42Z</time></trkpt><trkpt lat="47.37322740260934" lon="8.641631194630069"><ele>444.5</ele><time>2026-04-25T18:24:43Z</time></trkpt><trkpt lat="47.37327141542354" lon="8.641708310943297"><ele>444.0</ele><time>2026-04-25T18:24:44Z</time></trkpt><trkpt lat="47.373365228955905" lon="8.641665405894425"><ele>444.0</ele><time>2026-04-25T18:24:45Z</time></trkpt><trkpt lat="47.37344189787236" lon="8.64169086224499"><ele>444.0</ele><time>2026-04-25T18:24:46Z</time></trkpt><trkpt lat="47.37349912199366" lon="8.641745735494178"><ele>444.0</ele><time>2026-04-25T18:24:47Z</time></trkpt><trkpt lat="47.37355605601509" lon="8.641827135049567"><ele>444.0</ele><time>2026-04-25T18:24:48Z</time></trkpt><trkpt lat="47.37361966061609" lon="8.641903449584394"><ele>444.0</ele><time>2026-04-25T18:24:49Z</time></trkpt><trkpt lat="47.37368166219862" lon="8.641982729069442"><ele>444.0</ele><time>2026-04-25T18:24:50Z</time></trkpt><trkpt lat="47.37374696238074" lon="8.642056804631913"><ele>443.6666666666667</ele><time>2026-04-25T18:24:51Z</time></trkpt><trkpt lat="47.37381329042922" lon="8.642127572232102"><ele>443.33333333333337</ele><time>2026-04-25T18:24:52Z</time></trkpt><trkpt lat="47.373879516613066" lon="8.642199519124045"><ele>443.0</ele><time>2026-04-25T18:24:53Z</time></trkpt><trkpt lat="47.37394780641953" lon="8.64226989335284"><ele>442.6666666666667</ele><time>2026-04-25T18:24:54Z</time></trkpt><trkpt lat="47.37401558792596" lon="8.642343974382346"><ele>442.33333333333337</ele><time>2026-04-25T18:24:55Z</time></trkpt><trkpt lat="47.37408372404778" lon="8.64241589443344"><ele>442.0</ele><time>2026-04-25T18:24:56Z</time></trkpt><trkpt lat="47.374152200483614" lon="8.642488260780198"><ele>441.83333333333337</ele><time>2026-04-25T18:24:57Z</time></trkpt><trkpt lat="47.37422022604089" lon="8.642561808913252"><ele>441.6666666666667</ele><time>2026-04-25T18:24:58Z</time></trkpt><trkpt lat="47.37428740035675" lon="8.642636651947381"><ele>441.5</ele><time>2026-04-25T18:24:59Z</time></trkpt><trkpt lat="47.37435536100742" lon="8.642708297278274"><ele>441.33333333333337</ele><time>2026-04-25T18:25:00Z</time></trkpt><trkpt lat="47.37442338012117" lon="8.642779729413821"><ele>441.1666666666667</ele><time>2026-04-25T18:25:01Z</time></trkpt><trkpt lat="47.37449302454272" lon="8.642848751910181"><ele>441.0</ele><time>2026-04-25T18:25:02Z</time></trkpt><trkpt lat="47.37456011049278" lon="8.642922356006872"><ele>441.0</ele><time>2026-04-25T18:25:03Z</time></trkpt><trkpt lat="47.374625696744225" lon="8.643000465015152"><ele>441.0</ele><time>2026-04-25T18:25:04Z</time></trkpt><trkpt lat="47.37469193446159" lon="8.643077846790018"><ele>441.0</ele><time>2026-04-25T18:25:05Z</time></trkpt><trkpt lat="47.37475951295186" lon="8.643150434163875"><ele>441.0</ele><time>2026-04-25T18:25:06Z</time></trkpt><trkpt lat="47.37482552282822" lon="8.64322506810689"><ele>441.0</ele><time>2026-04-25T18:25:07Z</time></trkpt><trkpt lat="47.37489279216003" lon="8.643298179866271"><ele>441.0</ele><time>2026-04-25T18:25:08Z</time></trkpt><trkpt lat="47.374958438701476" lon="8.643371608074059"><ele>441.1666666666667</ele><time>2026-04-25T18:25:09Z</time></trkpt><trkpt lat="47.37502567166049" lon="8.643443179159494"><ele>441.33333333333337</ele><time>2026-04-25T18:25:10Z</time></trkpt><trkpt lat="47.37509071235197" lon="8.643516842284722"><ele>441.5</ele><time>2026-04-25T18:25:11Z</time></trkpt><trkpt lat="47.37515405178048" lon="8.643596484073326"><ele>441.6666666666667</ele><time>2026-04-25T18:25:12Z</time></trkpt><trkpt lat="47.375227193571696" lon="8.643653011298198"><ele>441.83333333333337</ele><time>2026-04-25T18:25:13Z</time></trkpt><trkpt lat="47.37529296776872" lon="8.643724328481413"><ele>442.0</ele><time>2026-04-25T18:25:14Z</time></trkpt><trkpt lat="47.37535725268204" lon="8.643795848093234"><ele>442.1666666666667</ele><time>2026-04-25T18:25:15Z</time></trkpt><trkpt lat="47.37542214950479" lon="8.64386788823843"><ele>442.33333333333337</ele><time>2026-04-25T18:25:16Z</time></trkpt><trkpt lat="47.37548355563079" lon="8.643936053338106"><ele>442.5</ele><time>2026-04-25T18:25:17Z</time></trkpt><trkpt lat="47.37554226448151" lon="8.644001224292646"><ele>442.66666666666663</ele><time>2026-04-25T18:25:18Z</time></trkpt><trkpt lat="47.37559576206733" lon="8.644057437386017"><ele>442.8333333333333</ele><time>2026-04-25T18:25:19Z</time></trkpt><trkpt lat="47.375668770849074" lon="8.644132258851027"><ele>443.0</ele><time>2026-04-25T18:25:21Z</time></trkpt><trkpt lat="47.375729518041936" lon="8.644191631800492"><ele>443.0</ele><time>2026-04-25T18:25:30Z</time></trkpt><trkpt lat="47.37583082177109" lon="8.644289496821045"><ele>442.99999999999994</ele><time>2026-04-25T18:25:33Z</time></trkpt><trkpt lat="47.37593855871443" lon="8.644393571546932"><ele>442.99999999999994</ele><time>2026-04-25T18:25:35Z</time></trkpt><trkpt lat="47.375942060847" lon="8.644569810674474"><ele>443.0</ele><time>2026-04-25T18:25:36Z</time></trkpt><trkpt lat="47.3759885409241" lon="8.644652431875427"><ele>443.0</ele><time>2026-04-25T18:25:37Z</time></trkpt><trkpt lat="47.37605659027508" lon="8.64470480298467"><ele>442.59999999999997</ele><time>2026-04-25T18:25:38Z</time></trkpt><trkpt lat="47.37613830894735" lon="8.64471174764453"><ele>442.19999999999993</ele><time>2026-04-25T18:25:39Z</time></trkpt><trkpt lat="47.3762211316489" lon="8.644616857348675"><ele>441.8</ele><time>2026-04-25T18:25:40Z</time></trkpt><trkpt lat="47.376306063871546" lon="8.644723329256028"><ele>441.4</ele><time>2026-04-25T18:25:41Z</time></trkpt><trkpt lat="47.37637689794363" lon="8.64477871809154"><ele>441.0</ele><time>2026-04-25T18:25:42Z</time></trkpt><trkpt lat="47.3764479325492" lon="8.644837968835118"><ele>441.0</ele><time>2026-04-25T18:25:43Z</time></trkpt><trkpt lat="47.37651647312875" lon="8.644897861584786"><ele>441.0</ele><time>2026-04-25T18:25:44Z</time></trkpt><trkpt lat="47.37658574323349" lon="8.64496024708024"><ele>441.0</ele><time>2026-04-25T18:25:45Z</time></trkpt><trkpt lat="47.37665376966767" lon="8.645023116937727"><ele>441.0</ele><time>2026-04-25T18:25:46Z</time></trkpt><trkpt lat="47.37671439391561" lon="8.64510620464786"><ele>441.0</ele><time>2026-04-25T18:25:47Z</time></trkpt><trkpt lat="47.37678428393537" lon="8.645164968779369"><ele>441.0</ele><time>2026-04-25T18:25:48Z</time></trkpt><trkpt lat="47.37685422589912" lon="8.64522680540129"><ele>441.0</ele><time>2026-04-25T18:25:49Z</time></trkpt><trkpt lat="47.37692102808171" lon="8.645289585438967"><ele>441.0</ele><time>2026-04-25T18:25:50Z</time></trkpt><trkpt lat="47.37698892298185" lon="8.645353733923576"><ele>441.0</ele><time>2026-04-25T18:25:51Z</time></trkpt><trkpt lat="47.3770566784972" lon="8.645415638938886"><ele>441.0</ele><time>2026-04-25T18:25:52Z</time></trkpt><trkpt lat="47.37713348925994" lon="8.645454829527242"><ele>441.0</ele><time>2026-04-25T18:25:53Z</time></trkpt><trkpt lat="47.37720473661097" lon="8.64551185643455"><ele>441.0</ele><time>2026-04-25T18:25:54Z</time></trkpt><trkpt lat="47.37727680657207" lon="8.645566215104033"><ele>440.8333333333333</ele><time>2026-04-25T18:25:55Z</time></trkpt><trkpt lat="47.37734327855109" lon="8.645639399082613"><ele>440.66666666666663</ele><time>2026-04-25T18:25:56Z</time></trkpt><trkpt lat="47.37742473701884" lon="8.645667470355866"><ele>440.5</ele><time>2026-04-25T18:25:57Z</time></trkpt><trkpt lat="47.37750032622313" lon="8.64571778611771"><ele>440.3333333333333</ele><time>2026-04-25T18:25:58Z</time></trkpt><trkpt lat="47.37757696715419" lon="8.645768801836104"><ele>440.16666666666663</ele><time>2026-04-25T18:25:59Z</time></trkpt><trkpt lat="47.3776537855897" lon="8.645820966247744"><ele>440.0</ele><time>2026-04-25T18:26:00Z</time></trkpt><trkpt lat="47.377730338260534" lon="8.645874429890801"><ele>439.99999999999994</ele><time>2026-04-25T18:26:01Z</time></trkpt><trkpt lat="47.37780653721187" lon="8.64592764643178"><ele>440.0</ele><time>2026-04-25T18:26:02Z</time></trkpt><trkpt lat="47.37788396136782" lon="8.645981718680325"><ele>440.0</ele><time>2026-04-25T18:26:03Z</time></trkpt><trkpt lat="47.37796039527995" lon="8.646035099312881"><ele>440.0</ele><time>2026-04-25T18:26:04Z</time></trkpt><trkpt lat="47.37803830641133" lon="8.646089511791073"><ele>439.99999999999994</ele><time>2026-04-25T18:26:05Z</time></trkpt><trkpt lat="47.37811637892763" lon="8.646143800572712"><ele>440.0</ele><time>2026-04-25T18:26:06Z</time></trkpt><trkpt lat="47.37819459437843" lon="8.646198447558131"><ele>439.66666666666663</ele><time>2026-04-25T18:26:07Z</time></trkpt><trkpt lat="47.378271246002875" lon="8.64625331445883"><ele>439.3333333333333</ele><time>2026-04-25T18:26:08Z</time></trkpt><trkpt lat="47.378347639123966" lon="8.646307996282996"><ele>439.0</ele><time>2026-04-25T18:26:09Z</time></trkpt><trkpt lat="47.378424344506804" lon="8.646365447028794"><ele>438.66666666666663</ele><time>2026-04-25T18:26:10Z</time></trkpt><trkpt lat="47.37849850317194" lon="8.646425447132346"><ele>438.3333333333333</ele><time>2026-04-25T18:26:11Z</time></trkpt><trkpt lat="47.37857124004433" lon="8.646488976858127"><ele>438.0</ele><time>2026-04-25T18:26:12Z</time></trkpt><trkpt lat="47.378641765221175" lon="8.646554100052914"><ele>438.0</ele><time>2026-04-25T18:26:13Z</time></trkpt><trkpt lat="47.378711404556505" lon="8.646621595165646"><ele>438.0</ele><time>2026-04-25T18:26:14Z</time></trkpt><trkpt lat="47.378768634888324" lon="8.646705914788551"><ele>438.0</ele><time>2026-04-25T18:26:15Z</time></trkpt><trkpt lat="47.37883613003974" lon="8.646768695546335"><ele>438.0</ele><time>2026-04-25T18:26:16Z</time></trkpt><trkpt lat="47.37889466128033" lon="8.646846719414278"><ele>438.0</ele><time>2026-04-25T18:26:17Z</time></trkpt><trkpt lat="47.3789529965574" lon="8.646929643975396"><ele>438.0</ele><time>2026-04-25T18:26:18Z</time></trkpt><trkpt lat="47.37902258248749" lon="8.646995828740378"><ele>437.5</ele><time>2026-04-25T18:26:19Z</time></trkpt><trkpt lat="47.379085267375125" lon="8.64708090833022"><ele>437.0</ele><time>2026-04-25T18:26:20Z</time></trkpt><trkpt lat="47.37914565543634" lon="8.647167592051204"><ele>436.5</ele><time>2026-04-25T18:26:21Z</time></trkpt><trkpt lat="47.37920344740184" lon="8.647254939608207"><ele>436.0</ele><time>2026-04-25T18:26:22Z</time></trkpt><trkpt lat="47.37925808597763" lon="8.647346388924447"><ele>435.5</ele><time>2026-04-25T18:26:23Z</time></trkpt><trkpt lat="47.379310664202755" lon="8.647437847391567"><ele>435.0</ele><time>2026-04-25T18:26:24Z</time></trkpt><trkpt lat="47.379360522787366" lon="8.647534393026195"><ele>435.0</ele><time>2026-04-25T18:26:25Z</time></trkpt><trkpt lat="47.37940361591394" lon="8.647634765113407"><ele>435.0</ele><time>2026-04-25T18:26:26Z</time></trkpt><trkpt lat="47.37944240199571" lon="8.64773594707943"><ele>435.0</ele><time>2026-04-25T18:26:27Z</time></trkpt><trkpt lat="47.379478820184616" lon="8.647838020532369"><ele>435.0</ele><time>2026-04-25T18:26:28Z</time></trkpt><trkpt lat="47.37951285294277" lon="8.647943086277749"><ele>435.0</ele><time>2026-04-25T18:26:29Z</time></trkpt><trkpt lat="47.379544677144644" lon="8.648050257169452"><ele>435.0</ele><time>2026-04-25T18:26:30Z</time></trkpt><trkpt lat="47.37957318601497" lon="8.648156608123506"><ele>435.0</ele><time>2026-04-25T18:26:31Z</time></trkpt><trkpt lat="47.37959743028343" lon="8.648267737567693"><ele>435.0</ele><time>2026-04-25T18:26:32Z</time></trkpt><trkpt lat="47.37961698291578" lon="8.648381444138868"><ele>435.0</ele><time>2026-04-25T18:26:33Z</time></trkpt><trkpt lat="47.37963387802432" lon="8.648495643316998"><ele>435.0</ele><time>2026-04-25T18:26:34Z</time></trkpt><trkpt lat="47.37964894043408" lon="8.648609101983945"><ele>435.0</ele><time>2026-04-25T18:26:35Z</time></trkpt><trkpt lat="47.37966174339243" lon="8.648724479499727"><ele>435.0</ele><time>2026-04-25T18:26:36Z</time></trkpt><trkpt lat="47.379673487236985" lon="8.64883986982994"><ele>435.1666666666667</ele><time>2026-04-25T18:26:37Z</time></trkpt><trkpt lat="47.37968292693664" lon="8.64895628754019"><ele>435.33333333333337</ele><time>2026-04-25T18:26:38Z</time></trkpt><trkpt lat="47.37969248371249" lon="8.649072063354458"><ele>435.5</ele><time>2026-04-25T18:26:39Z</time></trkpt><trkpt lat="47.37970201695583" lon="8.64918755551402"><ele>435.6666666666667</ele><time>2026-04-25T18:26:40Z</time></trkpt><trkpt lat="47.379717312997464" lon="8.64932533281328"><ele>435.83333333333337</ele><time>2026-04-25T18:26:41Z</time></trkpt><trkpt lat="47.37970569251715" lon="8.649430668503427"><ele>436.0</ele><time>2026-04-25T18:26:42Z</time></trkpt><trkpt lat="47.37970022064682" lon="8.649528298026885"><ele>436.33333333333337</ele><time>2026-04-25T18:26:43Z</time></trkpt><trkpt lat="47.3797047430502" lon="8.649625884199374"><ele>436.6666666666667</ele><time>2026-04-25T18:26:44Z</time></trkpt><trkpt lat="47.379723597056675" lon="8.649720883817928"><ele>437.0</ele><time>2026-04-25T18:26:45Z</time></trkpt><trkpt lat="47.37975168972305" lon="8.649813685485944"><ele>437.33333333333337</ele><time>2026-04-25T18:26:46Z</time></trkpt><trkpt lat="47.3797850431698" lon="8.649896759257354"><ele>437.6666666666667</ele><time>2026-04-25T18:26:47Z</time></trkpt><trkpt lat="47.37974348053629" lon="8.65006073253558"><ele>438.0</ele><time>2026-04-25T18:26:48Z</time></trkpt><trkpt lat="47.379753715123485" lon="8.65017640874078"><ele>438.3333333333333</ele><time>2026-04-25T18:26:49Z</time></trkpt><trkpt lat="47.37975599880354" lon="8.650293460982915"><ele>438.66666666666663</ele><time>2026-04-25T18:26:50Z</time></trkpt><trkpt lat="47.37976724763612" lon="8.6504086444435"><ele>439.0</ele><time>2026-04-25T18:26:51Z</time></trkpt><trkpt lat="47.379780666694316" lon="8.650522441353704"><ele>439.3333333333333</ele><time>2026-04-25T18:26:52Z</time></trkpt><trkpt lat="47.37979181716726" lon="8.650636372533043"><ele>439.66666666666663</ele><time>2026-04-25T18:26:53Z</time></trkpt><trkpt lat="47.379801389905005" lon="8.650751121649238"><ele>440.0</ele><time>2026-04-25T18:26:54Z</time></trkpt><trkpt lat="47.37980846900932" lon="8.650867742065326"><ele>439.99999999999994</ele><time>2026-04-25T18:26:55Z</time></trkpt><trkpt lat="47.37981181263418" lon="8.650984296564692"><ele>440.0</ele><time>2026-04-25T18:26:56Z</time></trkpt><trkpt lat="47.37981354845907" lon="8.651100421968305"><ele>440.0</ele><time>2026-04-25T18:26:57Z</time></trkpt><trkpt lat="47.37980691949671" lon="8.651208406838693"><ele>440.0</ele><time>2026-04-25T18:26:58Z</time></trkpt><trkpt lat="47.379797108372195" lon="8.651316514329856"><ele>439.99999999999994</ele><time>2026-04-25T18:26:59Z</time></trkpt><trkpt lat="47.379789925062404" lon="8.65141793299125"><ele>440.0</ele><time>2026-04-25T18:27:00Z</time></trkpt><trkpt lat="47.37978345657666" lon="8.651591613244477"><ele>440.49999999999994</ele><time>2026-04-25T18:27:02Z</time></trkpt><trkpt lat="47.37977709459334" lon="8.651737232973135"><ele>441.0</ele><time>2026-04-25T18:27:04Z</time></trkpt><trkpt lat="47.37979352053854" lon="8.65186147852817"><ele>441.5</ele><time>2026-04-25T18:27:06Z</time></trkpt><trkpt lat="47.379818937806895" lon="8.651969203374863"><ele>442.0</ele><time>2026-04-25T18:27:09Z</time></trkpt><trkpt lat="47.37987745044842" lon="8.652046761351341"><ele>442.49999999999994</ele><time>2026-04-25T18:27:26Z</time></trkpt><trkpt lat="47.37994892784111" lon="8.652106997866253"><ele>443.0</ele><time>2026-04-25T18:27:31Z</time></trkpt><trkpt lat="47.380051589023125" lon="8.652089345376911"><ele>442.99999999999994</ele><time>2026-04-25T18:27:33Z</time></trkpt><trkpt lat="47.38012599326875" lon="8.652074934840948"><ele>443.0</ele><time>2026-04-25T18:27:34Z</time></trkpt><trkpt lat="47.38019945385599" lon="8.652072359032974"><ele>443.0</ele><time>2026-04-25T18:27:35Z</time></trkpt><trkpt lat="47.38027795760156" lon="8.652070523153881"><ele>443.0</ele><time>2026-04-25T18:27:36Z</time></trkpt><trkpt lat="47.380362328310355" lon="8.6520675204569"><ele>442.99999999999994</ele><time>2026-04-25T18:27:37Z</time></trkpt><trkpt lat="47.380448821766024" lon="8.652055994316184"><ele>443.0</ele><time>2026-04-25T18:27:38Z</time></trkpt><trkpt lat="47.380531177672324" lon="8.652047684602275"><ele>442.49999999999994</ele><time>2026-04-25T18:27:39Z</time></trkpt><trkpt lat="47.38061169703033" lon="8.652042491721058"><ele>442.0</ele><time>2026-04-25T18:27:40Z</time></trkpt><trkpt lat="47.38069263079404" lon="8.652039234299513"><ele>441.5</ele><time>2026-04-25T18:27:41Z</time></trkpt><trkpt lat="47.38076685282158" lon="8.652035839975749"><ele>441.0</ele><time>2026-04-25T18:27:42Z</time></trkpt><trkpt lat="47.380843372011526" lon="8.652025880081768"><ele>440.49999999999994</ele><time>2026-04-25T18:27:43Z</time></trkpt><trkpt lat="47.3809201321676" lon="8.6520213283057"><ele>440.0</ele><time>2026-04-25T18:27:44Z</time></trkpt><trkpt lat="47.38099787140508" lon="8.652014282397488"><ele>439.99999999999994</ele><time>2026-04-25T18:27:45Z</time></trkpt><trkpt lat="47.38107718329901" lon="8.652011950836135"><ele>440.0</ele><time>2026-04-25T18:27:46Z</time></trkpt><trkpt lat="47.381155272195635" lon="8.652009718957705"><ele>440.0</ele><time>2026-04-25T18:27:47Z</time></trkpt><trkpt lat="47.38123091179844" lon="8.652012475113164"><ele>440.0</ele><time>2026-04-25T18:27:48Z</time></trkpt><trkpt lat="47.381304564901065" lon="8.65202835799738"><ele>439.99999999999994</ele><time>2026-04-25T18:27:49Z</time></trkpt><trkpt lat="47.38137475615976" lon="8.652054206419239"><ele>440.0</ele><time>2026-04-25T18:27:50Z</time></trkpt><trkpt lat="47.38143983734705" lon="8.652096794785352"><ele>440.71428571428567</ele><time>2026-04-25T18:27:51Z</time></trkpt><trkpt lat="47.38149711959532" lon="8.652156107401266"><ele>441.42857142857144</ele><time>2026-04-25T18:27:52Z</time></trkpt><trkpt lat="47.38154656440846" lon="8.652223770183399"><ele>442.1428571428571</ele><time>2026-04-25T18:27:53Z</time></trkpt><trkpt lat="47.3815864252413" lon="8.652305314440158"><ele>442.85714285714283</ele><time>2026-04-25T18:27:54Z</time></trkpt><trkpt lat="47.381613967156326" lon="8.652394419577066"><ele>443.57142857142856</ele><time>2026-04-25T18:27:55Z</time></trkpt><trkpt lat="47.38163607101161" lon="8.652484146256876"><ele>444.2857142857143</ele><time>2026-04-25T18:27:56Z</time></trkpt><trkpt lat="47.381651721542944" lon="8.652577599982974"><ele>445.0</ele><time>2026-04-25T18:27:57Z</time></trkpt><trkpt lat="47.38166120934825" lon="8.652671051002393"><ele>445.0</ele><time>2026-04-25T18:27:58Z</time></trkpt><trkpt lat="47.38167189087467" lon="8.652763299546276"><ele>445.0</ele><time>2026-04-25T18:27:59Z</time></trkpt><trkpt lat="47.381682693783105" lon="8.652855473109724"><ele>445.0</ele><time>2026-04-25T18:28:00Z</time></trkpt><trkpt lat="47.38170601084704" lon="8.653037360608755"><ele>445.0</ele><time>2026-04-25T18:28:02Z</time></trkpt><trkpt lat="47.381717878983466" lon="8.653131490321288"><ele>445.0</ele><time>2026-04-25T18:28:03Z</time></trkpt><trkpt lat="47.3817308590122" lon="8.653227838871144"><ele>445.0</ele><time>2026-04-25T18:28:04Z</time></trkpt><trkpt lat="47.38174095446761" lon="8.653322456920282"><ele>445.0</ele><time>2026-04-25T18:28:05Z</time></trkpt><trkpt lat="47.38175511796593" lon="8.653419119905728"><ele>445.14285714285717</ele><time>2026-04-25T18:28:06Z</time></trkpt><trkpt lat="47.381780882054656" lon="8.653512523349026"><ele>445.2857142857143</ele><time>2026-04-25T18:28:07Z</time></trkpt><trkpt lat="47.381810699445936" lon="8.653606958970046"><ele>445.42857142857144</ele><time>2026-04-25T18:28:08Z</time></trkpt><trkpt lat="47.381844060720795" lon="8.653697331271614"><ele>445.57142857142856</ele><time>2026-04-25T18:28:09Z</time></trkpt><trkpt lat="47.38188178756895" lon="8.653785019896523"><ele>445.71428571428567</ele><time>2026-04-25T18:28:10Z</time></trkpt><trkpt lat="47.38192327922895" lon="8.6538734336116"><ele>445.85714285714283</ele><time>2026-04-25T18:28:11Z</time></trkpt><trkpt lat="47.38196379580761" lon="8.653962738663669"><ele>446.0</ele><time>2026-04-25T18:28:12Z</time></trkpt><trkpt lat="47.38200247872329" lon="8.654060911660256"><ele>445.99999999999994</ele><time>2026-04-25T18:28:13Z</time></trkpt><trkpt lat="47.38203717000813" lon="8.654156123090903"><ele>446.0</ele><time>2026-04-25T18:28:14Z</time></trkpt><trkpt lat="47.382072134567046" lon="8.654258129793975"><ele>446.0</ele><time>2026-04-25T18:28:15Z</time></trkpt><trkpt lat="47.38210743236492" lon="8.654357715870672"><ele>446.0</ele><time>2026-04-25T18:28:16Z</time></trkpt><trkpt lat="47.38214452189752" lon="8.65445858065786"><ele>445.99999999999994</ele><time>2026-04-25T18:28:17Z</time></trkpt><trkpt lat="47.38218218369212" lon="8.654557596948631"><ele>446.0</ele><time>2026-04-25T18:28:18Z</time></trkpt><trkpt lat="47.38221942958378" lon="8.654660154542137"><ele>445.99999999999994</ele><time>2026-04-25T18:28:19Z</time></trkpt><trkpt lat="47.382255913670306" lon="8.654765295823788"><ele>446.0</ele><time>2026-04-25T18:28:20Z</time></trkpt><trkpt lat="47.38229024499906" lon="8.654873138877493"><ele>446.0</ele><time>2026-04-25T18:28:21Z</time></trkpt><trkpt lat="47.38232073238157" lon="8.654984305669048"><ele>446.0</ele><time>2026-04-25T18:28:22Z</time></trkpt><trkpt lat="47.382341029473295" lon="8.65510301959758"><ele>445.99999999999994</ele><time>2026-04-25T18:28:23Z</time></trkpt><trkpt lat="47.38236007179756" lon="8.655219508619663"><ele>446.0</ele><time>2026-04-25T18:28:24Z</time></trkpt><trkpt lat="47.38238562367468" lon="8.655339991702151"><ele>445.99999999999994</ele><time>2026-04-25T18:28:25Z</time></trkpt><trkpt lat="47.3824112950252" lon="8.65545747323326"><ele>446.0</ele><time>2026-04-25T18:28:26Z</time></trkpt><trkpt lat="47.38243303314478" lon="8.655578010644522"><ele>446.0</ele><time>2026-04-25T18:28:27Z</time></trkpt><trkpt lat="47.38245254109922" lon="8.655701150670069"><ele>446.0</ele><time>2026-04-25T18:28:28Z</time></trkpt><trkpt lat="47.38247022148454" lon="8.6558254709657"><ele>445.99999999999994</ele><time>2026-04-25T18:28:29Z</time></trkpt><trkpt lat="47.382483344377874" lon="8.655946401393324"><ele>446.0</ele><time>2026-04-25T18:28:30Z</time></trkpt><trkpt lat="47.38249321149502" lon="8.656068632619753"><ele>445.99999999999994</ele><time>2026-04-25T18:28:31Z</time></trkpt><trkpt lat="47.38249829860179" lon="8.65619884961185"><ele>446.0</ele><time>2026-04-25T18:28:32Z</time></trkpt><trkpt lat="47.38249987910474" lon="8.65632871799271"><ele>446.0</ele><time>2026-04-25T18:28:33Z</time></trkpt><trkpt lat="47.38250262763139" lon="8.656456223743598"><ele>446.0</ele><time>2026-04-25T18:28:34Z</time></trkpt><trkpt lat="47.3825047479063" lon="8.656584230460336"><ele>445.99999999999994</ele><time>2026-04-25T18:28:35Z</time></trkpt><trkpt lat="47.382505240198945" lon="8.656709145595288"><ele>446.0</ele><time>2026-04-25T18:28:36Z</time></trkpt><trkpt lat="47.3825062757386" lon="8.656835353550052"><ele>446.16666666666663</ele><time>2026-04-25T18:28:37Z</time></trkpt><trkpt lat="47.38250857754648" lon="8.656958609700471"><ele>446.3333333333333</ele><time>2026-04-25T18:28:38Z</time></trkpt><trkpt lat="47.38250919362505" lon="8.65708709750884"><ele>446.5</ele><time>2026-04-25T18:28:39Z</time></trkpt><trkpt lat="47.382508112643066" lon="8.657213480766373"><ele>446.66666666666663</ele><time>2026-04-25T18:28:40Z</time></trkpt><trkpt lat="47.382507375864186" lon="8.657335187738616"><ele>446.8333333333333</ele><time>2026-04-25T18:28:41Z</time></trkpt><trkpt lat="47.382508019591086" lon="8.657460027081118"><ele>447.0</ele><time>2026-04-25T18:28:42Z</time></trkpt><trkpt lat="47.38250635466709" lon="8.65758099407162"><ele>447.0</ele><time>2026-04-25T18:28:43Z</time></trkpt><trkpt lat="47.38250675741318" lon="8.657706190727037"><ele>447.0</ele><time>2026-04-25T18:28:44Z</time></trkpt><trkpt lat="47.38250797477221" lon="8.657826921987429"><ele>447.0</ele><time>2026-04-25T18:28:45Z</time></trkpt><trkpt lat="47.38250867462985" lon="8.657948252436919"><ele>447.0</ele><time>2026-04-25T18:28:46Z</time></trkpt><trkpt lat="47.382508669807436" lon="8.658060020873934"><ele>447.0</ele><time>2026-04-25T18:28:47Z</time></trkpt><trkpt lat="47.38251099639218" lon="8.658154319270349"><ele>447.0</ele><time>2026-04-25T18:28:48Z</time></trkpt><trkpt lat="47.38250803328306" lon="8.658247859382028"><ele>446.6</ele><time>2026-04-25T18:28:49Z</time></trkpt><trkpt lat="47.382446946055985" lon="8.658411957881231"><ele>446.20000000000005</ele><time>2026-04-25T18:28:51Z</time></trkpt><trkpt lat="47.3824377746168" lon="8.658504837480818"><ele>445.8</ele><time>2026-04-25T18:28:52Z</time></trkpt><trkpt lat="47.382515936516164" lon="8.658677378901205"><ele>445.4</ele><time>2026-04-25T18:28:54Z</time></trkpt><trkpt lat="47.38256046873674" lon="8.658768977544135"><ele>445.0</ele><time>2026-04-25T18:28:55Z</time></trkpt><trkpt lat="47.382586459389586" lon="8.658875109726326"><ele>444.6666666666667</ele><time>2026-04-25T18:28:56Z</time></trkpt><trkpt lat="47.38260954928047" lon="8.658990947143577"><ele>444.33333333333337</ele><time>2026-04-25T18:28:57Z</time></trkpt><trkpt lat="47.382633410804445" lon="8.659106917752"><ele>444.0</ele><time>2026-04-25T18:28:58Z</time></trkpt><trkpt lat="47.38266653521675" lon="8.659220519611791"><ele>443.66666666666663</ele><time>2026-04-25T18:28:59Z</time></trkpt><trkpt lat="47.382706725730145" lon="8.659336960078612"><ele>443.3333333333333</ele><time>2026-04-25T18:29:00Z</time></trkpt><trkpt lat="47.382750051876066" lon="8.65945344899927"><ele>443.0</ele><time>2026-04-25T18:29:01Z</time></trkpt><trkpt lat="47.38280111224665" lon="8.659567860673597"><ele>443.0</ele><time>2026-04-25T18:29:02Z</time></trkpt><trkpt lat="47.38285960071048" lon="8.659679473769936"><ele>442.99999999999994</ele><time>2026-04-25T18:29:03Z</time></trkpt><trkpt lat="47.3829183976873" lon="8.659794097682555"><ele>442.99999999999994</ele><time>2026-04-25T18:29:04Z</time></trkpt><trkpt lat="47.382980000081076" lon="8.659909469736618"><ele>443.0</ele><time>2026-04-25T18:29:05Z</time></trkpt><trkpt lat="47.3830434327305" lon="8.660026250655369"><ele>443.0</ele><time>2026-04-25T18:29:06Z</time></trkpt><trkpt lat="47.3831059405692" lon="8.660145934590988"><ele>443.0</ele><time>2026-04-25T18:29:07Z</time></trkpt><trkpt lat="47.38316860498642" lon="8.660264599913175"><ele>442.99999999999994</ele><time>2026-04-25T18:29:08Z</time></trkpt><trkpt lat="47.38323254771766" lon="8.6603823683669"><ele>442.99999999999994</ele><time>2026-04-25T18:29:09Z</time></trkpt><trkpt lat="47.38329517766119" lon="8.660497780253264"><ele>443.0</ele><time>2026-04-25T18:29:10Z</time></trkpt><trkpt lat="47.38335523813045" lon="8.660610412420361"><ele>443.0</ele><time>2026-04-25T18:29:11Z</time></trkpt><trkpt lat="47.383413872630335" lon="8.660719756407794"><ele>443.16666666666663</ele><time>2026-04-25T18:29:12Z</time></trkpt><trkpt lat="47.38347465579866" lon="8.660823583402497"><ele>443.3333333333333</ele><time>2026-04-25T18:29:13Z</time></trkpt><trkpt lat="47.383531146781905" lon="8.660920892844016"><ele>443.5</ele><time>2026-04-25T18:29:14Z</time></trkpt><trkpt lat="47.383574583946384" lon="8.661029857687494"><ele>443.66666666666663</ele><time>2026-04-25T18:29:15Z</time></trkpt><trkpt lat="47.38362686006373" lon="8.661116570903829"><ele>443.8333333333333</ele><time>2026-04-25T18:29:16Z</time></trkpt><trkpt lat="47.383665382602665" lon="8.66121375107416"><ele>444.0</ele><time>2026-04-25T18:29:17Z</time></trkpt><trkpt lat="47.383706436023274" lon="8.66129874021092"><ele>444.0</ele><time>2026-04-25T18:29:18Z</time></trkpt><trkpt lat="47.38374424050687" lon="8.66138258764669"><ele>444.0</ele><time>2026-04-25T18:29:19Z</time></trkpt><trkpt lat="47.38377924054147" lon="8.661463777121712"><ele>444.0</ele><time>2026-04-25T18:29:20Z</time></trkpt><trkpt lat="47.38381276937724" lon="8.661543456973154"><ele>444.0</ele><time>2026-04-25T18:29:21Z</time></trkpt><trkpt lat="47.38386333051922" lon="8.66167321605205"><ele>444.0</ele><time>2026-04-25T18:29:23Z</time></trkpt><trkpt lat="47.38389993884654" lon="8.661769729237301"><ele>444.0</ele><time>2026-04-25T18:30:48Z</time></trkpt><trkpt lat="47.383945637563" lon="8.661855406640282"><ele>444.0</ele><time>2026-04-25T18:30:50Z</time></trkpt><trkpt lat="47.38399203527023" lon="8.661947590454629"><ele>443.8333333333333</ele><time>2026-04-25T18:30:52Z</time></trkpt><trkpt lat="47.38410282338395" lon="8.661866026224295"><ele>443.66666666666663</ele><time>2026-04-25T18:30:53Z</time></trkpt><trkpt lat="47.38414970527252" lon="8.661792409637565"><ele>443.5</ele><time>2026-04-25T18:30:54Z</time></trkpt><trkpt lat="47.38417146452237" lon="8.661694327654157"><ele>443.3333333333333</ele><time>2026-04-25T18:30:55Z</time></trkpt><trkpt lat="47.38419090897163" lon="8.661596271053218"><ele>443.16666666666663</ele><time>2026-04-25T18:30:56Z</time></trkpt><trkpt lat="47.38420109326727" lon="8.661489648994273"><ele>443.0</ele><time>2026-04-25T18:30:57Z</time></trkpt><trkpt lat="47.384204508111964" lon="8.661381654694965"><ele>442.99999999999994</ele><time>2026-04-25T18:30:58Z</time></trkpt><trkpt lat="47.38420235264845" lon="8.66127144221314"><ele>443.0</ele><time>2026-04-25T18:30:59Z</time></trkpt><trkpt lat="47.38419675533015" lon="8.661157639458322"><ele>443.0</ele><time>2026-04-25T18:31:00Z</time></trkpt><trkpt lat="47.384181211594836" lon="8.661047126515468"><ele>443.0</ele><time>2026-04-25T18:31:01Z</time></trkpt><trkpt lat="47.38416209560747" lon="8.660936261967027"><ele>442.99999999999994</ele><time>2026-04-25T18:31:02Z</time></trkpt><trkpt lat="47.38413896916651" lon="8.660828022075105"><ele>443.0</ele><time>2026-04-25T18:31:03Z</time></trkpt><trkpt lat="47.38411222992766" lon="8.660721317857659"><ele>443.0</ele><time>2026-04-25T18:31:04Z</time></trkpt><trkpt lat="47.384084702249" lon="8.66062259486772"><ele>442.99999999999994</ele><time>2026-04-25T18:31:05Z</time></trkpt><trkpt lat="47.38405421873142" lon="8.660534744385433"><ele>442.99999999999994</ele><time>2026-04-25T18:31:06Z</time></trkpt><trkpt lat="47.38401969858926" lon="8.660372694672137"><ele>443.0</ele><time>2026-04-25T18:31:08Z</time></trkpt><trkpt lat="47.38400644812523" lon="8.660276524936968"><ele>443.0</ele><time>2026-04-25T18:31:10Z</time></trkpt><trkpt lat="47.38390880078466" lon="8.66013320776247"><ele>442.99999999999994</ele><time>2026-04-25T18:31:12Z</time></trkpt><trkpt lat="47.38381683581001" lon="8.66009197772547"><ele>443.0</ele><time>2026-04-25T18:31:14Z</time></trkpt><trkpt lat="47.383777343743624" lon="8.660013823639956"><ele>443.0</ele><time>2026-04-25T18:31:17Z</time></trkpt><trkpt lat="47.38382184835577" lon="8.660108067226853"><ele>443.0</ele><time>2026-04-25T18:32:02Z</time></trkpt><trkpt lat="47.38387206439028" lon="8.660207706795692"><ele>442.99999999999994</ele><time>2026-04-25T18:32:04Z</time></trkpt><trkpt lat="47.38391460827501" lon="8.66033283933573"><ele>443.0</ele><time>2026-04-25T18:32:06Z</time></trkpt><trkpt lat="47.383955490880574" lon="8.660437145906062"><ele>442.99999999999994</ele><time>2026-04-25T18:32:08Z</time></trkpt><trkpt lat="47.38399573884313" lon="8.660541936895013"><ele>443.0</ele><time>2026-04-25T18:32:10Z</time></trkpt><trkpt lat="47.38406313390203" lon="8.66069440363202"><ele>443.0</ele><time>2026-04-25T18:32:12Z</time></trkpt><trkpt lat="47.384094010944935" lon="8.660790029735123"><ele>443.0</ele><time>2026-04-25T18:32:13Z</time></trkpt><trkpt lat="47.38411824518867" lon="8.660894681644004"><ele>442.99999999999994</ele><time>2026-04-25T18:32:14Z</time></trkpt><trkpt lat="47.384136455213174" lon="8.661006911294034"><ele>443.0</ele><time>2026-04-25T18:32:15Z</time></trkpt><trkpt lat="47.384151381089474" lon="8.661120632786544"><ele>443.0</ele><time>2026-04-25T18:32:16Z</time></trkpt><trkpt lat="47.384162820584876" lon="8.661233891524237"><ele>442.99999999999994</ele><time>2026-04-25T18:32:17Z</time></trkpt><trkpt lat="47.38417083131739" lon="8.661328052626406"><ele>442.99999999999994</ele><time>2026-04-25T18:32:18Z</time></trkpt><trkpt lat="47.384168242211274" lon="8.66150159731233"><ele>443.0</ele><time>2026-04-25T18:32:20Z</time></trkpt><trkpt lat="47.38413265942284" lon="8.661661556433486"><ele>443.0</ele><time>2026-04-25T18:32:22Z</time></trkpt><trkpt lat="47.384073402276435" lon="8.661749298992314"><ele>442.99999999999994</ele><time>2026-04-25T18:32:24Z</time></trkpt><trkpt lat="47.38399644957825" lon="8.661833846907703"><ele>443.0</ele><time>2026-04-25T18:32:40Z</time></trkpt><trkpt lat="47.383974272113726" lon="8.66196853467352"><ele>443.0</ele><time>2026-04-25T18:32:42Z</time></trkpt><trkpt lat="47.384020362067155" lon="8.662132587796599"><ele>443.0</ele><time>2026-04-25T18:32:44Z</time></trkpt><trkpt lat="47.384058859795054" lon="8.662211081243244"><ele>442.99999999999994</ele><time>2026-04-25T18:32:45Z</time></trkpt><trkpt lat="47.38409615377094" lon="8.662293241793623"><ele>443.0</ele><time>2026-04-25T18:32:46Z</time></trkpt><trkpt lat="47.38413375515602" lon="8.662382054932223"><ele>442.8333333333333</ele><time>2026-04-25T18:32:47Z</time></trkpt><trkpt lat="47.384173648189545" lon="8.662474482732758"><ele>442.66666666666663</ele><time>2026-04-25T18:32:48Z</time></trkpt><trkpt lat="47.38421291708213" lon="8.662569107011276"><ele>442.5</ele><time>2026-04-25T18:32:49Z</time></trkpt><trkpt lat="47.38425453703287" lon="8.662665172431279"><ele>442.33333333333337</ele><time>2026-04-25T18:32:50Z</time></trkpt><trkpt lat="47.3842954591549" lon="8.662766183834073"><ele>442.1666666666667</ele><time>2026-04-25T18:32:51Z</time></trkpt><trkpt lat="47.38431701284472" lon="8.662871833588161"><ele>442.0</ele><time>2026-04-25T18:32:52Z</time></trkpt><trkpt lat="47.384323845273386" lon="8.662981989185033"><ele>442.0</ele><time>2026-04-25T18:32:53Z</time></trkpt><trkpt lat="47.38433654722034" lon="8.663079042097861"><ele>442.00000000000006</ele><time>2026-04-25T18:32:54Z</time></trkpt><trkpt lat="47.384238707377705" lon="8.663269110015586"><ele>442.00000000000006</ele><time>2026-04-25T18:32:56Z</time></trkpt><trkpt lat="47.38418120004957" lon="8.663344670616084"><ele>442.0</ele><time>2026-04-25T18:32:57Z</time></trkpt><trkpt lat="47.384111614966585" lon="8.663403171234739"><ele>442.0</ele><time>2026-04-25T18:32:58Z</time></trkpt><trkpt lat="47.384041698604086" lon="8.663454726001248"><ele>442.00000000000006</ele><time>2026-04-25T18:32:59Z</time></trkpt><trkpt lat="47.38397042732614" lon="8.663517106197776"><ele>442.0</ele><time>2026-04-25T18:33:00Z</time></trkpt><trkpt lat="47.3839023042687" lon="8.663583356824688"><ele>442.0</ele><time>2026-04-25T18:33:01Z</time></trkpt><trkpt lat="47.38383902646201" lon="8.663648090780192"><ele>442.0</ele><time>2026-04-25T18:33:02Z</time></trkpt><trkpt lat="47.38377086419822" lon="8.663709436575072"><ele>442.00000000000006</ele><time>2026-04-25T18:33:03Z</time></trkpt><trkpt lat="47.383702248094046" lon="8.663772041490228"><ele>442.0</ele><time>2026-04-25T18:33:04Z</time></trkpt><trkpt lat="47.383633833917166" lon="8.663835666314133"><ele>442.00000000000006</ele><time>2026-04-25T18:33:05Z</time></trkpt><trkpt lat="47.383566052465106" lon="8.663902836992389"><ele>442.0</ele><time>2026-04-25T18:33:06Z</time></trkpt><trkpt lat="47.38349913335623" lon="8.663969946060657"><ele>442.0</ele><time>2026-04-25T18:33:07Z</time></trkpt><trkpt lat="47.383432156586636" lon="8.664037377774655"><ele>442.0</ele><time>2026-04-25T18:33:08Z</time></trkpt><trkpt lat="47.383364603663566" lon="8.664106230152157"><ele>442.00000000000006</ele><time>2026-04-25T18:33:09Z</time></trkpt><trkpt lat="47.38329967095187" lon="8.66417093717578"><ele>442.0</ele><time>2026-04-25T18:33:10Z</time></trkpt><trkpt lat="47.38323695289752" lon="8.664241573908502"><ele>442.00000000000006</ele><time>2026-04-25T18:33:11Z</time></trkpt><trkpt lat="47.38317882241311" lon="8.66431177121336"><ele>442.0</ele><time>2026-04-25T18:33:12Z</time></trkpt><trkpt lat="47.38311964532829" lon="8.664383745851636"><ele>442.0</ele><time>2026-04-25T18:33:13Z</time></trkpt><trkpt lat="47.38306115657198" lon="8.664457713652347"><ele>442.0</ele><time>2026-04-25T18:33:14Z</time></trkpt><trkpt lat="47.38300238554264" lon="8.664535152865003"><ele>442.00000000000006</ele><time>2026-04-25T18:33:15Z</time></trkpt><trkpt lat="47.382945552723776" lon="8.664612816515913"><ele>442.0</ele><time>2026-04-25T18:33:16Z</time></trkpt><trkpt lat="47.382888169151386" lon="8.664690882551138"><ele>442.28571428571433</ele><time>2026-04-25T18:33:17Z</time></trkpt><trkpt lat="47.38283059700172" lon="8.66477041341655"><ele>442.57142857142856</ele><time>2026-04-25T18:33:18Z</time></trkpt><trkpt lat="47.38277344699127" lon="8.664848508622567"><ele>442.8571428571429</ele><time>2026-04-25T18:33:19Z</time></trkpt><trkpt lat="47.382718649050204" lon="8.664929997932253"><ele>443.14285714285717</ele><time>2026-04-25T18:33:20Z</time></trkpt><trkpt lat="47.38267703753718" lon="8.6650276638639"><ele>443.42857142857144</ele><time>2026-04-25T18:33:21Z</time></trkpt><trkpt lat="47.38262976001229" lon="8.665093782980126"><ele>443.7142857142857</ele><time>2026-04-25T18:33:22Z</time></trkpt><trkpt lat="47.3825902858586" lon="8.665172248059319"><ele>444.0</ele><time>2026-04-25T18:33:23Z</time></trkpt><trkpt lat="47.382567019583945" lon="8.665266576558436"><ele>444.1428571428571</ele><time>2026-04-25T18:33:24Z</time></trkpt><trkpt lat="47.38254362227715" lon="8.665355698263223"><ele>444.28571428571433</ele><time>2026-04-25T18:33:25Z</time></trkpt><trkpt lat="47.38249011721636" lon="8.665422677397979"><ele>444.42857142857144</ele><time>2026-04-25T18:33:26Z</time></trkpt><trkpt lat="47.382449998078386" lon="8.66550979723804"><ele>444.57142857142856</ele><time>2026-04-25T18:33:27Z</time></trkpt><trkpt lat="47.38240818579682" lon="8.665603389271915"><ele>444.71428571428567</ele><time>2026-04-25T18:33:28Z</time></trkpt><trkpt lat="47.382368361287575" lon="8.665701018747416"><ele>444.8571428571429</ele><time>2026-04-25T18:33:29Z</time></trkpt><trkpt lat="47.38233752889183" lon="8.665804367813402"><ele>445.0</ele><time>2026-04-25T18:33:30Z</time></trkpt><trkpt lat="47.38229562384268" lon="8.665900561667698"><ele>445.00000000000006</ele><time>2026-04-25T18:33:31Z</time></trkpt><trkpt lat="47.38225838520307" lon="8.666003067003464"><ele>445.0</ele><time>2026-04-25T18:33:32Z</time></trkpt><trkpt lat="47.38221610728227" lon="8.666102178698413"><ele>445.0</ele><time>2026-04-25T18:33:33Z</time></trkpt><trkpt lat="47.38217131943108" lon="8.666199842113445"><ele>445.0</ele><time>2026-04-25T18:33:34Z</time></trkpt><trkpt lat="47.382139617054456" lon="8.666312258174573"><ele>445.00000000000006</ele><time>2026-04-25T18:33:35Z</time></trkpt><trkpt lat="47.382109282318716" lon="8.666420082231642"><ele>445.0</ele><time>2026-04-25T18:33:36Z</time></trkpt><trkpt lat="47.38207663195515" lon="8.666528281075758"><ele>445.00000000000006</ele><time>2026-04-25T18:33:37Z</time></trkpt><trkpt lat="47.38204804958411" lon="8.666638868995953"><ele>445.0</ele><time>2026-04-25T18:33:38Z</time></trkpt><trkpt lat="47.38202143235766" lon="8.666749595438427"><ele>445.0</ele><time>2026-04-25T18:33:39Z</time></trkpt><trkpt lat="47.38199635508065" lon="8.66686471587051"><ele>445.0</ele><time>2026-04-25T18:33:40Z</time></trkpt><trkpt lat="47.38197447412764" lon="8.66698179182769"><ele>445.00000000000006</ele><time>2026-04-25T18:33:41Z</time></trkpt><trkpt lat="47.381954903043585" lon="8.667096654835886"><ele>445.0</ele><time>2026-04-25T18:33:42Z</time></trkpt><trkpt lat="47.38193594174601" lon="8.667214406058568"><ele>445.00000000000006</ele><time>2026-04-25T18:33:43Z</time></trkpt><trkpt lat="47.381913753777894" lon="8.667328151226199"><ele>445.0</ele><time>2026-04-25T18:33:44Z</time></trkpt><trkpt lat="47.38189237460589" lon="8.667444521308925"><ele>445.0</ele><time>2026-04-25T18:33:45Z</time></trkpt><trkpt lat="47.38187027738032" lon="8.667557900513337"><ele>445.0</ele><time>2026-04-25T18:33:46Z</time></trkpt><trkpt lat="47.381850454835565" lon="8.66766611079748"><ele>445.00000000000006</ele><time>2026-04-25T18:33:47Z</time></trkpt><trkpt lat="47.38183334799234" lon="8.667783005123548"><ele>445.0</ele><time>2026-04-25T18:33:48Z</time></trkpt><trkpt lat="47.381815532150284" lon="8.667894287660761"><ele>445.1666666666667</ele><time>2026-04-25T18:33:49Z</time></trkpt><trkpt lat="47.381797721883125" lon="8.66800643483111"><ele>445.33333333333337</ele><time>2026-04-25T18:33:50Z</time></trkpt><trkpt lat="47.38178051984484" lon="8.668114256421328"><ele>445.5</ele><time>2026-04-25T18:33:51Z</time></trkpt><trkpt lat="47.38175819941012" lon="8.668228490897128"><ele>445.66666666666663</ele><time>2026-04-25T18:33:52Z</time></trkpt><trkpt lat="47.38173766663149" lon="8.668339149058228"><ele>445.8333333333333</ele><time>2026-04-25T18:33:53Z</time></trkpt><trkpt lat="47.38171569253257" lon="8.668450740220015"><ele>446.0</ele><time>2026-04-25T18:33:54Z</time></trkpt><trkpt lat="47.38169704799177" lon="8.66856315582568"><ele>445.3333333333333</ele><time>2026-04-25T18:33:55Z</time></trkpt><trkpt lat="47.38167704841342" lon="8.668674948424465"><ele>444.66666666666663</ele><time>2026-04-25T18:33:56Z</time></trkpt><trkpt lat="47.38165706383554" lon="8.668786776866995"><ele>444.0</ele><time>2026-04-25T18:33:57Z</time></trkpt><trkpt lat="47.38163617004269" lon="8.668896197608978"><ele>443.33333333333337</ele><time>2026-04-25T18:33:58Z</time></trkpt><trkpt lat="47.38161501135269" lon="8.669007651793043"><ele>442.6666666666667</ele><time>2026-04-25T18:33:59Z</time></trkpt><trkpt lat="47.38159623922532" lon="8.669119919940282"><ele>442.0</ele><time>2026-04-25T18:34:00Z</time></trkpt><trkpt lat="47.38157764843701" lon="8.669231819335819"><ele>442.00000000000006</ele><time>2026-04-25T18:34:01Z</time></trkpt><trkpt lat="47.381558528937724" lon="8.66934372808902"><ele>442.0</ele><time>2026-04-25T18:34:02Z</time></trkpt><trkpt lat="47.38153841505848" lon="8.669455480874795"><ele>442.0</ele><time>2026-04-25T18:34:03Z</time></trkpt><trkpt lat="47.381519131241376" lon="8.669567810082581"><ele>442.0</ele><time>2026-04-25T18:34:04Z</time></trkpt><trkpt lat="47.38149791626209" lon="8.669680387081074"><ele>442.00000000000006</ele><time>2026-04-25T18:34:05Z</time></trkpt><trkpt lat="47.381478979241166" lon="8.669794118105807"><ele>442.0</ele><time>2026-04-25T18:34:06Z</time></trkpt><trkpt lat="47.381458414892556" lon="8.669906059938835"><ele>442.00000000000006</ele><time>2026-04-25T18:34:07Z</time></trkpt><trkpt lat="47.38143707064121" lon="8.670018133416539"><ele>442.0</ele><time>2026-04-25T18:34:08Z</time></trkpt><trkpt lat="47.38141938555023" lon="8.670131819804466"><ele>442.0</ele><time>2026-04-25T18:34:09Z</time></trkpt><trkpt lat="47.38140088407175" lon="8.670244788504391"><ele>442.0</ele><time>2026-04-25T18:34:10Z</time></trkpt><trkpt lat="47.38138501309234" lon="8.670357598628955"><ele>442.00000000000006</ele><time>2026-04-25T18:34:11Z</time></trkpt><trkpt lat="47.38136721661376" lon="8.670471234236445"><ele>442.0</ele><time>2026-04-25T18:34:12Z</time></trkpt><trkpt lat="47.38134071783264" lon="8.670579815746452"><ele>442.00000000000006</ele><time>2026-04-25T18:34:13Z</time></trkpt><trkpt lat="47.38130518716757" lon="8.670666763002103"><ele>442.0</ele><time>2026-04-25T18:34:14Z</time></trkpt><trkpt lat="47.38129500762327" lon="8.670763964840347"><ele>442.0</ele><time>2026-04-25T18:34:15Z</time></trkpt><trkpt lat="47.381272758677575" lon="8.670908486525072"><ele>442.0</ele><time>2026-04-25T18:34:17Z</time></trkpt><trkpt lat="47.38125889426173" lon="8.671006054963602"><ele>442.00000000000006</ele><time>2026-04-25T18:34:27Z</time></trkpt><trkpt lat="47.38124384150916" lon="8.671115890580428"><ele>442.0</ele><time>2026-04-25T18:34:29Z</time></trkpt><trkpt lat="47.38122512649639" lon="8.671274075617116"><ele>441.8</ele><time>2026-04-25T18:34:31Z</time></trkpt><trkpt lat="47.381207864978414" lon="8.671442111540829"><ele>441.6</ele><time>2026-04-25T18:34:33Z</time></trkpt><trkpt lat="47.381190826462166" lon="8.671614432867912"><ele>441.40000000000003</ele><time>2026-04-25T18:34:35Z</time></trkpt><trkpt lat="47.38118123631247" lon="8.671716080952931"><ele>441.20000000000005</ele><time>2026-04-25T18:34:36Z</time></trkpt><trkpt lat="47.38115787917149" lon="8.671820945377332"><ele>441.0</ele><time>2026-04-25T18:34:37Z</time></trkpt><trkpt lat="47.38115445609964" lon="8.67193645220084"><ele>441.1666666666667</ele><time>2026-04-25T18:34:38Z</time></trkpt><trkpt lat="47.38115533275927" lon="8.672053877112074"><ele>441.33333333333337</ele><time>2026-04-25T18:34:39Z</time></trkpt><trkpt lat="47.38115587810949" lon="8.672172785359242"><ele>441.5</ele><time>2026-04-25T18:34:40Z</time></trkpt><trkpt lat="47.381148748637266" lon="8.672291474789855"><ele>441.6666666666667</ele><time>2026-04-25T18:34:41Z</time></trkpt><trkpt lat="47.3811362147035" lon="8.67241025272715"><ele>441.83333333333337</ele><time>2026-04-25T18:34:42Z</time></trkpt><trkpt lat="47.381126312012654" lon="8.672529995660405"><ele>442.0</ele><time>2026-04-25T18:34:43Z</time></trkpt><trkpt lat="47.381115747498804" lon="8.672648727714575"><ele>442.00000000000006</ele><time>2026-04-25T18:34:44Z</time></trkpt><trkpt lat="47.38110464726105" lon="8.672767117296603"><ele>442.0</ele><time>2026-04-25T18:34:45Z</time></trkpt><trkpt lat="47.38111005731698" lon="8.672892247527695"><ele>442.0</ele><time>2026-04-25T18:34:46Z</time></trkpt><trkpt lat="47.3810800306926" lon="8.673003488933102"><ele>442.0</ele><time>2026-04-25T18:34:47Z</time></trkpt><trkpt lat="47.38106648400408" lon="8.673119837151615"><ele>442.00000000000006</ele><time>2026-04-25T18:34:48Z</time></trkpt><trkpt lat="47.381056763445585" lon="8.67323887633285"><ele>442.0</ele><time>2026-04-25T18:34:49Z</time></trkpt><trkpt lat="47.381048390084224" lon="8.673358151411856"><ele>442.50000000000006</ele><time>2026-04-25T18:34:50Z</time></trkpt><trkpt lat="47.38104098164753" lon="8.673476893489006"><ele>443.0</ele><time>2026-04-25T18:34:51Z</time></trkpt><trkpt lat="47.381032787006276" lon="8.673594943429428"><ele>443.5</ele><time>2026-04-25T18:34:52Z</time></trkpt><trkpt lat="47.38102562135313" lon="8.673713575542743"><ele>444.0</ele><time>2026-04-25T18:34:53Z</time></trkpt><trkpt lat="47.38102003298857" lon="8.673830968707831"><ele>444.50000000000006</ele><time>2026-04-25T18:34:54Z</time></trkpt><trkpt lat="47.38101514685251" lon="8.673950361725293"><ele>445.0</ele><time>2026-04-25T18:34:55Z</time></trkpt><trkpt lat="47.3810075319096" lon="8.674068439671869"><ele>445.00000000000006</ele><time>2026-04-25T18:34:56Z</time></trkpt><trkpt lat="47.38100152547686" lon="8.674187115736093"><ele>445.0</ele><time>2026-04-25T18:34:57Z</time></trkpt><trkpt lat="47.38099548735674" lon="8.674306773156179"><ele>445.0</ele><time>2026-04-25T18:34:58Z</time></trkpt><trkpt lat="47.38098908627359" lon="8.674425530811325"><ele>445.0</ele><time>2026-04-25T18:34:59Z</time></trkpt><trkpt lat="47.38098347431133" lon="8.674543437334453"><ele>445.00000000000006</ele><time>2026-04-25T18:35:00Z</time></trkpt><trkpt lat="47.38098405726323" lon="8.674661115499058"><ele>445.0</ele><time>2026-04-25T18:35:01Z</time></trkpt><trkpt lat="47.380985299398596" lon="8.674779025241637"><ele>445.00000000000006</ele><time>2026-04-25T18:35:02Z</time></trkpt><trkpt lat="47.38098500141306" lon="8.674895408271759"><ele>445.0</ele><time>2026-04-25T18:35:03Z</time></trkpt><trkpt lat="47.38097803135731" lon="8.67501199044056"><ele>445.0</ele><time>2026-04-25T18:35:04Z</time></trkpt><trkpt lat="47.38096833868174" lon="8.675128482213205"><ele>445.0</ele><time>2026-04-25T18:35:05Z</time></trkpt><trkpt lat="47.38096211780184" lon="8.675244773826963"><ele>445.00000000000006</ele><time>2026-04-25T18:35:06Z</time></trkpt><trkpt lat="47.38095593077772" lon="8.675361481145053"><ele>445.0</ele><time>2026-04-25T18:35:07Z</time></trkpt><trkpt lat="47.380950496353606" lon="8.675479391244279"><ele>445.00000000000006</ele><time>2026-04-25T18:35:08Z</time></trkpt><trkpt lat="47.38094580135281" lon="8.675596620537348"><ele>445.0</ele><time>2026-04-25T18:35:09Z</time></trkpt><trkpt lat="47.380941825271044" lon="8.675713460222314"><ele>445.0</ele><time>2026-04-25T18:35:10Z</time></trkpt><trkpt lat="47.380939098398855" lon="8.675830350179572"><ele>445.0</ele><time>2026-04-25T18:35:11Z</time></trkpt><trkpt lat="47.38093476569586" lon="8.675947204350633"><ele>445.00000000000006</ele><time>2026-04-25T18:35:12Z</time></trkpt><trkpt lat="47.38093058609547" lon="8.676062245516171"><ele>445.0</ele><time>2026-04-25T18:35:13Z</time></trkpt><trkpt lat="47.380925895394775" lon="8.676177721880235"><ele>445.33333333333337</ele><time>2026-04-25T18:35:14Z</time></trkpt><trkpt lat="47.38092243944433" lon="8.6762895765949"><ele>445.6666666666667</ele><time>2026-04-25T18:35:15Z</time></trkpt><trkpt lat="47.38091517718014" lon="8.676390216933193"><ele>446.0</ele><time>2026-04-25T18:35:16Z</time></trkpt><trkpt lat="47.380852935693134" lon="8.676534282069172"><ele>446.33333333333337</ele><time>2026-04-25T18:35:18Z</time></trkpt><trkpt lat="47.38077283220584" lon="8.676645941075023"><ele>446.6666666666667</ele><time>2026-04-25T18:35:20Z</time></trkpt><trkpt lat="47.38077078397974" lon="8.67674859875728"><ele>447.0</ele><time>2026-04-25T18:35:21Z</time></trkpt><trkpt lat="47.38078328533158" lon="8.676852216628061"><ele>447.6666666666667</ele><time>2026-04-25T18:35:22Z</time></trkpt><trkpt lat="47.38079455982167" lon="8.676956992183563"><ele>448.33333333333337</ele><time>2026-04-25T18:35:23Z</time></trkpt><trkpt lat="47.38078684447756" lon="8.677065207927372"><ele>449.0</ele><time>2026-04-25T18:35:24Z</time></trkpt><trkpt lat="47.38075747561477" lon="8.677167448918025"><ele>449.6666666666667</ele><time>2026-04-25T18:35:25Z</time></trkpt><trkpt lat="47.38073833063264" lon="8.67727905547658"><ele>450.33333333333337</ele><time>2026-04-25T18:35:26Z</time></trkpt><trkpt lat="47.38071607197353" lon="8.677385239702584"><ele>451.0</ele><time>2026-04-25T18:35:27Z</time></trkpt><trkpt lat="47.380695199689924" lon="8.677496175092195"><ele>451.00000000000006</ele><time>2026-04-25T18:35:28Z</time></trkpt><trkpt lat="47.380621252988625" lon="8.677585543226085"><ele>451.0</ele><time>2026-04-25T18:35:29Z</time></trkpt><trkpt lat="47.38058518856673" lon="8.677689205814433"><ele>451.0</ele><time>2026-04-25T18:35:30Z</time></trkpt><trkpt lat="47.38054722116411" lon="8.6777933334432"><ele>451.0</ele><time>2026-04-25T18:35:31Z</time></trkpt><trkpt lat="47.38050711048808" lon="8.677896756571304"><ele>451.00000000000006</ele><time>2026-04-25T18:35:32Z</time></trkpt><trkpt lat="47.38046517894413" lon="8.677999207411593"><ele>451.0</ele><time>2026-04-25T18:35:33Z</time></trkpt><trkpt lat="47.380420934968015" lon="8.678099198919522"><ele>451.00000000000006</ele><time>2026-04-25T18:35:34Z</time></trkpt><trkpt lat="47.38037530362441" lon="8.678197829110191"><ele>451.0</ele><time>2026-04-25T18:35:35Z</time></trkpt><trkpt lat="47.38032838732907" lon="8.678297524989993"><ele>451.0</ele><time>2026-04-25T18:35:36Z</time></trkpt><trkpt lat="47.38028049386013" lon="8.678393291397379"><ele>451.0</ele><time>2026-04-25T18:35:37Z</time></trkpt><trkpt lat="47.38022970340136" lon="8.678484139915504"><ele>451.00000000000006</ele><time>2026-04-25T18:35:38Z</time></trkpt><trkpt lat="47.38017686409037" lon="8.678580185595155"><ele>451.0</ele><time>2026-04-25T18:35:39Z</time></trkpt><trkpt lat="47.38013352615787" lon="8.678683122048836"><ele>451.00000000000006</ele><time>2026-04-25T18:35:40Z</time></trkpt><trkpt lat="47.38008935264203" lon="8.678787325593474"><ele>451.0</ele><time>2026-04-25T18:35:41Z</time></trkpt><trkpt lat="47.38005800692368" lon="8.678902346662477"><ele>451.0</ele><time>2026-04-25T18:35:42Z</time></trkpt><trkpt lat="47.38002042504981" lon="8.679007315584538"><ele>451.0</ele><time>2026-04-25T18:35:43Z</time></trkpt><trkpt lat="47.37997465227457" lon="8.679107111179976"><ele>451.00000000000006</ele><time>2026-04-25T18:35:44Z</time></trkpt><trkpt lat="47.37992674005278" lon="8.679207520502228"><ele>451.0</ele><time>2026-04-25T18:35:45Z</time></trkpt><trkpt lat="47.379879620024454" lon="8.679306242745119"><ele>451.00000000000006</ele><time>2026-04-25T18:35:46Z</time></trkpt><trkpt lat="47.37983077644012" lon="8.679404663261968"><ele>451.0</ele><time>2026-04-25T18:35:47Z</time></trkpt><trkpt lat="47.37978818608072" lon="8.679505458124918"><ele>451.0</ele><time>2026-04-25T18:35:48Z</time></trkpt><trkpt lat="47.37974648554045" lon="8.679605562267893"><ele>451.0</ele><time>2026-04-25T18:35:49Z</time></trkpt><trkpt lat="47.37970233241547" lon="8.679704812200464"><ele>451.00000000000006</ele><time>2026-04-25T18:35:50Z</time></trkpt><trkpt lat="47.37965738779965" lon="8.679805276428796"><ele>451.0</ele><time>2026-04-25T18:35:51Z</time></trkpt><trkpt lat="47.37961542091114" lon="8.679906483385995"><ele>450.6666666666667</ele><time>2026-04-25T18:35:52Z</time></trkpt><trkpt lat="47.37956767857934" lon="8.680006103201205"><ele>450.33333333333337</ele><time>2026-04-25T18:35:53Z</time></trkpt><trkpt lat="47.379520314846175" lon="8.680106918216893"><ele>450.0</ele><time>2026-04-25T18:35:54Z</time></trkpt><trkpt lat="47.37947573679593" lon="8.68020754613345"><ele>449.66666666666663</ele><time>2026-04-25T18:35:55Z</time></trkpt><trkpt lat="47.379431847616445" lon="8.68030667280637"><ele>449.3333333333333</ele><time>2026-04-25T18:35:56Z</time></trkpt><trkpt lat="47.379383230846564" lon="8.680406304589345"><ele>449.0</ele><time>2026-04-25T18:35:57Z</time></trkpt><trkpt lat="47.379338367189725" lon="8.680508235509592"><ele>448.99999999999994</ele><time>2026-04-25T18:35:58Z</time></trkpt><trkpt lat="47.3792942150976" lon="8.680606919117919"><ele>449.0</ele><time>2026-04-25T18:35:59Z</time></trkpt><trkpt lat="47.37925117754901" lon="8.680711162444226"><ele>449.0</ele><time>2026-04-25T18:36:00Z</time></trkpt><trkpt lat="47.37921191786606" lon="8.680817075379084"><ele>449.0</ele><time>2026-04-25T18:36:01Z</time></trkpt><trkpt lat="47.37918024599633" lon="8.680928294791102"><ele>448.99999999999994</ele><time>2026-04-25T18:36:02Z</time></trkpt><trkpt lat="47.379152612153774" lon="8.681042040040222"><ele>449.0</ele><time>2026-04-25T18:36:03Z</time></trkpt><trkpt lat="47.37912986019492" lon="8.681156844487365"><ele>449.3333333333333</ele><time>2026-04-25T18:36:04Z</time></trkpt><trkpt lat="47.379114293781235" lon="8.681278649172672"><ele>449.66666666666663</ele><time>2026-04-25T18:36:05Z</time></trkpt><trkpt lat="47.37910460889775" lon="8.681398537912107"><ele>450.0</ele><time>2026-04-25T18:36:06Z</time></trkpt><trkpt lat="47.37909923347508" lon="8.681521199693442"><ele>450.33333333333337</ele><time>2026-04-25T18:36:07Z</time></trkpt><trkpt lat="47.37909555948399" lon="8.68164392504193"><ele>450.6666666666667</ele><time>2026-04-25T18:36:08Z</time></trkpt><trkpt lat="47.379101857830975" lon="8.681763373846469"><ele>451.0</ele><time>2026-04-25T18:36:09Z</time></trkpt><trkpt lat="47.379111227405986" lon="8.681885069360305"><ele>450.83333333333337</ele><time>2026-04-25T18:36:10Z</time></trkpt><trkpt lat="47.379125640341556" lon="8.682006056349422"><ele>450.6666666666667</ele><time>2026-04-25T18:36:11Z</time></trkpt><trkpt lat="47.37914175033007" lon="8.682124647291879"><ele>450.5</ele><time>2026-04-25T18:36:12Z</time></trkpt><trkpt lat="47.37916324720643" lon="8.682243038926686"><ele>450.33333333333337</ele><time>2026-04-25T18:36:13Z</time></trkpt><trkpt lat="47.37918972919345" lon="8.682357451833258"><ele>450.1666666666667</ele><time>2026-04-25T18:36:14Z</time></trkpt><trkpt lat="47.37921728734312" lon="8.682471971187121"><ele>450.0</ele><time>2026-04-25T18:36:15Z</time></trkpt><trkpt lat="47.37924673306271" lon="8.682584254439316"><ele>450.0</ele><time>2026-04-25T18:36:16Z</time></trkpt><trkpt lat="47.379278159419165" lon="8.68269525154517"><ele>450.0</ele><time>2026-04-25T18:36:17Z</time></trkpt><trkpt lat="47.37931279699356" lon="8.682803355429154"><ele>450.0</ele><time>2026-04-25T18:36:18Z</time></trkpt><trkpt lat="47.37934913071822" lon="8.682909998869176"><ele>450.0</ele><time>2026-04-25T18:36:19Z</time></trkpt><trkpt lat="47.37938862306416" lon="8.683012295857347"><ele>450.0</ele><time>2026-04-25T18:36:20Z</time></trkpt><trkpt lat="47.379431380056296" lon="8.683110817761925"><ele>450.0</ele><time>2026-04-25T18:36:21Z</time></trkpt><trkpt lat="47.379477456281755" lon="8.683205344867124"><ele>450.0</ele><time>2026-04-25T18:36:22Z</time></trkpt><trkpt lat="47.37954447453038" lon="8.683276272900295"><ele>450.0</ele><time>2026-04-25T18:36:23Z</time></trkpt><trkpt lat="47.379591992297264" lon="8.683367151679866"><ele>450.0</ele><time>2026-04-25T18:36:24Z</time></trkpt><trkpt lat="47.379639100879956" lon="8.683454299962436"><ele>450.0</ele><time>2026-04-25T18:36:25Z</time></trkpt><trkpt lat="47.37968976203575" lon="8.683540509077211"><ele>450.0</ele><time>2026-04-25T18:36:26Z</time></trkpt><trkpt lat="47.379739978612314" lon="8.683625961655698"><ele>450.0</ele><time>2026-04-25T18:36:27Z</time></trkpt><trkpt lat="47.37979177550167" lon="8.683708410595381"><ele>450.6666666666667</ele><time>2026-04-25T18:36:28Z</time></trkpt><trkpt lat="47.379844223373276" lon="8.683791019591084"><ele>451.33333333333337</ele><time>2026-04-25T18:36:29Z</time></trkpt><trkpt lat="47.37989699146063" lon="8.683870127848094"><ele>452.0</ele><time>2026-04-25T18:36:30Z</time></trkpt><trkpt lat="47.379949771288395" lon="8.683947985086252"><ele>452.6666666666667</ele><time>2026-04-25T18:36:31Z</time></trkpt><trkpt lat="47.37999705807674" lon="8.684014845721833"><ele>453.33333333333337</ele><time>2026-04-25T18:36:32Z</time></trkpt><trkpt lat="47.380071244079424" lon="8.684119559996237"><ele>454.0</ele><time>2026-04-25T18:36:34Z</time></trkpt><trkpt lat="47.38011787632494" lon="8.684185282480563"><ele>454.00000000000006</ele><time>2026-04-25T18:36:37Z</time></trkpt><trkpt lat="47.38009697894498" lon="8.684298854156967"><ele>454.0</ele><time>2026-04-25T18:37:12Z</time></trkpt><trkpt lat="47.38009787259335" lon="8.684429872698429"><ele>454.0</ele><time>2026-04-25T18:37:15Z</time></trkpt><trkpt lat="47.38002399524138" lon="8.684544040423727"><ele>454.0</ele><time>2026-04-25T18:37:17Z</time></trkpt><trkpt lat="47.379978636602864" lon="8.684610554934087"><ele>454.00000000000006</ele><time>2026-04-25T18:37:18Z</time></trkpt><trkpt lat="47.37992531186377" lon="8.684675978739522"><ele>454.0</ele><time>2026-04-25T18:37:19Z</time></trkpt><trkpt lat="47.37986659451126" lon="8.684745190513166"><ele>453.6666666666667</ele><time>2026-04-25T18:37:20Z</time></trkpt><trkpt lat="47.379809910014075" lon="8.68482217267096"><ele>453.33333333333337</ele><time>2026-04-25T18:37:21Z</time></trkpt><trkpt lat="47.37975004961606" lon="8.684899145936512"><ele>453.0</ele><time>2026-04-25T18:37:22Z</time></trkpt><trkpt lat="47.37969005183139" lon="8.684978159559344"><ele>452.66666666666663</ele><time>2026-04-25T18:37:23Z</time></trkpt><trkpt lat="47.379629909353454" lon="8.685058391009708"><ele>452.3333333333333</ele><time>2026-04-25T18:37:24Z</time></trkpt><trkpt lat="47.37957137770113" lon="8.685143764243122"><ele>452.0</ele><time>2026-04-25T18:37:25Z</time></trkpt><trkpt lat="47.379513183405194" lon="8.685227964486687"><ele>451.99999999999994</ele><time>2026-04-25T18:37:26Z</time></trkpt><trkpt lat="47.37945455105334" lon="8.685313841552672"><ele>452.0</ele><time>2026-04-25T18:37:27Z</time></trkpt><trkpt lat="47.37939834471976" lon="8.68539948154448"><ele>452.0</ele><time>2026-04-25T18:37:28Z</time></trkpt><trkpt lat="47.37934538023944" lon="8.685479089748723"><ele>452.0</ele><time>2026-04-25T18:37:29Z</time></trkpt><trkpt lat="47.37929031934309" lon="8.685542206522626"><ele>451.99999999999994</ele><time>2026-04-25T18:37:30Z</time></trkpt><trkpt lat="47.37920310697563" lon="8.685627512382256"><ele>452.0</ele><time>2026-04-25T18:37:32Z</time></trkpt><trkpt lat="47.379107434323004" lon="8.685687490475129"><ele>452.0</ele><time>2026-04-25T18:37:34Z</time></trkpt><trkpt lat="47.37905532065596" lon="8.685743882572627"><ele>452.0</ele><time>2026-04-25T18:37:35Z</time></trkpt><trkpt lat="47.37899815873763" lon="8.685801243718782"><ele>452.0</ele><time>2026-04-25T18:37:36Z</time></trkpt><trkpt lat="47.378936569573966" lon="8.685856328046766"><ele>452.0</ele><time>2026-04-25T18:37:37Z</time></trkpt><trkpt lat="47.378872735807334" lon="8.685915131799582"><ele>452.0</ele><time>2026-04-25T18:37:38Z</time></trkpt><trkpt lat="47.378806945843515" lon="8.68597360453544"><ele>452.0</ele><time>2026-04-25T18:37:39Z</time></trkpt><trkpt lat="47.378741181418626" lon="8.68603717773835"><ele>452.0</ele><time>2026-04-25T18:37:40Z</time></trkpt><trkpt lat="47.378674607741786" lon="8.686100798073573"><ele>452.16666666666663</ele><time>2026-04-25T18:37:41Z</time></trkpt><trkpt lat="47.37860764296381" lon="8.686166021491513"><ele>452.3333333333333</ele><time>2026-04-25T18:37:42Z</time></trkpt><trkpt lat="47.37854017017105" lon="8.68622998159167"><ele>452.5</ele><time>2026-04-25T18:37:43Z</time></trkpt><trkpt lat="47.37847165450973" lon="8.686293748784854"><ele>452.66666666666663</ele><time>2026-04-25T18:37:44Z</time></trkpt><trkpt lat="47.37840373113349" lon="8.686358571267924"><ele>452.8333333333333</ele><time>2026-04-25T18:37:45Z</time></trkpt><trkpt lat="47.37833559913826" lon="8.686421600392768"><ele>453.0</ele><time>2026-04-25T18:37:46Z</time></trkpt><trkpt lat="47.37826731292748" lon="8.686488746762443"><ele>453.0</ele><time>2026-04-25T18:37:47Z</time></trkpt><trkpt lat="47.378199252616284" lon="8.686553640435287"><ele>453.0</ele><time>2026-04-25T18:37:48Z</time></trkpt><trkpt lat="47.37813050290992" lon="8.686618199879307"><ele>453.0</ele><time>2026-04-25T18:37:49Z</time></trkpt><trkpt lat="47.37806131048604" lon="8.68668439416938"><ele>453.0</ele><time>2026-04-25T18:37:50Z</time></trkpt><trkpt lat="47.377993948607724" lon="8.686755209985185"><ele>453.0</ele><time>2026-04-25T18:37:51Z</time></trkpt><trkpt lat="47.377923981612625" lon="8.686817785406376"><ele>453.0</ele><time>2026-04-25T18:37:52Z</time></trkpt><trkpt lat="47.37785083259895" lon="8.68687637675688"><ele>452.8333333333333</ele><time>2026-04-25T18:37:53Z</time></trkpt><trkpt lat="47.377779860983146" lon="8.686937332126083"><ele>452.66666666666663</ele><time>2026-04-25T18:37:54Z</time></trkpt><trkpt lat="47.37771126549002" lon="8.687004657719559"><ele>452.5</ele><time>2026-04-25T18:37:55Z</time></trkpt><trkpt lat="47.37764195963158" lon="8.687069841445057"><ele>452.3333333333333</ele><time>2026-04-25T18:37:56Z</time></trkpt><trkpt lat="47.37757048284725" lon="8.68712875968479"><ele>452.16666666666663</ele><time>2026-04-25T18:37:57Z</time></trkpt><trkpt lat="47.377499968483725" lon="8.687189971287731"><ele>452.0</ele><time>2026-04-25T18:37:58Z</time></trkpt><trkpt lat="47.37742964210995" lon="8.687252288611095"><ele>451.99999999999994</ele><time>2026-04-25T18:37:59Z</time></trkpt><trkpt lat="47.377360968409874" lon="8.687320217445784"><ele>452.0</ele><time>2026-04-25T18:38:00Z</time></trkpt><trkpt lat="47.37729150483265" lon="8.687386637794953"><ele>452.0</ele><time>2026-04-25T18:38:01Z</time></trkpt><trkpt lat="47.377222497934554" lon="8.687453566542292"><ele>452.0</ele><time>2026-04-25T18:38:02Z</time></trkpt><trkpt lat="47.3771527604645" lon="8.68751897556186"><ele>451.99999999999994</ele><time>2026-04-25T18:38:03Z</time></trkpt><trkpt lat="47.37708203397813" lon="8.687584890159338"><ele>452.0</ele><time>2026-04-25T18:38:04Z</time></trkpt><trkpt lat="47.377011909070646" lon="8.68765110537283"><ele>451.99999999999994</ele><time>2026-04-25T18:38:05Z</time></trkpt><trkpt lat="47.37694155014053" lon="8.687715645824774"><ele>452.0</ele><time>2026-04-25T18:38:06Z</time></trkpt><trkpt lat="47.3768717056974" lon="8.687780433564972"><ele>452.0</ele><time>2026-04-25T18:38:07Z</time></trkpt><trkpt lat="47.37680326901185" lon="8.68784517356782"><ele>452.0</ele><time>2026-04-25T18:38:08Z</time></trkpt><trkpt lat="47.376735906485685" lon="8.687907002021369"><ele>451.99999999999994</ele><time>2026-04-25T18:38:09Z</time></trkpt><trkpt lat="47.37667166526163" lon="8.687968437241382"><ele>452.0</ele><time>2026-04-25T18:38:10Z</time></trkpt><trkpt lat="47.376605286443464" lon="8.688031446284926"><ele>451.99999999999994</ele><time>2026-04-25T18:38:11Z</time></trkpt><trkpt lat="47.376536394444436" lon="8.688092140704166"><ele>452.0</ele><time>2026-04-25T18:38:12Z</time></trkpt><trkpt lat="47.376468988600486" lon="8.688152946833142"><ele>452.0</ele><time>2026-04-25T18:38:13Z</time></trkpt><trkpt lat="47.376402220765435" lon="8.688216275869246"><ele>452.0</ele><time>2026-04-25T18:38:14Z</time></trkpt><trkpt lat="47.37633550104179" lon="8.688279042933932"><ele>451.99999999999994</ele><time>2026-04-25T18:38:15Z</time></trkpt><trkpt lat="47.3762697846841" lon="8.688342439500154"><ele>452.0</ele><time>2026-04-25T18:38:16Z</time></trkpt><trkpt lat="47.376203819513755" lon="8.688408446925234"><ele>451.99999999999994</ele><time>2026-04-25T18:38:17Z</time></trkpt><trkpt lat="47.376137904963535" lon="8.688472873468298"><ele>452.0</ele><time>2026-04-25T18:38:18Z</time></trkpt><trkpt lat="47.376071591130135" lon="8.688535588897736"><ele>452.0</ele><time>2026-04-25T18:38:19Z</time></trkpt><trkpt lat="47.37600526609516" lon="8.688597632982123"><ele>452.0</ele><time>2026-04-25T18:38:20Z</time></trkpt><trkpt lat="47.375938281747224" lon="8.68865840688283"><ele>451.99999999999994</ele><time>2026-04-25T18:38:21Z</time></trkpt><trkpt lat="47.37587170983152" lon="8.688720765211087"><ele>452.0</ele><time>2026-04-25T18:38:22Z</time></trkpt><trkpt lat="47.37580509577733" lon="8.688784449435417"><ele>451.99999999999994</ele><time>2026-04-25T18:38:23Z</time></trkpt><trkpt lat="47.37573939037916" lon="8.688849071484986"><ele>452.0</ele><time>2026-04-25T18:38:24Z</time></trkpt><trkpt lat="47.37567311272356" lon="8.688913247269362"><ele>452.0</ele><time>2026-04-25T18:38:25Z</time></trkpt><trkpt lat="47.375606984452595" lon="8.688976986640233"><ele>452.0</ele><time>2026-04-25T18:38:26Z</time></trkpt><trkpt lat="47.375539451036786" lon="8.689036523932016"><ele>451.99999999999994</ele><time>2026-04-25T18:38:27Z</time></trkpt><trkpt lat="47.375472448661306" lon="8.689096559027352"><ele>452.0</ele><time>2026-04-25T18:38:28Z</time></trkpt><trkpt lat="47.37540704696663" lon="8.6891602860638"><ele>451.8333333333333</ele><time>2026-04-25T18:38:29Z</time></trkpt><trkpt lat="47.375341985311486" lon="8.689223496527232"><ele>451.66666666666663</ele><time>2026-04-25T18:38:30Z</time></trkpt><trkpt lat="47.37527607082984" lon="8.68928603129801"><ele>451.5</ele><time>2026-04-25T18:38:31Z</time></trkpt><trkpt lat="47.37521020230181" lon="8.68934677845809"><ele>451.33333333333337</ele><time>2026-04-25T18:38:32Z</time></trkpt><trkpt lat="47.37514486800829" lon="8.68940809893848"><ele>451.1666666666667</ele><time>2026-04-25T18:38:33Z</time></trkpt><trkpt lat="47.375078668927976" lon="8.68947006552976"><ele>451.0</ele><time>2026-04-25T18:38:34Z</time></trkpt><trkpt lat="47.3750134754012" lon="8.689532733986635"><ele>451.00000000000006</ele><time>2026-04-25T18:38:35Z</time></trkpt><trkpt lat="47.374948097878004" lon="8.689595264749698"><ele>451.0</ele><time>2026-04-25T18:38:36Z</time></trkpt><trkpt lat="47.37488227214765" lon="8.68965856399592"><ele>451.0</ele><time>2026-04-25T18:38:37Z</time></trkpt><trkpt lat="47.374816811256366" lon="8.689720325310445"><ele>451.0</ele><time>2026-04-25T18:38:38Z</time></trkpt><trkpt lat="47.374752154997594" lon="8.689781499625308"><ele>451.00000000000006</ele><time>2026-04-25T18:38:39Z</time></trkpt><trkpt lat="47.37468672011469" lon="8.689841446524236"><ele>451.0</ele><time>2026-04-25T18:38:40Z</time></trkpt><trkpt lat="47.37462164176734" lon="8.68990327204671"><ele>450.6666666666667</ele><time>2026-04-25T18:38:41Z</time></trkpt><trkpt lat="47.37455723985945" lon="8.689964962288432"><ele>450.33333333333337</ele><time>2026-04-25T18:38:42Z</time></trkpt><trkpt lat="47.37449201564071" lon="8.690024582767268"><ele>450.0</ele><time>2026-04-25T18:38:43Z</time></trkpt><trkpt lat="47.374426862566935" lon="8.690083435728972"><ele>449.66666666666663</ele><time>2026-04-25T18:38:44Z</time></trkpt><trkpt lat="47.374362499057845" lon="8.690143672870986"><ele>449.3333333333333</ele><time>2026-04-25T18:38:45Z</time></trkpt><trkpt lat="47.37429836469149" lon="8.690205088080724"><ele>449.0</ele><time>2026-04-25T18:38:46Z</time></trkpt><trkpt lat="47.37423252944633" lon="8.690261785678405"><ele>449.66666666666663</ele><time>2026-04-25T18:38:47Z</time></trkpt><trkpt lat="47.37416666789814" lon="8.690317515603034"><ele>450.3333333333333</ele><time>2026-04-25T18:38:48Z</time></trkpt><trkpt lat="47.3741018697658" lon="8.690377456657997"><ele>451.0</ele><time>2026-04-25T18:38:49Z</time></trkpt><trkpt lat="47.37403763076857" lon="8.690436424490585"><ele>451.66666666666663</ele><time>2026-04-25T18:38:50Z</time></trkpt><trkpt lat="47.37397045265543" lon="8.690491647516636"><ele>452.3333333333333</ele><time>2026-04-25T18:38:51Z</time></trkpt><trkpt lat="47.373902504353424" lon="8.690538175269987"><ele>453.0</ele><time>2026-04-25T18:38:52Z</time></trkpt><trkpt lat="47.37382828816335" lon="8.690571559607855"><ele>453.0</ele><time>2026-04-25T18:38:53Z</time></trkpt><trkpt lat="47.373761295334674" lon="8.690624975368738"><ele>453.0</ele><time>2026-04-25T18:38:54Z</time></trkpt><trkpt lat="47.37370319513697" lon="8.69069950738417"><ele>453.0</ele><time>2026-04-25T18:38:55Z</time></trkpt><trkpt lat="47.37366469931869" lon="8.690799026720933"><ele>453.0</ele><time>2026-04-25T18:38:56Z</time></trkpt><trkpt lat="47.37359147609955" lon="8.69085730672939"><ele>453.0</ele><time>2026-04-25T18:38:57Z</time></trkpt><trkpt lat="47.37353080079346" lon="8.690923596091864"><ele>453.0</ele><time>2026-04-25T18:38:58Z</time></trkpt><trkpt lat="47.37346803280897" lon="8.69098835142057"><ele>453.0</ele><time>2026-04-25T18:38:59Z</time></trkpt><trkpt lat="47.373403251274325" lon="8.691049246056066"><ele>453.0</ele><time>2026-04-25T18:39:00Z</time></trkpt><trkpt lat="47.37334061268224" lon="8.691114067756633"><ele>453.0</ele><time>2026-04-25T18:39:01Z</time></trkpt><trkpt lat="47.3732762240867" lon="8.69117595680396"><ele>453.0</ele><time>2026-04-25T18:39:02Z</time></trkpt><trkpt lat="47.3732127514717" lon="8.691239866840597"><ele>453.0</ele><time>2026-04-25T18:39:03Z</time></trkpt><trkpt lat="47.37314833182088" lon="8.691301285311706"><ele>453.0</ele><time>2026-04-25T18:39:04Z</time></trkpt><trkpt lat="47.37308187575704" lon="8.691355596371421"><ele>453.0</ele><time>2026-04-25T18:39:05Z</time></trkpt><trkpt lat="47.373014426782966" lon="8.691408901434176"><ele>453.0</ele><time>2026-04-25T18:39:06Z</time></trkpt><trkpt lat="47.372953145398824" lon="8.691478315048498"><ele>453.0</ele><time>2026-04-25T18:39:07Z</time></trkpt><trkpt lat="47.37289123353328" lon="8.691544677427176"><ele>453.0</ele><time>2026-04-25T18:39:08Z</time></trkpt><trkpt lat="47.372826410603224" lon="8.691606856168457"><ele>453.0</ele><time>2026-04-25T18:39:09Z</time></trkpt><trkpt lat="47.37276259584505" lon="8.691672422359206"><ele>453.0</ele><time>2026-04-25T18:39:10Z</time></trkpt><trkpt lat="47.372695319337296" lon="8.691731377407415"><ele>453.0</ele><time>2026-04-25T18:39:11Z</time></trkpt><trkpt lat="47.37262886966775" lon="8.69179060185224"><ele>453.0</ele><time>2026-04-25T18:39:12Z</time></trkpt><trkpt lat="47.372563436609724" lon="8.691852429418386"><ele>453.0</ele><time>2026-04-25T18:39:13Z</time></trkpt><trkpt lat="47.37249717640605" lon="8.691913477777781"><ele>453.0</ele><time>2026-04-25T18:39:14Z</time></trkpt><trkpt lat="47.37243224441381" lon="8.691977650103935"><ele>453.0</ele><time>2026-04-25T18:39:15Z</time></trkpt><trkpt lat="47.372368141370934" lon="8.692037784982384"><ele>453.0</ele><time>2026-04-25T18:39:16Z</time></trkpt><trkpt lat="47.372299413029175" lon="8.692095758739317"><ele>453.1666666666667</ele><time>2026-04-25T18:39:17Z</time></trkpt><trkpt lat="47.37223095622556" lon="8.692150889018285"><ele>453.33333333333337</ele><time>2026-04-25T18:39:18Z</time></trkpt><trkpt lat="47.37216271417294" lon="8.69220604041626"><ele>453.5</ele><time>2026-04-25T18:39:19Z</time></trkpt><trkpt lat="47.37209585506319" lon="8.69226730751805"><ele>453.6666666666667</ele><time>2026-04-25T18:39:20Z</time></trkpt><trkpt lat="47.37203161467477" lon="8.692329020948586"><ele>453.83333333333337</ele><time>2026-04-25T18:39:21Z</time></trkpt><trkpt lat="47.371965294231686" lon="8.692389581117611"><ele>454.0</ele><time>2026-04-25T18:39:22Z</time></trkpt><trkpt lat="47.371900142911656" lon="8.692452303799932"><ele>454.00000000000006</ele><time>2026-04-25T18:39:23Z</time></trkpt><trkpt lat="47.37183529615916" lon="8.692512659579688"><ele>454.0</ele><time>2026-04-25T18:39:24Z</time></trkpt><trkpt lat="47.371769775822074" lon="8.692577798462969"><ele>454.0</ele><time>2026-04-25T18:39:25Z</time></trkpt><trkpt lat="47.37170492846849" lon="8.692642307654081"><ele>454.0</ele><time>2026-04-25T18:39:26Z</time></trkpt><trkpt lat="47.371638396975165" lon="8.692701081674558"><ele>454.00000000000006</ele><time>2026-04-25T18:39:27Z</time></trkpt><trkpt lat="47.37157335659511" lon="8.692760098907424"><ele>454.0</ele><time>2026-04-25T18:39:28Z</time></trkpt><trkpt lat="47.37150827136606" lon="8.692824702959008"><ele>453.83333333333337</ele><time>2026-04-25T18:39:29Z</time></trkpt><trkpt lat="47.371442442220754" lon="8.692889420232673"><ele>453.6666666666667</ele><time>2026-04-25T18:39:30Z</time></trkpt><trkpt lat="47.37137989599184" lon="8.69294827143081"><ele>453.5</ele><time>2026-04-25T18:39:31Z</time></trkpt><trkpt lat="47.371312001721144" lon="8.693009096265634"><ele>453.33333333333337</ele><time>2026-04-25T18:39:32Z</time></trkpt><trkpt lat="47.37124565563671" lon="8.693064254103335"><ele>453.1666666666667</ele><time>2026-04-25T18:39:33Z</time></trkpt><trkpt lat="47.371176453855554" lon="8.69311775030345"><ele>453.0</ele><time>2026-04-25T18:39:34Z</time></trkpt><trkpt lat="47.371110880689265" lon="8.693177589783213"><ele>453.3333333333333</ele><time>2026-04-25T18:39:35Z</time></trkpt><trkpt lat="47.371043338034404" lon="8.693239757094444"><ele>453.66666666666663</ele><time>2026-04-25T18:39:36Z</time></trkpt><trkpt lat="47.370978921050146" lon="8.693302524362695"><ele>454.0</ele><time>2026-04-25T18:39:37Z</time></trkpt><trkpt lat="47.37091287223985" lon="8.693364225232141"><ele>454.3333333333333</ele><time>2026-04-25T18:39:38Z</time></trkpt><trkpt lat="47.37084794308535" lon="8.693430703908374"><ele>454.66666666666663</ele><time>2026-04-25T18:39:39Z</time></trkpt><trkpt lat="47.37078161708677" lon="8.693494442832883"><ele>455.0</ele><time>2026-04-25T18:39:40Z</time></trkpt><trkpt lat="47.37071273828693" lon="8.693556123265202"><ele>454.99999999999994</ele><time>2026-04-25T18:39:41Z</time></trkpt><trkpt lat="47.37064550643677" lon="8.693620621472366"><ele>455.0</ele><time>2026-04-25T18:39:42Z</time></trkpt><trkpt lat="47.37058118870139" lon="8.693685136427765"><ele>455.0</ele><time>2026-04-25T18:39:43Z</time></trkpt><trkpt lat="47.37051915527792" lon="8.693753745219425"><ele>455.0</ele><time>2026-04-25T18:39:44Z</time></trkpt><trkpt lat="47.37045317658131" lon="8.69381190601488"><ele>454.99999999999994</ele><time>2026-04-25T18:39:45Z</time></trkpt><trkpt lat="47.370387806464564" lon="8.6938814011634"><ele>455.0</ele><time>2026-04-25T18:39:46Z</time></trkpt><trkpt lat="47.37032196385276" lon="8.693948552409218"><ele>454.8333333333333</ele><time>2026-04-25T18:39:47Z</time></trkpt><trkpt lat="47.370261340023546" lon="8.6940205283713"><ele>454.66666666666663</ele><time>2026-04-25T18:39:48Z</time></trkpt><trkpt lat="47.370194043141204" lon="8.694088771924742"><ele>454.5</ele><time>2026-04-25T18:39:49Z</time></trkpt><trkpt lat="47.37012876062837" lon="8.694158408008779"><ele>454.33333333333337</ele><time>2026-04-25T18:39:50Z</time></trkpt><trkpt lat="47.37006582227761" lon="8.694228243930304"><ele>454.1666666666667</ele><time>2026-04-25T18:39:51Z</time></trkpt><trkpt lat="47.370002165370494" lon="8.694299092666983"><ele>454.0</ele><time>2026-04-25T18:39:52Z</time></trkpt><trkpt lat="47.36993524647083" lon="8.694362093056856"><ele>454.00000000000006</ele><time>2026-04-25T18:39:53Z</time></trkpt><trkpt lat="47.3698674771827" lon="8.694419868985364"><ele>454.0</ele><time>2026-04-25T18:39:54Z</time></trkpt><trkpt lat="47.36979474260328" lon="8.694472699194387"><ele>454.0</ele><time>2026-04-25T18:39:55Z</time></trkpt><trkpt lat="47.369727357179066" lon="8.694522112530963"><ele>454.0</ele><time>2026-04-25T18:39:56Z</time></trkpt><trkpt lat="47.369656430617255" lon="8.694574320459385"><ele>454.00000000000006</ele><time>2026-04-25T18:39:57Z</time></trkpt><trkpt lat="47.369586814576955" lon="8.694616153337654"><ele>454.0</ele><time>2026-04-25T18:39:58Z</time></trkpt><trkpt lat="47.36951675368281" lon="8.694657435121057"><ele>454.5714285714286</ele><time>2026-04-25T18:39:59Z</time></trkpt><trkpt lat="47.369447505327216" lon="8.69470020154081"><ele>455.1428571428572</ele><time>2026-04-25T18:40:00Z</time></trkpt><trkpt lat="47.36937799197258" lon="8.694745275073808"><ele>455.7142857142857</ele><time>2026-04-25T18:40:01Z</time></trkpt><trkpt lat="47.36930810706959" lon="8.694790017807756"><ele>456.28571428571433</ele><time>2026-04-25T18:40:02Z</time></trkpt><trkpt lat="47.3692403577518" lon="8.694833361306012"><ele>456.8571428571429</ele><time>2026-04-25T18:40:03Z</time></trkpt><trkpt lat="47.36917243610979" lon="8.694876037210774"><ele>457.42857142857144</ele><time>2026-04-25T18:40:04Z</time></trkpt><trkpt lat="47.369104273257925" lon="8.694917585686584"><ele>458.0</ele><time>2026-04-25T18:40:05Z</time></trkpt><trkpt lat="47.36903725347769" lon="8.694962426955879"><ele>458.0</ele><time>2026-04-25T18:40:06Z</time></trkpt><trkpt lat="47.368972513290835" lon="8.695011757566617"><ele>458.0</ele><time>2026-04-25T18:40:07Z</time></trkpt><trkpt lat="47.368911467565624" lon="8.69506930693008"><ele>458.0</ele><time>2026-04-25T18:40:08Z</time></trkpt><trkpt lat="47.36884891645357" lon="8.695130554429738"><ele>458.0</ele><time>2026-04-25T18:40:09Z</time></trkpt><trkpt lat="47.3687816643714" lon="8.695176770115603"><ele>458.0</ele><time>2026-04-25T18:40:10Z</time></trkpt><trkpt lat="47.3687136442898" lon="8.695218847280996"><ele>458.0</ele><time>2026-04-25T18:40:11Z</time></trkpt><trkpt lat="47.36864970663464" lon="8.695272864889578"><ele>458.0</ele><time>2026-04-25T18:40:12Z</time></trkpt><trkpt lat="47.368583040842324" lon="8.695323790737257"><ele>458.16666666666663</ele><time>2026-04-25T18:40:13Z</time></trkpt><trkpt lat="47.368514336079556" lon="8.695373730926443"><ele>458.3333333333333</ele><time>2026-04-25T18:40:14Z</time></trkpt><trkpt lat="47.36844648068707" lon="8.695428101530082"><ele>458.5</ele><time>2026-04-25T18:40:15Z</time></trkpt><trkpt lat="47.368379138285725" lon="8.695484495084806"><ele>458.66666666666663</ele><time>2026-04-25T18:40:16Z</time></trkpt><trkpt lat="47.36831214366346" lon="8.695538687705499"><ele>458.8333333333333</ele><time>2026-04-25T18:40:17Z</time></trkpt><trkpt lat="47.36824338349198" lon="8.695594421085435"><ele>459.0</ele><time>2026-04-25T18:40:18Z</time></trkpt><trkpt lat="47.36817457052483" lon="8.695649999063797"><ele>459.0</ele><time>2026-04-25T18:40:19Z</time></trkpt><trkpt lat="47.36810571068729" lon="8.695707537232058"><ele>459.0</ele><time>2026-04-25T18:40:20Z</time></trkpt><trkpt lat="47.36803668573124" lon="8.695764725607216"><ele>459.0</ele><time>2026-04-25T18:40:21Z</time></trkpt><trkpt lat="47.36796807604027" lon="8.695823504876264"><ele>459.0</ele><time>2026-04-25T18:40:22Z</time></trkpt><trkpt lat="47.367897814799576" lon="8.69588042534855"><ele>459.0</ele><time>2026-04-25T18:40:23Z</time></trkpt><trkpt lat="47.36782681353252" lon="8.695934107306398"><ele>459.0</ele><time>2026-04-25T18:40:24Z</time></trkpt><trkpt lat="47.367755842117965" lon="8.695991502328452"><ele>458.6666666666667</ele><time>2026-04-25T18:40:25Z</time></trkpt><trkpt lat="47.36768636525566" lon="8.69605256298875"><ele>458.33333333333337</ele><time>2026-04-25T18:40:26Z</time></trkpt><trkpt lat="47.36761581400906" lon="8.696110498147268"><ele>458.0</ele><time>2026-04-25T18:40:27Z</time></trkpt><trkpt lat="47.36754779002326" lon="8.696168091620311"><ele>457.6666666666667</ele><time>2026-04-25T18:40:28Z</time></trkpt><trkpt lat="47.36747788761027" lon="8.696230720895331"><ele>457.33333333333337</ele><time>2026-04-25T18:40:29Z</time></trkpt><trkpt lat="47.367407945656424" lon="8.696290456080186"><ele>457.0</ele><time>2026-04-25T18:40:30Z</time></trkpt><trkpt lat="47.36733799219096" lon="8.696347126125819"><ele>457.00000000000006</ele><time>2026-04-25T18:40:31Z</time></trkpt><trkpt lat="47.367266701160325" lon="8.696406746284977"><ele>457.0</ele><time>2026-04-25T18:40:32Z</time></trkpt><trkpt lat="47.367197285923346" lon="8.696466694266354"><ele>457.0</ele><time>2026-04-25T18:40:33Z</time></trkpt><trkpt lat="47.367125208984206" lon="8.696527230161372"><ele>457.0</ele><time>2026-04-25T18:40:34Z</time></trkpt><trkpt lat="47.36705488671503" lon="8.696589523945338"><ele>457.00000000000006</ele><time>2026-04-25T18:40:35Z</time></trkpt><trkpt lat="47.366981960674856" lon="8.69664672912174"><ele>457.0</ele><time>2026-04-25T18:40:36Z</time></trkpt><trkpt lat="47.36690805155894" lon="8.69670103051731"><ele>457.00000000000006</ele><time>2026-04-25T18:40:37Z</time></trkpt><trkpt lat="47.366832865481165" lon="8.69675427108086"><ele>457.0</ele><time>2026-04-25T18:40:38Z</time></trkpt><trkpt lat="47.36676204123972" lon="8.696810355530202"><ele>457.0</ele><time>2026-04-25T18:40:39Z</time></trkpt><trkpt lat="47.36669385176377" lon="8.696867766848055"><ele>457.0</ele><time>2026-04-25T18:40:40Z</time></trkpt><trkpt lat="47.366624629854236" lon="8.69692768278948"><ele>457.00000000000006</ele><time>2026-04-25T18:40:41Z</time></trkpt><trkpt lat="47.366553820763606" lon="8.696985990872237"><ele>457.0</ele><time>2026-04-25T18:40:42Z</time></trkpt><trkpt lat="47.36648243742643" lon="8.697042946764604"><ele>456.6666666666667</ele><time>2026-04-25T18:40:43Z</time></trkpt><trkpt lat="47.36641155235271" lon="8.697101746579358"><ele>456.33333333333337</ele><time>2026-04-25T18:40:44Z</time></trkpt><trkpt lat="47.36634105073698" lon="8.69716050039601"><ele>456.0</ele><time>2026-04-25T18:40:45Z</time></trkpt><trkpt lat="47.366274151279164" lon="8.69722683072798"><ele>455.66666666666663</ele><time>2026-04-25T18:40:46Z</time></trkpt><trkpt lat="47.36621120013506" lon="8.697301484642542"><ele>455.3333333333333</ele><time>2026-04-25T18:40:47Z</time></trkpt><trkpt lat="47.36614903717535" lon="8.697372721864808"><ele>455.0</ele><time>2026-04-25T18:40:48Z</time></trkpt><trkpt lat="47.3660857122474" lon="8.697446511298521"><ele>454.99999999999994</ele><time>2026-04-25T18:40:49Z</time></trkpt><trkpt lat="47.366025011088894" lon="8.69752340427751"><ele>455.0</ele><time>2026-04-25T18:40:50Z</time></trkpt><trkpt lat="47.36596350569131" lon="8.697605492413592"><ele>455.0</ele><time>2026-04-25T18:40:51Z</time></trkpt><trkpt lat="47.36590217317505" lon="8.697677292839192"><ele>455.0</ele><time>2026-04-25T18:40:52Z</time></trkpt><trkpt lat="47.365838613795816" lon="8.69774924571283"><ele>454.99999999999994</ele><time>2026-04-25T18:40:53Z</time></trkpt><trkpt lat="47.365775452228704" lon="8.697824105142825"><ele>455.0</ele><time>2026-04-25T18:40:54Z</time></trkpt><trkpt lat="47.36571404722661" lon="8.69790271724938"><ele>455.3333333333333</ele><time>2026-04-25T18:40:55Z</time></trkpt><trkpt lat="47.36565116832554" lon="8.697977424032198"><ele>455.66666666666663</ele><time>2026-04-25T18:40:56Z</time></trkpt><trkpt lat="47.36558592390489" lon="8.698048074579555"><ele>456.0</ele><time>2026-04-25T18:40:57Z</time></trkpt><trkpt lat="47.36551938584391" lon="8.698119924397794"><ele>456.33333333333337</ele><time>2026-04-25T18:40:58Z</time></trkpt><trkpt lat="47.36545330680784" lon="8.698190611704629"><ele>456.6666666666667</ele><time>2026-04-25T18:40:59Z</time></trkpt><trkpt lat="47.36538254787848" lon="8.698256424154502"><ele>457.0</ele><time>2026-04-25T18:41:00Z</time></trkpt><trkpt lat="47.36530875928657" lon="8.698314769493612"><ele>456.6666666666667</ele><time>2026-04-25T18:41:01Z</time></trkpt><trkpt lat="47.36523560016874" lon="8.698371667018382"><ele>456.33333333333337</ele><time>2026-04-25T18:41:02Z</time></trkpt><trkpt lat="47.365161712877786" lon="8.698428715813357"><ele>456.0</ele><time>2026-04-25T18:41:03Z</time></trkpt><trkpt lat="47.365087941537105" lon="8.698485832003959"><ele>455.66666666666663</ele><time>2026-04-25T18:41:04Z</time></trkpt><trkpt lat="47.36501497918462" lon="8.698541391940692"><ele>455.3333333333333</ele><time>2026-04-25T18:41:05Z</time></trkpt><trkpt lat="47.36494076407052" lon="8.698597496257062"><ele>455.0</ele><time>2026-04-25T18:41:06Z</time></trkpt><trkpt lat="47.364868228539606" lon="8.698649647894161"><ele>454.99999999999994</ele><time>2026-04-25T18:41:07Z</time></trkpt><trkpt lat="47.3647942860045" lon="8.698700788696428"><ele>455.0</ele><time>2026-04-25T18:41:08Z</time></trkpt><trkpt lat="47.36472112075842" lon="8.698750834174694"><ele>455.0</ele><time>2026-04-25T18:41:09Z</time></trkpt><trkpt lat="47.36464934319635" lon="8.698802940954195"><ele>455.0</ele><time>2026-04-25T18:41:10Z</time></trkpt><trkpt lat="47.36457856326723" lon="8.698854562179006"><ele>454.99999999999994</ele><time>2026-04-25T18:41:11Z</time></trkpt><trkpt lat="47.36450745058728" lon="8.698905373261875"><ele>455.0</ele><time>2026-04-25T18:41:12Z</time></trkpt><trkpt lat="47.364438096388895" lon="8.698955422139822"><ele>454.66666666666663</ele><time>2026-04-25T18:41:13Z</time></trkpt><trkpt lat="47.36436840230627" lon="8.699001515206431"><ele>454.3333333333333</ele><time>2026-04-25T18:41:14Z</time></trkpt><trkpt lat="47.364299227799954" lon="8.699049247527695"><ele>454.0</ele><time>2026-04-25T18:41:15Z</time></trkpt><trkpt lat="47.3642303830039" lon="8.699097939390654"><ele>453.66666666666663</ele><time>2026-04-25T18:41:16Z</time></trkpt><trkpt lat="47.36416262777096" lon="8.699144405937366"><ele>453.3333333333333</ele><time>2026-04-25T18:41:17Z</time></trkpt><trkpt lat="47.36409518538987" lon="8.699191741964691"><ele>453.0</ele><time>2026-04-25T18:41:18Z</time></trkpt><trkpt lat="47.36403032039058" lon="8.699239930219752"><ele>452.99999999999994</ele><time>2026-04-25T18:41:19Z</time></trkpt><trkpt lat="47.363966832366984" lon="8.699292704968727"><ele>453.0</ele><time>2026-04-25T18:41:20Z</time></trkpt><trkpt lat="47.36389728441855" lon="8.699337890594302"><ele>452.99999999999994</ele><time>2026-04-25T18:41:21Z</time></trkpt><trkpt lat="47.36383040124333" lon="8.699381943731613"><ele>452.99999999999994</ele><time>2026-04-25T18:41:22Z</time></trkpt><trkpt lat="47.36376469274166" lon="8.699431094983948"><ele>453.0</ele><time>2026-04-25T18:41:23Z</time></trkpt><trkpt lat="47.363699240317764" lon="8.699479969124326"><ele>452.99999999999994</ele><time>2026-04-25T18:41:24Z</time></trkpt><trkpt lat="47.36363205889226" lon="8.699521146340603"><ele>452.99999999999994</ele><time>2026-04-25T18:41:25Z</time></trkpt><trkpt lat="47.36356431103986" lon="8.69956576534858"><ele>453.2857142857142</ele><time>2026-04-25T18:41:26Z</time></trkpt><trkpt lat="47.36349808238075" lon="8.699614010131324"><ele>453.57142857142856</ele><time>2026-04-25T18:41:27Z</time></trkpt><trkpt lat="47.36343167518399" lon="8.69965974230017"><ele>453.85714285714283</ele><time>2026-04-25T18:41:28Z</time></trkpt><trkpt lat="47.36336560728632" lon="8.699707270680374"><ele>454.1428571428571</ele><time>2026-04-25T18:41:29Z</time></trkpt><trkpt lat="47.36330025229357" lon="8.699756891871882"><ele>454.42857142857144</ele><time>2026-04-25T18:41:30Z</time></trkpt><trkpt lat="47.363233545994554" lon="8.699801161643155"><ele>454.7142857142857</ele><time>2026-04-25T18:41:31Z</time></trkpt><trkpt lat="47.36316725383368" lon="8.699848044778422"><ele>455.0</ele><time>2026-04-25T18:41:32Z</time></trkpt><trkpt lat="47.363102242527006" lon="8.699898557191379"><ele>455.0</ele><time>2026-04-25T18:41:33Z</time></trkpt><trkpt lat="47.363036198813084" lon="8.699945246399968"><ele>455.0</ele><time>2026-04-25T18:41:34Z</time></trkpt><trkpt lat="47.362969526924125" lon="8.699986474507305"><ele>455.0</ele><time>2026-04-25T18:41:35Z</time></trkpt><trkpt lat="47.36290246904367" lon="8.700032009036098"><ele>455.0</ele><time>2026-04-25T18:41:36Z</time></trkpt><trkpt lat="47.36283735598419" lon="8.700080529005604"><ele>455.0</ele><time>2026-04-25T18:41:37Z</time></trkpt><trkpt lat="47.36277296069992" lon="8.700130413000105"><ele>455.0</ele><time>2026-04-25T18:41:38Z</time></trkpt><trkpt lat="47.36270759231448" lon="8.700178990795274"><ele>455.0</ele><time>2026-04-25T18:41:39Z</time></trkpt><trkpt lat="47.36264299719523" lon="8.70023050173623"><ele>455.1428571428571</ele><time>2026-04-25T18:41:40Z</time></trkpt><trkpt lat="47.36258194581909" lon="8.700281025223513"><ele>455.2857142857143</ele><time>2026-04-25T18:41:41Z</time></trkpt><trkpt lat="47.36251459850331" lon="8.700326870105659"><ele>455.42857142857144</ele><time>2026-04-25T18:41:42Z</time></trkpt><trkpt lat="47.36244802689088" lon="8.700373431675452"><ele>455.57142857142856</ele><time>2026-04-25T18:41:43Z</time></trkpt><trkpt lat="47.362381727761516" lon="8.700421230859789"><ele>455.71428571428567</ele><time>2026-04-25T18:41:44Z</time></trkpt><trkpt lat="47.36231857101353" lon="8.700467424686797"><ele>455.85714285714283</ele><time>2026-04-25T18:41:45Z</time></trkpt><trkpt lat="47.36225273524926" lon="8.700519288904673"><ele>456.0</ele><time>2026-04-25T18:41:46Z</time></trkpt><trkpt lat="47.362189200669796" lon="8.70057676510752"><ele>456.0</ele><time>2026-04-25T18:41:47Z</time></trkpt><trkpt lat="47.36211795473126" lon="8.700621904375145"><ele>456.0</ele><time>2026-04-25T18:41:48Z</time></trkpt><trkpt lat="47.36204580825204" lon="8.70067136171839"><ele>456.0</ele><time>2026-04-25T18:41:49Z</time></trkpt><trkpt lat="47.36197237639423" lon="8.700720631546341"><ele>456.0</ele><time>2026-04-25T18:41:50Z</time></trkpt><trkpt lat="47.36190008716004" lon="8.7007709313303"><ele>456.0</ele><time>2026-04-25T18:41:51Z</time></trkpt><trkpt lat="47.36182938255153" lon="8.700830199989165"><ele>456.0</ele><time>2026-04-25T18:41:52Z</time></trkpt><trkpt lat="47.36176111529708" lon="8.70089385956092"><ele>456.0</ele><time>2026-04-25T18:41:53Z</time></trkpt><trkpt lat="47.361693201393656" lon="8.700959190849078"><ele>456.0</ele><time>2026-04-25T18:41:54Z</time></trkpt><trkpt lat="47.361623160041084" lon="8.701026830019513"><ele>456.0</ele><time>2026-04-25T18:41:55Z</time></trkpt><trkpt lat="47.36155299347992" lon="8.701089596155112"><ele>456.0</ele><time>2026-04-25T18:41:56Z</time></trkpt><trkpt lat="47.36148180445994" lon="8.701154674854635"><ele>456.0</ele><time>2026-04-25T18:41:57Z</time></trkpt><trkpt lat="47.361409541995705" lon="8.701219752541776"><ele>456.0</ele><time>2026-04-25T18:41:58Z</time></trkpt><trkpt lat="47.36133974867284" lon="8.701288973591483"><ele>455.8333333333333</ele><time>2026-04-25T18:41:59Z</time></trkpt><trkpt lat="47.36127355649009" lon="8.701358750278946"><ele>455.66666666666663</ele><time>2026-04-25T18:42:00Z</time></trkpt><trkpt lat="47.361204773121074" lon="8.701424240567915"><ele>455.5</ele><time>2026-04-25T18:42:01Z</time></trkpt><trkpt lat="47.36112995507702" lon="8.701490312065205"><ele>455.3333333333333</ele><time>2026-04-25T18:42:02Z</time></trkpt><trkpt lat="47.36106006493283" lon="8.701558621897362"><ele>455.16666666666663</ele><time>2026-04-25T18:42:03Z</time></trkpt><trkpt lat="47.36098901836683" lon="8.70162582211288"><ele>455.0</ele><time>2026-04-25T18:42:04Z</time></trkpt><trkpt lat="47.360919495137445" lon="8.70168994550744"><ele>455.0</ele><time>2026-04-25T18:42:05Z</time></trkpt><trkpt lat="47.36085043622398" lon="8.701757638121608"><ele>455.0</ele><time>2026-04-25T18:42:06Z</time></trkpt><trkpt lat="47.360788751331135" lon="8.701813364781058"><ele>455.0</ele><time>2026-04-25T18:42:07Z</time></trkpt><trkpt lat="47.36073108485246" lon="8.701863062987082"><ele>455.0</ele><time>2026-04-25T18:42:08Z</time></trkpt><trkpt lat="47.3606691746997" lon="8.701918924819292"><ele>455.0</ele><time>2026-04-25T18:42:09Z</time></trkpt><trkpt lat="47.360607974491074" lon="8.701976024407802"><ele>455.0</ele><time>2026-04-25T18:42:10Z</time></trkpt><trkpt lat="47.36054635983519" lon="8.702032257532139"><ele>455.0</ele><time>2026-04-25T18:42:11Z</time></trkpt><trkpt lat="47.360484387023185" lon="8.70208935521577"><ele>454.8</ele><time>2026-04-25T18:42:12Z</time></trkpt><trkpt lat="47.36042473545871" lon="8.702144005377399"><ele>454.6</ele><time>2026-04-25T18:42:13Z</time></trkpt><trkpt lat="47.36037086200114" lon="8.70219747094741"><ele>454.4</ele><time>2026-04-25T18:42:14Z</time></trkpt><trkpt lat="47.36027321555455" lon="8.702303961190529"><ele>454.2</ele><time>2026-04-25T18:42:16Z</time></trkpt><trkpt lat="47.36017950567039" lon="8.702391867282053"><ele>454.0</ele><time>2026-04-25T18:42:18Z</time></trkpt><trkpt lat="47.36009889002156" lon="8.702451155102993"><ele>454.00000000000006</ele><time>2026-04-25T18:42:20Z</time></trkpt><trkpt lat="47.360041068048375" lon="8.702491584571302"><ele>454.0</ele><time>2026-04-25T18:42:22Z</time></trkpt><trkpt lat="47.35998179917783" lon="8.702529171544096"><ele>454.0</ele><time>2026-04-25T18:42:59Z</time></trkpt><trkpt lat="47.359899023828156" lon="8.70254741444939"><ele>454.0</ele><time>2026-04-25T18:43:03Z</time></trkpt><trkpt lat="47.35984098209256" lon="8.702611564332777"><ele>454.00000000000006</ele><time>2026-04-25T18:43:05Z</time></trkpt><trkpt lat="47.35974029724251" lon="8.702701389225417"><ele>454.0</ele><time>2026-04-25T18:43:07Z</time></trkpt><trkpt lat="47.35968618985622" lon="8.70274962553512"><ele>453.83333333333337</ele><time>2026-04-25T18:43:08Z</time></trkpt><trkpt lat="47.359625551398075" lon="8.702792953031596"><ele>453.6666666666667</ele><time>2026-04-25T18:43:09Z</time></trkpt><trkpt lat="47.35957439344742" lon="8.702870312496712"><ele>453.5</ele><time>2026-04-25T18:43:10Z</time></trkpt><trkpt lat="47.359516667693676" lon="8.702942413870753"><ele>453.33333333333337</ele><time>2026-04-25T18:43:11Z</time></trkpt><trkpt lat="47.35945175371778" lon="8.703004273055885"><ele>453.1666666666667</ele><time>2026-04-25T18:43:12Z</time></trkpt><trkpt lat="47.35938793584975" lon="8.70306970164094"><ele>453.0</ele><time>2026-04-25T18:43:13Z</time></trkpt><trkpt lat="47.359323138892876" lon="8.703140331215483"><ele>453.0</ele><time>2026-04-25T18:43:14Z</time></trkpt><trkpt lat="47.35925885344405" lon="8.703205871702082"><ele>453.0</ele><time>2026-04-25T18:43:15Z</time></trkpt><trkpt lat="47.35918949317523" lon="8.703260795460073"><ele>453.0</ele><time>2026-04-25T18:43:16Z</time></trkpt><trkpt lat="47.35912095485936" lon="8.70332626502731"><ele>453.0</ele><time>2026-04-25T18:43:17Z</time></trkpt><trkpt lat="47.35905421047317" lon="8.703389593094258"><ele>453.0</ele><time>2026-04-25T18:43:18Z</time></trkpt><trkpt lat="47.358988028186126" lon="8.703451658923978"><ele>453.0</ele><time>2026-04-25T18:43:19Z</time></trkpt><trkpt lat="47.3589195598986" lon="8.703513517148965"><ele>453.0</ele><time>2026-04-25T18:43:20Z</time></trkpt><trkpt lat="47.358849814847545" lon="8.703572289280649"><ele>453.0</ele><time>2026-04-25T18:43:21Z</time></trkpt><trkpt lat="47.358781917671486" lon="8.70363413563179"><ele>453.0</ele><time>2026-04-25T18:43:22Z</time></trkpt><trkpt lat="47.35871494187991" lon="8.703695929317567"><ele>453.0</ele><time>2026-04-25T18:43:23Z</time></trkpt><trkpt lat="47.35864689258258" lon="8.703757054207978"><ele>453.0</ele><time>2026-04-25T18:43:24Z</time></trkpt><trkpt lat="47.35857976302922" lon="8.703820495507593"><ele>453.0</ele><time>2026-04-25T18:43:25Z</time></trkpt><trkpt lat="47.358512292152845" lon="8.703883432926707"><ele>453.0</ele><time>2026-04-25T18:43:26Z</time></trkpt><trkpt lat="47.35844590599112" lon="8.703950218204659"><ele>453.0</ele><time>2026-04-25T18:43:27Z</time></trkpt><trkpt lat="47.358380212802004" lon="8.704015163940863"><ele>453.0</ele><time>2026-04-25T18:43:28Z</time></trkpt><trkpt lat="47.35831365549221" lon="8.704078985463985"><ele>453.0</ele><time>2026-04-25T18:43:29Z</time></trkpt><trkpt lat="47.35825067024058" lon="8.704143731062063"><ele>453.0</ele><time>2026-04-25T18:43:30Z</time></trkpt><trkpt lat="47.3581800729211" lon="8.704210755414547"><ele>453.0</ele><time>2026-04-25T18:43:31Z</time></trkpt><trkpt lat="47.35811037902857" lon="8.704266998258122"><ele>453.0</ele><time>2026-04-25T18:43:32Z</time></trkpt><trkpt lat="47.35803902045182" lon="8.704325569078902"><ele>453.0</ele><time>2026-04-25T18:43:33Z</time></trkpt><trkpt lat="47.35797082989288" lon="8.704385772000434"><ele>453.0</ele><time>2026-04-25T18:43:34Z</time></trkpt><trkpt lat="47.357901074451796" lon="8.704449222653627"><ele>453.0</ele><time>2026-04-25T18:43:35Z</time></trkpt><trkpt lat="47.35783616561578" lon="8.704497894685653"><ele>453.0</ele><time>2026-04-25T18:43:36Z</time></trkpt><trkpt lat="47.35774648266251" lon="8.704577476876498"><ele>453.0</ele><time>2026-04-25T18:43:38Z</time></trkpt><trkpt lat="47.35767445169131" lon="8.704639783499053"><ele>453.3333333333333</ele><time>2026-04-25T18:43:40Z</time></trkpt><trkpt lat="47.357587492190135" lon="8.70471414167748"><ele>453.66666666666663</ele><time>2026-04-25T18:43:42Z</time></trkpt><trkpt lat="47.35748498159563" lon="8.704803527437425"><ele>454.0</ele><time>2026-04-25T18:43:44Z</time></trkpt><trkpt lat="47.3574238596758" lon="8.70485456461092"><ele>454.3333333333333</ele><time>2026-04-25T18:43:45Z</time></trkpt><trkpt lat="47.35735995118117" lon="8.704890653234958"><ele>454.66666666666663</ele><time>2026-04-25T18:43:46Z</time></trkpt><trkpt lat="47.35730188867154" lon="8.704956206655607"><ele>455.0</ele><time>2026-04-25T18:43:47Z</time></trkpt><trkpt lat="47.35723606577137" lon="8.705004487650163"><ele>455.16666666666663</ele><time>2026-04-25T18:43:48Z</time></trkpt><trkpt lat="47.35716753473554" lon="8.70505389412535"><ele>455.3333333333333</ele><time>2026-04-25T18:43:49Z</time></trkpt><trkpt lat="47.35709974714296" lon="8.70510386340676"><ele>455.5</ele><time>2026-04-25T18:43:50Z</time></trkpt><trkpt lat="47.357031842542426" lon="8.705154961764565"><ele>455.66666666666663</ele><time>2026-04-25T18:43:51Z</time></trkpt><trkpt lat="47.35696235624159" lon="8.70520536243599"><ele>455.8333333333333</ele><time>2026-04-25T18:43:52Z</time></trkpt><trkpt lat="47.35689482082478" lon="8.70525667395502"><ele>456.0</ele><time>2026-04-25T18:43:53Z</time></trkpt><trkpt lat="47.35682631335841" lon="8.705312454720175"><ele>456.0</ele><time>2026-04-25T18:43:54Z</time></trkpt><trkpt lat="47.356758026482424" lon="8.705367909535932"><ele>456.0</ele><time>2026-04-25T18:43:55Z</time></trkpt><trkpt lat="47.35668924270731" lon="8.70542131886505"><ele>456.0</ele><time>2026-04-25T18:43:56Z</time></trkpt><trkpt lat="47.35661780167977" lon="8.705467743706272"><ele>456.0</ele><time>2026-04-25T18:43:57Z</time></trkpt><trkpt lat="47.35654729315236" lon="8.705514851915646"><ele>456.0</ele><time>2026-04-25T18:43:58Z</time></trkpt><trkpt lat="47.35647717562424" lon="8.705565812311493"><ele>456.0</ele><time>2026-04-25T18:43:59Z</time></trkpt><trkpt lat="47.35640778988292" lon="8.705614822621014"><ele>456.1666666666667</ele><time>2026-04-25T18:44:00Z</time></trkpt><trkpt lat="47.3563384260058" lon="8.705667514078362"><ele>456.33333333333337</ele><time>2026-04-25T18:44:01Z</time></trkpt><trkpt lat="47.356267210322194" lon="8.705722711599588"><ele>456.5</ele><time>2026-04-25T18:44:02Z</time></trkpt><trkpt lat="47.356199865117894" lon="8.705774478256059"><ele>456.6666666666667</ele><time>2026-04-25T18:44:03Z</time></trkpt><trkpt lat="47.35613007861648" lon="8.705826672932913"><ele>456.83333333333337</ele><time>2026-04-25T18:44:04Z</time></trkpt><trkpt lat="47.35606015268058" lon="8.705879415617652"><ele>457.0</ele><time>2026-04-25T18:44:05Z</time></trkpt><trkpt lat="47.35598969681305" lon="8.705930011791564"><ele>457.00000000000006</ele><time>2026-04-25T18:44:06Z</time></trkpt><trkpt lat="47.35592024482619" lon="8.705982794108047"><ele>457.0</ele><time>2026-04-25T18:44:07Z</time></trkpt><trkpt lat="47.355848868215084" lon="8.706031886582403"><ele>457.0</ele><time>2026-04-25T18:44:08Z</time></trkpt><trkpt lat="47.35577740405308" lon="8.706078051436329"><ele>457.0</ele><time>2026-04-25T18:44:09Z</time></trkpt><trkpt lat="47.355706497335746" lon="8.7061248985087"><ele>457.00000000000006</ele><time>2026-04-25T18:44:10Z</time></trkpt><trkpt lat="47.355636267263215" lon="8.706177236977481"><ele>457.0</ele><time>2026-04-25T18:44:11Z</time></trkpt><trkpt lat="47.355567397145585" lon="8.70622994328233"><ele>457.00000000000006</ele><time>2026-04-25T18:44:12Z</time></trkpt><trkpt lat="47.35549396769655" lon="8.706274247218449"><ele>457.0</ele><time>2026-04-25T18:44:13Z</time></trkpt><trkpt lat="47.35542357862749" lon="8.706319576271706"><ele>457.0</ele><time>2026-04-25T18:44:14Z</time></trkpt><trkpt lat="47.35535024128755" lon="8.706367234697792"><ele>457.0</ele><time>2026-04-25T18:44:15Z</time></trkpt><trkpt lat="47.35527800392146" lon="8.706412868281735"><ele>457.00000000000006</ele><time>2026-04-25T18:44:16Z</time></trkpt><trkpt lat="47.35521543336368" lon="8.706481517071945"><ele>457.0</ele><time>2026-04-25T18:44:17Z</time></trkpt><trkpt lat="47.355143865964145" lon="8.706533861959683"><ele>457.00000000000006</ele><time>2026-04-25T18:44:18Z</time></trkpt><trkpt lat="47.35507436435095" lon="8.706584695921377"><ele>457.0</ele><time>2026-04-25T18:44:19Z</time></trkpt><trkpt lat="47.355002475400795" lon="8.706637427615044"><ele>457.0</ele><time>2026-04-25T18:44:20Z</time></trkpt><trkpt lat="47.35493139063936" lon="8.706690086090331"><ele>457.0</ele><time>2026-04-25T18:44:21Z</time></trkpt><trkpt lat="47.35486046268939" lon="8.706742631533892"><ele>457.00000000000006</ele><time>2026-04-25T18:44:22Z</time></trkpt><trkpt lat="47.354789139002044" lon="8.706795470141827"><ele>457.0</ele><time>2026-04-25T18:44:23Z</time></trkpt><trkpt lat="47.35471828461111" lon="8.706847562779396"><ele>456.83333333333337</ele><time>2026-04-25T18:44:24Z</time></trkpt><trkpt lat="47.35464613996818" lon="8.70690039522785"><ele>456.6666666666667</ele><time>2026-04-25T18:44:25Z</time></trkpt><trkpt lat="47.354573555705684" lon="8.706953549607022"><ele>456.5</ele><time>2026-04-25T18:44:26Z</time></trkpt><trkpt lat="47.354501874818936" lon="8.707005236999825"><ele>456.33333333333337</ele><time>2026-04-25T18:44:27Z</time></trkpt><trkpt lat="47.354428829309335" lon="8.707056059308405"><ele>456.1666666666667</ele><time>2026-04-25T18:44:28Z</time></trkpt><trkpt lat="47.35435711408425" lon="8.707106317670467"><ele>456.0</ele><time>2026-04-25T18:44:29Z</time></trkpt><trkpt lat="47.354286032880985" lon="8.707158751388661"><ele>456.3333333333333</ele><time>2026-04-25T18:44:30Z</time></trkpt><trkpt lat="47.354214972240946" lon="8.707214767077474"><ele>456.66666666666663</ele><time>2026-04-25T18:44:31Z</time></trkpt><trkpt lat="47.35414463345588" lon="8.707269863528841"><ele>457.0</ele><time>2026-04-25T18:44:32Z</time></trkpt><trkpt lat="47.35407495061208" lon="8.707324773850058"><ele>457.3333333333333</ele><time>2026-04-25T18:44:33Z</time></trkpt><trkpt lat="47.35400390127614" lon="8.70738259389552"><ele>457.66666666666663</ele><time>2026-04-25T18:44:34Z</time></trkpt><trkpt lat="47.35393248026668" lon="8.707442083938457"><ele>458.0</ele><time>2026-04-25T18:44:35Z</time></trkpt><trkpt lat="47.353859314450915" lon="8.707494531381384"><ele>457.99999999999994</ele><time>2026-04-25T18:44:36Z</time></trkpt><trkpt lat="47.3537803408033" lon="8.707542062773483"><ele>458.0</ele><time>2026-04-25T18:44:37Z</time></trkpt><trkpt lat="47.353704661538906" lon="8.707583342681433"><ele>458.0</ele><time>2026-04-25T18:44:38Z</time></trkpt><trkpt lat="47.353613484717954" lon="8.707566123309846"><ele>458.0</ele><time>2026-04-25T18:44:39Z</time></trkpt><trkpt lat="47.35355289995612" lon="8.707657607546572"><ele>457.99999999999994</ele><time>2026-04-25T18:44:40Z</time></trkpt><trkpt lat="47.35347862289923" lon="8.707700969871814"><ele>458.0</ele><time>2026-04-25T18:44:41Z</time></trkpt><trkpt lat="47.35340264877329" lon="8.707745322977638"><ele>457.99999999999994</ele><time>2026-04-25T18:44:42Z</time></trkpt><trkpt lat="47.353331912583776" lon="8.707786618171566"><ele>458.0</ele><time>2026-04-25T18:44:43Z</time></trkpt><trkpt lat="47.35323119951655" lon="8.707845413654356"><ele>458.0</ele><time>2026-04-25T18:44:45Z</time></trkpt><trkpt lat="47.35317186561031" lon="8.707769629352107"><ele>458.0</ele><time>2026-04-25T18:44:46Z</time></trkpt><trkpt lat="47.3530959013587" lon="8.707721467104621"><ele>457.99999999999994</ele><time>2026-04-25T18:44:48Z</time></trkpt><trkpt lat="47.35302589110699" lon="8.707792778103574"><ele>458.0</ele><time>2026-04-25T18:45:01Z</time></trkpt><trkpt lat="47.3529621339245" lon="8.70784616683569"><ele>457.99999999999994</ele><time>2026-04-25T18:45:04Z</time></trkpt><trkpt lat="47.352967503140064" lon="8.707983072147163"><ele>458.0</ele><time>2026-04-25T18:45:06Z</time></trkpt><trkpt lat="47.35288060273559" lon="8.708112132525207"><ele>458.0</ele><time>2026-04-25T18:45:08Z</time></trkpt><trkpt lat="47.3528105453834" lon="8.708130035557218"><ele>458.0</ele><time>2026-04-25T18:45:09Z</time></trkpt><trkpt lat="47.352744722563095" lon="8.708158800338285"><ele>457.99999999999994</ele><time>2026-04-25T18:45:10Z</time></trkpt><trkpt lat="47.352671500225625" lon="8.708200388991967"><ele>458.0</ele><time>2026-04-25T18:45:11Z</time></trkpt><trkpt lat="47.35260136863948" lon="8.708235472012673"><ele>457.99999999999994</ele><time>2026-04-25T18:45:12Z</time></trkpt><trkpt lat="47.35253197836006" lon="8.708276926942503"><ele>458.0</ele><time>2026-04-25T18:45:13Z</time></trkpt><trkpt lat="47.352460744396325" lon="8.708316389847093"><ele>458.0</ele><time>2026-04-25T18:45:14Z</time></trkpt><trkpt lat="47.35238808095088" lon="8.708358663566049"><ele>458.0</ele><time>2026-04-25T18:45:15Z</time></trkpt><trkpt lat="47.352314430565556" lon="8.7083998368392"><ele>457.99999999999994</ele><time>2026-04-25T18:45:16Z</time></trkpt><trkpt lat="47.35224072444404" lon="8.708442981948563"><ele>458.0</ele><time>2026-04-25T18:45:17Z</time></trkpt><trkpt lat="47.352166498301564" lon="8.708486987034522"><ele>457.99999999999994</ele><time>2026-04-25T18:45:18Z</time></trkpt><trkpt lat="47.35209359638961" lon="8.708536859455949"><ele>458.0</ele><time>2026-04-25T18:45:19Z</time></trkpt><trkpt lat="47.352021732702774" lon="8.708590550347704"><ele>458.0</ele><time>2026-04-25T18:45:20Z</time></trkpt><trkpt lat="47.351950776639434" lon="8.70864622721734"><ele>458.0</ele><time>2026-04-25T18:45:21Z</time></trkpt><trkpt lat="47.35188058651261" lon="8.708707866444945"><ele>457.99999999999994</ele><time>2026-04-25T18:45:22Z</time></trkpt><trkpt lat="47.35180999129911" lon="8.708766053462549"><ele>458.0</ele><time>2026-04-25T18:45:23Z</time></trkpt><trkpt lat="47.35174129163156" lon="8.708830874003054"><ele>457.99999999999994</ele><time>2026-04-25T18:45:24Z</time></trkpt><trkpt lat="47.35167526931421" lon="8.708899591126487"><ele>458.0</ele><time>2026-04-25T18:45:25Z</time></trkpt><trkpt lat="47.35160596163405" lon="8.708968496724863"><ele>458.0</ele><time>2026-04-25T18:45:26Z</time></trkpt><trkpt lat="47.35154014190043" lon="8.709041439460593"><ele>458.0</ele><time>2026-04-25T18:45:27Z</time></trkpt><trkpt lat="47.35147652767918" lon="8.709115679922355"><ele>457.99999999999994</ele><time>2026-04-25T18:45:28Z</time></trkpt><trkpt lat="47.35141401639049" lon="8.709194195106129"><ele>458.0</ele><time>2026-04-25T18:45:29Z</time></trkpt><trkpt lat="47.351351971376616" lon="8.709272962255666"><ele>457.8333333333333</ele><time>2026-04-25T18:45:30Z</time></trkpt><trkpt lat="47.35129068730738" lon="8.709357054255689"><ele>457.66666666666663</ele><time>2026-04-25T18:45:31Z</time></trkpt><trkpt lat="47.35123084855117" lon="8.70944176918715"><ele>457.5</ele><time>2026-04-25T18:45:32Z</time></trkpt><trkpt lat="47.35117230668515" lon="8.709530434848224"><ele>457.33333333333337</ele><time>2026-04-25T18:45:33Z</time></trkpt><trkpt lat="47.35111241319365" lon="8.709618875526756"><ele>457.1666666666667</ele><time>2026-04-25T18:45:34Z</time></trkpt><trkpt lat="47.35105506332695" lon="8.709706821909906"><ele>457.0</ele><time>2026-04-25T18:45:35Z</time></trkpt><trkpt lat="47.350997186484975" lon="8.709794640062363"><ele>457.1666666666667</ele><time>2026-04-25T18:45:36Z</time></trkpt><trkpt lat="47.35094028472874" lon="8.709884250825938"><ele>457.33333333333337</ele><time>2026-04-25T18:45:37Z</time></trkpt><trkpt lat="47.35088162154562" lon="8.709976954636634"><ele>457.5</ele><time>2026-04-25T18:45:38Z</time></trkpt><trkpt lat="47.35082866748865" lon="8.710069363874435"><ele>457.66666666666663</ele><time>2026-04-25T18:45:39Z</time></trkpt><trkpt lat="47.35077850477651" lon="8.710162413309328"><ele>457.8333333333333</ele><time>2026-04-25T18:45:40Z</time></trkpt><trkpt lat="47.35072785540362" lon="8.710259351141552"><ele>458.0</ele><time>2026-04-25T18:45:41Z</time></trkpt><trkpt lat="47.35067825802517" lon="8.710355753982927"><ele>457.99999999999994</ele><time>2026-04-25T18:45:42Z</time></trkpt><trkpt lat="47.35062990272776" lon="8.710450087442938"><ele>458.0</ele><time>2026-04-25T18:45:43Z</time></trkpt><trkpt lat="47.350578458916566" lon="8.710542853270274"><ele>458.0</ele><time>2026-04-25T18:45:44Z</time></trkpt><trkpt lat="47.35053048998071" lon="8.710636924364303"><ele>458.0</ele><time>2026-04-25T18:45:45Z</time></trkpt><trkpt lat="47.35047965758889" lon="8.710733650401826"><ele>457.99999999999994</ele><time>2026-04-25T18:45:46Z</time></trkpt><trkpt lat="47.35043192365021" lon="8.710830038357996"><ele>458.0</ele><time>2026-04-25T18:45:47Z</time></trkpt><trkpt lat="47.350387779340664" lon="8.710928900468817"><ele>457.99999999999994</ele><time>2026-04-25T18:45:48Z</time></trkpt><trkpt lat="47.35034780898284" lon="8.711027953263669"><ele>458.0</ele><time>2026-04-25T18:45:49Z</time></trkpt><trkpt lat="47.3503070655219" lon="8.711132884467725"><ele>458.0</ele><time>2026-04-25T18:45:50Z</time></trkpt><trkpt lat="47.35026846908011" lon="8.711235244316512"><ele>458.0</ele><time>2026-04-25T18:45:51Z</time></trkpt><trkpt lat="47.35023226872001" lon="8.711342167403474"><ele>457.99999999999994</ele><time>2026-04-25T18:45:52Z</time></trkpt><trkpt lat="47.35019816650454" lon="8.711449249828936"><ele>458.0</ele><time>2026-04-25T18:45:53Z</time></trkpt><trkpt lat="47.35016457014525" lon="8.711559005433813"><ele>457.99999999999994</ele><time>2026-04-25T18:45:54Z</time></trkpt><trkpt lat="47.350140903557595" lon="8.711665157795606"><ele>458.0</ele><time>2026-04-25T18:45:55Z</time></trkpt><trkpt lat="47.35012023978078" lon="8.711771421923707"><ele>458.0</ele><time>2026-04-25T18:45:56Z</time></trkpt><trkpt lat="47.350100207745335" lon="8.711876446891747"><ele>458.0</ele><time>2026-04-25T18:45:57Z</time></trkpt><trkpt lat="47.35008750877461" lon="8.71197398454851"><ele>457.99999999999994</ele><time>2026-04-25T18:45:58Z</time></trkpt><trkpt lat="47.35006569928397" lon="8.712068822794672"><ele>458.0</ele><time>2026-04-25T18:45:59Z</time></trkpt><trkpt lat="47.35001750043836" lon="8.71223221640644"><ele>458.16666666666663</ele><time>2026-04-25T18:46:01Z</time></trkpt><trkpt lat="47.3499539641842" lon="8.712364616065297"><ele>458.3333333333333</ele><time>2026-04-25T18:46:03Z</time></trkpt><trkpt lat="47.349945345449996" lon="8.712468299534825"><ele>458.5</ele><time>2026-04-25T18:46:04Z</time></trkpt><trkpt lat="47.34994669120299" lon="8.71256712058868"><ele>458.66666666666663</ele><time>2026-04-25T18:46:05Z</time></trkpt><trkpt lat="47.34994045795382" lon="8.71266737690505"><ele>458.8333333333333</ele><time>2026-04-25T18:46:06Z</time></trkpt><trkpt lat="47.34992860069403" lon="8.712768291501895"><ele>459.0</ele><time>2026-04-25T18:46:07Z</time></trkpt><trkpt lat="47.34991001991126" lon="8.712870972703923"><ele>459.14285714285717</ele><time>2026-04-25T18:46:08Z</time></trkpt><trkpt lat="47.34989156879654" lon="8.712973863621635"><ele>459.2857142857142</ele><time>2026-04-25T18:46:09Z</time></trkpt><trkpt lat="47.349869951771986" lon="8.713078487907307"><ele>459.4285714285714</ele><time>2026-04-25T18:46:10Z</time></trkpt><trkpt lat="47.34985443028548" lon="8.713184232076545"><ele>459.57142857142856</ele><time>2026-04-25T18:46:11Z</time></trkpt><trkpt lat="47.34983763312563" lon="8.71329072852229"><ele>459.71428571428567</ele><time>2026-04-25T18:46:12Z</time></trkpt><trkpt lat="47.34982039774232" lon="8.713398105836434"><ele>459.8571428571428</ele><time>2026-04-25T18:46:13Z</time></trkpt><trkpt lat="47.34980308111395" lon="8.713503866654895"><ele>459.99999999999994</ele><time>2026-04-25T18:46:14Z</time></trkpt><trkpt lat="47.34978474336912" lon="8.713611408913286"><ele>460.00000000000006</ele><time>2026-04-25T18:46:15Z</time></trkpt><trkpt lat="47.34976617400432" lon="8.713720969949097"><ele>460.0</ele><time>2026-04-25T18:46:16Z</time></trkpt><trkpt lat="47.3497473286581" lon="8.713829020426784"><ele>460.0</ele><time>2026-04-25T18:46:17Z</time></trkpt><trkpt lat="47.34972866947243" lon="8.713935880992029"><ele>460.0</ele><time>2026-04-25T18:46:18Z</time></trkpt><trkpt lat="47.34970805250701" lon="8.714043116954702"><ele>460.00000000000006</ele><time>2026-04-25T18:46:19Z</time></trkpt><trkpt lat="47.34968524913333" lon="8.714149284833649"><ele>460.0</ele><time>2026-04-25T18:46:20Z</time></trkpt><trkpt lat="47.349662341228225" lon="8.7142549793804"><ele>459.99999999999994</ele><time>2026-04-25T18:46:21Z</time></trkpt><trkpt lat="47.34963976450954" lon="8.71436564208174"><ele>460.0</ele><time>2026-04-25T18:46:22Z</time></trkpt><trkpt lat="47.349616517631404" lon="8.714468721044083"><ele>459.99999999999994</ele><time>2026-04-25T18:46:23Z</time></trkpt><trkpt lat="47.349591302353566" lon="8.714575621992434"><ele>459.99999999999994</ele><time>2026-04-25T18:46:24Z</time></trkpt><trkpt lat="47.34957061637863" lon="8.714675092636481"><ele>460.0</ele><time>2026-04-25T18:46:25Z</time></trkpt><trkpt lat="47.349551165948114" lon="8.714768625254491"><ele>459.99999999999994</ele><time>2026-04-25T18:46:26Z</time></trkpt><trkpt lat="47.349529287155846" lon="8.714859575847703"><ele>459.99999999999994</ele><time>2026-04-25T18:46:27Z</time></trkpt><trkpt lat="47.3494888305504" lon="8.715034325470869"><ele>460.50000000000006</ele><time>2026-04-25T18:46:29Z</time></trkpt><trkpt lat="47.34946618487531" lon="8.715126875105257"><ele>461.0</ele><time>2026-04-25T18:46:30Z</time></trkpt><trkpt lat="47.34944027272262" lon="8.715215205476179"><ele>461.5</ele><time>2026-04-25T18:46:31Z</time></trkpt><trkpt lat="47.34939912176362" lon="8.715375879620574"><ele>462.0</ele><time>2026-04-25T18:46:33Z</time></trkpt><trkpt lat="47.34936457653646" lon="8.715518844256849"><ele>462.50000000000006</ele><time>2026-04-25T18:46:35Z</time></trkpt><trkpt lat="47.34933647656129" lon="8.715633471964424"><ele>463.0</ele><time>2026-04-25T18:46:37Z</time></trkpt><trkpt lat="47.34931493758303" lon="8.715733610486849"><ele>463.0</ele><time>2026-04-25T18:46:40Z</time></trkpt><trkpt lat="47.34929603150314" lon="8.715824194980271"><ele>462.99999999999994</ele><time>2026-04-25T18:46:43Z</time></trkpt><trkpt lat="47.34925918433724" lon="8.715924004336014"><ele>462.99999999999994</ele><time>2026-04-25T18:46:45Z</time></trkpt><trkpt lat="47.34918991604774" lon="8.716058600135646"><ele>463.0</ele><time>2026-04-25T18:46:47Z</time></trkpt><trkpt lat="47.34912525505838" lon="8.716223797632429"><ele>463.0</ele><time>2026-04-25T18:46:49Z</time></trkpt><trkpt lat="47.34908883366911" lon="8.716316228644937"><ele>463.00000000000006</ele><time>2026-04-25T18:46:50Z</time></trkpt><trkpt lat="47.34901332196991" lon="8.716449816965984"><ele>463.0</ele><time>2026-04-25T18:46:52Z</time></trkpt><trkpt lat="47.348935297807685" lon="8.716510089553415"><ele>463.0</ele><time>2026-04-25T18:46:54Z</time></trkpt><trkpt lat="47.34883222277822" lon="8.716548549392"><ele>463.0</ele><time>2026-04-25T18:46:56Z</time></trkpt><trkpt lat="47.3487930906435" lon="8.716623051831697"><ele>463.00000000000006</ele><time>2026-04-25T18:46:57Z</time></trkpt><trkpt lat="47.348773493336466" lon="8.71672038052645"><ele>463.0</ele><time>2026-04-25T18:46:58Z</time></trkpt><trkpt lat="47.34876325075555" lon="8.716825502588629"><ele>463.2857142857143</ele><time>2026-04-25T18:46:59Z</time></trkpt><trkpt lat="47.34873716014073" lon="8.716925597238596"><ele>463.57142857142856</ele><time>2026-04-25T18:47:00Z</time></trkpt><trkpt lat="47.34869447926951" lon="8.71701567493175"><ele>463.85714285714283</ele><time>2026-04-25T18:47:01Z</time></trkpt><trkpt lat="47.34864809146502" lon="8.717102765834964"><ele>464.1428571428571</ele><time>2026-04-25T18:47:02Z</time></trkpt><trkpt lat="47.34860004909562" lon="8.717188651387858"><ele>464.42857142857144</ele><time>2026-04-25T18:47:03Z</time></trkpt><trkpt lat="47.34855415973792" lon="8.717274419431963"><ele>464.71428571428567</ele><time>2026-04-25T18:47:04Z</time></trkpt><trkpt lat="47.348507134750996" lon="8.717359815899403"><ele>465.0</ele><time>2026-04-25T18:47:05Z</time></trkpt><trkpt lat="47.34846371632693" lon="8.717438142098269"><ele>465.0</ele><time>2026-04-25T18:47:06Z</time></trkpt><trkpt lat="47.348398164993824" lon="8.717564035874625"><ele>465.0</ele><time>2026-04-25T18:47:08Z</time></trkpt><trkpt lat="47.34834778858634" lon="8.717662240091181"><ele>465.0</ele><time>2026-04-25T18:47:10Z</time></trkpt><trkpt lat="47.348298348968704" lon="8.717765515772642"><ele>465.0</ele><time>2026-04-25T18:47:13Z</time></trkpt><trkpt lat="47.34822058052448" lon="8.71784524218067"><ele>465.0</ele><time>2026-04-25T18:47:16Z</time></trkpt><trkpt lat="47.348140655332045" lon="8.717981921493992"><ele>465.0</ele><time>2026-04-25T18:47:18Z</time></trkpt><trkpt lat="47.34805369218566" lon="8.718091566742222"><ele>465.0</ele><time>2026-04-25T18:47:20Z</time></trkpt><trkpt lat="47.347998194818544" lon="8.718251308063445"><ele>465.0</ele><time>2026-04-25T18:47:22Z</time></trkpt><trkpt lat="47.347995602920186" lon="8.718349241088866"><ele>465.0</ele><time>2026-04-25T18:47:23Z</time></trkpt><trkpt lat="47.34798357713793" lon="8.718444148160964"><ele>465.0</ele><time>2026-04-25T18:47:24Z</time></trkpt><trkpt lat="47.34794005814369" lon="8.718593627137528"><ele>465.0</ele><time>2026-04-25T18:47:26Z</time></trkpt><trkpt lat="47.34789458492335" lon="8.718738737681324"><ele>465.0</ele><time>2026-04-25T18:47:28Z</time></trkpt><trkpt lat="47.347860136945954" lon="8.718856568339605"><ele>465.0</ele><time>2026-04-25T18:47:30Z</time></trkpt><trkpt lat="47.3478270107875" lon="8.718944025133577"><ele>465.0</ele><time>2026-04-25T18:47:33Z</time></trkpt><trkpt lat="47.34779806330372" lon="8.71906311237"><ele>465.0</ele><time>2026-04-25T18:47:43Z</time></trkpt><trkpt lat="47.34777720324486" lon="8.719171794476532"><ele>465.0</ele><time>2026-04-25T18:47:45Z</time></trkpt><trkpt lat="47.3477538368582" lon="8.719320096206733"><ele>465.3333333333333</ele><time>2026-04-25T18:47:47Z</time></trkpt><trkpt lat="47.34774782579211" lon="8.719503308734344"><ele>465.66666666666663</ele><time>2026-04-25T18:47:49Z</time></trkpt><trkpt lat="47.34774169430689" lon="8.719602747254457"><ele>466.0</ele><time>2026-04-25T18:47:50Z</time></trkpt><trkpt lat="47.34772687685255" lon="8.719704177227134"><ele>466.3333333333333</ele><time>2026-04-25T18:47:51Z</time></trkpt><trkpt lat="47.34771152451206" lon="8.719811831019692"><ele>466.66666666666663</ele><time>2026-04-25T18:47:52Z</time></trkpt><trkpt lat="47.347693756975374" lon="8.719920559020206"><ele>467.0</ele><time>2026-04-25T18:47:53Z</time></trkpt><trkpt lat="47.34767141106592" lon="8.720028598038269"><ele>466.99999999999994</ele><time>2026-04-25T18:47:54Z</time></trkpt><trkpt lat="47.34764645149736" lon="8.720131333283673"><ele>467.0</ele><time>2026-04-25T18:47:55Z</time></trkpt><trkpt lat="47.34761680754312" lon="8.720232597873371"><ele>467.0</ele><time>2026-04-25T18:47:56Z</time></trkpt><trkpt lat="47.34758713798156" lon="8.72034226442889"><ele>467.0</ele><time>2026-04-25T18:47:57Z</time></trkpt><trkpt lat="47.34755301036654" lon="8.720452569216542"><ele>466.99999999999994</ele><time>2026-04-25T18:47:58Z</time></trkpt><trkpt lat="47.34752132886353" lon="8.720558509698161"><ele>467.0</ele><time>2026-04-25T18:47:59Z</time></trkpt><trkpt lat="47.34748942689838" lon="8.720666332475517"><ele>467.16666666666663</ele><time>2026-04-25T18:48:00Z</time></trkpt><trkpt lat="47.34745794675747" lon="8.720774216789248"><ele>467.3333333333333</ele><time>2026-04-25T18:48:01Z</time></trkpt><trkpt lat="47.34742574920143" lon="8.72088413173704"><ele>467.5</ele><time>2026-04-25T18:48:02Z</time></trkpt><trkpt lat="47.34739252422843" lon="8.720991060170226"><ele>467.66666666666663</ele><time>2026-04-25T18:48:03Z</time></trkpt><trkpt lat="47.34736046967665" lon="8.721100252184968"><ele>467.8333333333333</ele><time>2026-04-25T18:48:04Z</time></trkpt><trkpt lat="47.34732992938144" lon="8.721209254375495"><ele>468.0</ele><time>2026-04-25T18:48:05Z</time></trkpt><trkpt lat="47.347298712325845" lon="8.721318007229275"><ele>468.0</ele><time>2026-04-25T18:48:06Z</time></trkpt><trkpt lat="47.34726565947522" lon="8.721425416959951"><ele>468.0</ele><time>2026-04-25T18:48:07Z</time></trkpt><trkpt lat="47.34723649166159" lon="8.721533714058053"><ele>468.0</ele><time>2026-04-25T18:48:08Z</time></trkpt><trkpt lat="47.34720369536566" lon="8.721643348173844"><ele>468.0</ele><time>2026-04-25T18:48:09Z</time></trkpt><trkpt lat="47.34717180817927" lon="8.721754205796303"><ele>468.0</ele><time>2026-04-25T18:48:10Z</time></trkpt><trkpt lat="47.34714006970252" lon="8.721856948174493"><ele>468.0</ele><time>2026-04-25T18:48:11Z</time></trkpt><trkpt lat="47.34710443198886" lon="8.72196557899714"><ele>468.1666666666667</ele><time>2026-04-25T18:48:12Z</time></trkpt><trkpt lat="47.34707560722923" lon="8.722074694361538"><ele>468.33333333333337</ele><time>2026-04-25T18:48:13Z</time></trkpt><trkpt lat="47.34704582682712" lon="8.722182245544081"><ele>468.5</ele><time>2026-04-25T18:48:14Z</time></trkpt><trkpt lat="47.34701570508944" lon="8.722290157573942"><ele>468.6666666666667</ele><time>2026-04-25T18:48:15Z</time></trkpt><trkpt lat="47.346989051233514" lon="8.722399350180384"><ele>468.83333333333337</ele><time>2026-04-25T18:48:16Z</time></trkpt><trkpt lat="47.34695924041632" lon="8.722508443242662"><ele>469.0</ele><time>2026-04-25T18:48:17Z</time></trkpt><trkpt lat="47.34693280396061" lon="8.722617865446752"><ele>469.00000000000006</ele><time>2026-04-25T18:48:18Z</time></trkpt><trkpt lat="47.34690703069582" lon="8.722730003038254"><ele>469.0</ele><time>2026-04-25T18:48:19Z</time></trkpt><trkpt lat="47.346879760852126" lon="8.72283893562375"><ele>469.0</ele><time>2026-04-25T18:48:20Z</time></trkpt><trkpt lat="47.346853038459145" lon="8.72295058656564"><ele>469.0</ele><time>2026-04-25T18:48:21Z</time></trkpt><trkpt lat="47.346826878158694" lon="8.723060818996455"><ele>469.00000000000006</ele><time>2026-04-25T18:48:22Z</time></trkpt><trkpt lat="47.34680027652701" lon="8.72317124470461"><ele>469.0</ele><time>2026-04-25T18:48:23Z</time></trkpt><trkpt lat="47.346772829902385" lon="8.723283147452447"><ele>469.00000000000006</ele><time>2026-04-25T18:48:24Z</time></trkpt><trkpt lat="47.34674530303878" lon="8.723397845065108"><ele>469.0</ele><time>2026-04-25T18:48:25Z</time></trkpt><trkpt lat="47.346726061571225" lon="8.723509963541295"><ele>469.0</ele><time>2026-04-25T18:48:26Z</time></trkpt><trkpt lat="47.34670690653512" lon="8.72362592574034"><ele>469.0</ele><time>2026-04-25T18:48:27Z</time></trkpt><trkpt lat="47.34669199850845" lon="8.72374125901966"><ele>469.00000000000006</ele><time>2026-04-25T18:48:28Z</time></trkpt><trkpt lat="47.34667914685572" lon="8.723860746443346"><ele>469.0</ele><time>2026-04-25T18:48:29Z</time></trkpt><trkpt lat="47.34666327776441" lon="8.723979310444633"><ele>469.00000000000006</ele><time>2026-04-25T18:48:30Z</time></trkpt><trkpt lat="47.34664672025534" lon="8.724095398244195"><ele>469.0</ele><time>2026-04-25T18:48:31Z</time></trkpt><trkpt lat="47.34663266268636" lon="8.72421214891701"><ele>469.0</ele><time>2026-04-25T18:48:32Z</time></trkpt><trkpt lat="47.34661807008464" lon="8.724330325402368"><ele>469.0</ele><time>2026-04-25T18:48:33Z</time></trkpt><trkpt lat="47.34660148358288" lon="8.724447595789302"><ele>469.00000000000006</ele><time>2026-04-25T18:48:34Z</time></trkpt><trkpt lat="47.346587334853176" lon="8.724562862227137"><ele>469.0</ele><time>2026-04-25T18:48:35Z</time></trkpt><trkpt lat="47.34657180277928" lon="8.724681755361694"><ele>469.33333333333337</ele><time>2026-04-25T18:48:36Z</time></trkpt><trkpt lat="47.34655694720479" lon="8.724798297739397"><ele>469.6666666666667</ele><time>2026-04-25T18:48:37Z</time></trkpt><trkpt lat="47.34654287786899" lon="8.724916505376097"><ele>470.0</ele><time>2026-04-25T18:48:38Z</time></trkpt><trkpt lat="47.346528380560194" lon="8.725033541056108"><ele>470.33333333333337</ele><time>2026-04-25T18:48:39Z</time></trkpt><trkpt lat="47.346512558518995" lon="8.725150508822031"><ele>470.6666666666667</ele><time>2026-04-25T18:48:40Z</time></trkpt><trkpt lat="47.34650004071466" lon="8.725268195745361"><ele>471.0</ele><time>2026-04-25T18:48:41Z</time></trkpt><trkpt lat="47.34649274456654" lon="8.725387546598393"><ele>471.3333333333333</ele><time>2026-04-25T18:48:42Z</time></trkpt><trkpt lat="47.346490242072896" lon="8.725509308904437"><ele>471.66666666666663</ele><time>2026-04-25T18:48:43Z</time></trkpt><trkpt lat="47.346494088808576" lon="8.72563067201435"><ele>472.0</ele><time>2026-04-25T18:48:44Z</time></trkpt><trkpt lat="47.3465022511599" lon="8.725751656764972"><ele>472.3333333333333</ele><time>2026-04-25T18:48:45Z</time></trkpt><trkpt lat="47.34651332289526" lon="8.725867730704069"><ele>472.66666666666663</ele><time>2026-04-25T18:48:46Z</time></trkpt><trkpt lat="47.34652488471994" lon="8.725984942138977"><ele>473.0</ele><time>2026-04-25T18:48:47Z</time></trkpt><trkpt lat="47.34653038864986" lon="8.726092092092925"><ele>473.0</ele><time>2026-04-25T18:48:48Z</time></trkpt><trkpt lat="47.34653759419599" lon="8.726188589465147"><ele>472.99999999999994</ele><time>2026-04-25T18:48:49Z</time></trkpt><trkpt lat="47.3465537580592" lon="8.726332796598985"><ele>472.99999999999994</ele><time>2026-04-25T18:48:51Z</time></trkpt><trkpt lat="47.346572232882465" lon="8.726456346301118"><ele>473.0</ele><time>2026-04-25T18:48:54Z</time></trkpt><trkpt lat="47.3465978437788" lon="8.726588426222149"><ele>473.0</ele><time>2026-04-25T18:48:56Z</time></trkpt><trkpt lat="47.346621951692065" lon="8.72675832890606"><ele>473.0</ele><time>2026-04-25T18:48:58Z</time></trkpt><trkpt lat="47.34663270303432" lon="8.72685550979565"><ele>473.0</ele><time>2026-04-25T18:48:59Z</time></trkpt><trkpt lat="47.346633582504424" lon="8.726959699105212"><ele>473.0</ele><time>2026-04-25T18:49:00Z</time></trkpt><trkpt lat="47.3466263320684" lon="8.727067354308069"><ele>473.0</ele><time>2026-04-25T18:49:01Z</time></trkpt><trkpt lat="47.346619486949876" lon="8.727178777921322"><ele>473.0</ele><time>2026-04-25T18:49:02Z</time></trkpt><trkpt lat="47.346607320772975" lon="8.727290134381121"><ele>473.0</ele><time>2026-04-25T18:49:03Z</time></trkpt><trkpt lat="47.34658541408904" lon="8.72740146702343"><ele>473.0</ele><time>2026-04-25T18:49:04Z</time></trkpt><trkpt lat="47.34655090127076" lon="8.727506569367348"><ele>472.99999999999994</ele><time>2026-04-25T18:49:05Z</time></trkpt><trkpt lat="47.34651770606213" lon="8.727612508232708"><ele>473.0</ele><time>2026-04-25T18:49:06Z</time></trkpt><trkpt lat="47.34647484427085" lon="8.727707880425527"><ele>473.0</ele><time>2026-04-25T18:49:07Z</time></trkpt><trkpt lat="47.34642856401578" lon="8.727803982016155"><ele>473.0</ele><time>2026-04-25T18:49:08Z</time></trkpt><trkpt lat="47.34637588862204" lon="8.727890414865643"><ele>472.99999999999994</ele><time>2026-04-25T18:49:09Z</time></trkpt><trkpt lat="47.34632198321144" lon="8.727974593726984"><ele>473.0</ele><time>2026-04-25T18:49:10Z</time></trkpt><trkpt lat="47.34626757056779" lon="8.728059055156507"><ele>472.99999999999994</ele><time>2026-04-25T18:49:11Z</time></trkpt><trkpt lat="47.34621367287667" lon="8.728145462605948"><ele>473.0</ele><time>2026-04-25T18:49:12Z</time></trkpt><trkpt lat="47.34615908748705" lon="8.72823542742907"><ele>473.0</ele><time>2026-04-25T18:49:13Z</time></trkpt><trkpt lat="47.346105067946446" lon="8.728319787540055"><ele>473.0</ele><time>2026-04-25T18:49:14Z</time></trkpt><trkpt lat="47.346051372341364" lon="8.72840742635557"><ele>472.99999999999994</ele><time>2026-04-25T18:49:15Z</time></trkpt><trkpt lat="47.34599636055525" lon="8.728495892349903"><ele>473.0</ele><time>2026-04-25T18:49:16Z</time></trkpt><trkpt lat="47.34594400830451" lon="8.72858503016057"><ele>473.3333333333333</ele><time>2026-04-25T18:49:17Z</time></trkpt><trkpt lat="47.34589427369724" lon="8.728679628527521"><ele>473.66666666666663</ele><time>2026-04-25T18:49:18Z</time></trkpt><trkpt lat="47.34584770321543" lon="8.728778763100966"><ele>474.0</ele><time>2026-04-25T18:49:19Z</time></trkpt><trkpt lat="47.345805481226556" lon="8.728881015726815"><ele>474.33333333333337</ele><time>2026-04-25T18:49:20Z</time></trkpt><trkpt lat="47.345768147534685" lon="8.728987363815559"><ele>474.6666666666667</ele><time>2026-04-25T18:49:21Z</time></trkpt><trkpt lat="47.3457345851337" lon="8.729095423514883"><ele>475.0</ele><time>2026-04-25T18:49:22Z</time></trkpt><trkpt lat="47.34569713797949" lon="8.729200841925792"><ele>475.00000000000006</ele><time>2026-04-25T18:49:23Z</time></trkpt><trkpt lat="47.34566112965895" lon="8.729306802471545"><ele>475.0</ele><time>2026-04-25T18:49:24Z</time></trkpt><trkpt lat="47.34562627706555" lon="8.729413996021194"><ele>475.0</ele><time>2026-04-25T18:49:25Z</time></trkpt><trkpt lat="47.34559393690379" lon="8.729521757937997"><ele>475.0</ele><time>2026-04-25T18:49:26Z</time></trkpt><trkpt lat="47.345567385315675" lon="8.729632409709158"><ele>475.00000000000006</ele><time>2026-04-25T18:49:27Z</time></trkpt><trkpt lat="47.3455431994603" lon="8.729744478148872"><ele>475.0</ele><time>2026-04-25T18:49:28Z</time></trkpt><trkpt lat="47.34552473328138" lon="8.729857544088098"><ele>475.00000000000006</ele><time>2026-04-25T18:49:29Z</time></trkpt><trkpt lat="47.34550613909992" lon="8.72997063673522"><ele>475.0</ele><time>2026-04-25T18:49:30Z</time></trkpt><trkpt lat="47.34548582734759" lon="8.730083879640832"><ele>475.0</ele><time>2026-04-25T18:49:31Z</time></trkpt><trkpt lat="47.345463852186526" lon="8.730195416209924"><ele>475.0</ele><time>2026-04-25T18:49:32Z</time></trkpt><trkpt lat="47.345437419616026" lon="8.730303116485915"><ele>475.00000000000006</ele><time>2026-04-25T18:49:33Z</time></trkpt><trkpt lat="47.345408315370435" lon="8.730402174133554"><ele>475.0</ele><time>2026-04-25T18:49:34Z</time></trkpt><trkpt lat="47.34538048144939" lon="8.730490973283898"><ele>475.00000000000006</ele><time>2026-04-25T18:49:35Z</time></trkpt><trkpt lat="47.345331043716186" lon="8.730609697218702"><ele>475.0</ele><time>2026-04-25T18:49:37Z</time></trkpt><trkpt lat="47.34529762837032" lon="8.730694859099016"><ele>475.0</ele><time>2026-04-25T18:49:41Z</time></trkpt><trkpt lat="47.34525647826347" lon="8.730811532780375"><ele>475.0</ele><time>2026-04-25T18:49:58Z</time></trkpt><trkpt lat="47.34522160860049" lon="8.730905946921675"><ele>475.00000000000006</ele><time>2026-04-25T18:50:00Z</time></trkpt><trkpt lat="47.34517357897418" lon="8.731034419280409"><ele>475.0</ele><time>2026-04-25T18:50:02Z</time></trkpt><trkpt lat="47.34510963718694" lon="8.73118985626905"><ele>475.0</ele><time>2026-04-25T18:50:04Z</time></trkpt><trkpt lat="47.3450785786608" lon="8.731278319307277"><ele>475.00000000000006</ele><time>2026-04-25T18:50:05Z</time></trkpt><trkpt lat="47.34504510332535" lon="8.731371621955287"><ele>475.0</ele><time>2026-04-25T18:50:06Z</time></trkpt><trkpt lat="47.34500790802734" lon="8.731462769455446"><ele>475.0</ele><time>2026-04-25T18:50:07Z</time></trkpt><trkpt lat="47.3449808276787" lon="8.73156373703734"><ele>475.00000000000006</ele><time>2026-04-25T18:50:08Z</time></trkpt><trkpt lat="47.3449614294359" lon="8.731671866851617"><ele>475.0</ele><time>2026-04-25T18:50:09Z</time></trkpt><trkpt lat="47.344942540578316" lon="8.731781696057542"><ele>475.0</ele><time>2026-04-25T18:50:10Z</time></trkpt><trkpt lat="47.34493221703436" lon="8.731895819648852"><ele>475.1666666666667</ele><time>2026-04-25T18:50:11Z</time></trkpt><trkpt lat="47.34492850696482" lon="8.73201309137218"><ele>475.33333333333337</ele><time>2026-04-25T18:50:12Z</time></trkpt><trkpt lat="47.34493654015133" lon="8.732131403299508"><ele>475.5</ele><time>2026-04-25T18:50:13Z</time></trkpt><trkpt lat="47.34493928083973" lon="8.73224638864654"><ele>475.66666666666663</ele><time>2026-04-25T18:50:14Z</time></trkpt><trkpt lat="47.3449391560565" lon="8.732352443116847"><ele>475.8333333333333</ele><time>2026-04-25T18:50:15Z</time></trkpt><trkpt lat="47.34494071558971" lon="8.732453361097583"><ele>476.0</ele><time>2026-04-25T18:50:16Z</time></trkpt><trkpt lat="47.34495232726332" lon="8.732619033074691"><ele>476.16666666666663</ele><time>2026-04-25T18:50:18Z</time></trkpt><trkpt lat="47.34496752204025" lon="8.732734778431794"><ele>476.3333333333333</ele><time>2026-04-25T18:50:20Z</time></trkpt><trkpt lat="47.34498442907039" lon="8.732862457814488"><ele>476.5</ele><time>2026-04-25T18:50:23Z</time></trkpt><trkpt lat="47.3450015849437" lon="8.732967387199286"><ele>476.66666666666663</ele><time>2026-04-25T18:50:25Z</time></trkpt><trkpt lat="47.34501414803628" lon="8.733097081055162"><ele>476.8333333333333</ele><time>2026-04-25T18:50:27Z</time></trkpt><trkpt lat="47.34496116912034" lon="8.733171608655269"><ele>477.0</ele><time>2026-04-25T18:50:29Z</time></trkpt><trkpt lat="47.34489211774877" lon="8.733218304598616"><ele>477.0</ele><time>2026-04-25T18:50:31Z</time></trkpt><trkpt lat="47.344804073344804" lon="8.733268707306937"><ele>477.0</ele><time>2026-04-25T18:50:33Z</time></trkpt><trkpt lat="47.34470163432656" lon="8.73333254155522"><ele>477.0</ele><time>2026-04-25T18:50:35Z</time></trkpt><trkpt lat="47.34459170716357" lon="8.73340921332308"><ele>477.0</ele><time>2026-04-25T18:50:37Z</time></trkpt><trkpt lat="47.344479580133495" lon="8.733494740472576"><ele>478.0</ele><time>2026-04-25T18:50:39Z</time></trkpt><trkpt lat="47.34437058620897" lon="8.733595664383879"><ele>479.0</ele><time>2026-04-25T18:50:41Z</time></trkpt><trkpt lat="47.34431376903473" lon="8.733651601744496"><ele>480.0</ele><time>2026-04-25T18:50:42Z</time></trkpt><trkpt lat="47.34425846225015" lon="8.73370605209614"><ele>481.0</ele><time>2026-04-25T18:50:43Z</time></trkpt><trkpt lat="47.34420207918355" lon="8.733758818282954"><ele>482.0</ele><time>2026-04-25T18:50:44Z</time></trkpt><trkpt lat="47.344141744272" lon="8.733808979401951"><ele>483.0</ele><time>2026-04-25T18:50:45Z</time></trkpt><trkpt lat="47.344078723644024" lon="8.733856179929077"><ele>483.0</ele><time>2026-04-25T18:50:46Z</time></trkpt><trkpt lat="47.34401433095278" lon="8.733895676512805"><ele>483.0</ele><time>2026-04-25T18:50:47Z</time></trkpt><trkpt lat="47.34395168395752" lon="8.733934184691165"><ele>483.0</ele><time>2026-04-25T18:50:48Z</time></trkpt><trkpt lat="47.34389265052379" lon="8.733980818957033"><ele>483.0</ele><time>2026-04-25T18:50:49Z</time></trkpt><trkpt lat="47.34382355612409" lon="8.734011265082092"><ele>483.0</ele><time>2026-04-25T18:50:50Z</time></trkpt><trkpt lat="47.34375523785759" lon="8.73403335008027"><ele>483.0</ele><time>2026-04-25T18:50:51Z</time></trkpt><trkpt lat="47.343681747146135" lon="8.734051732837543"><ele>483.0</ele><time>2026-04-25T18:50:52Z</time></trkpt><trkpt lat="47.34361632584638" lon="8.73405609326825"><ele>483.8333333333333</ele><time>2026-04-25T18:50:53Z</time></trkpt><trkpt lat="47.34355286119197" lon="8.734060173724572"><ele>484.66666666666663</ele><time>2026-04-25T18:50:54Z</time></trkpt><trkpt lat="47.343488672024115" lon="8.734069562985615"><ele>485.5</ele><time>2026-04-25T18:50:55Z</time></trkpt><trkpt lat="47.34342360843146" lon="8.734079080153425"><ele>486.3333333333333</ele><time>2026-04-25T18:50:56Z</time></trkpt><trkpt lat="47.34330354661357" lon="8.734110882003916"><ele>487.16666666666663</ele><time>2026-04-25T18:50:58Z</time></trkpt><trkpt lat="47.34319321081943" lon="8.734164482657857"><ele>488.0</ele><time>2026-04-25T18:51:00Z</time></trkpt><trkpt lat="47.343088950319974" lon="8.734249716063346"><ele>490.0</ele><time>2026-04-25T18:51:02Z</time></trkpt><trkpt lat="47.342982810301834" lon="8.734343537329353"><ele>492.0</ele><time>2026-04-25T18:51:04Z</time></trkpt><trkpt lat="47.34287504802164" lon="8.73443703537643"><ele>494.0</ele><time>2026-04-25T18:51:06Z</time></trkpt><trkpt lat="47.34277561522829" lon="8.734517837720867"><ele>496.0</ele><time>2026-04-25T18:51:08Z</time></trkpt><trkpt lat="47.34268278197604" lon="8.73458825844436"><ele>496.0</ele><time>2026-04-25T18:51:10Z</time></trkpt><trkpt lat="47.34258968948274" lon="8.734658876117024"><ele>496.0</ele><time>2026-04-25T18:51:12Z</time></trkpt><trkpt lat="47.342484622253664" lon="8.734717683519895"><ele>496.0</ele><time>2026-04-25T18:51:14Z</time></trkpt><trkpt lat="47.342384466112684" lon="8.734796667521833"><ele>496.0</ele><time>2026-04-25T18:51:16Z</time></trkpt><trkpt lat="47.342286836836834" lon="8.734890705109072"><ele>496.0</ele><time>2026-04-25T18:51:18Z</time></trkpt><trkpt lat="47.34217708835118" lon="8.734960412729013"><ele>496.8</ele><time>2026-04-25T18:51:20Z</time></trkpt><trkpt lat="47.34206827650519" lon="8.73500885977591"><ele>497.6</ele><time>2026-04-25T18:51:22Z</time></trkpt><trkpt lat="47.34200374857174" lon="8.735024619731382"><ele>498.4</ele><time>2026-04-25T18:51:23Z</time></trkpt><trkpt lat="47.341884905040736" lon="8.735040067178804"><ele>499.2</ele><time>2026-04-25T18:51:25Z</time></trkpt><trkpt lat="47.34176336058895" lon="8.735044029206225"><ele>500.0</ele><time>2026-04-25T18:51:27Z</time></trkpt><trkpt lat="47.341699245427215" lon="8.735040699539248"><ele>500.0</ele><time>2026-04-25T18:51:28Z</time></trkpt><trkpt lat="47.34163444722628" lon="8.73503492081115"><ele>500.0</ele><time>2026-04-25T18:51:29Z</time></trkpt><trkpt lat="47.341570320795995" lon="8.735027496621468"><ele>500.0</ele><time>2026-04-25T18:51:30Z</time></trkpt><trkpt lat="47.341504280853925" lon="8.735013719356022"><ele>500.0</ele><time>2026-04-25T18:51:31Z</time></trkpt><trkpt lat="47.341437164605686" lon="8.734994230649521"><ele>500.0</ele><time>2026-04-25T18:51:32Z</time></trkpt><trkpt lat="47.34136852078546" lon="8.73497324169853"><ele>500.0</ele><time>2026-04-25T18:51:33Z</time></trkpt><trkpt lat="47.341301167943215" lon="8.734956253915815"><ele>500.0</ele><time>2026-04-25T18:51:34Z</time></trkpt><trkpt lat="47.34123421126072" lon="8.734943243386269"><ele>499.85714285714283</ele><time>2026-04-25T18:51:35Z</time></trkpt><trkpt lat="47.341164911781874" lon="8.734934705687637"><ele>499.7142857142858</ele><time>2026-04-25T18:51:36Z</time></trkpt><trkpt lat="47.34109638401083" lon="8.734927650910238"><ele>499.5714285714286</ele><time>2026-04-25T18:51:37Z</time></trkpt><trkpt lat="47.341025682414795" lon="8.73492117967515"><ele>499.42857142857144</ele><time>2026-04-25T18:51:38Z</time></trkpt><trkpt lat="47.340954191951944" lon="8.734915808627258"><ele>499.28571428571433</ele><time>2026-04-25T18:51:39Z</time></trkpt><trkpt lat="47.340883916741674" lon="8.734915229621738"><ele>499.1428571428572</ele><time>2026-04-25T18:51:40Z</time></trkpt><trkpt lat="47.340812394908816" lon="8.734916445334472"><ele>499.00000000000006</ele><time>2026-04-25T18:51:41Z</time></trkpt><trkpt lat="47.340743012743566" lon="8.734923134782342"><ele>499.00000000000006</ele><time>2026-04-25T18:51:42Z</time></trkpt><trkpt lat="47.34067189094973" lon="8.734938877835246"><ele>499.0</ele><time>2026-04-25T18:51:43Z</time></trkpt><trkpt lat="47.340606618704456" lon="8.734943951343407"><ele>499.00000000000006</ele><time>2026-04-25T18:51:44Z</time></trkpt><trkpt lat="47.34054240546536" lon="8.734973891724648"><ele>499.00000000000006</ele><time>2026-04-25T18:51:45Z</time></trkpt><trkpt lat="47.34048976117722" lon="8.735025728632275"><ele>499.0</ele><time>2026-04-25T18:51:46Z</time></trkpt><trkpt lat="47.34042880235184" lon="8.735062857757661"><ele>499.00000000000006</ele><time>2026-04-25T18:51:47Z</time></trkpt><trkpt lat="47.34036390192059" lon="8.735102387638573"><ele>499.00000000000006</ele><time>2026-04-25T18:51:48Z</time></trkpt><trkpt lat="47.34029780820012" lon="8.735141175481322"><ele>499.1428571428572</ele><time>2026-04-25T18:51:49Z</time></trkpt><trkpt lat="47.34023475270885" lon="8.735178089581062"><ele>499.28571428571433</ele><time>2026-04-25T18:51:50Z</time></trkpt><trkpt lat="47.34017006561613" lon="8.735215958860085"><ele>499.42857142857144</ele><time>2026-04-25T18:51:51Z</time></trkpt><trkpt lat="47.34010753658901" lon="8.73525328625916"><ele>499.5714285714286</ele><time>2026-04-25T18:51:52Z</time></trkpt><trkpt lat="47.340043521056316" lon="8.735292011242825"><ele>499.7142857142858</ele><time>2026-04-25T18:51:53Z</time></trkpt><trkpt lat="47.33997861743194" lon="8.735331273433832"><ele>499.85714285714283</ele><time>2026-04-25T18:51:54Z</time></trkpt><trkpt lat="47.33991129152953" lon="8.735373473971322"><ele>500.0</ele><time>2026-04-25T18:51:55Z</time></trkpt><trkpt lat="47.339844410816085" lon="8.735415412376222"><ele>499.57142857142856</ele><time>2026-04-25T18:51:56Z</time></trkpt><trkpt lat="47.33977888168656" lon="8.73545705008376"><ele>499.14285714285717</ele><time>2026-04-25T18:51:57Z</time></trkpt><trkpt lat="47.339713338618644" lon="8.735500298009974"><ele>498.7142857142857</ele><time>2026-04-25T18:51:58Z</time></trkpt><trkpt lat="47.33964663508574" lon="8.735544311640572"><ele>498.2857142857143</ele><time>2026-04-25T18:51:59Z</time></trkpt><trkpt lat="47.339580052690025" lon="8.735588245347733"><ele>497.8571428571429</ele><time>2026-04-25T18:52:00Z</time></trkpt><trkpt lat="47.33951311234964" lon="8.735632415216115"><ele>497.42857142857144</ele><time>2026-04-25T18:52:01Z</time></trkpt><trkpt lat="47.33944704923692" lon="8.735676006288672"><ele>497.0</ele><time>2026-04-25T18:52:02Z</time></trkpt><trkpt lat="47.33938807244858" lon="8.735714921498914"><ele>496.99999999999994</ele><time>2026-04-25T18:52:03Z</time></trkpt><trkpt lat="47.33931775237788" lon="8.735761321504325"><ele>497.0</ele><time>2026-04-25T18:52:05Z</time></trkpt><trkpt lat="47.3392495102429" lon="8.73580757527879"><ele>497.0</ele><time>2026-04-25T18:52:08Z</time></trkpt><trkpt lat="47.33917787880997" lon="8.735856058760508"><ele>497.0</ele><time>2026-04-25T18:52:10Z</time></trkpt><trkpt lat="47.33908534036546" lon="8.735918693051023"><ele>496.99999999999994</ele><time>2026-04-25T18:52:12Z</time></trkpt><trkpt lat="47.33898158288851" lon="8.735988920946157"><ele>497.0</ele><time>2026-04-25T18:52:14Z</time></trkpt><trkpt lat="47.3388632879906" lon="8.736068988437092"><ele>497.0</ele><time>2026-04-25T18:52:16Z</time></trkpt><trkpt lat="47.33880059808666" lon="8.736114401108498"><ele>497.0</ele><time>2026-04-25T18:52:17Z</time></trkpt><trkpt lat="47.33873740372502" lon="8.736155910289398"><ele>497.0</ele><time>2026-04-25T18:52:18Z</time></trkpt><trkpt lat="47.33867042817674" lon="8.73619990306737"><ele>497.0</ele><time>2026-04-25T18:52:19Z</time></trkpt><trkpt lat="47.338603755627496" lon="8.736243696838171"><ele>497.0</ele><time>2026-04-25T18:52:20Z</time></trkpt><trkpt lat="47.338535408610575" lon="8.736288590498113"><ele>497.0</ele><time>2026-04-25T18:52:21Z</time></trkpt><trkpt lat="47.33846595953012" lon="8.736333693885772"><ele>497.0</ele><time>2026-04-25T18:52:22Z</time></trkpt><trkpt lat="47.338396824782436" lon="8.73637853052335"><ele>496.99999999999994</ele><time>2026-04-25T18:52:23Z</time></trkpt><trkpt lat="47.33832758341479" lon="8.736423432238087"><ele>497.0</ele><time>2026-04-25T18:52:24Z</time></trkpt><trkpt lat="47.33825722800558" lon="8.736469056370495"><ele>497.0</ele><time>2026-04-25T18:52:25Z</time></trkpt><trkpt lat="47.33818598213947" lon="8.736514821191292"><ele>497.0</ele><time>2026-04-25T18:52:26Z</time></trkpt><trkpt lat="47.338114750488366" lon="8.736559384379332"><ele>496.99999999999994</ele><time>2026-04-25T18:52:27Z</time></trkpt><trkpt lat="47.3380415664725" lon="8.73660426341202"><ele>497.0</ele><time>2026-04-25T18:52:28Z</time></trkpt><trkpt lat="47.33796710261011" lon="8.736645227012243"><ele>496.99999999999994</ele><time>2026-04-25T18:52:29Z</time></trkpt><trkpt lat="47.33789150029381" lon="8.736681770363125"><ele>497.0</ele><time>2026-04-25T18:52:30Z</time></trkpt><trkpt lat="47.33781707697248" lon="8.736716014516373"><ele>497.0</ele><time>2026-04-25T18:52:31Z</time></trkpt><trkpt lat="47.33774143776607" lon="8.736748329216667"><ele>497.0</ele><time>2026-04-25T18:52:32Z</time></trkpt><trkpt lat="47.337667050868" lon="8.73678004295004"><ele>496.99999999999994</ele><time>2026-04-25T18:52:33Z</time></trkpt><trkpt lat="47.3375916615304" lon="8.736811033838997"><ele>497.0</ele><time>2026-04-25T18:52:34Z</time></trkpt><trkpt lat="47.33751513166699" lon="8.736838453762838"><ele>496.99999999999994</ele><time>2026-04-25T18:52:35Z</time></trkpt><trkpt lat="47.337438246315216" lon="8.736860570171858"><ele>497.0</ele><time>2026-04-25T18:52:36Z</time></trkpt><trkpt lat="47.33735960471655" lon="8.736875419936046"><ele>497.0</ele><time>2026-04-25T18:52:37Z</time></trkpt><trkpt lat="47.33728477868945" lon="8.736888654989682"><ele>497.0</ele><time>2026-04-25T18:52:38Z</time></trkpt><trkpt lat="47.33721126600063" lon="8.736901657729904"><ele>496.99999999999994</ele><time>2026-04-25T18:52:39Z</time></trkpt><trkpt lat="47.33713830327465" lon="8.736914563192663"><ele>497.0</ele><time>2026-04-25T18:52:40Z</time></trkpt><trkpt lat="47.33706512187266" lon="8.736927507492858"><ele>497.2857142857143</ele><time>2026-04-25T18:52:41Z</time></trkpt><trkpt lat="47.3369948925942" lon="8.73690547618902"><ele>497.57142857142856</ele><time>2026-04-25T18:52:42Z</time></trkpt><trkpt lat="47.33692516512215" lon="8.736924279149946"><ele>497.8571428571429</ele><time>2026-04-25T18:52:43Z</time></trkpt><trkpt lat="47.33685827629946" lon="8.736945211485493"><ele>498.14285714285717</ele><time>2026-04-25T18:52:44Z</time></trkpt><trkpt lat="47.336791216398794" lon="8.73696930156718"><ele>498.42857142857144</ele><time>2026-04-25T18:52:45Z</time></trkpt><trkpt lat="47.33672522975355" lon="8.736996828979667"><ele>498.7142857142858</ele><time>2026-04-25T18:52:46Z</time></trkpt><trkpt lat="47.33666035620656" lon="8.737027113527942"><ele>499.00000000000006</ele><time>2026-04-25T18:52:47Z</time></trkpt><trkpt lat="47.33659551931235" lon="8.737059706724308"><ele>499.00000000000006</ele><time>2026-04-25T18:52:48Z</time></trkpt><trkpt lat="47.336531275689424" lon="8.73709423026649"><ele>499.0</ele><time>2026-04-25T18:52:49Z</time></trkpt><trkpt lat="47.336468408518606" lon="8.737130469582128"><ele>499.00000000000006</ele><time>2026-04-25T18:52:50Z</time></trkpt><trkpt lat="47.336407452469366" lon="8.737169858858547"><ele>499.00000000000006</ele><time>2026-04-25T18:52:51Z</time></trkpt><trkpt lat="47.336347953610876" lon="8.737212938379976"><ele>499.0</ele><time>2026-04-25T18:52:52Z</time></trkpt><trkpt lat="47.33628330824072" lon="8.737239563433887"><ele>499.00000000000006</ele><time>2026-04-25T18:52:53Z</time></trkpt><trkpt lat="47.33622748375697" lon="8.737289135299083"><ele>499.00000000000006</ele><time>2026-04-25T18:52:54Z</time></trkpt><trkpt lat="47.336171715139564" lon="8.737338144696782"><ele>499.28571428571433</ele><time>2026-04-25T18:52:55Z</time></trkpt><trkpt lat="47.33611884447312" lon="8.737389114961784"><ele>499.57142857142856</ele><time>2026-04-25T18:52:56Z</time></trkpt><trkpt lat="47.33606604923839" lon="8.737441959134843"><ele>499.8571428571429</ele><time>2026-04-25T18:52:57Z</time></trkpt><trkpt lat="47.336011776199186" lon="8.737496482713146"><ele>500.14285714285717</ele><time>2026-04-25T18:52:58Z</time></trkpt><trkpt lat="47.335958850052386" lon="8.737556853257187"><ele>500.42857142857144</ele><time>2026-04-25T18:52:59Z</time></trkpt><trkpt lat="47.335905187285526" lon="8.737617718638907"><ele>500.7142857142857</ele><time>2026-04-25T18:53:00Z</time></trkpt><trkpt lat="47.33586326960286" lon="8.737698527367195"><ele>501.0</ele><time>2026-04-25T18:53:01Z</time></trkpt><trkpt lat="47.335799895989815" lon="8.737751212235825"><ele>501.14285714285717</ele><time>2026-04-25T18:53:02Z</time></trkpt><trkpt lat="47.33574947345416" lon="8.737826351173343"><ele>501.2857142857142</ele><time>2026-04-25T18:53:03Z</time></trkpt><trkpt lat="47.33569771277322" lon="8.737900511271398"><ele>501.4285714285714</ele><time>2026-04-25T18:53:04Z</time></trkpt><trkpt lat="47.335660043271815" lon="8.737998850402317"><ele>501.57142857142856</ele><time>2026-04-25T18:53:05Z</time></trkpt><trkpt lat="47.335611777046694" lon="8.738082679458396"><ele>501.71428571428567</ele><time>2026-04-25T18:53:06Z</time></trkpt><trkpt lat="47.335563532413055" lon="8.738168056793905"><ele>501.8571428571428</ele><time>2026-04-25T18:53:07Z</time></trkpt><trkpt lat="47.33551666751694" lon="8.738256232646625"><ele>501.99999999999994</ele><time>2026-04-25T18:53:08Z</time></trkpt><trkpt lat="47.33545574580075" lon="8.73833373481711"><ele>501.6666666666667</ele><time>2026-04-25T18:53:09Z</time></trkpt><trkpt lat="47.33541019317287" lon="8.738429276709098"><ele>501.33333333333337</ele><time>2026-04-25T18:53:10Z</time></trkpt><trkpt lat="47.335360389688354" lon="8.738518385903703"><ele>501.0</ele><time>2026-04-25T18:53:11Z</time></trkpt><trkpt lat="47.335324127076376" lon="8.738627709507638"><ele>500.66666666666663</ele><time>2026-04-25T18:53:12Z</time></trkpt><trkpt lat="47.335263350664185" lon="8.738709112016002"><ele>500.3333333333333</ele><time>2026-04-25T18:53:13Z</time></trkpt><trkpt lat="47.335213128180676" lon="8.738804671862606"><ele>500.0</ele><time>2026-04-25T18:53:14Z</time></trkpt><trkpt lat="47.33517518681941" lon="8.738915347582914"><ele>499.99999999999994</ele><time>2026-04-25T18:53:15Z</time></trkpt><trkpt lat="47.33512483222396" lon="8.739011167923866"><ele>500.0</ele><time>2026-04-25T18:53:16Z</time></trkpt><trkpt lat="47.335061210772935" lon="8.739092590016075"><ele>500.0</ele><time>2026-04-25T18:53:17Z</time></trkpt><trkpt lat="47.33502192520494" lon="8.739205473307264"><ele>500.0</ele><time>2026-04-25T18:53:18Z</time></trkpt><trkpt lat="47.33496909619039" lon="8.739301246784379"><ele>499.99999999999994</ele><time>2026-04-25T18:53:19Z</time></trkpt><trkpt lat="47.33491282383304" lon="8.739397722132804"><ele>500.0</ele><time>2026-04-25T18:53:20Z</time></trkpt><trkpt lat="47.33485606474611" lon="8.73949321564234"><ele>499.8333333333333</ele><time>2026-04-25T18:53:21Z</time></trkpt><trkpt lat="47.33480059915358" lon="8.739585282518924"><ele>499.66666666666663</ele><time>2026-04-25T18:53:22Z</time></trkpt><trkpt lat="47.33474474201263" lon="8.739677999372246"><ele>499.5</ele><time>2026-04-25T18:53:23Z</time></trkpt><trkpt lat="47.334684534975054" lon="8.73977715701043"><ele>499.33333333333337</ele><time>2026-04-25T18:53:24Z</time></trkpt><trkpt lat="47.334628147656325" lon="8.739868357310788"><ele>499.1666666666667</ele><time>2026-04-25T18:53:25Z</time></trkpt><trkpt lat="47.33457526899725" lon="8.739951360756463"><ele>499.0</ele><time>2026-04-25T18:53:26Z</time></trkpt><trkpt lat="47.33449802415502" lon="8.740072611765648"><ele>498.83333333333337</ele><time>2026-04-25T18:53:28Z</time></trkpt><trkpt lat="47.33443830896831" lon="8.740166346500942"><ele>498.6666666666667</ele><time>2026-04-25T18:53:30Z</time></trkpt><trkpt lat="47.33437124558141" lon="8.740269151955951"><ele>498.5</ele><time>2026-04-25T18:53:32Z</time></trkpt><trkpt lat="47.33428651611012" lon="8.74039765279781"><ele>498.33333333333337</ele><time>2026-04-25T18:53:34Z</time></trkpt><trkpt lat="47.334240104067796" lon="8.74046734972634"><ele>498.1666666666667</ele><time>2026-04-25T18:53:35Z</time></trkpt><trkpt lat="47.334190223696" lon="8.74053785529489"><ele>498.0</ele><time>2026-04-25T18:53:36Z</time></trkpt><trkpt lat="47.33413727746819" lon="8.740611004891832"><ele>498.0</ele><time>2026-04-25T18:53:37Z</time></trkpt><trkpt lat="47.33408179628985" lon="8.740684439557112"><ele>498.0</ele><time>2026-04-25T18:53:38Z</time></trkpt><trkpt lat="47.33401508091043" lon="8.740738331392945"><ele>498.0</ele><time>2026-04-25T18:53:39Z</time></trkpt><trkpt lat="47.333957025498165" lon="8.740808966407432"><ele>498.0</ele><time>2026-04-25T18:53:40Z</time></trkpt><trkpt lat="47.33389856834638" lon="8.740882891683253"><ele>498.0</ele><time>2026-04-25T18:53:41Z</time></trkpt><trkpt lat="47.333840032844925" lon="8.740955067057739"><ele>498.0</ele><time>2026-04-25T18:53:42Z</time></trkpt><trkpt lat="47.33377787183067" lon="8.741023737569073"><ele>497.6666666666667</ele><time>2026-04-25T18:53:43Z</time></trkpt><trkpt lat="47.33371188598542" lon="8.741082484663421"><ele>497.33333333333337</ele><time>2026-04-25T18:53:44Z</time></trkpt><trkpt lat="47.333641834588065" lon="8.741130122729105"><ele>497.0</ele><time>2026-04-25T18:53:45Z</time></trkpt><trkpt lat="47.333570042610226" lon="8.74117214116447"><ele>496.6666666666667</ele><time>2026-04-25T18:53:46Z</time></trkpt><trkpt lat="47.33349752655829" lon="8.741208971849789"><ele>496.33333333333337</ele><time>2026-04-25T18:53:47Z</time></trkpt><trkpt lat="47.33342581339572" lon="8.741250451147712"><ele>496.0</ele><time>2026-04-25T18:53:48Z</time></trkpt><trkpt lat="47.33335262972639" lon="8.74128057501047"><ele>496.00000000000006</ele><time>2026-04-25T18:53:49Z</time></trkpt><trkpt lat="47.33327865019999" lon="8.741307322089318"><ele>496.0</ele><time>2026-04-25T18:53:50Z</time></trkpt><trkpt lat="47.33320418318853" lon="8.741329036635488"><ele>496.0</ele><time>2026-04-25T18:53:51Z</time></trkpt><trkpt lat="47.333128403835296" lon="8.741350358709601"><ele>496.0</ele><time>2026-04-25T18:53:52Z</time></trkpt><trkpt lat="47.33305326122261" lon="8.74137417642106"><ele>496.00000000000006</ele><time>2026-04-25T18:53:53Z</time></trkpt><trkpt lat="47.33297993350826" lon="8.741397204432406"><ele>496.0</ele><time>2026-04-25T18:53:54Z</time></trkpt><trkpt lat="47.332904344605986" lon="8.741410946134215"><ele>495.6666666666667</ele><time>2026-04-25T18:53:55Z</time></trkpt><trkpt lat="47.33282859678007" lon="8.741423257402651"><ele>495.33333333333337</ele><time>2026-04-25T18:53:56Z</time></trkpt><trkpt lat="47.33275345847209" lon="8.741437505354876"><ele>495.0</ele><time>2026-04-25T18:53:57Z</time></trkpt><trkpt lat="47.33267643962851" lon="8.741456383735555"><ele>494.66666666666663</ele><time>2026-04-25T18:53:58Z</time></trkpt><trkpt lat="47.33260351670699" lon="8.741487596454622"><ele>494.3333333333333</ele><time>2026-04-25T18:53:59Z</time></trkpt><trkpt lat="47.33253154329557" lon="8.741526948989597"><ele>494.0</ele><time>2026-04-25T18:54:00Z</time></trkpt><trkpt lat="47.332458644409016" lon="8.741570023426993"><ele>493.99999999999994</ele><time>2026-04-25T18:54:01Z</time></trkpt><trkpt lat="47.33238818633894" lon="8.741614962299048"><ele>494.0</ele><time>2026-04-25T18:54:02Z</time></trkpt><trkpt lat="47.332318535241356" lon="8.741665899165556"><ele>494.0</ele><time>2026-04-25T18:54:03Z</time></trkpt><trkpt lat="47.33225152175235" lon="8.741718170033677"><ele>494.0</ele><time>2026-04-25T18:54:04Z</time></trkpt><trkpt lat="47.33218776814259" lon="8.741778277139362"><ele>493.99999999999994</ele><time>2026-04-25T18:54:05Z</time></trkpt><trkpt lat="47.33212359965361" lon="8.741839477385911"><ele>494.0</ele><time>2026-04-25T18:54:06Z</time></trkpt><trkpt lat="47.3320607714303" lon="8.741900750382408"><ele>494.49999999999994</ele><time>2026-04-25T18:54:07Z</time></trkpt><trkpt lat="47.3320020011045" lon="8.741970891694512"><ele>495.0</ele><time>2026-04-25T18:54:08Z</time></trkpt><trkpt lat="47.331944555355776" lon="8.742041881703242"><ele>495.5</ele><time>2026-04-25T18:54:09Z</time></trkpt><trkpt lat="47.33188945920957" lon="8.742119811964544"><ele>496.0</ele><time>2026-04-25T18:54:10Z</time></trkpt><trkpt lat="47.3318399611652" lon="8.742201154693271"><ele>496.49999999999994</ele><time>2026-04-25T18:54:11Z</time></trkpt><trkpt lat="47.33179590673264" lon="8.742290639775984"><ele>497.0</ele><time>2026-04-25T18:54:12Z</time></trkpt><trkpt lat="47.3317509408475" lon="8.742378361327683"><ele>496.99999999999994</ele><time>2026-04-25T18:54:13Z</time></trkpt><trkpt lat="47.331704351279775" lon="8.742465551177508"><ele>497.0</ele><time>2026-04-25T18:54:14Z</time></trkpt><trkpt lat="47.33165945632092" lon="8.74255297612476"><ele>497.0</ele><time>2026-04-25T18:54:15Z</time></trkpt><trkpt lat="47.33161249692676" lon="8.742640544939304"><ele>497.0</ele><time>2026-04-25T18:54:16Z</time></trkpt><trkpt lat="47.33156157127577" lon="8.742722197250199"><ele>496.99999999999994</ele><time>2026-04-25T18:54:17Z</time></trkpt><trkpt lat="47.33150876106643" lon="8.742802011889564"><ele>497.0</ele><time>2026-04-25T18:54:18Z</time></trkpt><trkpt lat="47.33147093007772" lon="8.74289999100294"><ele>497.1428571428571</ele><time>2026-04-25T18:54:19Z</time></trkpt><trkpt lat="47.33142324273303" lon="8.7429827344043"><ele>497.2857142857143</ele><time>2026-04-25T18:54:20Z</time></trkpt><trkpt lat="47.33136253002798" lon="8.743045755417292"><ele>497.42857142857144</ele><time>2026-04-25T18:54:21Z</time></trkpt><trkpt lat="47.33131224426265" lon="8.74312279459177"><ele>497.57142857142856</ele><time>2026-04-25T18:54:22Z</time></trkpt><trkpt lat="47.33126290010589" lon="8.743194457998229"><ele>497.71428571428567</ele><time>2026-04-25T18:54:23Z</time></trkpt><trkpt lat="47.331213034816685" lon="8.743260032049522"><ele>497.85714285714283</ele><time>2026-04-25T18:54:24Z</time></trkpt><trkpt lat="47.331161025915186" lon="8.743317663292812"><ele>498.0</ele><time>2026-04-25T18:54:25Z</time></trkpt><trkpt lat="47.33106286813258" lon="8.74342626963478"><ele>498.0</ele><time>2026-04-25T18:54:27Z</time></trkpt><trkpt lat="47.33096784731956" lon="8.743516422974103"><ele>497.99999999999994</ele><time>2026-04-25T18:54:29Z</time></trkpt><trkpt lat="47.33087718447641" lon="8.743586364558924"><ele>497.99999999999994</ele><time>2026-04-25T18:54:31Z</time></trkpt><trkpt lat="47.3307851611142" lon="8.743645283421747"><ele>498.0</ele><time>2026-04-25T18:54:33Z</time></trkpt><trkpt lat="47.33068951887699" lon="8.743706675725345"><ele>498.0</ele><time>2026-04-25T18:54:35Z</time></trkpt><trkpt lat="47.33058898170434" lon="8.743750353830137"><ele>501.2</ele><time>2026-04-25T18:54:37Z</time></trkpt><trkpt lat="47.33048963772111" lon="8.743797151683115"><ele>504.4</ele><time>2026-04-25T18:54:39Z</time></trkpt><trkpt lat="47.33039932730916" lon="8.743840531826264"><ele>507.59999999999997</ele><time>2026-04-25T18:54:41Z</time></trkpt><trkpt lat="47.330301256606646" lon="8.74389193364816"><ele>510.79999999999995</ele><time>2026-04-25T18:54:43Z</time></trkpt><trkpt lat="47.330195162621614" lon="8.743937346088234"><ele>514.0</ele><time>2026-04-25T18:54:45Z</time></trkpt><trkpt lat="47.33008673570174" lon="8.743978732033913"><ele>514.0</ele><time>2026-04-25T18:54:47Z</time></trkpt><trkpt lat="47.32998511471507" lon="8.744024732101224"><ele>514.0</ele><time>2026-04-25T18:54:49Z</time></trkpt><trkpt lat="47.329875089456955" lon="8.744080069226023"><ele>514.0</ele><time>2026-04-25T18:54:51Z</time></trkpt><trkpt lat="47.32976708208424" lon="8.744131483689202"><ele>514.0</ele><time>2026-04-25T18:54:53Z</time></trkpt><trkpt lat="47.329656979230535" lon="8.744171623459591"><ele>514.0</ele><time>2026-04-25T18:54:55Z</time></trkpt><trkpt lat="47.329544523878916" lon="8.744228903674248"><ele>513.8571428571429</ele><time>2026-04-25T18:54:57Z</time></trkpt><trkpt lat="47.32948051939344" lon="8.7442556147708"><ele>513.7142857142858</ele><time>2026-04-25T18:54:58Z</time></trkpt><trkpt lat="47.32941464534653" lon="8.744288256946795"><ele>513.5714285714287</ele><time>2026-04-25T18:54:59Z</time></trkpt><trkpt lat="47.32935044760297" lon="8.744326640272428"><ele>513.4285714285714</ele><time>2026-04-25T18:55:00Z</time></trkpt><trkpt lat="47.32928552247556" lon="8.744368841562125"><ele>513.2857142857143</ele><time>2026-04-25T18:55:01Z</time></trkpt><trkpt lat="47.32921865511632" lon="8.744410652936331"><ele>513.1428571428572</ele><time>2026-04-25T18:55:02Z</time></trkpt><trkpt lat="47.32914839235706" lon="8.744443019842226"><ele>513.0</ele><time>2026-04-25T18:55:03Z</time></trkpt><trkpt lat="47.32907646263043" lon="8.744480223861748"><ele>513.0</ele><time>2026-04-25T18:55:04Z</time></trkpt><trkpt lat="47.329002916509694" lon="8.744518691856799"><ele>513.0</ele><time>2026-04-25T18:55:05Z</time></trkpt><trkpt lat="47.32892869991175" lon="8.744557626315098"><ele>513.0</ele><time>2026-04-25T18:55:06Z</time></trkpt><trkpt lat="47.32885112744394" lon="8.744592035883972"><ele>513.0</ele><time>2026-04-25T18:55:07Z</time></trkpt><trkpt lat="47.328771673662864" lon="8.744623694205133"><ele>513.0</ele><time>2026-04-25T18:55:08Z</time></trkpt><trkpt lat="47.32869280517438" lon="8.744664900387335"><ele>513.0</ele><time>2026-04-25T18:55:09Z</time></trkpt><trkpt lat="47.32862166678672" lon="8.744699662987838"><ele>512.0</ele><time>2026-04-25T18:55:10Z</time></trkpt><trkpt lat="47.328519814975905" lon="8.744779598458136"><ele>511.0</ele><time>2026-04-25T18:55:12Z</time></trkpt><trkpt lat="47.32845317517049" lon="8.744819471888286"><ele>510.0</ele><time>2026-04-25T18:55:13Z</time></trkpt><trkpt lat="47.32838307938976" lon="8.74486529793889"><ele>509.0</ele><time>2026-04-25T18:55:14Z</time></trkpt><trkpt lat="47.328309163729735" lon="8.744910732455923"><ele>508.0</ele><time>2026-04-25T18:55:15Z</time></trkpt><trkpt lat="47.328233947041426" lon="8.744962996181007"><ele>507.0</ele><time>2026-04-25T18:55:16Z</time></trkpt><trkpt lat="47.32816443654791" lon="8.745027580715432"><ele>507.0</ele><time>2026-04-25T18:55:17Z</time></trkpt><trkpt lat="47.328105094822185" lon="8.74511636865453"><ele>507.0</ele><time>2026-04-25T18:55:18Z</time></trkpt><trkpt lat="47.32805592293797" lon="8.74520967197616"><ele>507.0</ele><time>2026-04-25T18:55:19Z</time></trkpt><trkpt lat="47.32801302124363" lon="8.745291913855475"><ele>507.0</ele><time>2026-04-25T18:55:20Z</time></trkpt><trkpt lat="47.32796639008344" lon="8.74537770639075"><ele>507.0</ele><time>2026-04-25T18:55:21Z</time></trkpt><trkpt lat="47.3279157002129" lon="8.74546994940691"><ele>507.0</ele><time>2026-04-25T18:55:22Z</time></trkpt><trkpt lat="47.327863973058115" lon="8.745567253879887"><ele>505.8333333333333</ele><time>2026-04-25T18:55:23Z</time></trkpt><trkpt lat="47.32780998434597" lon="8.745667730761125"><ele>504.66666666666663</ele><time>2026-04-25T18:55:24Z</time></trkpt><trkpt lat="47.32775656876008" lon="8.745769210367513"><ele>503.5</ele><time>2026-04-25T18:55:25Z</time></trkpt><trkpt lat="47.327703732343366" lon="8.745853639889813"><ele>502.3333333333333</ele><time>2026-04-25T18:55:26Z</time></trkpt><trkpt lat="47.32764556656692" lon="8.745909243176682"><ele>501.16666666666663</ele><time>2026-04-25T18:55:27Z</time></trkpt><trkpt lat="47.32757356726147" lon="8.74593526404136"><ele>500.0</ele><time>2026-04-25T18:55:28Z</time></trkpt><trkpt lat="47.32749570182689" lon="8.745946367343514"><ele>499.99999999999994</ele><time>2026-04-25T18:55:29Z</time></trkpt><trkpt lat="47.32741947151121" lon="8.745956892035464"><ele>500.0</ele><time>2026-04-25T18:55:30Z</time></trkpt><trkpt lat="47.32734443777064" lon="8.74596670250203"><ele>500.0</ele><time>2026-04-25T18:55:31Z</time></trkpt><trkpt lat="47.32726790214239" lon="8.745980515922199"><ele>500.0</ele><time>2026-04-25T18:55:32Z</time></trkpt><trkpt lat="47.32719534506117" lon="8.746007819730227"><ele>499.99999999999994</ele><time>2026-04-25T18:55:33Z</time></trkpt><trkpt lat="47.327125139229054" lon="8.746060806420637"><ele>500.0</ele><time>2026-04-25T18:55:34Z</time></trkpt><trkpt lat="47.327059942747255" lon="8.746128529613884"><ele>499.3333333333333</ele><time>2026-04-25T18:55:35Z</time></trkpt><trkpt lat="47.32699729579127" lon="8.74620923994058"><ele>498.66666666666663</ele><time>2026-04-25T18:55:36Z</time></trkpt><trkpt lat="47.32693502988897" lon="8.746285967587443"><ele>498.0</ele><time>2026-04-25T18:55:37Z</time></trkpt><trkpt lat="47.32687169966697" lon="8.746360215983023"><ele>497.33333333333337</ele><time>2026-04-25T18:55:38Z</time></trkpt><trkpt lat="47.32680971519032" lon="8.746437351934597"><ele>496.6666666666667</ele><time>2026-04-25T18:55:39Z</time></trkpt><trkpt lat="47.32675009039631" lon="8.746516673929237"><ele>496.0</ele><time>2026-04-25T18:55:40Z</time></trkpt><trkpt lat="47.32668821711426" lon="8.746591490755513"><ele>496.00000000000006</ele><time>2026-04-25T18:55:41Z</time></trkpt><trkpt lat="47.32663056812358" lon="8.746665768900968"><ele>496.0</ele><time>2026-04-25T18:55:42Z</time></trkpt><trkpt lat="47.32657307725198" lon="8.74674688370565"><ele>496.0</ele><time>2026-04-25T18:55:43Z</time></trkpt><trkpt lat="47.326505803191814" lon="8.746815590669303"><ele>496.0</ele><time>2026-04-25T18:55:44Z</time></trkpt><trkpt lat="47.32643369117346" lon="8.746881025492014"><ele>496.00000000000006</ele><time>2026-04-25T18:55:45Z</time></trkpt><trkpt lat="47.32636759722748" lon="8.746947949185623"><ele>496.0</ele><time>2026-04-25T18:55:46Z</time></trkpt><trkpt lat="47.32630187417477" lon="8.747012651007175"><ele>495.83333333333337</ele><time>2026-04-25T18:55:47Z</time></trkpt><trkpt lat="47.326233318149356" lon="8.747076636754889"><ele>495.6666666666667</ele><time>2026-04-25T18:55:48Z</time></trkpt><trkpt lat="47.326165373782935" lon="8.74713910789625"><ele>495.5</ele><time>2026-04-25T18:55:49Z</time></trkpt><trkpt lat="47.32609738107846" lon="8.747199343420949"><ele>495.33333333333337</ele><time>2026-04-25T18:55:50Z</time></trkpt><trkpt lat="47.32602929115105" lon="8.747260900515434"><ele>495.1666666666667</ele><time>2026-04-25T18:55:51Z</time></trkpt><trkpt lat="47.32596229366527" lon="8.747322306127316"><ele>495.0</ele><time>2026-04-25T18:55:52Z</time></trkpt><trkpt lat="47.32589569178467" lon="8.747382931519853"><ele>494.99999999999994</ele><time>2026-04-25T18:55:53Z</time></trkpt><trkpt lat="47.32582819370717" lon="8.747436337151493"><ele>495.0</ele><time>2026-04-25T18:55:54Z</time></trkpt><trkpt lat="47.325759878898765" lon="8.747488435589704"><ele>494.99999999999994</ele><time>2026-04-25T18:55:55Z</time></trkpt><trkpt lat="47.32569368510586" lon="8.74753936445561"><ele>494.99999999999994</ele><time>2026-04-25T18:55:56Z</time></trkpt><trkpt lat="47.32562794119831" lon="8.747587779342695"><ele>495.0</ele><time>2026-04-25T18:55:57Z</time></trkpt><trkpt lat="47.32556714962626" lon="8.747642066805996"><ele>494.99999999999994</ele><time>2026-04-25T18:55:58Z</time></trkpt><trkpt lat="47.32551300422764" lon="8.747695817258867"><ele>494.99999999999994</ele><time>2026-04-25T18:55:59Z</time></trkpt><trkpt lat="47.3254371300246" lon="8.747777692878556"><ele>495.4</ele><time>2026-04-25T18:56:01Z</time></trkpt><trkpt lat="47.32538450409611" lon="8.747849937960297"><ele>495.8</ele><time>2026-04-25T18:56:21Z</time></trkpt><trkpt lat="47.325326879066964" lon="8.747910453339443"><ele>496.20000000000005</ele><time>2026-04-25T18:56:23Z</time></trkpt><trkpt lat="47.325271054953966" lon="8.748009560346107"><ele>496.6</ele><time>2026-04-25T18:56:25Z</time></trkpt><trkpt lat="47.32519604269827" lon="8.748126756090558"><ele>497.0</ele><time>2026-04-25T18:56:27Z</time></trkpt><trkpt lat="47.32512124285517" lon="8.748273289940755"><ele>496.99999999999994</ele><time>2026-04-25T18:56:29Z</time></trkpt><trkpt lat="47.325044216642624" lon="8.748425060192766"><ele>497.0</ele><time>2026-04-25T18:56:31Z</time></trkpt><trkpt lat="47.32499895027885" lon="8.748503783322336"><ele>497.0</ele><time>2026-04-25T18:56:32Z</time></trkpt><trkpt lat="47.32495673462552" lon="8.748582329032537"><ele>497.0</ele><time>2026-04-25T18:56:33Z</time></trkpt><trkpt lat="47.32491476178045" lon="8.748661294133525"><ele>496.99999999999994</ele><time>2026-04-25T18:56:34Z</time></trkpt><trkpt lat="47.3248701074427" lon="8.74873974333735"><ele>497.0</ele><time>2026-04-25T18:56:35Z</time></trkpt><trkpt lat="47.324825396262305" lon="8.748817780124376"><ele>497.2857142857143</ele><time>2026-04-25T18:56:36Z</time></trkpt><trkpt lat="47.324781004662455" lon="8.748898982021302"><ele>497.57142857142856</ele><time>2026-04-25T18:56:37Z</time></trkpt><trkpt lat="47.324737303234635" lon="8.748977849315505"><ele>497.8571428571429</ele><time>2026-04-25T18:56:38Z</time></trkpt><trkpt lat="47.32469257907197" lon="8.749056025466956"><ele>498.14285714285717</ele><time>2026-04-25T18:56:39Z</time></trkpt><trkpt lat="47.32464932946962" lon="8.749134555534551"><ele>498.42857142857144</ele><time>2026-04-25T18:56:40Z</time></trkpt><trkpt lat="47.32460596964973" lon="8.749216248887802"><ele>498.7142857142858</ele><time>2026-04-25T18:56:41Z</time></trkpt><trkpt lat="47.32456326533164" lon="8.749296849403356"><ele>499.00000000000006</ele><time>2026-04-25T18:56:42Z</time></trkpt><trkpt lat="47.32452000980974" lon="8.749378419113974"><ele>499.7142857142858</ele><time>2026-04-25T18:56:43Z</time></trkpt><trkpt lat="47.32447830961225" lon="8.749460513453942"><ele>500.42857142857144</ele><time>2026-04-25T18:56:44Z</time></trkpt><trkpt lat="47.32443584031795" lon="8.749540847313009"><ele>501.14285714285717</ele><time>2026-04-25T18:56:45Z</time></trkpt><trkpt lat="47.324394405828144" lon="8.749623282339435"><ele>501.8571428571429</ele><time>2026-04-25T18:56:46Z</time></trkpt><trkpt lat="47.32435238584776" lon="8.74970403290593"><ele>502.57142857142856</ele><time>2026-04-25T18:56:47Z</time></trkpt><trkpt lat="47.324310288033566" lon="8.749786194973892"><ele>503.2857142857143</ele><time>2026-04-25T18:56:48Z</time></trkpt><trkpt lat="47.32427028045183" lon="8.749870059033528"><ele>504.0</ele><time>2026-04-25T18:56:49Z</time></trkpt><trkpt lat="47.32422753741804" lon="8.749950841871316"><ele>504.0</ele><time>2026-04-25T18:56:50Z</time></trkpt><trkpt lat="47.32418779099135" lon="8.75003597597471"><ele>504.0</ele><time>2026-04-25T18:56:51Z</time></trkpt><trkpt lat="47.32414745044391" lon="8.750120208989928"><ele>504.0</ele><time>2026-04-25T18:56:52Z</time></trkpt><trkpt lat="47.32410582785766" lon="8.750204633136976"><ele>504.0</ele><time>2026-04-25T18:56:53Z</time></trkpt><trkpt lat="47.32406623465912" lon="8.750291497683925"><ele>504.0</ele><time>2026-04-25T18:56:54Z</time></trkpt><trkpt lat="47.32402947082766" lon="8.750379384103036"><ele>504.0</ele><time>2026-04-25T18:56:55Z</time></trkpt><trkpt lat="47.32398755162687" lon="8.750464970741882"><ele>504.0</ele><time>2026-04-25T18:56:56Z</time></trkpt><trkpt lat="47.32394624901444" lon="8.750549069613255"><ele>504.2857142857143</ele><time>2026-04-25T18:56:57Z</time></trkpt><trkpt lat="47.323909586936736" lon="8.750637429813782"><ele>504.57142857142856</ele><time>2026-04-25T18:56:58Z</time></trkpt><trkpt lat="47.32387067931192" lon="8.750724974622674"><ele>504.8571428571429</ele><time>2026-04-25T18:56:59Z</time></trkpt><trkpt lat="47.323830451715686" lon="8.750810978701951"><ele>505.14285714285717</ele><time>2026-04-25T18:57:00Z</time></trkpt><trkpt lat="47.32379523002726" lon="8.750899627392924"><ele>505.42857142857144</ele><time>2026-04-25T18:57:01Z</time></trkpt><trkpt lat="47.323758311917864" lon="8.750987075430876"><ele>505.7142857142858</ele><time>2026-04-25T18:57:02Z</time></trkpt><trkpt lat="47.3237261308368" lon="8.751079509795082"><ele>506.00000000000006</ele><time>2026-04-25T18:57:03Z</time></trkpt><trkpt lat="47.32369923402026" lon="8.751177172768829"><ele>506.28571428571433</ele><time>2026-04-25T18:57:04Z</time></trkpt><trkpt lat="47.323680047990344" lon="8.751278599278224"><ele>506.57142857142856</ele><time>2026-04-25T18:57:05Z</time></trkpt><trkpt lat="47.323665399359164" lon="8.751381920122315"><ele>506.8571428571429</ele><time>2026-04-25T18:57:06Z</time></trkpt><trkpt lat="47.323656703139655" lon="8.751486145331816"><ele>507.14285714285717</ele><time>2026-04-25T18:57:07Z</time></trkpt><trkpt lat="47.323654108678724" lon="8.751592486822064"><ele>507.42857142857144</ele><time>2026-04-25T18:57:08Z</time></trkpt><trkpt lat="47.323662535409014" lon="8.751696680653918"><ele>507.7142857142857</ele><time>2026-04-25T18:57:09Z</time></trkpt><trkpt lat="47.323673430622435" lon="8.751802207916402"><ele>508.0</ele><time>2026-04-25T18:57:10Z</time></trkpt><trkpt lat="47.32368719657732" lon="8.751905598510112"><ele>508.28571428571433</ele><time>2026-04-25T18:57:11Z</time></trkpt><trkpt lat="47.32370266063559" lon="8.752010142738525"><ele>508.57142857142856</ele><time>2026-04-25T18:57:12Z</time></trkpt><trkpt lat="47.3237202871369" lon="8.752113646346753"><ele>508.8571428571429</ele><time>2026-04-25T18:57:13Z</time></trkpt><trkpt lat="47.323737519840144" lon="8.75221756511187"><ele>509.14285714285717</ele><time>2026-04-25T18:57:14Z</time></trkpt><trkpt lat="47.32375358713162" lon="8.752321480593494"><ele>509.42857142857144</ele><time>2026-04-25T18:57:15Z</time></trkpt><trkpt lat="47.3237717403955" lon="8.752426094152922"><ele>509.7142857142857</ele><time>2026-04-25T18:57:16Z</time></trkpt><trkpt lat="47.323790104188724" lon="8.752528751777033"><ele>510.0</ele><time>2026-04-25T18:57:17Z</time></trkpt><trkpt lat="47.323806916530515" lon="8.752632506656361"><ele>510.42857142857144</ele><time>2026-04-25T18:57:18Z</time></trkpt><trkpt lat="47.32382251683599" lon="8.752735477800382"><ele>510.8571428571429</ele><time>2026-04-25T18:57:19Z</time></trkpt><trkpt lat="47.32383855393149" lon="8.75284008495168"><ele>511.28571428571433</ele><time>2026-04-25T18:57:20Z</time></trkpt><trkpt lat="47.323856759642794" lon="8.752942852220388"><ele>511.7142857142858</ele><time>2026-04-25T18:57:21Z</time></trkpt><trkpt lat="47.32387391051372" lon="8.753044945248723"><ele>512.1428571428571</ele><time>2026-04-25T18:57:22Z</time></trkpt><trkpt lat="47.32389127441077" lon="8.753148433964133"><ele>512.5714285714287</ele><time>2026-04-25T18:57:23Z</time></trkpt><trkpt lat="47.32390755999473" lon="8.753249886407415"><ele>513.0</ele><time>2026-04-25T18:57:24Z</time></trkpt><trkpt lat="47.323922149025904" lon="8.753354403612668"><ele>513.0000000000001</ele><time>2026-04-25T18:57:25Z</time></trkpt><trkpt lat="47.32393414685633" lon="8.753457732873262"><ele>513.0</ele><time>2026-04-25T18:57:26Z</time></trkpt><trkpt lat="47.323940850366675" lon="8.753563736831262"><ele>513.0</ele><time>2026-04-25T18:57:27Z</time></trkpt><trkpt lat="47.32394177573606" lon="8.753669883475153"><ele>513.0</ele><time>2026-04-25T18:57:28Z</time></trkpt><trkpt lat="47.32393907711529" lon="8.753775919939368"><ele>513.0</ele><time>2026-04-25T18:57:29Z</time></trkpt><trkpt lat="47.32394675937419" lon="8.753881071732675"><ele>513.0000000000001</ele><time>2026-04-25T18:57:30Z</time></trkpt><trkpt lat="47.3239549112791" lon="8.753988512749347"><ele>513.0</ele><time>2026-04-25T18:57:31Z</time></trkpt><trkpt lat="47.32395944869037" lon="8.75409245876726"><ele>513.1428571428572</ele><time>2026-04-25T18:57:32Z</time></trkpt><trkpt lat="47.32395177394129" lon="8.754199327180546"><ele>513.2857142857143</ele><time>2026-04-25T18:57:33Z</time></trkpt><trkpt lat="47.323936682845655" lon="8.754304478137765"><ele>513.4285714285714</ele><time>2026-04-25T18:57:34Z</time></trkpt><trkpt lat="47.32391808173323" lon="8.754406959555947"><ele>513.5714285714287</ele><time>2026-04-25T18:57:35Z</time></trkpt><trkpt lat="47.32389507857733" lon="8.754509509785448"><ele>513.7142857142858</ele><time>2026-04-25T18:57:36Z</time></trkpt><trkpt lat="47.32386902380806" lon="8.754611175890808"><ele>513.8571428571429</ele><time>2026-04-25T18:57:37Z</time></trkpt><trkpt lat="47.32383795273195" lon="8.754710136631186"><ele>514.0</ele><time>2026-04-25T18:57:38Z</time></trkpt><trkpt lat="47.323801419958606" lon="8.754806022797322"><ele>514.0</ele><time>2026-04-25T18:57:39Z</time></trkpt><trkpt lat="47.32376296140171" lon="8.75490066017659"><ele>514.0</ele><time>2026-04-25T18:57:40Z</time></trkpt><trkpt lat="47.323720874701124" lon="8.754992341942668"><ele>514.0</ele><time>2026-04-25T18:57:41Z</time></trkpt><trkpt lat="47.32367357077635" lon="8.755079850819829"><ele>514.0</ele><time>2026-04-25T18:57:42Z</time></trkpt><trkpt lat="47.32362135823542" lon="8.755163286906603"><ele>514.0</ele><time>2026-04-25T18:57:43Z</time></trkpt><trkpt lat="47.323566682696104" lon="8.7552425556422"><ele>514.0</ele><time>2026-04-25T18:57:44Z</time></trkpt><trkpt lat="47.32350882699617" lon="8.755318559101017"><ele>514.0</ele><time>2026-04-25T18:57:45Z</time></trkpt><trkpt lat="47.323449442938895" lon="8.755388281697947"><ele>514.0</ele><time>2026-04-25T18:57:46Z</time></trkpt><trkpt lat="47.32338435863408" lon="8.755455495993209"><ele>514.0</ele><time>2026-04-25T18:57:47Z</time></trkpt><trkpt lat="47.32331761478015" lon="8.75552556123538"><ele>514.0</ele><time>2026-04-25T18:57:48Z</time></trkpt><trkpt lat="47.32325011433855" lon="8.75558707256385"><ele>514.0</ele><time>2026-04-25T18:57:49Z</time></trkpt><trkpt lat="47.32317739719853" lon="8.755641428922765"><ele>514.0</ele><time>2026-04-25T18:57:50Z</time></trkpt><trkpt lat="47.32310688700681" lon="8.755696640844707"><ele>514.0</ele><time>2026-04-25T18:57:51Z</time></trkpt><trkpt lat="47.32303618070478" lon="8.755755013821684"><ele>514.0</ele><time>2026-04-25T18:57:52Z</time></trkpt><trkpt lat="47.32296488153827" lon="8.755807337984788"><ele>514.0</ele><time>2026-04-25T18:57:53Z</time></trkpt><trkpt lat="47.32288695614357" lon="8.755846169086102"><ele>514.0</ele><time>2026-04-25T18:57:54Z</time></trkpt><trkpt lat="47.322808946580324" lon="8.755873256623847"><ele>514.0</ele><time>2026-04-25T18:57:55Z</time></trkpt><trkpt lat="47.3227326249363" lon="8.755902305661236"><ele>514.0</ele><time>2026-04-25T18:57:56Z</time></trkpt><trkpt lat="47.322657925087725" lon="8.755945016180346"><ele>514.0</ele><time>2026-04-25T18:57:57Z</time></trkpt><trkpt lat="47.32258576703738" lon="8.755992542296328"><ele>514.0</ele><time>2026-04-25T18:57:58Z</time></trkpt><trkpt lat="47.32251323167833" lon="8.75604351947436"><ele>514.0</ele><time>2026-04-25T18:57:59Z</time></trkpt><trkpt lat="47.32244063390617" lon="8.75609367631806"><ele>514.0</ele><time>2026-04-25T18:58:00Z</time></trkpt><trkpt lat="47.32236858858194" lon="8.756140278908518"><ele>514.0</ele><time>2026-04-25T18:58:01Z</time></trkpt><trkpt lat="47.322297639398045" lon="8.756196157212907"><ele>514.0</ele><time>2026-04-25T18:58:02Z</time></trkpt><trkpt lat="47.32222728551208" lon="8.756252966472161"><ele>513.1666666666667</ele><time>2026-04-25T18:58:03Z</time></trkpt><trkpt lat="47.32215423799034" lon="8.756306200788266"><ele>512.3333333333334</ele><time>2026-04-25T18:58:04Z</time></trkpt><trkpt lat="47.32208313250745" lon="8.756361197803834"><ele>511.5</ele><time>2026-04-25T18:58:05Z</time></trkpt><trkpt lat="47.322010048852675" lon="8.756412351233063"><ele>510.66666666666663</ele><time>2026-04-25T18:58:06Z</time></trkpt><trkpt lat="47.32193723150758" lon="8.756466307572232"><ele>509.8333333333333</ele><time>2026-04-25T18:58:07Z</time></trkpt><trkpt lat="47.32186293951026" lon="8.756521946433523"><ele>509.0</ele><time>2026-04-25T18:58:08Z</time></trkpt><trkpt lat="47.32178666457346" lon="8.75657688432034"><ele>508.99999999999994</ele><time>2026-04-25T18:58:09Z</time></trkpt><trkpt lat="47.32171182151219" lon="8.756631681901005"><ele>509.0</ele><time>2026-04-25T18:58:10Z</time></trkpt><trkpt lat="47.32163535377772" lon="8.756687736321027"><ele>509.0</ele><time>2026-04-25T18:58:11Z</time></trkpt><trkpt lat="47.32156168518977" lon="8.756755733037991"><ele>509.0</ele><time>2026-04-25T18:58:12Z</time></trkpt><trkpt lat="47.321489990412324" lon="8.75682320653798"><ele>508.99999999999994</ele><time>2026-04-25T18:58:13Z</time></trkpt><trkpt lat="47.32141772527957" lon="8.756892745622642"><ele>509.0</ele><time>2026-04-25T18:58:14Z</time></trkpt><trkpt lat="47.321344854468954" lon="8.75696159666799"><ele>508.66666666666663</ele><time>2026-04-25T18:58:15Z</time></trkpt><trkpt lat="47.3212711215485" lon="8.757024020781067"><ele>508.3333333333333</ele><time>2026-04-25T18:58:16Z</time></trkpt><trkpt lat="47.32119728859036" lon="8.757082925843813"><ele>508.0</ele><time>2026-04-25T18:58:17Z</time></trkpt><trkpt lat="47.32112168213754" lon="8.757140713611664"><ele>507.66666666666663</ele><time>2026-04-25T18:58:18Z</time></trkpt><trkpt lat="47.32104819607903" lon="8.757199061854735"><ele>507.3333333333333</ele><time>2026-04-25T18:58:19Z</time></trkpt><trkpt lat="47.32097579070891" lon="8.757259193902943"><ele>507.0</ele><time>2026-04-25T18:58:20Z</time></trkpt><trkpt lat="47.32090352598011" lon="8.75731873375059"><ele>507.0</ele><time>2026-04-25T18:58:21Z</time></trkpt><trkpt lat="47.32083321509161" lon="8.757380781032483"><ele>507.0</ele><time>2026-04-25T18:58:22Z</time></trkpt><trkpt lat="47.32075982012043" lon="8.75743295255905"><ele>507.0</ele><time>2026-04-25T18:58:23Z</time></trkpt><trkpt lat="47.32068548427415" lon="8.75748684320697"><ele>507.0</ele><time>2026-04-25T18:58:24Z</time></trkpt><trkpt lat="47.32060924405275" lon="8.75752404893558"><ele>507.0</ele><time>2026-04-25T18:58:25Z</time></trkpt><trkpt lat="47.32052727657615" lon="8.757543869920699"><ele>507.0</ele><time>2026-04-25T18:58:26Z</time></trkpt><trkpt lat="47.32044737107845" lon="8.75754597741406"><ele>506.3333333333333</ele><time>2026-04-25T18:58:27Z</time></trkpt><trkpt lat="47.32036751704077" lon="8.75751968348254"><ele>505.66666666666663</ele><time>2026-04-25T18:58:28Z</time></trkpt><trkpt lat="47.3202919084717" lon="8.757484278500545"><ele>505.0</ele><time>2026-04-25T18:58:29Z</time></trkpt><trkpt lat="47.32021492709474" lon="8.757446932039468"><ele>504.3333333333333</ele><time>2026-04-25T18:58:30Z</time></trkpt><trkpt lat="47.3201413761773" lon="8.75741043040706"><ele>503.66666666666663</ele><time>2026-04-25T18:58:31Z</time></trkpt><trkpt lat="47.32006721667854" lon="8.757375083251539"><ele>503.0</ele><time>2026-04-25T18:58:32Z</time></trkpt><trkpt lat="47.31999312295454" lon="8.757339732600204"><ele>502.99999999999994</ele><time>2026-04-25T18:58:33Z</time></trkpt><trkpt lat="47.31991970517613" lon="8.757305844249958"><ele>503.0</ele><time>2026-04-25T18:58:34Z</time></trkpt><trkpt lat="47.319843795119176" lon="8.757272263290025"><ele>503.0</ele><time>2026-04-25T18:58:35Z</time></trkpt><trkpt lat="47.31976838528018" lon="8.757242431848857"><ele>503.0</ele><time>2026-04-25T18:58:36Z</time></trkpt><trkpt lat="47.319691773128554" lon="8.757221051721139"><ele>502.99999999999994</ele><time>2026-04-25T18:58:37Z</time></trkpt><trkpt lat="47.31961722433079" lon="8.757205436974159"><ele>503.0</ele><time>2026-04-25T18:58:38Z</time></trkpt><trkpt lat="47.31955009088386" lon="8.757199327210145"><ele>503.16666666666663</ele><time>2026-04-25T18:58:39Z</time></trkpt><trkpt lat="47.31944134264628" lon="8.757177716855887"><ele>503.3333333333333</ele><time>2026-04-25T18:58:41Z</time></trkpt><trkpt lat="47.319344498942044" lon="8.757155600225177"><ele>503.5</ele><time>2026-04-25T18:58:43Z</time></trkpt><trkpt lat="47.319280563653166" lon="8.757142974739848"><ele>503.66666666666663</ele><time>2026-04-25T18:58:44Z</time></trkpt><trkpt lat="47.319213949168606" lon="8.757129576168035"><ele>503.8333333333333</ele><time>2026-04-25T18:58:45Z</time></trkpt><trkpt lat="47.31914378839921" lon="8.75711606393181"><ele>504.0</ele><time>2026-04-25T18:58:46Z</time></trkpt><trkpt lat="47.319072446842185" lon="8.757104261427482"><ele>504.0</ele><time>2026-04-25T18:58:47Z</time></trkpt><trkpt lat="47.31899626063085" lon="8.757094823160985"><ele>504.0</ele><time>2026-04-25T18:58:48Z</time></trkpt><trkpt lat="47.318919482005946" lon="8.757086670201431"><ele>504.0</ele><time>2026-04-25T18:58:49Z</time></trkpt><trkpt lat="47.31884274442732" lon="8.75708035410245"><ele>504.0</ele><time>2026-04-25T18:58:50Z</time></trkpt><trkpt lat="47.318761707651184" lon="8.757074632836302"><ele>504.0</ele><time>2026-04-25T18:58:51Z</time></trkpt><trkpt lat="47.31868224135428" lon="8.757069986927316"><ele>504.0</ele><time>2026-04-25T18:58:52Z</time></trkpt><trkpt lat="47.31859907913679" lon="8.757070231818922"><ele>504.3333333333333</ele><time>2026-04-25T18:58:53Z</time></trkpt><trkpt lat="47.318517155183926" lon="8.757071555211533"><ele>504.66666666666663</ele><time>2026-04-25T18:58:54Z</time></trkpt><trkpt lat="47.31843252146871" lon="8.757074140258661"><ele>505.0</ele><time>2026-04-25T18:58:55Z</time></trkpt><trkpt lat="47.31835017016902" lon="8.757078414104393"><ele>505.3333333333333</ele><time>2026-04-25T18:58:56Z</time></trkpt><trkpt lat="47.318267259596674" lon="8.757083398265726"><ele>505.66666666666663</ele><time>2026-04-25T18:58:57Z</time></trkpt><trkpt lat="47.31818398621695" lon="8.757088680111629"><ele>506.0</ele><time>2026-04-25T18:58:58Z</time></trkpt><trkpt lat="47.31810025023921" lon="8.757092546775718"><ele>505.3333333333333</ele><time>2026-04-25T18:58:59Z</time></trkpt><trkpt lat="47.31801439819912" lon="8.757096400965043"><ele>504.66666666666663</ele><time>2026-04-25T18:59:00Z</time></trkpt><trkpt lat="47.31793440514026" lon="8.757094724638526"><ele>504.0</ele><time>2026-04-25T18:59:01Z</time></trkpt><trkpt lat="47.3178532690778" lon="8.757086504915835"><ele>503.33333333333337</ele><time>2026-04-25T18:59:02Z</time></trkpt><trkpt lat="47.31776738778978" lon="8.757071696497269"><ele>502.6666666666667</ele><time>2026-04-25T18:59:03Z</time></trkpt><trkpt lat="47.31768839279533" lon="8.757050720369671"><ele>502.0</ele><time>2026-04-25T18:59:04Z</time></trkpt><trkpt lat="47.31760776661272" lon="8.757025173775435"><ele>502.00000000000006</ele><time>2026-04-25T18:59:05Z</time></trkpt><trkpt lat="47.31752584864842" lon="8.756994517257285"><ele>502.0</ele><time>2026-04-25T18:59:06Z</time></trkpt><trkpt lat="47.31744403767008" lon="8.756956886386385"><ele>502.0</ele><time>2026-04-25T18:59:07Z</time></trkpt><trkpt lat="47.31736527387444" lon="8.75691522951035"><ele>502.0</ele><time>2026-04-25T18:59:08Z</time></trkpt><trkpt lat="47.31729183885527" lon="8.75686827494231"><ele>502.00000000000006</ele><time>2026-04-25T18:59:09Z</time></trkpt><trkpt lat="47.31721778081078" lon="8.75681528247558"><ele>502.0</ele><time>2026-04-25T18:59:10Z</time></trkpt><trkpt lat="47.31715971136825" lon="8.756768893553101"><ele>501.2857142857142</ele><time>2026-04-25T18:59:12Z</time></trkpt><trkpt lat="47.31710385083538" lon="8.756724424838085"><ele>500.57142857142856</ele><time>2026-04-25T18:59:17Z</time></trkpt><trkpt lat="47.31703547764309" lon="8.756653265301283"><ele>499.85714285714283</ele><time>2026-04-25T18:59:19Z</time></trkpt><trkpt lat="47.316978599511756" lon="8.75660779251581"><ele>499.1428571428571</ele><time>2026-04-25T18:59:20Z</time></trkpt><trkpt lat="47.316918581871214" lon="8.756557464233596"><ele>498.42857142857144</ele><time>2026-04-25T18:59:21Z</time></trkpt><trkpt lat="47.31686052561327" lon="8.756491680843336"><ele>497.7142857142857</ele><time>2026-04-25T18:59:22Z</time></trkpt><trkpt lat="47.31679790808967" lon="8.756423823949168"><ele>497.0</ele><time>2026-04-25T18:59:23Z</time></trkpt><trkpt lat="47.31673157389027" lon="8.756357673292786"><ele>496.99999999999994</ele><time>2026-04-25T18:59:24Z</time></trkpt><trkpt lat="47.316665087933394" lon="8.756292484140115"><ele>497.0</ele><time>2026-04-25T18:59:25Z</time></trkpt><trkpt lat="47.31659609777314" lon="8.756229329405494"><ele>497.0</ele><time>2026-04-25T18:59:26Z</time></trkpt><trkpt lat="47.31652554853381" lon="8.756168306639392"><ele>497.0</ele><time>2026-04-25T18:59:27Z</time></trkpt><trkpt lat="47.31645425411857" lon="8.756114210437698"><ele>496.99999999999994</ele><time>2026-04-25T18:59:28Z</time></trkpt><trkpt lat="47.316381596557406" lon="8.756063434339989"><ele>497.0</ele><time>2026-04-25T18:59:29Z</time></trkpt><trkpt lat="47.316308255613755" lon="8.756018041108957"><ele>497.49999999999994</ele><time>2026-04-25T18:59:30Z</time></trkpt><trkpt lat="47.316232043920586" lon="8.755979791585293"><ele>498.0</ele><time>2026-04-25T18:59:31Z</time></trkpt><trkpt lat="47.3161575224685" lon="8.755943705137941"><ele>498.5</ele><time>2026-04-25T18:59:32Z</time></trkpt><trkpt lat="47.31608148146811" lon="8.755917151690978"><ele>499.0</ele><time>2026-04-25T18:59:33Z</time></trkpt><trkpt lat="47.31600461695594" lon="8.755898793739046"><ele>499.49999999999994</ele><time>2026-04-25T18:59:34Z</time></trkpt><trkpt lat="47.31592858235141" lon="8.755880178136062"><ele>500.0</ele><time>2026-04-25T18:59:35Z</time></trkpt><trkpt lat="47.31585282956606" lon="8.755863667296362"><ele>500.0</ele><time>2026-04-25T18:59:36Z</time></trkpt><trkpt lat="47.31577809247122" lon="8.755854780285903"><ele>500.0</ele><time>2026-04-25T18:59:37Z</time></trkpt><trkpt lat="47.31570404981718" lon="8.755848513878213"><ele>500.0</ele><time>2026-04-25T18:59:38Z</time></trkpt><trkpt lat="47.31563130234137" lon="8.755848683624466"><ele>500.0</ele><time>2026-04-25T18:59:39Z</time></trkpt><trkpt lat="47.31555850304198" lon="8.75585294717008"><ele>500.0</ele><time>2026-04-25T18:59:40Z</time></trkpt><trkpt lat="47.315487792156034" lon="8.755857111604373"><ele>500.0</ele><time>2026-04-25T18:59:41Z</time></trkpt><trkpt lat="47.315416886957784" lon="8.75587085397539"><ele>500.0</ele><time>2026-04-25T18:59:42Z</time></trkpt><trkpt lat="47.31534714325955" lon="8.755889151275017"><ele>500.2857142857143</ele><time>2026-04-25T18:59:43Z</time></trkpt><trkpt lat="47.31527750312122" lon="8.755907305995983"><ele>500.57142857142856</ele><time>2026-04-25T18:59:44Z</time></trkpt><trkpt lat="47.31520935463808" lon="8.755927475575154"><ele>500.85714285714283</ele><time>2026-04-25T18:59:45Z</time></trkpt><trkpt lat="47.315141419762185" lon="8.755957002261813"><ele>501.1428571428571</ele><time>2026-04-25T18:59:46Z</time></trkpt><trkpt lat="47.31507527406976" lon="8.755990004728467"><ele>501.42857142857144</ele><time>2026-04-25T18:59:47Z</time></trkpt><trkpt lat="47.31500909688315" lon="8.756025539360929"><ele>501.71428571428567</ele><time>2026-04-25T18:59:48Z</time></trkpt><trkpt lat="47.31494489647052" lon="8.756062324189536"><ele>501.99999999999994</ele><time>2026-04-25T18:59:49Z</time></trkpt><trkpt lat="47.314880653113356" lon="8.756103159457785"><ele>502.2857142857142</ele><time>2026-04-25T18:59:50Z</time></trkpt><trkpt lat="47.31481653459352" lon="8.756145215566075"><ele>502.57142857142856</ele><time>2026-04-25T18:59:51Z</time></trkpt><trkpt lat="47.31475253475765" lon="8.7561864016094"><ele>502.85714285714283</ele><time>2026-04-25T18:59:52Z</time></trkpt><trkpt lat="47.31468986345202" lon="8.756228259953133"><ele>503.1428571428571</ele><time>2026-04-25T18:59:53Z</time></trkpt><trkpt lat="47.31462636674399" lon="8.75627231797306"><ele>503.42857142857144</ele><time>2026-04-25T18:59:54Z</time></trkpt><trkpt lat="47.31456331733232" lon="8.756316474554895"><ele>503.7142857142857</ele><time>2026-04-25T18:59:55Z</time></trkpt><trkpt lat="47.31450065543041" lon="8.756359842988834"><ele>504.0</ele><time>2026-04-25T18:59:56Z</time></trkpt><trkpt lat="47.31443799020366" lon="8.75640344458026"><ele>503.1428571428571</ele><time>2026-04-25T18:59:57Z</time></trkpt><trkpt lat="47.314375685657836" lon="8.75644645505127"><ele>502.2857142857143</ele><time>2026-04-25T18:59:58Z</time></trkpt><trkpt lat="47.314311648762846" lon="8.756489330143346"><ele>501.42857142857144</ele><time>2026-04-25T18:59:59Z</time></trkpt><trkpt lat="47.31424812282031" lon="8.75653348163749"><ele>500.57142857142856</ele><time>2026-04-25T19:00:00Z</time></trkpt><trkpt lat="47.31418439208008" lon="8.756576792461408"><ele>499.71428571428567</ele><time>2026-04-25T19:00:01Z</time></trkpt><trkpt lat="47.3141184947874" lon="8.756618344440962"><ele>498.85714285714283</ele><time>2026-04-25T19:00:02Z</time></trkpt><trkpt lat="47.314052448737364" lon="8.756658962600861"><ele>498.0</ele><time>2026-04-25T19:00:03Z</time></trkpt><trkpt lat="47.31398619261342" lon="8.756702980482878"><ele>498.0</ele><time>2026-04-25T19:00:04Z</time></trkpt><trkpt lat="47.31392103494495" lon="8.756751577503982"><ele>498.0</ele><time>2026-04-25T19:00:05Z</time></trkpt><trkpt lat="47.313851482127085" lon="8.756795965239021"><ele>498.0</ele><time>2026-04-25T19:00:06Z</time></trkpt><trkpt lat="47.31378268975077" lon="8.75683942556447"><ele>498.0</ele><time>2026-04-25T19:00:07Z</time></trkpt><trkpt lat="47.313713864384304" lon="8.75688551095892"><ele>498.0</ele><time>2026-04-25T19:00:08Z</time></trkpt><trkpt lat="47.31364519031979" lon="8.756934130087155"><ele>498.0</ele><time>2026-04-25T19:00:09Z</time></trkpt><trkpt lat="47.31357503359442" lon="8.75698151342196"><ele>498.5</ele><time>2026-04-25T19:00:10Z</time></trkpt><trkpt lat="47.31350463078639" lon="8.757028574072114"><ele>499.0</ele><time>2026-04-25T19:00:11Z</time></trkpt><trkpt lat="47.31343359050656" lon="8.757074849734401"><ele>499.5</ele><time>2026-04-25T19:00:12Z</time></trkpt><trkpt lat="47.31336193311254" lon="8.757121910237757"><ele>500.0</ele><time>2026-04-25T19:00:13Z</time></trkpt><trkpt lat="47.31329061892655" lon="8.757172488836682"><ele>500.5</ele><time>2026-04-25T19:00:14Z</time></trkpt><trkpt lat="47.313217742701994" lon="8.757221309219176"><ele>501.0</ele><time>2026-04-25T19:00:15Z</time></trkpt><trkpt lat="47.313144143496594" lon="8.757271286224183"><ele>501.0</ele><time>2026-04-25T19:00:16Z</time></trkpt><trkpt lat="47.31307502702956" lon="8.7573232634463"><ele>501.0</ele><time>2026-04-25T19:00:17Z</time></trkpt><trkpt lat="47.31300658403713" lon="8.757381154590886"><ele>501.0</ele><time>2026-04-25T19:00:18Z</time></trkpt><trkpt lat="47.31294042931507" lon="8.757446012033897"><ele>501.0</ele><time>2026-04-25T19:00:19Z</time></trkpt><trkpt lat="47.31287664942097" lon="8.757519547519365"><ele>501.0</ele><time>2026-04-25T19:00:20Z</time></trkpt><trkpt lat="47.312814065994154" lon="8.757596097517897"><ele>501.0</ele><time>2026-04-25T19:00:21Z</time></trkpt><trkpt lat="47.31275683759035" lon="8.7576856623891"><ele>500.5</ele><time>2026-04-25T19:00:22Z</time></trkpt><trkpt lat="47.31270439905769" lon="8.757779872152938"><ele>500.0</ele><time>2026-04-25T19:00:23Z</time></trkpt><trkpt lat="47.31265313408677" lon="8.757879721418634"><ele>499.5</ele><time>2026-04-25T19:00:24Z</time></trkpt><trkpt lat="47.31260171893197" lon="8.757976770526449"><ele>499.0</ele><time>2026-04-25T19:00:25Z</time></trkpt><trkpt lat="47.31255132251309" lon="8.758071131098257"><ele>498.5</ele><time>2026-04-25T19:00:26Z</time></trkpt><trkpt lat="47.31249889917886" lon="8.758167768815229"><ele>498.0</ele><time>2026-04-25T19:00:27Z</time></trkpt><trkpt lat="47.312444742365926" lon="8.75826564558197"><ele>498.0</ele><time>2026-04-25T19:00:28Z</time></trkpt><trkpt lat="47.31238862445558" lon="8.758357827248114"><ele>498.0</ele><time>2026-04-25T19:00:29Z</time></trkpt><trkpt lat="47.31232548966787" lon="8.758438049350417"><ele>498.0</ele><time>2026-04-25T19:00:30Z</time></trkpt><trkpt lat="47.312255287236056" lon="8.758508728860006"><ele>498.0</ele><time>2026-04-25T19:00:31Z</time></trkpt><trkpt lat="47.31217999062203" lon="8.758570796707785"><ele>498.0</ele><time>2026-04-25T19:00:32Z</time></trkpt><trkpt lat="47.312102003323375" lon="8.758622967606268"><ele>498.0</ele><time>2026-04-25T19:00:33Z</time></trkpt><trkpt lat="47.31201736174292" lon="8.758661780703372"><ele>497.3333333333333</ele><time>2026-04-25T19:00:34Z</time></trkpt><trkpt lat="47.31193231785744" lon="8.758697875200971"><ele>496.66666666666663</ele><time>2026-04-25T19:00:35Z</time></trkpt><trkpt lat="47.311843840399874" lon="8.758729849452097"><ele>496.0</ele><time>2026-04-25T19:00:36Z</time></trkpt><trkpt lat="47.31175301604046" lon="8.758753817055716"><ele>495.3333333333333</ele><time>2026-04-25T19:00:37Z</time></trkpt><trkpt lat="47.311663202786924" lon="8.758768370270637"><ele>494.66666666666663</ele><time>2026-04-25T19:00:38Z</time></trkpt><trkpt lat="47.31157991382469" lon="8.758778227233446"><ele>494.0</ele><time>2026-04-25T19:00:39Z</time></trkpt><trkpt lat="47.31150367022379" lon="8.75878493891588"><ele>493.99999999999994</ele><time>2026-04-25T19:00:40Z</time></trkpt><trkpt lat="47.31142927380611" lon="8.758800278111599"><ele>494.0</ele><time>2026-04-25T19:00:41Z</time></trkpt><trkpt lat="47.31135553600433" lon="8.758834280093826"><ele>494.0</ele><time>2026-04-25T19:00:42Z</time></trkpt><trkpt lat="47.31127890465911" lon="8.758872855249708"><ele>494.0</ele><time>2026-04-25T19:00:43Z</time></trkpt><trkpt lat="47.31120033511348" lon="8.758914149321932"><ele>493.99999999999994</ele><time>2026-04-25T19:00:44Z</time></trkpt><trkpt lat="47.31111874669734" lon="8.75895125054763"><ele>494.0</ele><time>2026-04-25T19:00:45Z</time></trkpt><trkpt lat="47.311035902108934" lon="8.758986603405205"><ele>492.8333333333333</ele><time>2026-04-25T19:00:46Z</time></trkpt><trkpt lat="47.310952027635444" lon="8.759021189067276"><ele>491.66666666666663</ele><time>2026-04-25T19:00:47Z</time></trkpt><trkpt lat="47.31086893206841" lon="8.759064828801023"><ele>490.5</ele><time>2026-04-25T19:00:48Z</time></trkpt><trkpt lat="47.3107898969487" lon="8.759127017263289"><ele>489.33333333333337</ele><time>2026-04-25T19:00:49Z</time></trkpt><trkpt lat="47.31070868120081" lon="8.759185664412515"><ele>488.1666666666667</ele><time>2026-04-25T19:00:50Z</time></trkpt><trkpt lat="47.31062733232015" lon="8.759244083319944"><ele>487.0</ele><time>2026-04-25T19:00:51Z</time></trkpt><trkpt lat="47.31054611839667" lon="8.759309157410627"><ele>486.20000000000005</ele><time>2026-04-25T19:00:52Z</time></trkpt><trkpt lat="47.31046790369541" lon="8.759376812887943"><ele>485.40000000000003</ele><time>2026-04-25T19:00:53Z</time></trkpt><trkpt lat="47.310393115922935" lon="8.759453894909184"><ele>484.59999999999997</ele><time>2026-04-25T19:00:54Z</time></trkpt><trkpt lat="47.31032135856289" lon="8.759536304126506"><ele>483.79999999999995</ele><time>2026-04-25T19:00:55Z</time></trkpt><trkpt lat="47.31025045873685" lon="8.759616697032344"><ele>483.0</ele><time>2026-04-25T19:00:56Z</time></trkpt><trkpt lat="47.31017856342574" lon="8.759698259802576"><ele>483.0</ele><time>2026-04-25T19:00:57Z</time></trkpt><trkpt lat="47.310106290378656" lon="8.75977657094928"><ele>483.0</ele><time>2026-04-25T19:00:58Z</time></trkpt><trkpt lat="47.31003469439708" lon="8.759857411203905"><ele>483.0</ele><time>2026-04-25T19:00:59Z</time></trkpt><trkpt lat="47.309962277972275" lon="8.759938719299685"><ele>483.0</ele><time>2026-04-25T19:01:00Z</time></trkpt><trkpt lat="47.309889910637985" lon="8.760014273595564"><ele>483.0</ele><time>2026-04-25T19:01:01Z</time></trkpt><trkpt lat="47.30981634912807" lon="8.76009027768359"><ele>483.0</ele><time>2026-04-25T19:01:02Z</time></trkpt><trkpt lat="47.3097429299592" lon="8.760164658311158"><ele>482.6666666666667</ele><time>2026-04-25T19:01:03Z</time></trkpt><trkpt lat="47.30966922548934" lon="8.760236765276959"><ele>482.33333333333337</ele><time>2026-04-25T19:01:04Z</time></trkpt><trkpt lat="47.30959255890725" lon="8.760302510802124"><ele>482.0</ele><time>2026-04-25T19:01:05Z</time></trkpt><trkpt lat="47.309510753964204" lon="8.760351909928033"><ele>481.6666666666667</ele><time>2026-04-25T19:01:06Z</time></trkpt><trkpt lat="47.3094293862608" lon="8.760398840847357"><ele>481.33333333333337</ele><time>2026-04-25T19:01:07Z</time></trkpt><trkpt lat="47.30934764435534" lon="8.760440768066857"><ele>481.0</ele><time>2026-04-25T19:01:08Z</time></trkpt><trkpt lat="47.30926295038307" lon="8.760472877367834"><ele>481.00000000000006</ele><time>2026-04-25T19:01:09Z</time></trkpt><trkpt lat="47.30917669070308" lon="8.760495354336635"><ele>481.0</ele><time>2026-04-25T19:01:10Z</time></trkpt><trkpt lat="47.309090499516955" lon="8.760507855964791"><ele>481.0</ele><time>2026-04-25T19:01:11Z</time></trkpt><trkpt lat="47.30900475198992" lon="8.760510654849352"><ele>481.0</ele><time>2026-04-25T19:01:12Z</time></trkpt><trkpt lat="47.30892058208646" lon="8.760503717088401"><ele>481.00000000000006</ele><time>2026-04-25T19:01:13Z</time></trkpt><trkpt lat="47.30883757203491" lon="8.760496879326812"><ele>481.0</ele><time>2026-04-25T19:01:14Z</time></trkpt><trkpt lat="47.308755598562335" lon="8.7604744393409"><ele>480.33333333333337</ele><time>2026-04-25T19:01:15Z</time></trkpt><trkpt lat="47.30867730211301" lon="8.760456740715144"><ele>479.6666666666667</ele><time>2026-04-25T19:01:16Z</time></trkpt><trkpt lat="47.308599457419035" lon="8.76043883943664"><ele>479.0</ele><time>2026-04-25T19:01:17Z</time></trkpt><trkpt lat="47.30852157021419" lon="8.760422583726276"><ele>478.33333333333337</ele><time>2026-04-25T19:01:18Z</time></trkpt><trkpt lat="47.30844535239322" lon="8.76040644602401"><ele>477.6666666666667</ele><time>2026-04-25T19:01:19Z</time></trkpt><trkpt lat="47.30836845174303" lon="8.760392851427927"><ele>477.0</ele><time>2026-04-25T19:01:20Z</time></trkpt><trkpt lat="47.30829228793989" lon="8.760373954206912"><ele>477.0</ele><time>2026-04-25T19:01:21Z</time></trkpt><trkpt lat="47.308214244438396" lon="8.76035553115038"><ele>477.0</ele><time>2026-04-25T19:01:22Z</time></trkpt><trkpt lat="47.308132821627765" lon="8.760338754216013"><ele>477.0</ele><time>2026-04-25T19:01:23Z</time></trkpt><trkpt lat="47.30805444945063" lon="8.760319866328915"><ele>477.0</ele><time>2026-04-25T19:01:24Z</time></trkpt><trkpt lat="47.307978279659224" lon="8.760306916611402"><ele>477.0</ele><time>2026-04-25T19:01:25Z</time></trkpt><trkpt lat="47.307909965034746" lon="8.760295795779871"><ele>477.0</ele><time>2026-04-25T19:01:26Z</time></trkpt><trkpt lat="47.30784529415797" lon="8.760286288032164"><ele>476.1666666666667</ele><time>2026-04-25T19:01:27Z</time></trkpt><trkpt lat="47.3077386006954" lon="8.760277115712897"><ele>475.33333333333337</ele><time>2026-04-25T19:01:29Z</time></trkpt><trkpt lat="47.307663452108464" lon="8.760265344157679"><ele>474.5</ele><time>2026-04-25T19:01:31Z</time></trkpt><trkpt lat="47.307602262031956" lon="8.760232491094246"><ele>473.6666666666667</ele><time>2026-04-25T19:01:34Z</time></trkpt><trkpt lat="47.307535532447744" lon="8.76017396891753"><ele>472.83333333333337</ele><time>2026-04-25T19:01:36Z</time></trkpt><trkpt lat="47.30753354075356" lon="8.760054123329196"><ele>472.0</ele><time>2026-04-25T19:01:37Z</time></trkpt><trkpt lat="47.30749408793716" lon="8.759888645580848"><ele>471.71428571428567</ele><time>2026-04-25T19:01:39Z</time></trkpt><trkpt lat="47.30746727990335" lon="8.759792951448608"><ele>471.42857142857144</ele><time>2026-04-25T19:01:40Z</time></trkpt><trkpt lat="47.30744084860505" lon="8.75969539575673"><ele>471.1428571428571</ele><time>2026-04-25T19:01:41Z</time></trkpt><trkpt lat="47.30741673329074" lon="8.759598097893253"><ele>470.85714285714283</ele><time>2026-04-25T19:01:42Z</time></trkpt><trkpt lat="47.307398330021556" lon="8.75949759974744"><ele>470.57142857142856</ele><time>2026-04-25T19:01:43Z</time></trkpt><trkpt lat="47.30737851800442" lon="8.75939210851774"><ele>470.2857142857143</ele><time>2026-04-25T19:01:44Z</time></trkpt><trkpt lat="47.30735411093614" lon="8.759282723704723"><ele>470.0</ele><time>2026-04-25T19:01:45Z</time></trkpt><trkpt lat="47.307331610264896" lon="8.75918710751611"><ele>469.8</ele><time>2026-04-25T19:01:46Z</time></trkpt><trkpt lat="47.30730199370364" lon="8.7590480792711"><ele>469.6</ele><time>2026-04-25T19:01:48Z</time></trkpt><trkpt lat="47.30730354831527" lon="8.75892519536212"><ele>469.4</ele><time>2026-04-25T19:01:50Z</time></trkpt><trkpt lat="47.30724128622007" lon="8.758819823719751"><ele>469.2</ele><time>2026-04-25T19:01:52Z</time></trkpt><trkpt lat="47.30713274796462" lon="8.758829095623838"><ele>469.0</ele><time>2026-04-25T19:01:54Z</time></trkpt><trkpt lat="47.307024222896885" lon="8.758799374237832"><ele>469.0</ele><time>2026-04-25T19:01:56Z</time></trkpt><trkpt lat="47.3069196719276" lon="8.758725769620217"><ele>469.0</ele><time>2026-04-25T19:01:58Z</time></trkpt><trkpt lat="47.30681279192545" lon="8.758659235149823"><ele>469.0</ele><time>2026-04-25T19:02:00Z</time></trkpt><trkpt lat="47.30669847850679" lon="8.758607999514306"><ele>469.0</ele><time>2026-04-25T19:02:02Z</time></trkpt><trkpt lat="47.30658205011068" lon="8.758556105590355"><ele>468.42857142857144</ele><time>2026-04-25T19:02:04Z</time></trkpt><trkpt lat="47.30652086591914" lon="8.758534068892159"><ele>467.8571428571429</ele><time>2026-04-25T19:02:05Z</time></trkpt><trkpt lat="47.30645814797438" lon="8.758515345685115"><ele>467.2857142857143</ele><time>2026-04-25T19:02:06Z</time></trkpt><trkpt lat="47.306392165217176" lon="8.75850362836064"><ele>466.7142857142857</ele><time>2026-04-25T19:02:07Z</time></trkpt><trkpt lat="47.30632427795267" lon="8.758496297855208"><ele>466.14285714285717</ele><time>2026-04-25T19:02:08Z</time></trkpt><trkpt lat="47.306253496931845" lon="8.758492609889826"><ele>465.57142857142856</ele><time>2026-04-25T19:02:09Z</time></trkpt><trkpt lat="47.30618009392535" lon="8.758490559526932"><ele>465.0</ele><time>2026-04-25T19:02:10Z</time></trkpt><trkpt lat="47.3061047583584" lon="8.758492095502486"><ele>465.0</ele><time>2026-04-25T19:02:11Z</time></trkpt><trkpt lat="47.30602874612634" lon="8.758500237823455"><ele>465.0</ele><time>2026-04-25T19:02:12Z</time></trkpt><trkpt lat="47.30594969870132" lon="8.75851016334372"><ele>465.0</ele><time>2026-04-25T19:02:13Z</time></trkpt><trkpt lat="47.305874225760164" lon="8.75852305858137"><ele>465.0</ele><time>2026-04-25T19:02:14Z</time></trkpt><trkpt lat="47.30579748207629" lon="8.75853774382081"><ele>465.0</ele><time>2026-04-25T19:02:15Z</time></trkpt><trkpt lat="47.30572089411124" lon="8.758552526180319"><ele>465.0</ele><time>2026-04-25T19:02:16Z</time></trkpt><trkpt lat="47.30564315430676" lon="8.758566332086854"><ele>466.1666666666667</ele><time>2026-04-25T19:02:17Z</time></trkpt><trkpt lat="47.30556624066559" lon="8.75856938578604"><ele>467.33333333333337</ele><time>2026-04-25T19:02:18Z</time></trkpt><trkpt lat="47.305490057498695" lon="8.758570901855887"><ele>468.5</ele><time>2026-04-25T19:02:19Z</time></trkpt><trkpt lat="47.30541554115109" lon="8.758564378266708"><ele>469.6666666666667</ele><time>2026-04-25T19:02:20Z</time></trkpt><trkpt lat="47.30533903556747" lon="8.758555550616462"><ele>470.83333333333337</ele><time>2026-04-25T19:02:21Z</time></trkpt><trkpt lat="47.305266333954584" lon="8.758539798183625"><ele>472.0</ele><time>2026-04-25T19:02:22Z</time></trkpt><trkpt lat="47.305192880793214" lon="8.758523573774552"><ele>472.00000000000006</ele><time>2026-04-25T19:02:23Z</time></trkpt><trkpt lat="47.30512405170541" lon="8.758506392931832"><ele>472.0</ele><time>2026-04-25T19:02:24Z</time></trkpt><trkpt lat="47.30505438149259" lon="8.758488119655041"><ele>472.0</ele><time>2026-04-25T19:02:25Z</time></trkpt><trkpt lat="47.30498969995039" lon="8.758461154261667"><ele>472.0</ele><time>2026-04-25T19:02:26Z</time></trkpt><trkpt lat="47.3049279951343" lon="8.758426791140016"><ele>472.00000000000006</ele><time>2026-04-25T19:02:27Z</time></trkpt><trkpt lat="47.3048108629898" lon="8.758341015231258"><ele>472.0</ele><time>2026-04-25T19:02:29Z</time></trkpt><trkpt lat="47.30469705331962" lon="8.758269854639497"><ele>472.0</ele><time>2026-04-25T19:02:31Z</time></trkpt><trkpt lat="47.30458079293937" lon="8.758214660461082"><ele>472.0</ele><time>2026-04-25T19:02:33Z</time></trkpt><trkpt lat="47.304464440153374" lon="8.758193090705236"><ele>472.0</ele><time>2026-04-25T19:02:35Z</time></trkpt><trkpt lat="47.30435109374493" lon="8.758233605252387"><ele>472.0</ele><time>2026-04-25T19:02:37Z</time></trkpt><trkpt lat="47.30425623622983" lon="8.758352448634794"><ele>472.00000000000006</ele><time>2026-04-25T19:02:39Z</time></trkpt><trkpt lat="47.30415675374864" lon="8.758472242144608"><ele>472.0</ele><time>2026-04-25T19:02:41Z</time></trkpt><trkpt lat="47.304105265136634" lon="8.758532461523538"><ele>472.0</ele><time>2026-04-25T19:02:42Z</time></trkpt><trkpt lat="47.304055634190455" lon="8.758596696755141"><ele>472.0</ele><time>2026-04-25T19:02:43Z</time></trkpt><trkpt lat="47.30400590685941" lon="8.758660323155352"><ele>472.00000000000006</ele><time>2026-04-25T19:02:44Z</time></trkpt><trkpt lat="47.303953149582085" lon="8.758722744178302"><ele>472.0</ele><time>2026-04-25T19:02:45Z</time></trkpt><trkpt lat="47.30390088191345" lon="8.758783277060743"><ele>472.42857142857144</ele><time>2026-04-25T19:02:46Z</time></trkpt><trkpt lat="47.303850358157405" lon="8.758848241288936"><ele>472.8571428571429</ele><time>2026-04-25T19:02:47Z</time></trkpt><trkpt lat="47.30380159122409" lon="8.758914947908345"><ele>473.28571428571433</ele><time>2026-04-25T19:02:48Z</time></trkpt><trkpt lat="47.30374971359725" lon="8.758974398771887"><ele>473.7142857142857</ele><time>2026-04-25T19:02:49Z</time></trkpt><trkpt lat="47.30369780629644" lon="8.759034057681962"><ele>474.1428571428572</ele><time>2026-04-25T19:02:50Z</time></trkpt><trkpt lat="47.30364808368935" lon="8.759096644748528"><ele>474.5714285714286</ele><time>2026-04-25T19:02:51Z</time></trkpt><trkpt lat="47.30360057787168" lon="8.759161097167569"><ele>475.0</ele><time>2026-04-25T19:02:52Z</time></trkpt><trkpt lat="47.30355151130288" lon="8.759221699750578"><ele>475.0</ele><time>2026-04-25T19:02:53Z</time></trkpt><trkpt lat="47.30349998404122" lon="8.759278827945982"><ele>475.00000000000006</ele><time>2026-04-25T19:02:54Z</time></trkpt><trkpt lat="47.303448735188276" lon="8.759333974930819"><ele>475.0</ele><time>2026-04-25T19:02:55Z</time></trkpt><trkpt lat="47.303399056953204" lon="8.759391151732219"><ele>475.0</ele><time>2026-04-25T19:02:56Z</time></trkpt><trkpt lat="47.30334968727982" lon="8.759450161855643"><ele>475.00000000000006</ele><time>2026-04-25T19:02:57Z</time></trkpt><trkpt lat="47.303254814559715" lon="8.759564349046187"><ele>475.0</ele><time>2026-04-25T19:02:59Z</time></trkpt><trkpt lat="47.30320340825996" lon="8.759621739127988"><ele>475.0</ele><time>2026-04-25T19:03:00Z</time></trkpt><trkpt lat="47.30310772715888" lon="8.759732308927648"><ele>476.25</ele><time>2026-04-25T19:03:02Z</time></trkpt><trkpt lat="47.30300668399889" lon="8.759837628411011"><ele>477.5</ele><time>2026-04-25T19:03:04Z</time></trkpt><trkpt lat="47.302903670440635" lon="8.7599316273707"><ele>478.75</ele><time>2026-04-25T19:03:06Z</time></trkpt><trkpt lat="47.30280554023181" lon="8.760040132053328"><ele>480.0</ele><time>2026-04-25T19:03:08Z</time></trkpt><trkpt lat="47.30272374319941" lon="8.760174427057917"><ele>482.0</ele><time>2026-04-25T19:03:10Z</time></trkpt><trkpt lat="47.302637025569126" lon="8.760297601520856"><ele>484.0</ele><time>2026-04-25T19:03:12Z</time></trkpt><trkpt lat="47.30253896324585" lon="8.76040247302447"><ele>486.0</ele><time>2026-04-25T19:03:14Z</time></trkpt><trkpt lat="47.302445212571705" lon="8.7605131031164"><ele>488.0</ele><time>2026-04-25T19:03:16Z</time></trkpt><trkpt lat="47.30235144514833" lon="8.760627094360709"><ele>488.0</ele><time>2026-04-25T19:03:18Z</time></trkpt><trkpt lat="47.30226153367475" lon="8.760748425141339"><ele>488.0</ele><time>2026-04-25T19:03:20Z</time></trkpt><trkpt lat="47.30216920057752" lon="8.760865812558514"><ele>488.0</ele><time>2026-04-25T19:03:22Z</time></trkpt><trkpt lat="47.302079007827665" lon="8.760986772861969"><ele>488.0</ele><time>2026-04-25T19:03:24Z</time></trkpt><trkpt lat="47.30198807419345" lon="8.761108174414954"><ele>489.59999999999997</ele><time>2026-04-25T19:03:26Z</time></trkpt><trkpt lat="47.30189648929323" lon="8.761226386448971"><ele>491.19999999999993</ele><time>2026-04-25T19:03:28Z</time></trkpt><trkpt lat="47.30184824965205" lon="8.761286446181838"><ele>492.8</ele><time>2026-04-25T19:03:29Z</time></trkpt><trkpt lat="47.301754960640366" lon="8.761407600081903"><ele>494.4</ele><time>2026-04-25T19:03:31Z</time></trkpt><trkpt lat="47.30166325739955" lon="8.761532076166533"><ele>496.0</ele><time>2026-04-25T19:03:33Z</time></trkpt><trkpt lat="47.30157154285527" lon="8.761654914570594"><ele>496.0</ele><time>2026-04-25T19:03:35Z</time></trkpt><trkpt lat="47.3014784339016" lon="8.761772020904804"><ele>496.0</ele><time>2026-04-25T19:03:37Z</time></trkpt><trkpt lat="47.301395246603825" lon="8.76190484713354"><ele>496.0</ele><time>2026-04-25T19:03:39Z</time></trkpt><trkpt lat="47.30133040605656" lon="8.762061278620099"><ele>496.0</ele><time>2026-04-25T19:03:41Z</time></trkpt><trkpt lat="47.30127845457106" lon="8.762226200198803"><ele>496.00000000000006</ele><time>2026-04-25T19:03:43Z</time></trkpt><trkpt lat="47.301238409655866" lon="8.762401678946302"><ele>496.0</ele><time>2026-04-25T19:03:45Z</time></trkpt><trkpt lat="47.3012276625418" lon="8.76249695519132"><ele>496.0</ele><time>2026-04-25T19:03:46Z</time></trkpt><trkpt lat="47.30121970328391" lon="8.762594471321243"><ele>496.0</ele><time>2026-04-25T19:03:47Z</time></trkpt><trkpt lat="47.301212434255355" lon="8.762693803769839"><ele>496.00000000000006</ele><time>2026-04-25T19:03:48Z</time></trkpt><trkpt lat="47.30120244030635" lon="8.762794657234938"><ele>496.0</ele><time>2026-04-25T19:03:49Z</time></trkpt><trkpt lat="47.30119269878605" lon="8.762894388533875"><ele>496.00000000000006</ele><time>2026-04-25T19:03:50Z</time></trkpt><trkpt lat="47.30117564777201" lon="8.763000342790205"><ele>496.0</ele><time>2026-04-25T19:03:51Z</time></trkpt><trkpt lat="47.301147584338516" lon="8.76309998674076"><ele>496.0</ele><time>2026-04-25T19:03:52Z</time></trkpt><trkpt lat="47.30110677734645" lon="8.763195270150037"><ele>496.0</ele><time>2026-04-25T19:03:53Z</time></trkpt><trkpt lat="47.30105901818684" lon="8.763279974256752"><ele>496.00000000000006</ele><time>2026-04-25T19:03:54Z</time></trkpt><trkpt lat="47.301006071525094" lon="8.763361251352695"><ele>496.0</ele><time>2026-04-25T19:03:55Z</time></trkpt><trkpt lat="47.300943392009934" lon="8.763428017512807"><ele>496.00000000000006</ele><time>2026-04-25T19:03:56Z</time></trkpt><trkpt lat="47.300878710285915" lon="8.763490913054115"><ele>496.0</ele><time>2026-04-25T19:03:57Z</time></trkpt><trkpt lat="47.300811875976024" lon="8.763550341903967"><ele>496.0</ele><time>2026-04-25T19:03:58Z</time></trkpt><trkpt lat="47.30074238552421" lon="8.763605025015647"><ele>496.0</ele><time>2026-04-25T19:03:59Z</time></trkpt><trkpt lat="47.300675908806134" lon="8.763666897398451"><ele>496.00000000000006</ele><time>2026-04-25T19:04:00Z</time></trkpt><trkpt lat="47.30061341338991" lon="8.763738263608817"><ele>496.0</ele><time>2026-04-25T19:04:01Z</time></trkpt><trkpt lat="47.30055889391386" lon="8.763821071399875"><ele>495.1666666666667</ele><time>2026-04-25T19:04:02Z</time></trkpt><trkpt lat="47.30051669994819" lon="8.763919294231144"><ele>494.33333333333337</ele><time>2026-04-25T19:04:03Z</time></trkpt><trkpt lat="47.300478573859024" lon="8.764017576955183"><ele>493.5</ele><time>2026-04-25T19:04:04Z</time></trkpt><trkpt lat="47.300454298186864" lon="8.764123178955366"><ele>492.66666666666663</ele><time>2026-04-25T19:04:05Z</time></trkpt><trkpt lat="47.300431495953305" lon="8.764231492652751"><ele>491.8333333333333</ele><time>2026-04-25T19:04:06Z</time></trkpt><trkpt lat="47.30041182700137" lon="8.764336643160407"><ele>491.0</ele><time>2026-04-25T19:04:07Z</time></trkpt><trkpt lat="47.30039588529668" lon="8.764441666280911"><ele>491.0</ele><time>2026-04-25T19:04:08Z</time></trkpt><trkpt lat="47.30037940423201" lon="8.76454831424274"><ele>490.99999999999994</ele><time>2026-04-25T19:04:09Z</time></trkpt><trkpt lat="47.3003629892933" lon="8.764654087641931"><ele>491.0</ele><time>2026-04-25T19:04:10Z</time></trkpt><trkpt lat="47.30034685020683" lon="8.764759371002672"><ele>491.0</ele><time>2026-04-25T19:04:11Z</time></trkpt><trkpt lat="47.300330966884985" lon="8.764865354859039"><ele>490.99999999999994</ele><time>2026-04-25T19:04:12Z</time></trkpt><trkpt lat="47.3003155860765" lon="8.7649717193698"><ele>491.0</ele><time>2026-04-25T19:04:13Z</time></trkpt><trkpt lat="47.300299364579686" lon="8.76507820015761"><ele>491.0</ele><time>2026-04-25T19:04:14Z</time></trkpt><trkpt lat="47.30028051675324" lon="8.765184623568503"><ele>491.66666666666663</ele><time>2026-04-25T19:04:15Z</time></trkpt><trkpt lat="47.30026193805372" lon="8.76529066184027"><ele>492.3333333333333</ele><time>2026-04-25T19:04:16Z</time></trkpt><trkpt lat="47.30024442334124" lon="8.765398486126504"><ele>493.0</ele><time>2026-04-25T19:04:17Z</time></trkpt><trkpt lat="47.30022703808832" lon="8.765505719901688"><ele>493.66666666666663</ele><time>2026-04-25T19:04:18Z</time></trkpt><trkpt lat="47.300209674965686" lon="8.765614437576405"><ele>494.3333333333333</ele><time>2026-04-25T19:04:19Z</time></trkpt><trkpt lat="47.300193534093076" lon="8.765725121587622"><ele>495.0</ele><time>2026-04-25T19:04:20Z</time></trkpt><trkpt lat="47.300178291516325" lon="8.765835968171148"><ele>495.0</ele><time>2026-04-25T19:04:21Z</time></trkpt><trkpt lat="47.300160997709085" lon="8.76594652328302"><ele>495.0</ele><time>2026-04-25T19:04:22Z</time></trkpt><trkpt lat="47.300143181303206" lon="8.766057895733391"><ele>495.0</ele><time>2026-04-25T19:04:23Z</time></trkpt><trkpt lat="47.30012556132693" lon="8.766169505997707"><ele>495.0</ele><time>2026-04-25T19:04:24Z</time></trkpt><trkpt lat="47.300108215361085" lon="8.76627998087743"><ele>495.0</ele><time>2026-04-25T19:04:25Z</time></trkpt><trkpt lat="47.300088978431326" lon="8.76639068049927"><ele>495.0</ele><time>2026-04-25T19:04:26Z</time></trkpt><trkpt lat="47.30006999876931" lon="8.766502172008437"><ele>496.1666666666667</ele><time>2026-04-25T19:04:27Z</time></trkpt><trkpt lat="47.3000508281011" lon="8.766612341251466"><ele>497.33333333333337</ele><time>2026-04-25T19:04:28Z</time></trkpt><trkpt lat="47.30002076767004" lon="8.766715790332398"><ele>498.5</ele><time>2026-04-25T19:04:29Z</time></trkpt><trkpt lat="47.29999951759746" lon="8.76682345559489"><ele>499.6666666666667</ele><time>2026-04-25T19:04:30Z</time></trkpt><trkpt lat="47.29998455869641" lon="8.766932912306723"><ele>500.83333333333337</ele><time>2026-04-25T19:04:31Z</time></trkpt><trkpt lat="47.29997798738936" lon="8.76704289476135"><ele>502.0</ele><time>2026-04-25T19:04:32Z</time></trkpt><trkpt lat="47.299974048278784" lon="8.767150633485793"><ele>502.8</ele><time>2026-04-25T19:04:33Z</time></trkpt><trkpt lat="47.29996794882151" lon="8.76724555298338"><ele>503.6</ele><time>2026-04-25T19:04:34Z</time></trkpt><trkpt lat="47.29997145116646" lon="8.767411598311174"><ele>504.40000000000003</ele><time>2026-04-25T19:04:36Z</time></trkpt><trkpt lat="47.299921832022555" lon="8.767500156360894"><ele>505.20000000000005</ele><time>2026-04-25T19:04:38Z</time></trkpt><trkpt lat="47.29988571588093" lon="8.767646261514619"><ele>506.0</ele><time>2026-04-25T19:04:40Z</time></trkpt><trkpt lat="47.29988652892045" lon="8.76784132442366"><ele>506.00000000000006</ele><time>2026-04-25T19:04:42Z</time></trkpt><trkpt lat="47.2998556485148" lon="8.767925373095766"><ele>506.0</ele><time>2026-04-25T19:04:43Z</time></trkpt><trkpt lat="47.299831852366076" lon="8.7680132140552"><ele>506.00000000000006</ele><time>2026-04-25T19:04:44Z</time></trkpt><trkpt lat="47.29979624130655" lon="8.768098061194017"><ele>506.00000000000006</ele><time>2026-04-25T19:04:45Z</time></trkpt><trkpt lat="47.2997588588029" lon="8.768185518171942"><ele>506.0</ele><time>2026-04-25T19:04:46Z</time></trkpt><trkpt lat="47.299717873796425" lon="8.768270408790237"><ele>506.00000000000006</ele><time>2026-04-25T19:04:47Z</time></trkpt><trkpt lat="47.29967122889097" lon="8.7683487977195"><ele>506.00000000000006</ele><time>2026-04-25T19:04:48Z</time></trkpt><trkpt lat="47.29961707078984" lon="8.768423258433863"><ele>505.99999999999994</ele><time>2026-04-25T19:04:49Z</time></trkpt><trkpt lat="47.2995592310456" lon="8.768491458636039"><ele>506.0</ele><time>2026-04-25T19:04:50Z</time></trkpt><trkpt lat="47.29950709157461" lon="8.768571047130829"><ele>506.0</ele><time>2026-04-25T19:04:51Z</time></trkpt><trkpt lat="47.29945566162825" lon="8.76865452240525"><ele>506.0</ele><time>2026-04-25T19:04:52Z</time></trkpt><trkpt lat="47.299403437824765" lon="8.76873943701613"><ele>505.99999999999994</ele><time>2026-04-25T19:04:53Z</time></trkpt><trkpt lat="47.299300639091314" lon="8.76874935952883"><ele>506.0</ele><time>2026-04-25T19:04:54Z</time></trkpt><trkpt lat="47.299247256165806" lon="8.768831634792443"><ele>506.16666666666663</ele><time>2026-04-25T19:04:55Z</time></trkpt><trkpt lat="47.29919458270426" lon="8.768912816445642"><ele>506.3333333333333</ele><time>2026-04-25T19:04:56Z</time></trkpt><trkpt lat="47.29914132683858" lon="8.768994896058329"><ele>506.5</ele><time>2026-04-25T19:04:57Z</time></trkpt><trkpt lat="47.299088433004776" lon="8.769076417556077"><ele>506.66666666666663</ele><time>2026-04-25T19:04:58Z</time></trkpt><trkpt lat="47.29903445369855" lon="8.769159611968757"><ele>506.8333333333333</ele><time>2026-04-25T19:04:59Z</time></trkpt><trkpt lat="47.29898156574417" lon="8.769241589579497"><ele>507.0</ele><time>2026-04-25T19:05:00Z</time></trkpt><trkpt lat="47.298927079365576" lon="8.769326709751319"><ele>507.3333333333333</ele><time>2026-04-25T19:05:01Z</time></trkpt><trkpt lat="47.29887354752313" lon="8.769410338791635"><ele>507.66666666666663</ele><time>2026-04-25T19:05:02Z</time></trkpt><trkpt lat="47.29882032536853" lon="8.769495498915365"><ele>508.0</ele><time>2026-04-25T19:05:03Z</time></trkpt><trkpt lat="47.29876794576593" lon="8.769579669472934"><ele>508.3333333333333</ele><time>2026-04-25T19:05:04Z</time></trkpt><trkpt lat="47.29871607515697" lon="8.769668933707923"><ele>508.66666666666663</ele><time>2026-04-25T19:05:05Z</time></trkpt><trkpt lat="47.29866742602553" lon="8.769753094716346"><ele>509.0</ele><time>2026-04-25T19:05:06Z</time></trkpt><trkpt lat="47.29861809606439" lon="8.769846526687807"><ele>508.99999999999994</ele><time>2026-04-25T19:05:07Z</time></trkpt><trkpt lat="47.298572030592084" lon="8.76994037481766"><ele>509.0</ele><time>2026-04-25T19:05:08Z</time></trkpt><trkpt lat="47.298529551648684" lon="8.770037817184262"><ele>509.0</ele><time>2026-04-25T19:05:09Z</time></trkpt><trkpt lat="47.29849087257349" lon="8.770134375508219"><ele>509.0</ele><time>2026-04-25T19:05:10Z</time></trkpt><trkpt lat="47.29845742358961" lon="8.770232905990852"><ele>508.99999999999994</ele><time>2026-04-25T19:05:11Z</time></trkpt><trkpt lat="47.29842877132282" lon="8.770323220761904"><ele>509.0</ele><time>2026-04-25T19:05:12Z</time></trkpt><trkpt lat="47.2983838202112" lon="8.77047571535875"><ele>509.16666666666663</ele><time>2026-04-25T19:05:14Z</time></trkpt><trkpt lat="47.29834251906233" lon="8.770637026961282"><ele>509.3333333333333</ele><time>2026-04-25T19:05:16Z</time></trkpt><trkpt lat="47.298323037562014" lon="8.770740102264087"><ele>509.5</ele><time>2026-04-25T19:05:17Z</time></trkpt><trkpt lat="47.2983058263551" lon="8.770833965334278"><ele>509.66666666666663</ele><time>2026-04-25T19:05:18Z</time></trkpt><trkpt lat="47.29828960877338" lon="8.770935315151636"><ele>509.8333333333333</ele><time>2026-04-25T19:05:19Z</time></trkpt><trkpt lat="47.29827551363893" lon="8.771033578490135"><ele>510.0</ele><time>2026-04-25T19:05:20Z</time></trkpt><trkpt lat="47.298253924528424" lon="8.771195062582875"><ele>510.3333333333333</ele><time>2026-04-25T19:05:22Z</time></trkpt><trkpt lat="47.29824110508253" lon="8.771290610397346"><ele>510.66666666666663</ele><time>2026-04-25T19:05:23Z</time></trkpt><trkpt lat="47.29823058141665" lon="8.77138235903327"><ele>511.0</ele><time>2026-04-25T19:05:24Z</time></trkpt><trkpt lat="47.29820793801827" lon="8.771579771745646"><ele>511.3333333333333</ele><time>2026-04-25T19:05:26Z</time></trkpt><trkpt lat="47.298196486632584" lon="8.771679608849459"><ele>511.66666666666663</ele><time>2026-04-25T19:05:27Z</time></trkpt><trkpt lat="47.29818486044722" lon="8.77178096977508"><ele>512.0</ele><time>2026-04-25T19:05:28Z</time></trkpt><trkpt lat="47.298173047703784" lon="8.771883954966782"><ele>512.1428571428571</ele><time>2026-04-25T19:05:29Z</time></trkpt><trkpt lat="47.29816066140785" lon="8.771987840977387"><ele>512.2857142857142</ele><time>2026-04-25T19:05:30Z</time></trkpt><trkpt lat="47.2981482507381" lon="8.772093511957625"><ele>512.4285714285714</ele><time>2026-04-25T19:05:31Z</time></trkpt><trkpt lat="47.29813618410047" lon="8.772196253644593"><ele>512.5714285714286</ele><time>2026-04-25T19:05:32Z</time></trkpt><trkpt lat="47.29812327642667" lon="8.772306153650478"><ele>512.7142857142858</ele><time>2026-04-25T19:05:33Z</time></trkpt><trkpt lat="47.29811179114317" lon="8.77241386617482"><ele>512.8571428571429</ele><time>2026-04-25T19:05:34Z</time></trkpt><trkpt lat="47.29809984414636" lon="8.772521285940773"><ele>513.0</ele><time>2026-04-25T19:05:35Z</time></trkpt><trkpt lat="47.298087810379876" lon="8.772629485817536"><ele>514.1666666666666</ele><time>2026-04-25T19:05:36Z</time></trkpt><trkpt lat="47.298075441242936" lon="8.772740701119773"><ele>515.3333333333334</ele><time>2026-04-25T19:05:37Z</time></trkpt><trkpt lat="47.29806299925131" lon="8.77285257153613"><ele>516.5</ele><time>2026-04-25T19:05:38Z</time></trkpt><trkpt lat="47.29805050090882" lon="8.772964948146731"><ele>517.6666666666667</ele><time>2026-04-25T19:05:39Z</time></trkpt><trkpt lat="47.29803746251254" lon="8.773076443327211"><ele>518.8333333333334</ele><time>2026-04-25T19:05:40Z</time></trkpt><trkpt lat="47.29802413840608" lon="8.773190833000704"><ele>520.0</ele><time>2026-04-25T19:05:41Z</time></trkpt><trkpt lat="47.298010371747004" lon="8.77330318376892"><ele>520.0</ele><time>2026-04-25T19:05:42Z</time></trkpt><trkpt lat="47.29799467260778" lon="8.773419126883299"><ele>520.0</ele><time>2026-04-25T19:05:43Z</time></trkpt><trkpt lat="47.297978404129836" lon="8.77353459679266"><ele>520.0</ele><time>2026-04-25T19:05:44Z</time></trkpt><trkpt lat="47.29796099589979" lon="8.773645928375496"><ele>520.0</ele><time>2026-04-25T19:05:45Z</time></trkpt><trkpt lat="47.29794109109111" lon="8.773760049306455"><ele>520.0</ele><time>2026-04-25T19:05:46Z</time></trkpt><trkpt lat="47.297919766984755" lon="8.773872342525474"><ele>520.0</ele><time>2026-04-25T19:05:47Z</time></trkpt><trkpt lat="47.29789821469442" lon="8.773981550575924"><ele>519.6666666666667</ele><time>2026-04-25T19:05:48Z</time></trkpt><trkpt lat="47.29787193084679" lon="8.7740942763725"><ele>519.3333333333334</ele><time>2026-04-25T19:05:49Z</time></trkpt><trkpt lat="47.29784530395178" lon="8.7742044275578"><ele>519.0</ele><time>2026-04-25T19:05:50Z</time></trkpt><trkpt lat="47.2978168106132" lon="8.774316544081552"><ele>518.6666666666666</ele><time>2026-04-25T19:05:51Z</time></trkpt><trkpt lat="47.29778784702697" lon="8.77442703192905"><ele>518.3333333333333</ele><time>2026-04-25T19:05:52Z</time></trkpt><trkpt lat="47.297758442144854" lon="8.77453759792094"><ele>518.0</ele><time>2026-04-25T19:05:53Z</time></trkpt><trkpt lat="47.29772896948531" lon="8.774648418368416"><ele>517.3333333333333</ele><time>2026-04-25T19:05:54Z</time></trkpt><trkpt lat="47.29769954568749" lon="8.774759055215672"><ele>516.6666666666666</ele><time>2026-04-25T19:05:55Z</time></trkpt><trkpt lat="47.29767041453085" lon="8.774868591761258"><ele>516.0</ele><time>2026-04-25T19:05:56Z</time></trkpt><trkpt lat="47.29764131733017" lon="8.774978000459653"><ele>515.3333333333334</ele><time>2026-04-25T19:05:57Z</time></trkpt><trkpt lat="47.29761228136478" lon="8.775087178784927"><ele>514.6666666666667</ele><time>2026-04-25T19:05:58Z</time></trkpt><trkpt lat="47.29758333592251" lon="8.775196017203609"><ele>514.0</ele><time>2026-04-25T19:05:59Z</time></trkpt><trkpt lat="47.297554153759016" lon="8.775304451512612"><ele>513.5</ele><time>2026-04-25T19:06:00Z</time></trkpt><trkpt lat="47.29752390518517" lon="8.775413835836444"><ele>513.0</ele><time>2026-04-25T19:06:01Z</time></trkpt><trkpt lat="47.29749325422608" lon="8.775522580377341"><ele>512.5</ele><time>2026-04-25T19:06:02Z</time></trkpt><trkpt lat="47.29746257363684" lon="8.775627354353599"><ele>512.0</ele><time>2026-04-25T19:06:03Z</time></trkpt><trkpt lat="47.297428479591545" lon="8.775734808400165"><ele>511.50000000000006</ele><time>2026-04-25T19:06:04Z</time></trkpt><trkpt lat="47.297393840116385" lon="8.775840783414623"><ele>511.0</ele><time>2026-04-25T19:06:05Z</time></trkpt><trkpt lat="47.297356615816646" lon="8.775949132744275"><ele>510.33333333333337</ele><time>2026-04-25T19:06:06Z</time></trkpt><trkpt lat="47.29731916382685" lon="8.776057329530715"><ele>509.6666666666667</ele><time>2026-04-25T19:06:07Z</time></trkpt><trkpt lat="47.297278648912" lon="8.776169208117304"><ele>509.0</ele><time>2026-04-25T19:06:08Z</time></trkpt><trkpt lat="47.29723738689681" lon="8.776283150687458"><ele>508.33333333333337</ele><time>2026-04-25T19:06:09Z</time></trkpt><trkpt lat="47.29719477286783" lon="8.776400825965945"><ele>507.6666666666667</ele><time>2026-04-25T19:06:10Z</time></trkpt><trkpt lat="47.297151602960234" lon="8.776520036883886"><ele>507.0</ele><time>2026-04-25T19:06:11Z</time></trkpt><trkpt lat="47.29710734535388" lon="8.776642251089243"><ele>507.40000000000003</ele><time>2026-04-25T19:06:12Z</time></trkpt><trkpt lat="47.29706361054882" lon="8.776763021924923"><ele>507.80000000000007</ele><time>2026-04-25T19:06:13Z</time></trkpt><trkpt lat="47.29701908720295" lon="8.776885969801766"><ele>508.2</ele><time>2026-04-25T19:06:14Z</time></trkpt><trkpt lat="47.29697438740208" lon="8.777009405120555"><ele>508.6</ele><time>2026-04-25T19:06:15Z</time></trkpt><trkpt lat="47.29692856432422" lon="8.777135942862676"><ele>509.0</ele><time>2026-04-25T19:06:16Z</time></trkpt><trkpt lat="47.29688306218007" lon="8.777259744707578"><ele>509.0</ele><time>2026-04-25T19:06:17Z</time></trkpt><trkpt lat="47.29683644230202" lon="8.777384086216726"><ele>509.0</ele><time>2026-04-25T19:06:18Z</time></trkpt><trkpt lat="47.29678960911174" lon="8.777519658886563"><ele>509.0</ele><time>2026-04-25T19:06:19Z</time></trkpt><trkpt lat="47.29674752788884" lon="8.777653135354186"><ele>509.0</ele><time>2026-04-25T19:06:20Z</time></trkpt><trkpt lat="47.29670716567131" lon="8.77778592241931"><ele>509.0</ele><time>2026-04-25T19:06:21Z</time></trkpt><trkpt lat="47.2966672161847" lon="8.7779250010847"><ele>508.2</ele><time>2026-04-25T19:06:22Z</time></trkpt><trkpt lat="47.29662955573777" lon="8.778064468100784"><ele>507.4</ele><time>2026-04-25T19:06:23Z</time></trkpt><trkpt lat="47.296597550130436" lon="8.778205418694213"><ele>506.6</ele><time>2026-04-25T19:06:24Z</time></trkpt><trkpt lat="47.2965711203933" lon="8.77833649766037"><ele>505.8</ele><time>2026-04-25T19:06:25Z</time></trkpt><trkpt lat="47.296549004426524" lon="8.778451169082977"><ele>505.0</ele><time>2026-04-25T19:06:26Z</time></trkpt><trkpt lat="47.29652834974787" lon="8.778558263913213"><ele>505.00000000000006</ele><time>2026-04-25T19:06:27Z</time></trkpt><trkpt lat="47.296511689615606" lon="8.77864983381045"><ele>505.0</ele><time>2026-04-25T19:06:28Z</time></trkpt><trkpt lat="47.29650660926518" lon="8.778770234035484"><ele>505.0</ele><time>2026-04-25T19:06:30Z</time></trkpt><trkpt lat="47.29647669202787" lon="8.7788584224399"><ele>505.0</ele><time>2026-04-25T19:06:35Z</time></trkpt><trkpt lat="47.29643023553652" lon="8.778942463826015"><ele>505.00000000000006</ele><time>2026-04-25T19:06:42Z</time></trkpt><trkpt lat="47.296361448396055" lon="8.7790159477346"><ele>505.0</ele><time>2026-04-25T19:06:44Z</time></trkpt><trkpt lat="47.29624050736413" lon="8.779021456225776"><ele>505.00000000000006</ele><time>2026-04-25T19:06:46Z</time></trkpt><trkpt lat="47.2961739725674" lon="8.779038863393586"><ele>505.0</ele><time>2026-04-25T19:06:47Z</time></trkpt><trkpt lat="47.29609924481735" lon="8.778966016225105"><ele>505.0</ele><time>2026-04-25T19:06:48Z</time></trkpt><trkpt lat="47.29602108268836" lon="8.77894252221882"><ele>505.0</ele><time>2026-04-25T19:06:49Z</time></trkpt><trkpt lat="47.29594220539576" lon="8.77891927695121"><ele>505.00000000000006</ele><time>2026-04-25T19:06:50Z</time></trkpt><trkpt lat="47.29586085957895" lon="8.778897666179788"><ele>505.0</ele><time>2026-04-25T19:06:51Z</time></trkpt><trkpt lat="47.29578159171944" lon="8.778871627927545"><ele>505.00000000000006</ele><time>2026-04-25T19:06:52Z</time></trkpt><trkpt lat="47.2957048425323" lon="8.778828736607233"><ele>505.0</ele><time>2026-04-25T19:06:53Z</time></trkpt><trkpt lat="47.29563086908945" lon="8.77877913851251"><ele>505.0</ele><time>2026-04-25T19:06:54Z</time></trkpt><trkpt lat="47.29555640857601" lon="8.778730261137769"><ele>505.0</ele><time>2026-04-25T19:06:55Z</time></trkpt><trkpt lat="47.29548215712993" lon="8.778676686610947"><ele>505.00000000000006</ele><time>2026-04-25T19:06:56Z</time></trkpt><trkpt lat="47.29540991918489" lon="8.778615702621785"><ele>505.0</ele><time>2026-04-25T19:06:57Z</time></trkpt><trkpt lat="47.29533783278522" lon="8.778553785832418"><ele>505.1666666666667</ele><time>2026-04-25T19:06:58Z</time></trkpt><trkpt lat="47.29526436691436" lon="8.77849186025135"><ele>505.33333333333337</ele><time>2026-04-25T19:06:59Z</time></trkpt><trkpt lat="47.295189390794256" lon="8.778431981362743"><ele>505.5</ele><time>2026-04-25T19:07:00Z</time></trkpt><trkpt lat="47.2951120221946" lon="8.778377634394356"><ele>505.66666666666663</ele><time>2026-04-25T19:07:01Z</time></trkpt><trkpt lat="47.295032765781166" lon="8.77832813342778"><ele>505.8333333333333</ele><time>2026-04-25T19:07:02Z</time></trkpt><trkpt lat="47.294950921887775" lon="8.778281597835251"><ele>506.0</ele><time>2026-04-25T19:07:03Z</time></trkpt><trkpt lat="47.294867139165305" lon="8.778245780333382"><ele>506.0</ele><time>2026-04-25T19:07:04Z</time></trkpt><trkpt lat="47.29477949806048" lon="8.778216488833676"><ele>506.0</ele><time>2026-04-25T19:07:05Z</time></trkpt><trkpt lat="47.294692091324855" lon="8.778184869146322"><ele>506.0</ele><time>2026-04-25T19:07:06Z</time></trkpt><trkpt lat="47.29460517414582" lon="8.77815114594446"><ele>506.0</ele><time>2026-04-25T19:07:07Z</time></trkpt><trkpt lat="47.29451476824681" lon="8.778121152962854"><ele>506.0</ele><time>2026-04-25T19:07:08Z</time></trkpt><trkpt lat="47.29442411136408" lon="8.778093940944112"><ele>505.0</ele><time>2026-04-25T19:07:09Z</time></trkpt><trkpt lat="47.29433376565068" lon="8.778060948056009"><ele>504.0</ele><time>2026-04-25T19:07:10Z</time></trkpt><trkpt lat="47.29424260550243" lon="8.778030193221694"><ele>503.0</ele><time>2026-04-25T19:07:11Z</time></trkpt><trkpt lat="47.294152659236886" lon="8.777989826421262"><ele>502.0</ele><time>2026-04-25T19:07:12Z</time></trkpt><trkpt lat="47.29406483118641" lon="8.77793780284256"><ele>501.0</ele><time>2026-04-25T19:07:13Z</time></trkpt><trkpt lat="47.29397778153284" lon="8.777881547060767"><ele>500.0</ele><time>2026-04-25T19:07:14Z</time></trkpt><trkpt lat="47.2938932594479" lon="8.777820658111045"><ele>499.0</ele><time>2026-04-25T19:07:15Z</time></trkpt><trkpt lat="47.29381074926205" lon="8.777750811067001"><ele>498.0</ele><time>2026-04-25T19:07:16Z</time></trkpt><trkpt lat="47.29372748188982" lon="8.777677469114495"><ele>497.0</ele><time>2026-04-25T19:07:17Z</time></trkpt><trkpt lat="47.293644408340434" lon="8.777600948205016"><ele>496.0</ele><time>2026-04-25T19:07:18Z</time></trkpt><trkpt lat="47.29356294844229" lon="8.777524582479424"><ele>495.6</ele><time>2026-04-25T19:07:19Z</time></trkpt><trkpt lat="47.29347955047801" lon="8.777446912468179"><ele>495.20000000000005</ele><time>2026-04-25T19:07:20Z</time></trkpt><trkpt lat="47.293396320393704" lon="8.777376737669377"><ele>494.79999999999995</ele><time>2026-04-25T19:07:21Z</time></trkpt><trkpt lat="47.29331260144237" lon="8.777303489405712"><ele>494.4</ele><time>2026-04-25T19:07:22Z</time></trkpt><trkpt lat="47.293230024204156" lon="8.777227997081578"><ele>494.0</ele><time>2026-04-25T19:07:23Z</time></trkpt><trkpt lat="47.293152878003774" lon="8.777157368918736"><ele>493.8333333333333</ele><time>2026-04-25T19:07:24Z</time></trkpt><trkpt lat="47.29307800793346" lon="8.7770892191112"><ele>493.66666666666663</ele><time>2026-04-25T19:07:25Z</time></trkpt><trkpt lat="47.29301701324549" lon="8.77700118022131"><ele>493.5</ele><time>2026-04-25T19:07:26Z</time></trkpt><trkpt lat="47.29296451475624" lon="8.776902055349138"><ele>493.33333333333337</ele><time>2026-04-25T19:07:27Z</time></trkpt><trkpt lat="47.292927081471305" lon="8.776789271477535"><ele>493.1666666666667</ele><time>2026-04-25T19:07:28Z</time></trkpt><trkpt lat="47.29288945065797" lon="8.77667842929789"><ele>493.0</ele><time>2026-04-25T19:07:29Z</time></trkpt><trkpt lat="47.292851508669216" lon="8.776572151222663"><ele>493.00000000000006</ele><time>2026-04-25T19:07:30Z</time></trkpt><trkpt lat="47.29281012251356" lon="8.776466225456264"><ele>493.0</ele><time>2026-04-25T19:07:31Z</time></trkpt><trkpt lat="47.29276782941476" lon="8.77636034756726"><ele>493.0</ele><time>2026-04-25T19:07:32Z</time></trkpt><trkpt lat="47.29272600274174" lon="8.77626009659596"><ele>493.0</ele><time>2026-04-25T19:07:33Z</time></trkpt><trkpt lat="47.29267155030273" lon="8.776172706983672"><ele>493.00000000000006</ele><time>2026-04-25T19:07:34Z</time></trkpt><trkpt lat="47.29261455644887" lon="8.776092253101824"><ele>493.0</ele><time>2026-04-25T19:07:35Z</time></trkpt><trkpt lat="47.29255063611011" lon="8.776021671198777"><ele>492.83333333333337</ele><time>2026-04-25T19:07:36Z</time></trkpt><trkpt lat="47.29248394092687" lon="8.775956681031401"><ele>492.6666666666667</ele><time>2026-04-25T19:07:37Z</time></trkpt><trkpt lat="47.29241491505173" lon="8.775897323941745"><ele>492.5</ele><time>2026-04-25T19:07:38Z</time></trkpt><trkpt lat="47.29234224236618" lon="8.77584542701395"><ele>492.33333333333337</ele><time>2026-04-25T19:07:39Z</time></trkpt><trkpt lat="47.292267238988416" lon="8.775794708551592"><ele>492.1666666666667</ele><time>2026-04-25T19:07:40Z</time></trkpt><trkpt lat="47.292188799446315" lon="8.775759734429244"><ele>492.0</ele><time>2026-04-25T19:07:41Z</time></trkpt><trkpt lat="47.2921106589705" lon="8.775723443198572"><ele>491.6666666666667</ele><time>2026-04-25T19:07:42Z</time></trkpt><trkpt lat="47.29203148438197" lon="8.775686137581815"><ele>491.33333333333337</ele><time>2026-04-25T19:07:43Z</time></trkpt><trkpt lat="47.29195045491071" lon="8.775654443819528"><ele>491.0</ele><time>2026-04-25T19:07:44Z</time></trkpt><trkpt lat="47.29186769192939" lon="8.775617510410354"><ele>490.6666666666667</ele><time>2026-04-25T19:07:45Z</time></trkpt><trkpt lat="47.29178803493673" lon="8.77556984832848"><ele>490.33333333333337</ele><time>2026-04-25T19:07:46Z</time></trkpt><trkpt lat="47.29170796903742" lon="8.775526938595995"><ele>490.0</ele><time>2026-04-25T19:07:47Z</time></trkpt><trkpt lat="47.29162685459831" lon="8.775482854831033"><ele>490.00000000000006</ele><time>2026-04-25T19:07:48Z</time></trkpt><trkpt lat="47.29154429595037" lon="8.775439850286952"><ele>490.0</ele><time>2026-04-25T19:07:49Z</time></trkpt><trkpt lat="47.29146167244779" lon="8.775396131124115"><ele>490.0</ele><time>2026-04-25T19:07:50Z</time></trkpt><trkpt lat="47.29137848663278" lon="8.775352246283136"><ele>490.0</ele><time>2026-04-25T19:07:51Z</time></trkpt><trkpt lat="47.29129564159366" lon="8.775300621966107"><ele>490.00000000000006</ele><time>2026-04-25T19:07:52Z</time></trkpt><trkpt lat="47.291216038763764" lon="8.775241152925444"><ele>490.0</ele><time>2026-04-25T19:07:53Z</time></trkpt><trkpt lat="47.2911404899023" lon="8.77516802288113"><ele>490.33333333333337</ele><time>2026-04-25T19:07:54Z</time></trkpt><trkpt lat="47.29106716520673" lon="8.775090629082687"><ele>490.6666666666667</ele><time>2026-04-25T19:07:55Z</time></trkpt><trkpt lat="47.290995133991174" lon="8.775011286614625"><ele>491.0</ele><time>2026-04-25T19:07:56Z</time></trkpt><trkpt lat="47.29092830651877" lon="8.774923928716559"><ele>491.33333333333337</ele><time>2026-04-25T19:07:57Z</time></trkpt><trkpt lat="47.29086669309441" lon="8.774832776564791"><ele>491.6666666666667</ele><time>2026-04-25T19:07:58Z</time></trkpt><trkpt lat="47.290809683884824" lon="8.774737724965231"><ele>492.0</ele><time>2026-04-25T19:07:59Z</time></trkpt><trkpt lat="47.29076214938798" lon="8.77463338937922"><ele>492.0</ele><time>2026-04-25T19:08:00Z</time></trkpt><trkpt lat="47.29072185854581" lon="8.77452925561699"><ele>492.0</ele><time>2026-04-25T19:08:01Z</time></trkpt><trkpt lat="47.29068587692438" lon="8.774420538268455"><ele>492.0</ele><time>2026-04-25T19:08:02Z</time></trkpt><trkpt lat="47.290656195142205" lon="8.774311870544846"><ele>492.0</ele><time>2026-04-25T19:08:03Z</time></trkpt><trkpt lat="47.29062451491537" lon="8.77420507743738"><ele>492.0</ele><time>2026-04-25T19:08:04Z</time></trkpt><trkpt lat="47.29059075062014" lon="8.774100149119938"><ele>492.0</ele><time>2026-04-25T19:08:05Z</time></trkpt><trkpt lat="47.290558231433074" lon="8.77399604621545"><ele>491.3333333333333</ele><time>2026-04-25T19:08:06Z</time></trkpt><trkpt lat="47.29052574382288" lon="8.773891801219152"><ele>490.66666666666663</ele><time>2026-04-25T19:08:07Z</time></trkpt><trkpt lat="47.290493401319026" lon="8.773787546546053"><ele>490.0</ele><time>2026-04-25T19:08:08Z</time></trkpt><trkpt lat="47.290461574060416" lon="8.773681710234312"><ele>489.3333333333333</ele><time>2026-04-25T19:08:09Z</time></trkpt><trkpt lat="47.290429871869776" lon="8.773575766609909"><ele>488.66666666666663</ele><time>2026-04-25T19:08:10Z</time></trkpt><trkpt lat="47.29039913270441" lon="8.773468495151041"><ele>488.0</ele><time>2026-04-25T19:08:11Z</time></trkpt><trkpt lat="47.290367761794386" lon="8.773361095131962"><ele>487.66666666666663</ele><time>2026-04-25T19:08:12Z</time></trkpt><trkpt lat="47.29033500457526" lon="8.773253134648465"><ele>487.3333333333333</ele><time>2026-04-25T19:08:13Z</time></trkpt><trkpt lat="47.29030405147992" lon="8.773143554753608"><ele>487.0</ele><time>2026-04-25T19:08:14Z</time></trkpt><trkpt lat="47.29027196843688" lon="8.773034024127245"><ele>486.66666666666663</ele><time>2026-04-25T19:08:15Z</time></trkpt><trkpt lat="47.29024145739442" lon="8.772921692974819"><ele>486.3333333333333</ele><time>2026-04-25T19:08:16Z</time></trkpt><trkpt lat="47.29020967287689" lon="8.77280883834645"><ele>486.0</ele><time>2026-04-25T19:08:17Z</time></trkpt><trkpt lat="47.290178494967485" lon="8.772694504999487"><ele>485.5</ele><time>2026-04-25T19:08:18Z</time></trkpt><trkpt lat="47.2901475356119" lon="8.77257867923569"><ele>485.0</ele><time>2026-04-25T19:08:19Z</time></trkpt><trkpt lat="47.29011535025371" lon="8.772463704067098"><ele>484.5</ele><time>2026-04-25T19:08:20Z</time></trkpt><trkpt lat="47.29008155741907" lon="8.772347904009235"><ele>484.0</ele><time>2026-04-25T19:08:21Z</time></trkpt><trkpt lat="47.29004851518271" lon="8.772234229271684"><ele>483.5</ele><time>2026-04-25T19:08:22Z</time></trkpt><trkpt lat="47.29001556771679" lon="8.772116369237592"><ele>483.0</ele><time>2026-04-25T19:08:23Z</time></trkpt><trkpt lat="47.28998309596407" lon="8.772000670739555"><ele>483.0</ele><time>2026-04-25T19:08:24Z</time></trkpt><trkpt lat="47.289950185461656" lon="8.771884292704446"><ele>483.0</ele><time>2026-04-25T19:08:25Z</time></trkpt><trkpt lat="47.28991760317437" lon="8.771768022005496"><ele>483.0</ele><time>2026-04-25T19:08:26Z</time></trkpt><trkpt lat="47.289885408980865" lon="8.77165186463174"><ele>483.0</ele><time>2026-04-25T19:08:27Z</time></trkpt><trkpt lat="47.2898528950064" lon="8.77153699389155"><ele>483.0</ele><time>2026-04-25T19:08:28Z</time></trkpt><trkpt lat="47.289819102909" lon="8.771421813373474"><ele>483.0</ele><time>2026-04-25T19:08:29Z</time></trkpt><trkpt lat="47.28978403840626" lon="8.771308895242191"><ele>483.3333333333333</ele><time>2026-04-25T19:08:30Z</time></trkpt><trkpt lat="47.28974865420931" lon="8.771197101077755"><ele>483.66666666666663</ele><time>2026-04-25T19:08:31Z</time></trkpt><trkpt lat="47.28971657967015" lon="8.771088465698213"><ele>484.0</ele><time>2026-04-25T19:08:32Z</time></trkpt><trkpt lat="47.28968715270166" lon="8.770980160191968"><ele>484.3333333333333</ele><time>2026-04-25T19:08:33Z</time></trkpt><trkpt lat="47.289656280381756" lon="8.770872574310122"><ele>484.66666666666663</ele><time>2026-04-25T19:08:34Z</time></trkpt><trkpt lat="47.2896235079476" lon="8.770767448366461"><ele>485.0</ele><time>2026-04-25T19:08:35Z</time></trkpt><trkpt lat="47.28959034367858" lon="8.770661570220282"><ele>484.3333333333333</ele><time>2026-04-25T19:08:36Z</time></trkpt><trkpt lat="47.28955991504184" lon="8.770556052868237"><ele>483.66666666666663</ele><time>2026-04-25T19:08:37Z</time></trkpt><trkpt lat="47.2895296655182" lon="8.770451182607136"><ele>483.0</ele><time>2026-04-25T19:08:38Z</time></trkpt><trkpt lat="47.2894954573646" lon="8.770349239786663"><ele>482.33333333333337</ele><time>2026-04-25T19:08:39Z</time></trkpt><trkpt lat="47.28946174237813" lon="8.770248385104148"><ele>481.6666666666667</ele><time>2026-04-25T19:08:40Z</time></trkpt><trkpt lat="47.28942974250083" lon="8.770147432533093"><ele>481.0</ele><time>2026-04-25T19:08:41Z</time></trkpt><trkpt lat="47.28939906484209" lon="8.770046566572946"><ele>480.8571428571428</ele><time>2026-04-25T19:08:42Z</time></trkpt><trkpt lat="47.28936830801112" lon="8.769947671709705"><ele>480.71428571428567</ele><time>2026-04-25T19:08:43Z</time></trkpt><trkpt lat="47.289338230838865" lon="8.769850128337588"><ele>480.57142857142856</ele><time>2026-04-25T19:08:44Z</time></trkpt><trkpt lat="47.28930716117038" lon="8.76975548865916"><ele>480.4285714285714</ele><time>2026-04-25T19:08:45Z</time></trkpt><trkpt lat="47.289275398171704" lon="8.769661986526756"><ele>480.2857142857142</ele><time>2026-04-25T19:08:46Z</time></trkpt><trkpt lat="47.289243188745914" lon="8.769570670299647"><ele>480.14285714285717</ele><time>2026-04-25T19:08:47Z</time></trkpt><trkpt lat="47.289211947939904" lon="8.769480605743105"><ele>480.0</ele><time>2026-04-25T19:08:48Z</time></trkpt><trkpt lat="47.289181334739" lon="8.769391803606084"><ele>479.7142857142857</ele><time>2026-04-25T19:08:49Z</time></trkpt><trkpt lat="47.28915014819202" lon="8.769301069565616"><ele>479.42857142857144</ele><time>2026-04-25T19:08:50Z</time></trkpt><trkpt lat="47.28911923420188" lon="8.769211521445092"><ele>479.14285714285717</ele><time>2026-04-25T19:08:51Z</time></trkpt><trkpt lat="47.28908877585126" lon="8.769121371512519"><ele>478.8571428571429</ele><time>2026-04-25T19:08:52Z</time></trkpt><trkpt lat="47.28905722574731" lon="8.769029466225371"><ele>478.57142857142856</ele><time>2026-04-25T19:08:53Z</time></trkpt><trkpt lat="47.28902521509429" lon="8.768938076751807"><ele>478.28571428571433</ele><time>2026-04-25T19:08:54Z</time></trkpt><trkpt lat="47.28899215970228" lon="8.768846785438598"><ele>478.00000000000006</ele><time>2026-04-25T19:08:55Z</time></trkpt><trkpt lat="47.28895728393897" lon="8.768754966408789"><ele>478.4285714285715</ele><time>2026-04-25T19:08:56Z</time></trkpt><trkpt lat="47.28892405851069" lon="8.768662702755353"><ele>478.8571428571429</ele><time>2026-04-25T19:08:57Z</time></trkpt><trkpt lat="47.288890468267226" lon="8.768568480576967"><ele>479.2857142857143</ele><time>2026-04-25T19:08:58Z</time></trkpt><trkpt lat="47.28885499856275" lon="8.768474552679963"><ele>479.7142857142857</ele><time>2026-04-25T19:08:59Z</time></trkpt><trkpt lat="47.288817956752915" lon="8.768378839453693"><ele>480.1428571428571</ele><time>2026-04-25T19:09:00Z</time></trkpt><trkpt lat="47.28877609017585" lon="8.768283003354309"><ele>480.5714285714285</ele><time>2026-04-25T19:09:01Z</time></trkpt><trkpt lat="47.288739381361296" lon="8.768190440173994"><ele>480.99999999999994</ele><time>2026-04-25T19:09:02Z</time></trkpt><trkpt lat="47.288702644230824" lon="8.768094729478777"><ele>481.00000000000006</ele><time>2026-04-25T19:09:03Z</time></trkpt><trkpt lat="47.288666081788435" lon="8.767995038846642"><ele>481.0</ele><time>2026-04-25T19:09:04Z</time></trkpt><trkpt lat="47.288628849196684" lon="8.767896475208463"><ele>481.0</ele><time>2026-04-25T19:09:05Z</time></trkpt><trkpt lat="47.28858678830925" lon="8.767795813062621"><ele>481.0</ele><time>2026-04-25T19:09:06Z</time></trkpt><trkpt lat="47.28854355072015" lon="8.767698086204769"><ele>481.00000000000006</ele><time>2026-04-25T19:09:07Z</time></trkpt><trkpt lat="47.288500430374974" lon="8.767598832326128"><ele>481.0</ele><time>2026-04-25T19:09:08Z</time></trkpt><trkpt lat="47.288452652357215" lon="8.767504260037422"><ele>481.1666666666667</ele><time>2026-04-25T19:09:09Z</time></trkpt><trkpt lat="47.28840091062128" lon="8.767413972049772"><ele>481.33333333333337</ele><time>2026-04-25T19:09:10Z</time></trkpt><trkpt lat="47.288347287433986" lon="8.767325542809003"><ele>481.5</ele><time>2026-04-25T19:09:11Z</time></trkpt><trkpt lat="47.28829386736485" lon="8.767237760934416"><ele>481.66666666666663</ele><time>2026-04-25T19:09:12Z</time></trkpt><trkpt lat="47.28823817181887" lon="8.767152238278962"><ele>481.8333333333333</ele><time>2026-04-25T19:09:13Z</time></trkpt><trkpt lat="47.28818147352096" lon="8.767069921750933"><ele>482.0</ele><time>2026-04-25T19:09:14Z</time></trkpt><trkpt lat="47.28811968714541" lon="8.766994325323791"><ele>482.3333333333333</ele><time>2026-04-25T19:09:15Z</time></trkpt><trkpt lat="47.28805518546531" lon="8.766924146803124"><ele>482.66666666666663</ele><time>2026-04-25T19:09:16Z</time></trkpt><trkpt lat="47.28799018963491" lon="8.766858613353678"><ele>483.0</ele><time>2026-04-25T19:09:17Z</time></trkpt><trkpt lat="47.28792399402709" lon="8.766792227374006"><ele>483.33333333333337</ele><time>2026-04-25T19:09:18Z</time></trkpt><trkpt lat="47.28785624519022" lon="8.766731448120852"><ele>483.6666666666667</ele><time>2026-04-25T19:09:19Z</time></trkpt><trkpt lat="47.28778693511544" lon="8.766675435730308"><ele>484.0</ele><time>2026-04-25T19:09:20Z</time></trkpt><trkpt lat="47.287716005730566" lon="8.766624972949556"><ele>484.00000000000006</ele><time>2026-04-25T19:09:21Z</time></trkpt><trkpt lat="47.287643175073214" lon="8.766578778729986"><ele>484.0</ele><time>2026-04-25T19:09:22Z</time></trkpt><trkpt lat="47.28757078337404" lon="8.76653507419957"><ele>484.0</ele><time>2026-04-25T19:09:23Z</time></trkpt><trkpt lat="47.28749497732104" lon="8.766501224510533"><ele>484.0</ele><time>2026-04-25T19:09:24Z</time></trkpt><trkpt lat="47.287417721726534" lon="8.766476762437975"><ele>484.00000000000006</ele><time>2026-04-25T19:09:25Z</time></trkpt><trkpt lat="47.28733980772799" lon="8.766458918887352"><ele>484.0</ele><time>2026-04-25T19:09:26Z</time></trkpt><trkpt lat="47.287262615138594" lon="8.766439378847387"><ele>484.1666666666667</ele><time>2026-04-25T19:09:27Z</time></trkpt><trkpt lat="47.28718393505588" lon="8.766425760949382"><ele>484.33333333333337</ele><time>2026-04-25T19:09:28Z</time></trkpt><trkpt lat="47.28710548496473" lon="8.766416492958342"><ele>484.5</ele><time>2026-04-25T19:09:29Z</time></trkpt><trkpt lat="47.287027162089956" lon="8.766408967553593"><ele>484.66666666666663</ele><time>2026-04-25T19:09:30Z</time></trkpt><trkpt lat="47.28694863408001" lon="8.766408515327617"><ele>484.8333333333333</ele><time>2026-04-25T19:09:31Z</time></trkpt><trkpt lat="47.28686982513837" lon="8.766412198694178"><ele>485.0</ele><time>2026-04-25T19:09:32Z</time></trkpt><trkpt lat="47.28679074927245" lon="8.766417827837307"><ele>484.99999999999994</ele><time>2026-04-25T19:09:33Z</time></trkpt><trkpt lat="47.286711947863836" lon="8.766425036998736"><ele>485.0</ele><time>2026-04-25T19:09:34Z</time></trkpt><trkpt lat="47.286633362521975" lon="8.766433299826977"><ele>485.0</ele><time>2026-04-25T19:09:35Z</time></trkpt><trkpt lat="47.28655461380401" lon="8.766441612718118"><ele>485.0</ele><time>2026-04-25T19:09:36Z</time></trkpt><trkpt lat="47.28647459361659" lon="8.76645126292412"><ele>484.99999999999994</ele><time>2026-04-25T19:09:37Z</time></trkpt><trkpt lat="47.2863957024758" lon="8.766464443714407"><ele>485.0</ele><time>2026-04-25T19:09:38Z</time></trkpt><trkpt lat="47.28631690098245" lon="8.766476978673156"><ele>484.66666666666663</ele><time>2026-04-25T19:09:39Z</time></trkpt><trkpt lat="47.28623705951064" lon="8.766484399110071"><ele>484.3333333333333</ele><time>2026-04-25T19:09:40Z</time></trkpt><trkpt lat="47.286156996874354" lon="8.766490630245473"><ele>484.0</ele><time>2026-04-25T19:09:41Z</time></trkpt><trkpt lat="47.28607856647845" lon="8.766502973654653"><ele>483.66666666666663</ele><time>2026-04-25T19:09:42Z</time></trkpt><trkpt lat="47.285999583556666" lon="8.766517162758168"><ele>483.3333333333333</ele><time>2026-04-25T19:09:43Z</time></trkpt><trkpt lat="47.285920912672765" lon="8.766529043638608"><ele>483.0</ele><time>2026-04-25T19:09:44Z</time></trkpt><trkpt lat="47.28584256913704" lon="8.766539444498205"><ele>483.0</ele><time>2026-04-25T19:09:45Z</time></trkpt><trkpt lat="47.28576499351872" lon="8.7665512924466"><ele>483.0</ele><time>2026-04-25T19:09:46Z</time></trkpt><trkpt lat="47.28568743450342" lon="8.766562949032684"><ele>483.0</ele><time>2026-04-25T19:09:47Z</time></trkpt><trkpt lat="47.28561072851876" lon="8.76657223839372"><ele>483.0</ele><time>2026-04-25T19:09:48Z</time></trkpt><trkpt lat="47.28553273064607" lon="8.766577226201505"><ele>483.0</ele><time>2026-04-25T19:09:49Z</time></trkpt><trkpt lat="47.2854558503725" lon="8.766584421255853"><ele>483.0</ele><time>2026-04-25T19:09:50Z</time></trkpt><trkpt lat="47.285379088019816" lon="8.766590318793591"><ele>483.5</ele><time>2026-04-25T19:09:51Z</time></trkpt><trkpt lat="47.285302288761834" lon="8.766589125062541"><ele>484.0</ele><time>2026-04-25T19:09:52Z</time></trkpt><trkpt lat="47.28522606991147" lon="8.766586352337628"><ele>484.5</ele><time>2026-04-25T19:09:53Z</time></trkpt><trkpt lat="47.28514907342038" lon="8.766579535059781"><ele>485.0</ele><time>2026-04-25T19:09:54Z</time></trkpt><trkpt lat="47.285072364506135" lon="8.766577694882189"><ele>485.5</ele><time>2026-04-25T19:09:55Z</time></trkpt><trkpt lat="47.284995852496316" lon="8.766572459852485"><ele>486.0</ele><time>2026-04-25T19:09:56Z</time></trkpt><trkpt lat="47.28491987455169" lon="8.766568889215156"><ele>486.0</ele><time>2026-04-25T19:09:57Z</time></trkpt><trkpt lat="47.28484439588117" lon="8.766564532018084"><ele>486.0</ele><time>2026-04-25T19:09:58Z</time></trkpt><trkpt lat="47.28476973429156" lon="8.76655216855172"><ele>486.0</ele><time>2026-04-25T19:09:59Z</time></trkpt><trkpt lat="47.284695113618504" lon="8.766533563848558"><ele>486.0</ele><time>2026-04-25T19:10:00Z</time></trkpt><trkpt lat="47.284620848553" lon="8.766514831800029"><ele>486.0</ele><time>2026-04-25T19:10:01Z</time></trkpt><trkpt lat="47.284546594947166" lon="8.76649783005476"><ele>486.0</ele><time>2026-04-25T19:10:02Z</time></trkpt><trkpt lat="47.28447180682158" lon="8.766480351005814"><ele>486.57142857142856</ele><time>2026-04-25T19:10:03Z</time></trkpt><trkpt lat="47.284397969851724" lon="8.76646226393805"><ele>487.14285714285717</ele><time>2026-04-25T19:10:04Z</time></trkpt><trkpt lat="47.284324550713" lon="8.76644371599"><ele>487.7142857142857</ele><time>2026-04-25T19:10:05Z</time></trkpt><trkpt lat="47.28425151577601" lon="8.766425333083328"><ele>488.2857142857143</ele><time>2026-04-25T19:10:06Z</time></trkpt><trkpt lat="47.284177525699455" lon="8.766407113116168"><ele>488.8571428571429</ele><time>2026-04-25T19:10:07Z</time></trkpt><trkpt lat="47.284104293075984" lon="8.766389212046906"><ele>489.42857142857144</ele><time>2026-04-25T19:10:08Z</time></trkpt><trkpt lat="47.2840306746836" lon="8.766372117645298"><ele>490.0</ele><time>2026-04-25T19:10:09Z</time></trkpt><trkpt lat="47.28395791100674" lon="8.766351041835295"><ele>490.33333333333337</ele><time>2026-04-25T19:10:10Z</time></trkpt><trkpt lat="47.28388541991371" lon="8.766330093601264"><ele>490.6666666666667</ele><time>2026-04-25T19:10:11Z</time></trkpt><trkpt lat="47.283812686534155" lon="8.766314870066644"><ele>491.0</ele><time>2026-04-25T19:10:12Z</time></trkpt><trkpt lat="47.2837389744448" lon="8.766300219573877"><ele>491.33333333333337</ele><time>2026-04-25T19:10:13Z</time></trkpt><trkpt lat="47.28366905083266" lon="8.766285174769926"><ele>491.6666666666667</ele><time>2026-04-25T19:10:14Z</time></trkpt><trkpt lat="47.283556764210154" lon="8.766243971397937"><ele>492.0</ele><time>2026-04-25T19:10:16Z</time></trkpt><trkpt lat="47.283491747939976" lon="8.766201066938146"><ele>492.00000000000006</ele><time>2026-04-25T19:10:18Z</time></trkpt><trkpt lat="47.28344225305889" lon="8.766125490561707"><ele>492.0</ele><time>2026-04-25T19:10:47Z</time></trkpt><trkpt lat="47.28338714742941" lon="8.76606177656989"><ele>492.00000000000006</ele><time>2026-04-25T19:10:53Z</time></trkpt><trkpt lat="47.28334132351598" lon="8.765995376330281"><ele>492.00000000000006</ele><time>2026-04-25T19:10:58Z</time></trkpt><trkpt lat="47.28333379203068" lon="8.765902943378162"><ele>492.0</ele><time>2026-04-25T19:11:02Z</time></trkpt><trkpt lat="47.2833332097559" lon="8.765806077810584"><ele>492.00000000000006</ele><time>2026-04-25T19:11:07Z</time></trkpt><trkpt lat="47.28334356080912" lon="8.765709404302703"><ele>492.00000000000006</ele><time>2026-04-25T19:11:13Z</time></trkpt><trkpt lat="47.28336003247052" lon="8.765618978785152"><ele>492.00000000000006</ele><time>2026-04-25T19:11:18Z</time></trkpt><trkpt lat="47.2833977917195" lon="8.765538136543956"><ele>492.0</ele><time>2026-04-25T19:11:23Z</time></trkpt><trkpt lat="47.28344884444074" lon="8.765469086891075"><ele>492.00000000000006</ele><time>2026-04-25T19:11:28Z</time></trkpt><trkpt lat="47.28349800817957" lon="8.765405464839462"><ele>492.00000000000006</ele><time>2026-04-25T19:11:33Z</time></trkpt><trkpt lat="47.2835590107013" lon="8.765358806030623"><ele>492.0</ele><time>2026-04-25T19:13:58Z</time></trkpt><trkpt lat="47.28360042776767" lon="8.765269337155928"><ele>492.00000000000006</ele><time>2026-04-25T19:14:13Z</time></trkpt><trkpt lat="47.28366103584614" lon="8.765209738370846"><ele>492.00000000000006</ele><time>2026-04-25T19:14:20Z</time></trkpt><trkpt lat="47.283715286150986" lon="8.765156924970555"><ele>492.00000000000006</ele><time>2026-04-25T19:14:25Z</time></trkpt><trkpt lat="47.28377115832907" lon="8.765094976642995"><ele>492.0</ele><time>2026-04-25T19:14:30Z</time></trkpt><trkpt lat="47.283785829431196" lon="8.76499681744865"><ele>492.00000000000006</ele><time>2026-04-25T19:14:35Z</time></trkpt><trkpt lat="47.283848894217236" lon="8.76494167931156"><ele>492.00000000000006</ele><time>2026-04-25T19:14:42Z</time></trkpt><trkpt lat="47.283901194184686" lon="8.764860647518411"><ele>492.0</ele><time>2026-04-25T19:14:48Z</time></trkpt><trkpt lat="47.28392060156896" lon="8.764770818888117"><ele>492.00000000000006</ele><time>2026-04-25T19:14:53Z</time></trkpt><trkpt lat="47.28396662073722" lon="8.764691375342748"><ele>492.00000000000006</ele><time>2026-04-25T19:15:02Z</time></trkpt><trkpt lat="47.28398940979321" lon="8.764598411635461"><ele>492.1428571428572</ele><time>2026-04-25T19:15:09Z</time></trkpt><trkpt lat="47.284036112936036" lon="8.764532071787295"><ele>492.28571428571433</ele><time>2026-04-25T19:15:17Z</time></trkpt><trkpt lat="47.28406176205182" lon="8.76443196327043"><ele>492.42857142857144</ele><time>2026-04-25T19:15:22Z</time></trkpt><trkpt lat="47.284104961117635" lon="8.764360422213567"><ele>492.5714285714286</ele><time>2026-04-25T19:15:27Z</time></trkpt><trkpt lat="47.284138542464135" lon="8.764279779602534"><ele>492.7142857142858</ele><time>2026-04-25T19:15:32Z</time></trkpt><trkpt lat="47.28415524935893" lon="8.764189684709649"><ele>492.85714285714283</ele><time>2026-04-25T19:15:37Z</time></trkpt><trkpt lat="47.284188788756204" lon="8.764096318898034"><ele>493.0</ele><time>2026-04-25T19:15:42Z</time></trkpt><trkpt lat="47.28422942369627" lon="8.764024710778788"><ele>493.00000000000006</ele><time>2026-04-25T19:15:47Z</time></trkpt><trkpt lat="47.284262013083094" lon="8.763931083030446"><ele>493.0</ele><time>2026-04-25T19:15:53Z</time></trkpt><trkpt lat="47.28429072922671" lon="8.763834689929446"><ele>493.0</ele><time>2026-04-25T19:15:57Z</time></trkpt><trkpt lat="47.28434509453517" lon="8.763716175576416"><ele>493.0</ele><time>2026-04-25T19:16:00Z</time></trkpt><trkpt lat="47.28439680722834" lon="8.763627489156644"><ele>493.00000000000006</ele><time>2026-04-25T19:16:03Z</time></trkpt><trkpt lat="47.28443053500058" lon="8.76354876963693"><ele>493.0</ele><time>2026-04-25T19:16:04Z</time></trkpt><trkpt lat="47.28447364335729" lon="8.763457865163607"><ele>493.1666666666667</ele><time>2026-04-25T19:16:06Z</time></trkpt><trkpt lat="47.2845193347267" lon="8.763366921269514"><ele>493.33333333333337</ele><time>2026-04-25T19:16:08Z</time></trkpt><trkpt lat="47.284546827889976" lon="8.763275507243875"><ele>493.5</ele><time>2026-04-25T19:16:10Z</time></trkpt><trkpt lat="47.28457129285934" lon="8.763153247692358"><ele>493.66666666666663</ele><time>2026-04-25T19:16:13Z</time></trkpt><trkpt lat="47.28452795295396" lon="8.763053902396699"><ele>493.8333333333333</ele><time>2026-04-25T19:16:16Z</time></trkpt><trkpt lat="47.28445510696136" lon="8.76298851478907"><ele>494.0</ele><time>2026-04-25T19:16:19Z</time></trkpt><trkpt lat="47.284396339188696" lon="8.762908920022392"><ele>494.0</ele><time>2026-04-25T19:16:22Z</time></trkpt><trkpt lat="47.28434467986081" lon="8.762847560137603"><ele>494.0</ele><time>2026-04-25T19:16:26Z</time></trkpt><trkpt lat="47.284294439209326" lon="8.762781158193508"><ele>494.0</ele><time>2026-04-25T19:16:31Z</time></trkpt><trkpt lat="47.28424288026542" lon="8.762720376472622"><ele>494.0</ele><time>2026-04-25T19:16:36Z</time></trkpt><trkpt lat="47.28418626743297" lon="8.762651649071064"><ele>494.0</ele><time>2026-04-25T19:16:41Z</time></trkpt><trkpt lat="47.28413113675469" lon="8.762580617287862"><ele>494.0</ele><time>2026-04-25T19:16:46Z</time></trkpt><trkpt lat="47.284071591587946" lon="8.762526426971677"><ele>494.0</ele><time>2026-04-25T19:16:51Z</time></trkpt><trkpt lat="47.28401303482976" lon="8.762482134786303"><ele>493.42857142857144</ele><time>2026-04-25T19:16:56Z</time></trkpt><trkpt lat="47.28394621635791" lon="8.762448511395771"><ele>492.85714285714283</ele><time>2026-04-25T19:17:09Z</time></trkpt><trkpt lat="47.28388492923432" lon="8.762375901427607"><ele>492.2857142857143</ele><time>2026-04-25T19:17:15Z</time></trkpt><trkpt lat="47.28382840364965" lon="8.762308042189455"><ele>491.7142857142857</ele><time>2026-04-25T19:17:20Z</time></trkpt><trkpt lat="47.283776859599335" lon="8.762245481270366"><ele>491.1428571428571</ele><time>2026-04-25T19:17:25Z</time></trkpt><trkpt lat="47.2837153648392" lon="8.76218902985074"><ele>490.57142857142856</ele><time>2026-04-25T19:17:30Z</time></trkpt><trkpt lat="47.28364661313156" lon="8.762156126829932"><ele>490.0</ele><time>2026-04-25T19:17:35Z</time></trkpt><trkpt lat="47.283587574042365" lon="8.762109317404784"><ele>489.2857142857143</ele><time>2026-04-25T19:17:40Z</time></trkpt><trkpt lat="47.28352279879985" lon="8.762048360326167"><ele>488.57142857142856</ele><time>2026-04-25T19:18:30Z</time></trkpt><trkpt lat="47.283462977976235" lon="8.76199192033157"><ele>487.8571428571429</ele><time>2026-04-25T19:18:35Z</time></trkpt><trkpt lat="47.283411793215805" lon="8.76193347292287"><ele>487.14285714285717</ele><time>2026-04-25T19:18:40Z</time></trkpt><trkpt lat="47.28335399623085" lon="8.761880644284403"><ele>486.42857142857144</ele><time>2026-04-25T19:18:45Z</time></trkpt><trkpt lat="47.28329318822257" lon="8.761822118587558"><ele>485.7142857142858</ele><time>2026-04-25T19:19:01Z</time></trkpt><trkpt lat="47.283231273042254" lon="8.761787937935685"><ele>485.00000000000006</ele><time>2026-04-25T19:19:06Z</time></trkpt><trkpt lat="47.283179101768226" lon="8.761720580839528"><ele>484.99999999999994</ele><time>2026-04-25T19:19:09Z</time></trkpt><trkpt lat="47.28312944443611" lon="8.76165505276576"><ele>485.0</ele><time>2026-04-25T19:19:17Z</time></trkpt><trkpt lat="47.28305773103891" lon="8.761583145805602"><ele>485.0</ele><time>2026-04-25T19:19:28Z</time></trkpt><trkpt lat="47.283017497619255" lon="8.761506755460061"><ele>485.0</ele><time>2026-04-25T19:19:30Z</time></trkpt><trkpt lat="47.283011365167134" lon="8.761369829844286"><ele>484.99999999999994</ele><time>2026-04-25T19:19:32Z</time></trkpt><trkpt lat="47.28304839470054" lon="8.761216841754841"><ele>485.0</ele><time>2026-04-25T19:19:34Z</time></trkpt><trkpt lat="47.28309899424983" lon="8.761057509323665"><ele>485.57142857142867</ele><time>2026-04-25T19:19:36Z</time></trkpt><trkpt lat="47.28312864586351" lon="8.760971242202752"><ele>486.14285714285717</ele><time>2026-04-25T19:19:37Z</time></trkpt><trkpt lat="47.28315773609624" lon="8.760886041265374"><ele>486.7142857142858</ele><time>2026-04-25T19:19:38Z</time></trkpt><trkpt lat="47.28318737732066" lon="8.760797272616736"><ele>487.28571428571433</ele><time>2026-04-25T19:19:39Z</time></trkpt><trkpt lat="47.2832136535032" lon="8.760707104399694"><ele>487.8571428571429</ele><time>2026-04-25T19:19:40Z</time></trkpt><trkpt lat="47.28324126876111" lon="8.76061419867029"><ele>488.42857142857144</ele><time>2026-04-25T19:19:41Z</time></trkpt><trkpt lat="47.28326989148721" lon="8.76052040241722"><ele>489.0</ele><time>2026-04-25T19:19:42Z</time></trkpt><trkpt lat="47.28329814735851" lon="8.760426151099589"><ele>489.0</ele><time>2026-04-25T19:19:43Z</time></trkpt><trkpt lat="47.28332772409923" lon="8.76033365473784"><ele>489.00000000000006</ele><time>2026-04-25T19:19:44Z</time></trkpt><trkpt lat="47.28335657405557" lon="8.760238630632298"><ele>489.0</ele><time>2026-04-25T19:19:45Z</time></trkpt><trkpt lat="47.2833814072481" lon="8.760142388540004"><ele>489.0</ele><time>2026-04-25T19:19:46Z</time></trkpt><trkpt lat="47.28340235004307" lon="8.76003812224886"><ele>489.00000000000006</ele><time>2026-04-25T19:19:47Z</time></trkpt><trkpt lat="47.28342265454059" lon="8.759939391509452"><ele>489.0</ele><time>2026-04-25T19:19:48Z</time></trkpt><trkpt lat="47.28344476968943" lon="8.759840036548237"><ele>489.0</ele><time>2026-04-25T19:19:49Z</time></trkpt><trkpt lat="47.28348770069124" lon="8.759752317897814"><ele>489.14285714285717</ele><time>2026-04-25T19:19:50Z</time></trkpt><trkpt lat="47.283514137387826" lon="8.759652380244416"><ele>489.28571428571433</ele><time>2026-04-25T19:19:51Z</time></trkpt><trkpt lat="47.283540219956464" lon="8.759555263651539"><ele>489.42857142857144</ele><time>2026-04-25T19:19:52Z</time></trkpt><trkpt lat="47.283567010125694" lon="8.759455512711481"><ele>489.57142857142856</ele><time>2026-04-25T19:19:53Z</time></trkpt><trkpt lat="47.28359231804949" lon="8.759361280819396"><ele>489.7142857142857</ele><time>2026-04-25T19:19:54Z</time></trkpt><trkpt lat="47.28362616492924" lon="8.759235254773712"><ele>489.8571428571429</ele><time>2026-04-25T19:19:56Z</time></trkpt><trkpt lat="47.283635860394256" lon="8.759138698150519"><ele>490.0</ele><time>2026-04-25T19:19:59Z</time></trkpt><trkpt lat="47.283678890738365" lon="8.759038934985119"><ele>490.5</ele><time>2026-04-25T19:20:03Z</time></trkpt><trkpt lat="47.28359084281762" lon="8.758941716991131"><ele>491.0</ele><time>2026-04-25T19:20:04Z</time></trkpt><trkpt lat="47.28375253570951" lon="8.758784341870646"><ele>491.5</ele><time>2026-04-25T19:20:08Z</time></trkpt><trkpt lat="47.2837985044131" lon="8.75862505729513"><ele>492.0</ele><time>2026-04-25T19:20:10Z</time></trkpt><trkpt lat="47.28384747606417" lon="8.758457459880633"><ele>492.1428571428572</ele><time>2026-04-25T19:20:12Z</time></trkpt><trkpt lat="47.283873377183355" lon="8.758369324907893"><ele>492.28571428571433</ele><time>2026-04-25T19:20:13Z</time></trkpt><trkpt lat="47.283899990108914" lon="8.75827876784125"><ele>492.42857142857144</ele><time>2026-04-25T19:20:14Z</time></trkpt><trkpt lat="47.283926412075196" lon="8.758187025220336"><ele>492.5714285714286</ele><time>2026-04-25T19:20:15Z</time></trkpt><trkpt lat="47.28395259803495" lon="8.758095236315285"><ele>492.7142857142858</ele><time>2026-04-25T19:20:16Z</time></trkpt><trkpt lat="47.283978611922684" lon="8.75800405056215"><ele>492.85714285714283</ele><time>2026-04-25T19:20:17Z</time></trkpt><trkpt lat="47.28400504348902" lon="8.757911400761841"><ele>493.0</ele><time>2026-04-25T19:20:18Z</time></trkpt><trkpt lat="47.28403128167993" lon="8.757819428779753"><ele>493.0</ele><time>2026-04-25T19:20:19Z</time></trkpt><trkpt lat="47.28405768902194" lon="8.757726865231223"><ele>493.0</ele><time>2026-04-25T19:20:20Z</time></trkpt><trkpt lat="47.28408465414599" lon="8.757636331481342"><ele>493.0</ele><time>2026-04-25T19:20:21Z</time></trkpt><trkpt lat="47.28411178116307" lon="8.757543739861108"><ele>493.0</ele><time>2026-04-25T19:20:22Z</time></trkpt><trkpt lat="47.284138643897066" lon="8.757452050355134"><ele>493.0</ele><time>2026-04-25T19:20:23Z</time></trkpt><trkpt lat="47.28416558292879" lon="8.757360100352054"><ele>493.0</ele><time>2026-04-25T19:20:24Z</time></trkpt><trkpt lat="47.284193189165705" lon="8.757265679225718"><ele>493.0</ele><time>2026-04-25T19:20:25Z</time></trkpt><trkpt lat="47.28421970142746" lon="8.75717319454987"><ele>493.0</ele><time>2026-04-25T19:20:26Z</time></trkpt><trkpt lat="47.28424642548068" lon="8.757078987570788"><ele>493.0</ele><time>2026-04-25T19:20:27Z</time></trkpt><trkpt lat="47.28427212784" lon="8.756986337973597"><ele>493.0</ele><time>2026-04-25T19:20:28Z</time></trkpt><trkpt lat="47.28429850234161" lon="8.756891265466802"><ele>493.0</ele><time>2026-04-25T19:20:29Z</time></trkpt><trkpt lat="47.28432415971611" lon="8.756798777995087"><ele>493.0</ele><time>2026-04-25T19:20:30Z</time></trkpt><trkpt lat="47.28434956320242" lon="8.756707205761538"><ele>493.0</ele><time>2026-04-25T19:20:31Z</time></trkpt><trkpt lat="47.28437556402583" lon="8.756612092788668"><ele>493.0</ele><time>2026-04-25T19:20:32Z</time></trkpt><trkpt lat="47.28440067315352" lon="8.75652006274795"><ele>493.42857142857144</ele><time>2026-04-25T19:20:33Z</time></trkpt><trkpt lat="47.28442648934823" lon="8.756425441228743"><ele>493.8571428571429</ele><time>2026-04-25T19:20:34Z</time></trkpt><trkpt lat="47.28445174323628" lon="8.756332880628666"><ele>494.28571428571433</ele><time>2026-04-25T19:20:35Z</time></trkpt><trkpt lat="47.28447726081331" lon="8.756239353589196"><ele>494.7142857142857</ele><time>2026-04-25T19:20:36Z</time></trkpt><trkpt lat="47.28450262747846" lon="8.756146379655116"><ele>495.1428571428572</ele><time>2026-04-25T19:20:37Z</time></trkpt><trkpt lat="47.284528089359746" lon="8.756051951239689"><ele>495.5714285714286</ele><time>2026-04-25T19:20:38Z</time></trkpt><trkpt lat="47.284553490688474" lon="8.75595711960192"><ele>496.0</ele><time>2026-04-25T19:20:39Z</time></trkpt><trkpt lat="47.284578398989794" lon="8.755855018279018"><ele>496.00000000000006</ele><time>2026-04-25T19:20:40Z</time></trkpt><trkpt lat="47.284600365307426" lon="8.755750535682662"><ele>496.0</ele><time>2026-04-25T19:20:41Z</time></trkpt><trkpt lat="47.284618864744104" lon="8.755638555872817"><ele>496.0</ele><time>2026-04-25T19:20:42Z</time></trkpt><trkpt lat="47.28463150130329" lon="8.755522387409624"><ele>496.0</ele><time>2026-04-25T19:20:43Z</time></trkpt><trkpt lat="47.284639905630286" lon="8.755409815065297"><ele>496.00000000000006</ele><time>2026-04-25T19:20:44Z</time></trkpt><trkpt lat="47.28464570756638" lon="8.75529292955491"><ele>496.0</ele><time>2026-04-25T19:20:45Z</time></trkpt><trkpt lat="47.28465007406812" lon="8.755173111764401"><ele>496.1666666666667</ele><time>2026-04-25T19:20:46Z</time></trkpt><trkpt lat="47.28465164926353" lon="8.755057917121977"><ele>496.33333333333337</ele><time>2026-04-25T19:20:47Z</time></trkpt><trkpt lat="47.28465273529225" lon="8.754941906058711"><ele>496.5</ele><time>2026-04-25T19:20:48Z</time></trkpt><trkpt lat="47.284653795177505" lon="8.754828687628148"><ele>496.66666666666663</ele><time>2026-04-25T19:20:49Z</time></trkpt><trkpt lat="47.284654872139356" lon="8.75471364591118"><ele>496.8333333333333</ele><time>2026-04-25T19:20:50Z</time></trkpt><trkpt lat="47.284657202422906" lon="8.754602152737263"><ele>497.0</ele><time>2026-04-25T19:20:51Z</time></trkpt><trkpt lat="47.284659367660325" lon="8.754492824274182"><ele>497.0</ele><time>2026-04-25T19:20:52Z</time></trkpt><trkpt lat="47.28466333250371" lon="8.754380688375585"><ele>497.0</ele><time>2026-04-25T19:20:53Z</time></trkpt><trkpt lat="47.284670985372294" lon="8.754275662540868"><ele>497.0</ele><time>2026-04-25T19:20:54Z</time></trkpt><trkpt lat="47.28467993806129" lon="8.754170495813504"><ele>497.0</ele><time>2026-04-25T19:20:55Z</time></trkpt><trkpt lat="47.28469104088647" lon="8.754059467597898"><ele>497.0</ele><time>2026-04-25T19:20:56Z</time></trkpt><trkpt lat="47.28470430411908" lon="8.753955015119317"><ele>497.0</ele><time>2026-04-25T19:20:57Z</time></trkpt><trkpt lat="47.284719454096575" lon="8.753850032642413"><ele>497.0</ele><time>2026-04-25T19:20:58Z</time></trkpt><trkpt lat="47.284735639463186" lon="8.753742427932012"><ele>497.0</ele><time>2026-04-25T19:20:59Z</time></trkpt><trkpt lat="47.28475418950373" lon="8.753643525962804"><ele>497.0</ele><time>2026-04-25T19:21:00Z</time></trkpt><trkpt lat="47.28477507485774" lon="8.753535169523817"><ele>497.0</ele><time>2026-04-25T19:21:01Z</time></trkpt><trkpt lat="47.284795464183816" lon="8.753429386522166"><ele>497.0</ele><time>2026-04-25T19:21:02Z</time></trkpt><trkpt lat="47.28481600269115" lon="8.753321013422966"><ele>497.0</ele><time>2026-04-25T19:21:03Z</time></trkpt><trkpt lat="47.28483541136986" lon="8.75321577970745"><ele>497.0</ele><time>2026-04-25T19:21:04Z</time></trkpt><trkpt lat="47.28485515090497" lon="8.75310729795693"><ele>497.0</ele><time>2026-04-25T19:21:05Z</time></trkpt><trkpt lat="47.28487433783921" lon="8.753001773257795"><ele>497.0</ele><time>2026-04-25T19:21:06Z</time></trkpt><trkpt lat="47.28489355696514" lon="8.75289607124478"><ele>497.0</ele><time>2026-04-25T19:21:07Z</time></trkpt><trkpt lat="47.28491277682523" lon="8.752790365521522"><ele>497.0</ele><time>2026-04-25T19:21:08Z</time></trkpt><trkpt lat="47.284931928622235" lon="8.752685034038434"><ele>497.0</ele><time>2026-04-25T19:21:09Z</time></trkpt><trkpt lat="47.284951018021026" lon="8.752580045759018"><ele>497.0</ele><time>2026-04-25T19:21:10Z</time></trkpt><trkpt lat="47.28497041548075" lon="8.752473363158932"><ele>497.0</ele><time>2026-04-25T19:21:11Z</time></trkpt><trkpt lat="47.28498944036569" lon="8.752368729710462"><ele>497.0</ele><time>2026-04-25T19:21:12Z</time></trkpt><trkpt lat="47.285008785960535" lon="8.752262332101772"><ele>496.99999999999994</ele><time>2026-04-25T19:21:13Z</time></trkpt><trkpt lat="47.28502800093181" lon="8.752156653433664"><ele>497.0</ele><time>2026-04-25T19:21:14Z</time></trkpt><trkpt lat="47.28504610762251" lon="8.752057069702742"><ele>497.0</ele><time>2026-04-25T19:21:15Z</time></trkpt><trkpt lat="47.28506303099511" lon="8.751963994263965"><ele>497.0</ele><time>2026-04-25T19:21:16Z</time></trkpt><trkpt lat="47.28509041588622" lon="8.751813382100378"><ele>496.99999999999994</ele><time>2026-04-25T19:21:18Z</time></trkpt><trkpt lat="47.28510966513544" lon="8.751707514627913"><ele>497.0</ele><time>2026-04-25T19:21:20Z</time></trkpt><trkpt lat="47.285171512546135" lon="8.751741178298971"><ele>496.99999999999994</ele><time>2026-04-25T19:21:27Z</time></trkpt><trkpt lat="47.28526898041648" lon="8.751601608547773"><ele>497.0</ele><time>2026-04-25T19:21:42Z</time></trkpt><trkpt lat="47.28524028476481" lon="8.75150710645552"><ele>497.0</ele><time>2026-04-25T19:21:57Z</time></trkpt><trkpt lat="47.285235759527986" lon="8.751624152054235"><ele>497.0</ele><time>2026-04-25T19:24:55Z</time></trkpt><trkpt lat="47.28516500877144" lon="8.751646462961265"><ele>496.99999999999994</ele><time>2026-04-25T19:24:59Z</time></trkpt><trkpt lat="47.285223104462595" lon="8.751739257505028"><ele>497.0</ele><time>2026-04-25T19:25:02Z</time></trkpt><trkpt lat="47.285156742854156" lon="8.751776461490753"><ele>497.0</ele><time>2026-04-25T19:26:14Z</time></trkpt><trkpt lat="47.285113929684" lon="8.751704631818042"><ele>497.0</ele><time>2026-04-25T19:26:18Z</time></trkpt><trkpt lat="47.28513036315175" lon="8.751587089221902"><ele>497.0</ele><time>2026-04-25T19:26:22Z</time></trkpt><trkpt lat="47.28516124565023" lon="8.751454831249676"><ele>497.0</ele><time>2026-04-25T19:26:25Z</time></trkpt><trkpt lat="47.285177485578465" lon="8.751348944190163"><ele>497.0</ele><time>2026-04-25T19:26:28Z</time></trkpt><trkpt lat="47.28519051966899" lon="8.751251699764527"><ele>497.0</ele><time>2026-04-25T19:26:33Z</time></trkpt><trkpt lat="47.285139519335786" lon="8.751310178826879"><ele>497.0</ele><time>2026-04-25T19:26:36Z</time></trkpt><trkpt lat="47.28511735427937" lon="8.75140423563249"><ele>496.99999999999994</ele><time>2026-04-25T19:26:38Z</time></trkpt><trkpt lat="47.28509837332102" lon="8.751502823224357"><ele>497.0</ele><time>2026-04-25T19:26:40Z</time></trkpt><trkpt lat="47.2850623904912" lon="8.751602870525783"><ele>497.0</ele><time>2026-04-25T19:26:43Z</time></trkpt><trkpt lat="47.28514028846147" lon="8.75147729647243"><ele>497.0</ele><time>2026-04-25T19:31:35Z</time></trkpt><trkpt lat="47.28517869065611" lon="8.751318161628678"><ele>496.99999999999994</ele><time>2026-04-25T19:31:37Z</time></trkpt><trkpt lat="47.285195342672885" lon="8.7512279505606"><ele>497.0</ele><time>2026-04-25T19:31:38Z</time></trkpt><trkpt lat="47.28521238977365" lon="8.75113349000446"><ele>497.1428571428571</ele><time>2026-04-25T19:31:39Z</time></trkpt><trkpt lat="47.28522943412954" lon="8.751039162931095"><ele>497.2857142857143</ele><time>2026-04-25T19:31:40Z</time></trkpt><trkpt lat="47.285248211088664" lon="8.750939960032747"><ele>497.42857142857144</ele><time>2026-04-25T19:31:41Z</time></trkpt><trkpt lat="47.28526698595731" lon="8.750838415973485"><ele>497.57142857142856</ele><time>2026-04-25T19:31:42Z</time></trkpt><trkpt lat="47.28528518280016" lon="8.750736096281413"><ele>497.71428571428567</ele><time>2026-04-25T19:31:43Z</time></trkpt><trkpt lat="47.285303971655985" lon="8.75063345194237"><ele>497.85714285714283</ele><time>2026-04-25T19:31:44Z</time></trkpt><trkpt lat="47.28532458601368" lon="8.75053078172151"><ele>498.0</ele><time>2026-04-25T19:31:45Z</time></trkpt><trkpt lat="47.28534609379958" lon="8.750428179278023"><ele>498.0</ele><time>2026-04-25T19:31:46Z</time></trkpt><trkpt lat="47.28536632112531" lon="8.750324378773415"><ele>497.99999999999994</ele><time>2026-04-25T19:31:47Z</time></trkpt><trkpt lat="47.285385043876005" lon="8.750219808357553"><ele>498.0</ele><time>2026-04-25T19:31:48Z</time></trkpt><trkpt lat="47.28540328605541" lon="8.750115375901823"><ele>498.0</ele><time>2026-04-25T19:31:49Z</time></trkpt><trkpt lat="47.28542325207236" lon="8.750009966373526"><ele>497.99999999999994</ele><time>2026-04-25T19:31:50Z</time></trkpt><trkpt lat="47.285443392774724" lon="8.749905032377317"><ele>498.0</ele><time>2026-04-25T19:31:51Z</time></trkpt><trkpt lat="47.285464544128196" lon="8.749800177387588"><ele>498.0</ele><time>2026-04-25T19:31:52Z</time></trkpt><trkpt lat="47.28548568115024" lon="8.749694037202923"><ele>498.0</ele><time>2026-04-25T19:31:53Z</time></trkpt><trkpt lat="47.28550901331018" lon="8.749590231516038"><ele>498.0</ele><time>2026-04-25T19:31:54Z</time></trkpt><trkpt lat="47.285536230941794" lon="8.749485469122517"><ele>498.0</ele><time>2026-04-25T19:31:55Z</time></trkpt><trkpt lat="47.285567207603414" lon="8.749382936973696"><ele>498.0</ele><time>2026-04-25T19:31:56Z</time></trkpt><trkpt lat="47.28560190681858" lon="8.749281996068852"><ele>498.0</ele><time>2026-04-25T19:31:57Z</time></trkpt><trkpt lat="47.28563767358775" lon="8.749182007646922"><ele>498.0</ele><time>2026-04-25T19:31:58Z</time></trkpt><trkpt lat="47.285676420580955" lon="8.749083861041411"><ele>498.3333333333333</ele><time>2026-04-25T19:31:59Z</time></trkpt><trkpt lat="47.28571798586469" lon="8.748987104645352"><ele>498.66666666666663</ele><time>2026-04-25T19:32:00Z</time></trkpt><trkpt lat="47.285760803297535" lon="8.74889029276532"><ele>499.0</ele><time>2026-04-25T19:32:01Z</time></trkpt><trkpt lat="47.28580289246607" lon="8.748792632928248"><ele>499.3333333333333</ele><time>2026-04-25T19:32:02Z</time></trkpt><trkpt lat="47.285845118609274" lon="8.748695711127098"><ele>499.66666666666663</ele><time>2026-04-25T19:32:03Z</time></trkpt><trkpt lat="47.28588707367474" lon="8.74859679284548"><ele>500.0</ele><time>2026-04-25T19:32:04Z</time></trkpt><trkpt lat="47.28592773160287" lon="8.748497460434864"><ele>499.99999999999994</ele><time>2026-04-25T19:32:05Z</time></trkpt><trkpt lat="47.28596928347984" lon="8.748397653080671"><ele>500.0</ele><time>2026-04-25T19:32:06Z</time></trkpt><trkpt lat="47.28601292067276" lon="8.748299458908074"><ele>500.0</ele><time>2026-04-25T19:32:07Z</time></trkpt><trkpt lat="47.28605414587978" lon="8.748199797862105"><ele>500.0</ele><time>2026-04-25T19:32:08Z</time></trkpt><trkpt lat="47.28609529015166" lon="8.748099641224064"><ele>499.99999999999994</ele><time>2026-04-25T19:32:09Z</time></trkpt><trkpt lat="47.286137771159794" lon="8.748000083185028"><ele>500.0</ele><time>2026-04-25T19:32:10Z</time></trkpt><trkpt lat="47.286179453958646" lon="8.747898971804252"><ele>499.99999999999994</ele><time>2026-04-25T19:32:11Z</time></trkpt><trkpt lat="47.286220859515666" lon="8.747799773352291"><ele>500.0</ele><time>2026-04-25T19:32:12Z</time></trkpt><trkpt lat="47.286262874441995" lon="8.747698783276476"><ele>500.0</ele><time>2026-04-25T19:32:13Z</time></trkpt><trkpt lat="47.286306407796566" lon="8.747598706856472"><ele>500.0</ele><time>2026-04-25T19:32:14Z</time></trkpt><trkpt lat="47.28634914581176" lon="8.747499441643301"><ele>499.99999999999994</ele><time>2026-04-25T19:32:15Z</time></trkpt><trkpt lat="47.286391625010715" lon="8.747399094785402"><ele>500.0</ele><time>2026-04-25T19:32:16Z</time></trkpt><trkpt lat="47.286434456199174" lon="8.747299031640608"><ele>499.8333333333333</ele><time>2026-04-25T19:32:17Z</time></trkpt><trkpt lat="47.28647697294814" lon="8.747198461493745"><ele>499.66666666666663</ele><time>2026-04-25T19:32:18Z</time></trkpt><trkpt lat="47.28651756620386" lon="8.747095128568848"><ele>499.5</ele><time>2026-04-25T19:32:19Z</time></trkpt><trkpt lat="47.286558920108554" lon="8.746995463087924"><ele>499.33333333333337</ele><time>2026-04-25T19:32:20Z</time></trkpt><trkpt lat="47.28660073686493" lon="8.746893902318508"><ele>499.1666666666667</ele><time>2026-04-25T19:32:21Z</time></trkpt><trkpt lat="47.286642537174906" lon="8.74679174736392"><ele>499.0</ele><time>2026-04-25T19:32:22Z</time></trkpt><trkpt lat="47.28668582584537" lon="8.746690296311806"><ele>499.00000000000006</ele><time>2026-04-25T19:32:23Z</time></trkpt><trkpt lat="47.286730348112215" lon="8.746591628415432"><ele>499.0</ele><time>2026-04-25T19:32:24Z</time></trkpt><trkpt lat="47.286773808352585" lon="8.746489916659801"><ele>499.0</ele><time>2026-04-25T19:32:25Z</time></trkpt><trkpt lat="47.28681771157011" lon="8.74638738941582"><ele>499.0</ele><time>2026-04-25T19:32:26Z</time></trkpt><trkpt lat="47.286857190639296" lon="8.746282997387532"><ele>499.00000000000006</ele><time>2026-04-25T19:32:27Z</time></trkpt><trkpt lat="47.28690073152081" lon="8.746182329098884"><ele>499.0</ele><time>2026-04-25T19:32:28Z</time></trkpt><trkpt lat="47.28694383455432" lon="8.746080319417663"><ele>499.33333333333337</ele><time>2026-04-25T19:32:29Z</time></trkpt><trkpt lat="47.286987449717266" lon="8.745980094366526"><ele>499.6666666666667</ele><time>2026-04-25T19:32:30Z</time></trkpt><trkpt lat="47.287029830653104" lon="8.745876671671647"><ele>500.0</ele><time>2026-04-25T19:32:31Z</time></trkpt><trkpt lat="47.28707124720172" lon="8.745771665622275"><ele>500.33333333333337</ele><time>2026-04-25T19:32:32Z</time></trkpt><trkpt lat="47.28711273204304" lon="8.745667252067499"><ele>500.6666666666667</ele><time>2026-04-25T19:32:33Z</time></trkpt><trkpt lat="47.28715275487833" lon="8.74556249510127"><ele>501.0</ele><time>2026-04-25T19:32:34Z</time></trkpt><trkpt lat="47.28720053908923" lon="8.745464708333735"><ele>501.0</ele><time>2026-04-25T19:32:35Z</time></trkpt><trkpt lat="47.28724585771372" lon="8.745362934547522"><ele>501.0</ele><time>2026-04-25T19:32:36Z</time></trkpt><trkpt lat="47.28728429622162" lon="8.745257946696444"><ele>501.0</ele><time>2026-04-25T19:32:37Z</time></trkpt><trkpt lat="47.28732681926641" lon="8.745155621767909"><ele>501.0</ele><time>2026-04-25T19:32:38Z</time></trkpt><trkpt lat="47.2873710577345" lon="8.745054438012094"><ele>501.0</ele><time>2026-04-25T19:32:39Z</time></trkpt><trkpt lat="47.287416177903786" lon="8.744954477959809"><ele>501.0</ele><time>2026-04-25T19:32:40Z</time></trkpt><trkpt lat="47.28745703511307" lon="8.744850339093922"><ele>500.6666666666667</ele><time>2026-04-25T19:32:41Z</time></trkpt><trkpt lat="47.28749834914454" lon="8.744748288793875"><ele>500.33333333333337</ele><time>2026-04-25T19:32:42Z</time></trkpt><trkpt lat="47.287538997775506" lon="8.74464358477249"><ele>500.0</ele><time>2026-04-25T19:32:43Z</time></trkpt><trkpt lat="47.28757454789053" lon="8.744535106813798"><ele>499.6666666666667</ele><time>2026-04-25T19:32:44Z</time></trkpt><trkpt lat="47.28760320904132" lon="8.744421563782494"><ele>499.33333333333337</ele><time>2026-04-25T19:32:45Z</time></trkpt><trkpt lat="47.287627474946056" lon="8.744307894748724"><ele>499.0</ele><time>2026-04-25T19:32:46Z</time></trkpt><trkpt lat="47.28764040120244" lon="8.744189818030915"><ele>499.00000000000006</ele><time>2026-04-25T19:32:47Z</time></trkpt><trkpt lat="47.28764782784518" lon="8.744068348039473"><ele>499.0</ele><time>2026-04-25T19:32:48Z</time></trkpt><trkpt lat="47.287644332569826" lon="8.743949006152205"><ele>499.0</ele><time>2026-04-25T19:32:49Z</time></trkpt><trkpt lat="47.28763589633436" lon="8.743832200285448"><ele>499.0</ele><time>2026-04-25T19:32:50Z</time></trkpt><trkpt lat="47.28762820411971" lon="8.743716445805987"><ele>499.00000000000006</ele><time>2026-04-25T19:32:51Z</time></trkpt><trkpt lat="47.2876150268151" lon="8.743599372848509"><ele>499.0</ele><time>2026-04-25T19:32:52Z</time></trkpt><trkpt lat="47.28759975878776" lon="8.743482652949002"><ele>498.6666666666667</ele><time>2026-04-25T19:32:53Z</time></trkpt><trkpt lat="47.28758529350166" lon="8.743367464337007"><ele>498.33333333333337</ele><time>2026-04-25T19:32:54Z</time></trkpt><trkpt lat="47.28757213644943" lon="8.743257925333333"><ele>498.0</ele><time>2026-04-25T19:32:55Z</time></trkpt><trkpt lat="47.28755748510254" lon="8.7431476828869"><ele>497.66666666666663</ele><time>2026-04-25T19:32:56Z</time></trkpt><trkpt lat="47.2875421364243" lon="8.743036639381808"><ele>497.3333333333333</ele><time>2026-04-25T19:32:57Z</time></trkpt><trkpt lat="47.28752906048426" lon="8.742930861823583"><ele>497.0</ele><time>2026-04-25T19:32:58Z</time></trkpt><trkpt lat="47.28751913587724" lon="8.742825072108996"><ele>497.0</ele><time>2026-04-25T19:32:59Z</time></trkpt><trkpt lat="47.287511826771" lon="8.74272204790626"><ele>497.0</ele><time>2026-04-25T19:33:00Z</time></trkpt><trkpt lat="47.28750912718845" lon="8.742615666822058"><ele>497.0</ele><time>2026-04-25T19:33:01Z</time></trkpt><trkpt lat="47.28750772111173" lon="8.742508468255856"><ele>497.0</ele><time>2026-04-25T19:33:02Z</time></trkpt><trkpt lat="47.28750739074621" lon="8.742402685242762"><ele>497.0</ele><time>2026-04-25T19:33:03Z</time></trkpt><trkpt lat="47.28751404062585" lon="8.742295472271799"><ele>497.0</ele><time>2026-04-25T19:33:04Z</time></trkpt><trkpt lat="47.28752074132891" lon="8.742196509544511"><ele>497.0</ele><time>2026-04-25T19:33:05Z</time></trkpt><trkpt lat="47.28753161554996" lon="8.742092422971963"><ele>497.2857142857143</ele><time>2026-04-25T19:33:06Z</time></trkpt><trkpt lat="47.28754595236356" lon="8.741989128692198"><ele>497.57142857142856</ele><time>2026-04-25T19:33:07Z</time></trkpt><trkpt lat="47.28756346724312" lon="8.741884090880802"><ele>497.8571428571429</ele><time>2026-04-25T19:33:08Z</time></trkpt><trkpt lat="47.28758455842246" lon="8.741782932863458"><ele>498.14285714285717</ele><time>2026-04-25T19:33:09Z</time></trkpt><trkpt lat="47.28760917433496" lon="8.74168052025726"><ele>498.42857142857144</ele><time>2026-04-25T19:33:10Z</time></trkpt><trkpt lat="47.2876362866008" lon="8.741578747555788"><ele>498.7142857142858</ele><time>2026-04-25T19:33:11Z</time></trkpt><trkpt lat="47.2876668402945" lon="8.741476435381019"><ele>499.00000000000006</ele><time>2026-04-25T19:33:12Z</time></trkpt><trkpt lat="47.28769873250845" lon="8.741375861949074"><ele>499.6666666666667</ele><time>2026-04-25T19:33:13Z</time></trkpt><trkpt lat="47.28773436225932" lon="8.741277671383697"><ele>500.33333333333337</ele><time>2026-04-25T19:33:14Z</time></trkpt><trkpt lat="47.28776952116378" lon="8.741176736299128"><ele>501.0</ele><time>2026-04-25T19:33:15Z</time></trkpt><trkpt lat="47.28780238573468" lon="8.741075332261806"><ele>501.66666666666663</ele><time>2026-04-25T19:33:16Z</time></trkpt><trkpt lat="47.28783594622473" lon="8.740975796511423"><ele>502.3333333333333</ele><time>2026-04-25T19:33:17Z</time></trkpt><trkpt lat="47.28787444557676" lon="8.740871516869467"><ele>503.0</ele><time>2026-04-25T19:33:18Z</time></trkpt><trkpt lat="47.28790940870574" lon="8.740765266659531"><ele>503.66666666666663</ele><time>2026-04-25T19:33:19Z</time></trkpt><trkpt lat="47.28794576786407" lon="8.740654609865793"><ele>504.3333333333333</ele><time>2026-04-25T19:33:20Z</time></trkpt><trkpt lat="47.28798071602961" lon="8.74054907071329"><ele>505.0</ele><time>2026-04-25T19:33:21Z</time></trkpt><trkpt lat="47.28801606148594" lon="8.740441589466906"><ele>505.66666666666663</ele><time>2026-04-25T19:33:22Z</time></trkpt><trkpt lat="47.288051497668214" lon="8.740332044691463"><ele>506.3333333333333</ele><time>2026-04-25T19:33:23Z</time></trkpt><trkpt lat="47.28808785412623" lon="8.740221986787926"><ele>507.0</ele><time>2026-04-25T19:33:24Z</time></trkpt><trkpt lat="47.288124873821005" lon="8.740112068834776"><ele>507.1666666666667</ele><time>2026-04-25T19:33:25Z</time></trkpt><trkpt lat="47.28816013107884" lon="8.740000277122128"><ele>507.33333333333337</ele><time>2026-04-25T19:33:26Z</time></trkpt><trkpt lat="47.28818949245314" lon="8.739886257842546"><ele>507.5</ele><time>2026-04-25T19:33:27Z</time></trkpt><trkpt lat="47.28821503729201" lon="8.739768612977727"><ele>507.6666666666667</ele><time>2026-04-25T19:33:28Z</time></trkpt><trkpt lat="47.288236203848676" lon="8.739652262478206"><ele>507.83333333333337</ele><time>2026-04-25T19:33:29Z</time></trkpt><trkpt lat="47.288253239941035" lon="8.739527741826103"><ele>508.0</ele><time>2026-04-25T19:33:30Z</time></trkpt><trkpt lat="47.28826446836593" lon="8.739403144625413"><ele>508.00000000000006</ele><time>2026-04-25T19:33:31Z</time></trkpt><trkpt lat="47.28827034208935" lon="8.739280927702016"><ele>508.0</ele><time>2026-04-25T19:33:32Z</time></trkpt><trkpt lat="47.288272619169454" lon="8.739155069766426"><ele>508.0</ele><time>2026-04-25T19:33:33Z</time></trkpt><trkpt lat="47.28826957295727" lon="8.739030484614673"><ele>508.0</ele><time>2026-04-25T19:33:34Z</time></trkpt><trkpt lat="47.288261736482355" lon="8.738905038470529"><ele>508.00000000000006</ele><time>2026-04-25T19:33:35Z</time></trkpt><trkpt lat="47.28825111291929" lon="8.73877745692816"><ele>508.0</ele><time>2026-04-25T19:33:36Z</time></trkpt><trkpt lat="47.2882418903557" lon="8.738649391532554"><ele>507.59999999999997</ele><time>2026-04-25T19:33:37Z</time></trkpt><trkpt lat="47.28823234571459" lon="8.738520687891247"><ele>507.19999999999993</ele><time>2026-04-25T19:33:38Z</time></trkpt><trkpt lat="47.28822303361305" lon="8.738389621593772"><ele>506.8</ele><time>2026-04-25T19:33:39Z</time></trkpt><trkpt lat="47.28821139388082" lon="8.738258119822955"><ele>506.4</ele><time>2026-04-25T19:33:40Z</time></trkpt><trkpt lat="47.288198069258236" lon="8.73812366576104"><ele>506.0</ele><time>2026-04-25T19:33:41Z</time></trkpt><trkpt lat="47.28818703446711" lon="8.737989034096534"><ele>506.0</ele><time>2026-04-25T19:33:42Z</time></trkpt><trkpt lat="47.288176914111936" lon="8.73785270293594"><ele>506.0</ele><time>2026-04-25T19:33:43Z</time></trkpt><trkpt lat="47.28816642409096" lon="8.737714478453958"><ele>506.0</ele><time>2026-04-25T19:33:44Z</time></trkpt><trkpt lat="47.28815338895284" lon="8.737575825352609"><ele>506.0</ele><time>2026-04-25T19:33:45Z</time></trkpt><trkpt lat="47.288140300933655" lon="8.73743221152265"><ele>506.0</ele><time>2026-04-25T19:33:46Z</time></trkpt><trkpt lat="47.288128335589434" lon="8.737290528768499"><ele>505.4</ele><time>2026-04-25T19:33:47Z</time></trkpt><trkpt lat="47.28812288465157" lon="8.737143939643987"><ele>504.8</ele><time>2026-04-25T19:33:48Z</time></trkpt><trkpt lat="47.288123636293086" lon="8.736995211662748"><ele>504.19999999999993</ele><time>2026-04-25T19:33:49Z</time></trkpt><trkpt lat="47.28813299498036" lon="8.736850141444755"><ele>503.59999999999997</ele><time>2026-04-25T19:33:50Z</time></trkpt><trkpt lat="47.288153747983465" lon="8.73670486841831"><ele>503.0</ele><time>2026-04-25T19:33:51Z</time></trkpt><trkpt lat="47.28817910767416" lon="8.736553243078546"><ele>502.59999999999997</ele><time>2026-04-25T19:33:52Z</time></trkpt><trkpt lat="47.28820437990247" lon="8.736407609366003"><ele>502.19999999999993</ele><time>2026-04-25T19:33:53Z</time></trkpt><trkpt lat="47.28823239818052" lon="8.736280700613062"><ele>501.8</ele><time>2026-04-25T19:33:54Z</time></trkpt><trkpt lat="47.28826399315686" lon="8.736153005032305"><ele>501.4</ele><time>2026-04-25T19:33:55Z</time></trkpt><trkpt lat="47.28830571236368" lon="8.73602815319685"><ele>501.0</ele><time>2026-04-25T19:33:56Z</time></trkpt><trkpt lat="47.28835336364334" lon="8.735915606897217"><ele>500.3333333333333</ele><time>2026-04-25T19:33:57Z</time></trkpt><trkpt lat="47.28841366665887" lon="8.735812277604404"><ele>499.66666666666663</ele><time>2026-04-25T19:33:58Z</time></trkpt><trkpt lat="47.28847278200903" lon="8.73571684514729"><ele>499.0</ele><time>2026-04-25T19:33:59Z</time></trkpt><trkpt lat="47.28852271870961" lon="8.73563802895094"><ele>498.3333333333333</ele><time>2026-04-25T19:34:00Z</time></trkpt><trkpt lat="47.28856811679905" lon="8.73556874940596"><ele>497.66666666666663</ele><time>2026-04-25T19:34:01Z</time></trkpt><trkpt lat="47.288618386523964" lon="8.73547785112691"><ele>497.0</ele><time>2026-04-25T19:34:03Z</time></trkpt><trkpt lat="47.28850234851853" lon="8.735234012756523"><ele>496.49999999999994</ele><time>2026-04-25T19:34:04Z</time></trkpt><trkpt lat="47.28847063775171" lon="8.735129854175653"><ele>496.0</ele><time>2026-04-25T19:34:05Z</time></trkpt><trkpt lat="47.288453199180665" lon="8.735015506936556"><ele>495.5</ele><time>2026-04-25T19:34:06Z</time></trkpt><trkpt lat="47.28844660907907" lon="8.73489404397346"><ele>495.0</ele><time>2026-04-25T19:34:07Z</time></trkpt><trkpt lat="47.28846105673975" lon="8.734774446350508"><ele>494.49999999999994</ele><time>2026-04-25T19:34:08Z</time></trkpt><trkpt lat="47.28848113597186" lon="8.734658415982867"><ele>494.0</ele><time>2026-04-25T19:34:09Z</time></trkpt><trkpt lat="47.288505027868624" lon="8.734542290489282"><ele>493.99999999999994</ele><time>2026-04-25T19:34:10Z</time></trkpt><trkpt lat="47.28853260771413" lon="8.734431319702402"><ele>494.0</ele><time>2026-04-25T19:34:11Z</time></trkpt><trkpt lat="47.28855806892502" lon="8.734321860954966"><ele>494.0</ele><time>2026-04-25T19:34:12Z</time></trkpt><trkpt lat="47.288586886511325" lon="8.734214611703626"><ele>494.0</ele><time>2026-04-25T19:34:13Z</time></trkpt><trkpt lat="47.288617830446235" lon="8.734104878712728"><ele>493.99999999999994</ele><time>2026-04-25T19:34:14Z</time></trkpt><trkpt lat="47.288650271774564" lon="8.733995234000453"><ele>494.0</ele><time>2026-04-25T19:34:15Z</time></trkpt><trkpt lat="47.28868494412698" lon="8.73388554966931"><ele>493.8333333333333</ele><time>2026-04-25T19:34:16Z</time></trkpt><trkpt lat="47.28871982561472" lon="8.73377426198873"><ele>493.66666666666663</ele><time>2026-04-25T19:34:17Z</time></trkpt><trkpt lat="47.28875844682266" lon="8.733666353806985"><ele>493.5</ele><time>2026-04-25T19:34:18Z</time></trkpt><trkpt lat="47.28880038291991" lon="8.733559421303003"><ele>493.33333333333337</ele><time>2026-04-25T19:34:19Z</time></trkpt><trkpt lat="47.28884236312735" lon="8.733452745347678"><ele>493.1666666666667</ele><time>2026-04-25T19:34:20Z</time></trkpt><trkpt lat="47.28888371632717" lon="8.733346888881808"><ele>493.0</ele><time>2026-04-25T19:34:21Z</time></trkpt><trkpt lat="47.28892445903163" lon="8.733240095927195"><ele>493.1666666666667</ele><time>2026-04-25T19:34:22Z</time></trkpt><trkpt lat="47.288965363535546" lon="8.733133111972432"><ele>493.33333333333337</ele><time>2026-04-25T19:34:23Z</time></trkpt><trkpt lat="47.28900529109595" lon="8.733027424043582"><ele>493.5</ele><time>2026-04-25T19:34:24Z</time></trkpt><trkpt lat="47.28904487659969" lon="8.732920850170249"><ele>493.66666666666663</ele><time>2026-04-25T19:34:25Z</time></trkpt><trkpt lat="47.289082865739395" lon="8.732812274804273"><ele>493.8333333333333</ele><time>2026-04-25T19:34:26Z</time></trkpt><trkpt lat="47.28911717639269" lon="8.732702196016074"><ele>494.0</ele><time>2026-04-25T19:34:27Z</time></trkpt><trkpt lat="47.28914198021411" lon="8.73258745877594"><ele>493.99999999999994</ele><time>2026-04-25T19:34:28Z</time></trkpt><trkpt lat="47.28917448778271" lon="8.732470988942826"><ele>494.0</ele><time>2026-04-25T19:34:29Z</time></trkpt><trkpt lat="47.28918772686346" lon="8.732348477737093"><ele>494.0</ele><time>2026-04-25T19:34:30Z</time></trkpt><trkpt lat="47.28917736175926" lon="8.732221445003546"><ele>494.0</ele><time>2026-04-25T19:34:31Z</time></trkpt><trkpt lat="47.28917715035791" lon="8.732097541215705"><ele>493.99999999999994</ele><time>2026-04-25T19:34:32Z</time></trkpt><trkpt lat="47.28916793262083" lon="8.731973353421465"><ele>494.0</ele><time>2026-04-25T19:34:33Z</time></trkpt><trkpt lat="47.289165196169535" lon="8.731849512848429"><ele>493.66666666666663</ele><time>2026-04-25T19:34:34Z</time></trkpt><trkpt lat="47.28915779055651" lon="8.731726663297176"><ele>493.3333333333333</ele><time>2026-04-25T19:34:35Z</time></trkpt><trkpt lat="47.28915368882783" lon="8.731604467547157"><ele>493.0</ele><time>2026-04-25T19:34:36Z</time></trkpt><trkpt lat="47.28915029101292" lon="8.731480993953657"><ele>492.66666666666663</ele><time>2026-04-25T19:34:37Z</time></trkpt><trkpt lat="47.28914671050666" lon="8.731357883423586"><ele>492.3333333333333</ele><time>2026-04-25T19:34:38Z</time></trkpt><trkpt lat="47.28914355824467" lon="8.731234459748464"><ele>492.0</ele><time>2026-04-25T19:34:39Z</time></trkpt><trkpt lat="47.28914307173559" lon="8.731111669434817"><ele>491.3333333333333</ele><time>2026-04-25T19:34:40Z</time></trkpt><trkpt lat="47.28914334636506" lon="8.73098789185012"><ele>490.66666666666663</ele><time>2026-04-25T19:34:41Z</time></trkpt><trkpt lat="47.2891452352658" lon="8.730867028682056"><ele>490.0</ele><time>2026-04-25T19:34:42Z</time></trkpt><trkpt lat="47.28914903399781" lon="8.730743766432711"><ele>489.3333333333333</ele><time>2026-04-25T19:34:43Z</time></trkpt><trkpt lat="47.289155645489586" lon="8.730621707434912"><ele>488.66666666666663</ele><time>2026-04-25T19:34:44Z</time></trkpt><trkpt lat="47.28916375972007" lon="8.730499664999428"><ele>488.0</ele><time>2026-04-25T19:34:45Z</time></trkpt><trkpt lat="47.28917331218761" lon="8.73037761460343"><ele>487.99999999999994</ele><time>2026-04-25T19:34:46Z</time></trkpt><trkpt lat="47.28918548482877" lon="8.730258531810264"><ele>488.0</ele><time>2026-04-25T19:34:47Z</time></trkpt><trkpt lat="47.289199759736114" lon="8.730139058416622"><ele>488.0</ele><time>2026-04-25T19:34:48Z</time></trkpt><trkpt lat="47.28921484695208" lon="8.730019132651568"><ele>488.0</ele><time>2026-04-25T19:34:49Z</time></trkpt><trkpt lat="47.28923259769937" lon="8.72990199993984"><ele>487.99999999999994</ele><time>2026-04-25T19:34:50Z</time></trkpt><trkpt lat="47.28925082529043" lon="8.729781540520394"><ele>488.0</ele><time>2026-04-25T19:34:51Z</time></trkpt><trkpt lat="47.28926621095229" lon="8.72966386476951"><ele>487.99999999999994</ele><time>2026-04-25T19:34:52Z</time></trkpt><trkpt lat="47.28928032478559" lon="8.72954447010738"><ele>488.0</ele><time>2026-04-25T19:34:53Z</time></trkpt><trkpt lat="47.289293911461286" lon="8.72942505992525"><ele>488.0</ele><time>2026-04-25T19:34:54Z</time></trkpt><trkpt lat="47.28931079346278" lon="8.729306505735185"><ele>488.0</ele><time>2026-04-25T19:34:55Z</time></trkpt><trkpt lat="47.28932931533672" lon="8.729186001936169"><ele>487.99999999999994</ele><time>2026-04-25T19:34:56Z</time></trkpt><trkpt lat="47.28934888823989" lon="8.729069803570125"><ele>488.0</ele><time>2026-04-25T19:34:57Z</time></trkpt><trkpt lat="47.28936809030759" lon="8.72894997684028"><ele>488.16666666666663</ele><time>2026-04-25T19:34:58Z</time></trkpt><trkpt lat="47.2893843357576" lon="8.728829460869237"><ele>488.3333333333333</ele><time>2026-04-25T19:34:59Z</time></trkpt><trkpt lat="47.28939953650416" lon="8.728709144246725"><ele>488.5</ele><time>2026-04-25T19:35:00Z</time></trkpt><trkpt lat="47.28941513406969" lon="8.728589009838926"><ele>488.66666666666663</ele><time>2026-04-25T19:35:01Z</time></trkpt><trkpt lat="47.28943160584503" lon="8.7284684797129"><ele>488.8333333333333</ele><time>2026-04-25T19:35:02Z</time></trkpt><trkpt lat="47.28944798957923" lon="8.728347637551112"><ele>489.0</ele><time>2026-04-25T19:35:03Z</time></trkpt><trkpt lat="47.28946351554277" lon="8.728227173824763"><ele>488.8333333333333</ele><time>2026-04-25T19:35:04Z</time></trkpt><trkpt lat="47.28947977427363" lon="8.728107603292397"><ele>488.66666666666663</ele><time>2026-04-25T19:35:05Z</time></trkpt><trkpt lat="47.28949691646723" lon="8.727987235902148"><ele>488.5</ele><time>2026-04-25T19:35:06Z</time></trkpt><trkpt lat="47.28951448174684" lon="8.727867899937532"><ele>488.3333333333333</ele><time>2026-04-25T19:35:07Z</time></trkpt><trkpt lat="47.289530984339585" lon="8.72774651492821"><ele>488.16666666666663</ele><time>2026-04-25T19:35:08Z</time></trkpt><trkpt lat="47.28954725703027" lon="8.727627151952612"><ele>488.0</ele><time>2026-04-25T19:35:09Z</time></trkpt><trkpt lat="47.289563359107575" lon="8.727505998394372"><ele>487.99999999999994</ele><time>2026-04-25T19:35:10Z</time></trkpt><trkpt lat="47.28957735906474" lon="8.727385023376709"><ele>488.0</ele><time>2026-04-25T19:35:11Z</time></trkpt><trkpt lat="47.289592099335245" lon="8.727261592883675"><ele>488.0</ele><time>2026-04-25T19:35:12Z</time></trkpt><trkpt lat="47.28960856130547" lon="8.727141120655757"><ele>488.0</ele><time>2026-04-25T19:35:13Z</time></trkpt><trkpt lat="47.28962353644813" lon="8.727019077367927"><ele>487.99999999999994</ele><time>2026-04-25T19:35:14Z</time></trkpt><trkpt lat="47.28963945340743" lon="8.72689731223129"><ele>488.0</ele><time>2026-04-25T19:35:15Z</time></trkpt><trkpt lat="47.289657109771525" lon="8.72677503433639"><ele>488.16666666666663</ele><time>2026-04-25T19:35:16Z</time></trkpt><trkpt lat="47.28967463335998" lon="8.726652995115941"><ele>488.3333333333333</ele><time>2026-04-25T19:35:17Z</time></trkpt><trkpt lat="47.28969208316894" lon="8.726530329064971"><ele>488.5</ele><time>2026-04-25T19:35:18Z</time></trkpt><trkpt lat="47.28970956764148" lon="8.726408731623529"><ele>488.66666666666663</ele><time>2026-04-25T19:35:19Z</time></trkpt><trkpt lat="47.28972756984919" lon="8.726287708956294"><ele>488.8333333333333</ele><time>2026-04-25T19:35:20Z</time></trkpt><trkpt lat="47.28974363074249" lon="8.726165331095142"><ele>489.0</ele><time>2026-04-25T19:35:21Z</time></trkpt><trkpt lat="47.2897586518788" lon="8.72604425951741"><ele>488.6666666666667</ele><time>2026-04-25T19:35:22Z</time></trkpt><trkpt lat="47.28977527319468" lon="8.72592362576092"><ele>488.33333333333337</ele><time>2026-04-25T19:35:23Z</time></trkpt><trkpt lat="47.28979142743616" lon="8.725803846099739"><ele>488.0</ele><time>2026-04-25T19:35:24Z</time></trkpt><trkpt lat="47.289806766782675" lon="8.725682726089524"><ele>487.6666666666667</ele><time>2026-04-25T19:35:25Z</time></trkpt><trkpt lat="47.2898238845629" lon="8.72556373190304"><ele>487.33333333333337</ele><time>2026-04-25T19:35:26Z</time></trkpt><trkpt lat="47.289839887058676" lon="8.725443754388284"><ele>487.0</ele><time>2026-04-25T19:35:27Z</time></trkpt><trkpt lat="47.289854540227275" lon="8.725324836423924"><ele>487.00000000000006</ele><time>2026-04-25T19:35:28Z</time></trkpt><trkpt lat="47.28986964081452" lon="8.725205276843067"><ele>487.0</ele><time>2026-04-25T19:35:29Z</time></trkpt><trkpt lat="47.28988657669628" lon="8.72508408783686"><ele>487.0</ele><time>2026-04-25T19:35:30Z</time></trkpt><trkpt lat="47.289903422434925" lon="8.724966327987461"><ele>487.0</ele><time>2026-04-25T19:35:31Z</time></trkpt><trkpt lat="47.28992171578602" lon="8.724847051576294"><ele>487.00000000000006</ele><time>2026-04-25T19:35:32Z</time></trkpt><trkpt lat="47.289940403497546" lon="8.724728226231312"><ele>487.0</ele><time>2026-04-25T19:35:33Z</time></trkpt><trkpt lat="47.28995869407832" lon="8.72460923906679"><ele>487.00000000000006</ele><time>2026-04-25T19:35:34Z</time></trkpt><trkpt lat="47.28997474495985" lon="8.724490055454414"><ele>487.0</ele><time>2026-04-25T19:35:35Z</time></trkpt><trkpt lat="47.28998856382619" lon="8.724371264889504"><ele>487.0</ele><time>2026-04-25T19:35:36Z</time></trkpt><trkpt lat="47.29000149193723" lon="8.724249494461459"><ele>487.0</ele><time>2026-04-25T19:35:37Z</time></trkpt><trkpt lat="47.290014715684755" lon="8.724131232929635"><ele>487.00000000000006</ele><time>2026-04-25T19:35:38Z</time></trkpt><trkpt lat="47.29003157571846" lon="8.724011962930593"><ele>487.0</ele><time>2026-04-25T19:35:39Z</time></trkpt><trkpt lat="47.290049955059835" lon="8.723893339318296"><ele>486.6666666666667</ele><time>2026-04-25T19:35:40Z</time></trkpt><trkpt lat="47.29006747154635" lon="8.723774466937684"><ele>486.33333333333337</ele><time>2026-04-25T19:35:41Z</time></trkpt><trkpt lat="47.29008464423665" lon="8.723654615399246"><ele>486.0</ele><time>2026-04-25T19:35:42Z</time></trkpt><trkpt lat="47.29010120726342" lon="8.723535583663068"><ele>485.66666666666663</ele><time>2026-04-25T19:35:43Z</time></trkpt><trkpt lat="47.29011764963963" lon="8.72341586304473"><ele>485.3333333333333</ele><time>2026-04-25T19:35:44Z</time></trkpt><trkpt lat="47.29013677214481" lon="8.723296416540098"><ele>485.0</ele><time>2026-04-25T19:35:45Z</time></trkpt><trkpt lat="47.29015696832132" lon="8.723179325111147"><ele>484.99999999999994</ele><time>2026-04-25T19:35:46Z</time></trkpt><trkpt lat="47.29017540610951" lon="8.723057510209651"><ele>485.0</ele><time>2026-04-25T19:35:47Z</time></trkpt><trkpt lat="47.29019253247633" lon="8.722937891862307"><ele>485.0</ele><time>2026-04-25T19:35:48Z</time></trkpt><trkpt lat="47.29021040425135" lon="8.722818392457558"><ele>485.0</ele><time>2026-04-25T19:35:49Z</time></trkpt><trkpt lat="47.290229372449005" lon="8.722699667054178"><ele>484.99999999999994</ele><time>2026-04-25T19:35:50Z</time></trkpt><trkpt lat="47.29024884025913" lon="8.722580628890524"><ele>485.0</ele><time>2026-04-25T19:35:51Z</time></trkpt><trkpt lat="47.290267963910175" lon="8.72246247849055"><ele>484.8333333333333</ele><time>2026-04-25T19:35:52Z</time></trkpt><trkpt lat="47.290285705506896" lon="8.722341716625253"><ele>484.66666666666663</ele><time>2026-04-25T19:35:53Z</time></trkpt><trkpt lat="47.29030401529717" lon="8.722220624700695"><ele>484.5</ele><time>2026-04-25T19:35:54Z</time></trkpt><trkpt lat="47.290323665485545" lon="8.722098916705988"><ele>484.33333333333337</ele><time>2026-04-25T19:35:55Z</time></trkpt><trkpt lat="47.290344019148186" lon="8.721978064736877"><ele>484.1666666666667</ele><time>2026-04-25T19:35:56Z</time></trkpt><trkpt lat="47.29036473134058" lon="8.721856819490004"><ele>484.0</ele><time>2026-04-25T19:35:57Z</time></trkpt><trkpt lat="47.29038716990897" lon="8.721734684545225"><ele>484.00000000000006</ele><time>2026-04-25T19:35:58Z</time></trkpt><trkpt lat="47.29041029962525" lon="8.721615141338251"><ele>484.0</ele><time>2026-04-25T19:35:59Z</time></trkpt><trkpt lat="47.29043378534929" lon="8.721492725440413"><ele>484.0</ele><time>2026-04-25T19:36:00Z</time></trkpt><trkpt lat="47.29045843757519" lon="8.721369866640915"><ele>484.0</ele><time>2026-04-25T19:36:01Z</time></trkpt><trkpt lat="47.29048483234468" lon="8.721249428320014"><ele>484.00000000000006</ele><time>2026-04-25T19:36:02Z</time></trkpt><trkpt lat="47.290512328116364" lon="8.721129472752912"><ele>484.0</ele><time>2026-04-25T19:36:03Z</time></trkpt><trkpt lat="47.290541255816414" lon="8.721008967898378"><ele>484.33333333333337</ele><time>2026-04-25T19:36:04Z</time></trkpt><trkpt lat="47.29056884399758" lon="8.720889203912282"><ele>484.6666666666667</ele><time>2026-04-25T19:36:05Z</time></trkpt><trkpt lat="47.290595959835365" lon="8.720768573697978"><ele>485.0</ele><time>2026-04-25T19:36:06Z</time></trkpt><trkpt lat="47.29062551613258" lon="8.720649847182754"><ele>485.33333333333337</ele><time>2026-04-25T19:36:07Z</time></trkpt><trkpt lat="47.2906565546938" lon="8.720532251900876"><ele>485.6666666666667</ele><time>2026-04-25T19:36:08Z</time></trkpt><trkpt lat="47.290688109876136" lon="8.720414905610998"><ele>486.0</ele><time>2026-04-25T19:36:09Z</time></trkpt><trkpt lat="47.29072007722615" lon="8.720299860033908"><ele>484.8333333333333</ele><time>2026-04-25T19:36:10Z</time></trkpt><trkpt lat="47.29075308472102" lon="8.720183637419145"><ele>483.66666666666663</ele><time>2026-04-25T19:36:11Z</time></trkpt><trkpt lat="47.290786168257746" lon="8.72006949696549"><ele>482.5</ele><time>2026-04-25T19:36:12Z</time></trkpt><trkpt lat="47.290819690069526" lon="8.719954764741361"><ele>481.3333333333333</ele><time>2026-04-25T19:36:13Z</time></trkpt><trkpt lat="47.290854259564604" lon="8.719842144051759"><ele>480.16666666666663</ele><time>2026-04-25T19:36:14Z</time></trkpt><trkpt lat="47.290891382555735" lon="8.719729860387273"><ele>479.0</ele><time>2026-04-25T19:36:15Z</time></trkpt><trkpt lat="47.29093054174934" lon="8.719620613804377"><ele>478.99999999999994</ele><time>2026-04-25T19:36:16Z</time></trkpt><trkpt lat="47.29097661571661" lon="8.71951553553929"><ele>479.0</ele><time>2026-04-25T19:36:17Z</time></trkpt><trkpt lat="47.29102255001337" lon="8.719410853350674"><ele>479.0</ele><time>2026-04-25T19:36:18Z</time></trkpt><trkpt lat="47.29106982379457" lon="8.719307281192812"><ele>479.0</ele><time>2026-04-25T19:36:19Z</time></trkpt><trkpt lat="47.29111737471685" lon="8.719204850052195"><ele>478.99999999999994</ele><time>2026-04-25T19:36:20Z</time></trkpt><trkpt lat="47.29116478563704" lon="8.719102766028472"><ele>479.0</ele><time>2026-04-25T19:36:21Z</time></trkpt><trkpt lat="47.29121078445027" lon="8.718999454440835"><ele>479.16666666666663</ele><time>2026-04-25T19:36:22Z</time></trkpt><trkpt lat="47.29125852189976" lon="8.718898075801128"><ele>479.3333333333333</ele><time>2026-04-25T19:36:23Z</time></trkpt><trkpt lat="47.291301524840584" lon="8.718804037567677"><ele>479.5</ele><time>2026-04-25T19:36:24Z</time></trkpt><trkpt lat="47.29133971556779" lon="8.71871002849131"><ele>479.66666666666663</ele><time>2026-04-25T19:36:25Z</time></trkpt><trkpt lat="47.29137888936906" lon="8.71862027324175"><ele>479.8333333333333</ele><time>2026-04-25T19:36:26Z</time></trkpt><trkpt lat="47.291367686900415" lon="8.718510094031219"><ele>480.0</ele><time>2026-04-25T19:36:27Z</time></trkpt><trkpt lat="47.29132138149396" lon="8.71841047053036"><ele>480.0</ele><time>2026-04-25T19:36:28Z</time></trkpt><trkpt lat="47.291230690708616" lon="8.718371724775736"><ele>480.0</ele><time>2026-04-25T19:36:29Z</time></trkpt><trkpt lat="47.29116997058114" lon="8.71831761784917"><ele>480.0</ele><time>2026-04-25T19:36:30Z</time></trkpt><trkpt lat="47.29110902060941" lon="8.718266533697255"><ele>480.0</ele><time>2026-04-25T19:36:31Z</time></trkpt><trkpt lat="47.29105533241505" lon="8.718217402537194"><ele>480.0</ele><time>2026-04-25T19:36:32Z</time></trkpt><trkpt lat="47.291010183021484" lon="8.718149700393312"><ele>480.0</ele><time>2026-04-25T19:36:33Z</time></trkpt><trkpt lat="47.290969200647545" lon="8.718061480253903"><ele>480.0</ele><time>2026-04-25T19:36:34Z</time></trkpt><trkpt lat="47.29093339417962" lon="8.717958514008178"><ele>480.0</ele><time>2026-04-25T19:36:35Z</time></trkpt><trkpt lat="47.29091965789534" lon="8.717839329409076"><ele>480.0</ele><time>2026-04-25T19:36:36Z</time></trkpt><trkpt lat="47.29089920698235" lon="8.717723455599396"><ele>480.0</ele><time>2026-04-25T19:36:37Z</time></trkpt><trkpt lat="47.29086372747955" lon="8.717610310551846"><ele>480.0</ele><time>2026-04-25T19:36:38Z</time></trkpt><trkpt lat="47.29085785285228" lon="8.717489144995703"><ele>480.0</ele><time>2026-04-25T19:36:39Z</time></trkpt><trkpt lat="47.29083692617569" lon="8.717370751414661"><ele>480.0</ele><time>2026-04-25T19:36:40Z</time></trkpt><trkpt lat="47.29081566022141" lon="8.717252805234196"><ele>479.6666666666667</ele><time>2026-04-25T19:36:41Z</time></trkpt><trkpt lat="47.29079443796405" lon="8.717135101276458"><ele>479.33333333333337</ele><time>2026-04-25T19:36:42Z</time></trkpt><trkpt lat="47.290773123283536" lon="8.717016884850683"><ele>479.0</ele><time>2026-04-25T19:36:43Z</time></trkpt><trkpt lat="47.29075159496445" lon="8.716897483451637"><ele>478.6666666666667</ele><time>2026-04-25T19:36:44Z</time></trkpt><trkpt lat="47.29073034017293" lon="8.716778794110613"><ele>478.33333333333337</ele><time>2026-04-25T19:36:45Z</time></trkpt><trkpt lat="47.29070918674281" lon="8.716660417646764"><ele>478.0</ele><time>2026-04-25T19:36:46Z</time></trkpt><trkpt lat="47.29068782108943" lon="8.716540853490274"><ele>477.83333333333337</ele><time>2026-04-25T19:36:47Z</time></trkpt><trkpt lat="47.290650972219304" lon="8.716428972414146"><ele>477.6666666666667</ele><time>2026-04-25T19:36:48Z</time></trkpt><trkpt lat="47.29063260358723" lon="8.716308702908616"><ele>477.5</ele><time>2026-04-25T19:36:49Z</time></trkpt><trkpt lat="47.290611656137095" lon="8.716188478846878"><ele>477.33333333333337</ele><time>2026-04-25T19:36:50Z</time></trkpt><trkpt lat="47.29058917794155" lon="8.716069745628952"><ele>477.1666666666667</ele><time>2026-04-25T19:36:51Z</time></trkpt><trkpt lat="47.290566850772905" lon="8.715949917913735"><ele>477.0</ele><time>2026-04-25T19:36:52Z</time></trkpt><trkpt lat="47.29054456837514" lon="8.715831034689769"><ele>477.0</ele><time>2026-04-25T19:36:53Z</time></trkpt><trkpt lat="47.29053918851186" lon="8.715706074813683"><ele>477.0</ele><time>2026-04-25T19:36:54Z</time></trkpt><trkpt lat="47.290517707980555" lon="8.715587007689464"><ele>477.0</ele><time>2026-04-25T19:36:55Z</time></trkpt><trkpt lat="47.29049642223669" lon="8.715469020364143"><ele>477.0</ele><time>2026-04-25T19:36:56Z</time></trkpt><trkpt lat="47.290475059393735" lon="8.715350606306385"><ele>477.0</ele><time>2026-04-25T19:36:57Z</time></trkpt><trkpt lat="47.29043784705309" lon="8.71523751844726"><ele>477.0</ele><time>2026-04-25T19:36:58Z</time></trkpt><trkpt lat="47.29041301644711" lon="8.715125150357492"><ele>477.0</ele><time>2026-04-25T19:36:59Z</time></trkpt><trkpt lat="47.29037827493872" lon="8.715020239263865"><ele>477.0</ele><time>2026-04-25T19:37:00Z</time></trkpt><trkpt lat="47.29033888563971" lon="8.714916604433098"><ele>477.0</ele><time>2026-04-25T19:37:01Z</time></trkpt><trkpt lat="47.29029087805604" lon="8.714819863790163"><ele>477.0</ele><time>2026-04-25T19:37:02Z</time></trkpt><trkpt lat="47.29022758243305" lon="8.714739725665439"><ele>477.0</ele><time>2026-04-25T19:37:03Z</time></trkpt><trkpt lat="47.29015963212562" lon="8.714672094686492"><ele>477.0</ele><time>2026-04-25T19:37:04Z</time></trkpt><trkpt lat="47.290085978508266" lon="8.71461222443188"><ele>477.0</ele><time>2026-04-25T19:37:05Z</time></trkpt><trkpt lat="47.290005812687674" lon="8.714570754034678"><ele>477.0</ele><time>2026-04-25T19:37:06Z</time></trkpt><trkpt lat="47.28992084778646" lon="8.714541774662493"><ele>477.0</ele><time>2026-04-25T19:37:07Z</time></trkpt><trkpt lat="47.28983494637464" lon="8.714528810944685"><ele>477.0</ele><time>2026-04-25T19:37:08Z</time></trkpt><trkpt lat="47.289744566413624" lon="8.714519566344277"><ele>477.0</ele><time>2026-04-25T19:37:09Z</time></trkpt><trkpt lat="47.28965935993379" lon="8.714509277711963"><ele>477.0</ele><time>2026-04-25T19:37:10Z</time></trkpt><trkpt lat="47.28957524524133" lon="8.71449885540815"><ele>477.3333333333333</ele><time>2026-04-25T19:37:11Z</time></trkpt><trkpt lat="47.289496320437756" lon="8.714485466851201"><ele>477.66666666666663</ele><time>2026-04-25T19:37:12Z</time></trkpt><trkpt lat="47.28942538647843" lon="8.714458120374626"><ele>478.0</ele><time>2026-04-25T19:37:13Z</time></trkpt><trkpt lat="47.28936970758889" lon="8.71441192783583"><ele>478.3333333333333</ele><time>2026-04-25T19:37:14Z</time></trkpt><trkpt lat="47.289298395651194" lon="8.714324426839772"><ele>478.66666666666663</ele><time>2026-04-25T19:37:16Z</time></trkpt><trkpt lat="47.2891596813072" lon="8.714348228869472"><ele>479.0</ele><time>2026-04-25T19:37:18Z</time></trkpt><trkpt lat="47.2890487022561" lon="8.714353244627791"><ele>479.25</ele><time>2026-04-25T19:37:20Z</time></trkpt><trkpt lat="47.288933378591956" lon="8.714350226343553"><ele>479.5</ele><time>2026-04-25T19:37:22Z</time></trkpt><trkpt lat="47.2888151280351" lon="8.714328113381178"><ele>479.75</ele><time>2026-04-25T19:37:24Z</time></trkpt><trkpt lat="47.28871114311298" lon="8.714237480281414"><ele>480.0</ele><time>2026-04-25T19:37:26Z</time></trkpt><trkpt lat="47.28861804920104" lon="8.714112615581282"><ele>480.0</ele><time>2026-04-25T19:37:28Z</time></trkpt><trkpt lat="47.28856606361009" lon="8.714047353290372"><ele>480.0</ele><time>2026-04-25T19:37:29Z</time></trkpt><trkpt lat="47.28850171049668" lon="8.71400320011253"><ele>480.0</ele><time>2026-04-25T19:37:30Z</time></trkpt><trkpt lat="47.288448466730934" lon="8.713942374546752"><ele>480.0</ele><time>2026-04-25T19:37:31Z</time></trkpt><trkpt lat="47.28840466184248" lon="8.713863217489145"><ele>480.0</ele><time>2026-04-25T19:37:32Z</time></trkpt><trkpt lat="47.288352132217454" lon="8.713803667926584"><ele>480.0</ele><time>2026-04-25T19:37:33Z</time></trkpt><trkpt lat="47.28830047595799" lon="8.713745108290471"><ele>480.0</ele><time>2026-04-25T19:37:34Z</time></trkpt><trkpt lat="47.288199270703" lon="8.713634013182403"><ele>480.3333333333333</ele><time>2026-04-25T19:37:36Z</time></trkpt><trkpt lat="47.288084344161646" lon="8.713558818196923"><ele>480.66666666666663</ele><time>2026-04-25T19:37:38Z</time></trkpt><trkpt lat="47.28803313220871" lon="8.713490884652787"><ele>481.0</ele><time>2026-04-25T19:37:39Z</time></trkpt><trkpt lat="47.287970191205886" lon="8.713439818722964"><ele>481.3333333333333</ele><time>2026-04-25T19:37:40Z</time></trkpt><trkpt lat="47.287900702483014" lon="8.71339390449787"><ele>481.66666666666663</ele><time>2026-04-25T19:37:41Z</time></trkpt><trkpt lat="47.2878274870643" lon="8.713336947689376"><ele>482.0</ele><time>2026-04-25T19:37:42Z</time></trkpt><trkpt lat="47.28774093419638" lon="8.713298239247232"><ele>481.99999999999994</ele><time>2026-04-25T19:37:43Z</time></trkpt><trkpt lat="47.28765681759034" lon="8.71329802492961"><ele>482.0</ele><time>2026-04-25T19:37:44Z</time></trkpt><trkpt lat="47.28757023327827" lon="8.713285296480775"><ele>482.0</ele><time>2026-04-25T19:37:45Z</time></trkpt><trkpt lat="47.28748257553646" lon="8.713264274992577"><ele>482.0</ele><time>2026-04-25T19:37:46Z</time></trkpt><trkpt lat="47.28739837961408" lon="8.713285576549362"><ele>481.99999999999994</ele><time>2026-04-25T19:37:47Z</time></trkpt><trkpt lat="47.28731836624415" lon="8.713327102825998"><ele>482.0</ele><time>2026-04-25T19:37:48Z</time></trkpt><trkpt lat="47.287232316392426" lon="8.713340107364571"><ele>485.0</ele><time>2026-04-25T19:37:49Z</time></trkpt><trkpt lat="47.28715329604236" lon="8.713352768701228"><ele>485.0</ele><time>2026-04-25T19:37:50Z</time></trkpt><trkpt lat="47.28708626547585" lon="8.713364611380797"><ele>485.0</ele><time>2026-04-25T19:37:51Z</time></trkpt><trkpt lat="47.28700457217674" lon="8.713388303286559"><ele>485.0</ele><time>2026-04-25T19:37:53Z</time></trkpt><trkpt lat="47.2869369432483" lon="8.713379339006261"><ele>485.0</ele><time>2026-04-25T19:38:20Z</time></trkpt><trkpt lat="47.28702917741049" lon="8.713323416965606"><ele>485.0</ele><time>2026-04-25T19:39:15.602Z</time></trkpt></trkseg></trk></gpx>